<?xml version="1.0" encoding="UTF-8" standalone="no" ?>
<gpx xmlns="http://www.topografix.com/GPX/1/1" xmlns:xsi="http://www.w3.org/2001/XMLSchema-instance" xsi:schemaLocation="http://www.topografix.com/GPX/1/1 http://www.topografix.com/GPX/1/1/gpx.xsd" version="1.1" creator="VisuGPX - https://www.visugpx.com">
  <metadata>
    <name>UT4M - chartreuse</name>
    <desc><![CDATA[relais 4 UT4M]]></desc>
  </metadata>
  <trk>
    <name><![CDATA[2016-08-20-11-00-14-course on GPSies.com]]></name>
    <trkseg>
      <trkpt lat="45.24906" lon="5.85147">
        <ele>287</ele>
        <time>2016-08-20T04:28:11Z</time>
      </trkpt>
      <trkpt lat="45.24907" lon="5.85146">
        <ele>297</ele>
        <time>2016-08-20T04:28:12Z</time>
      </trkpt>
      <trkpt lat="45.24909" lon="5.85144">
        <ele>297</ele>
        <time>2016-08-20T04:28:13Z</time>
      </trkpt>
      <trkpt lat="45.24911" lon="5.85142">
        <ele>297</ele>
        <time>2016-08-20T04:28:14Z</time>
      </trkpt>
      <trkpt lat="45.24914" lon="5.85138">
        <ele>287</ele>
        <time>2016-08-20T04:28:16Z</time>
      </trkpt>
      <trkpt lat="45.24916" lon="5.85137">
        <ele>287</ele>
        <time>2016-08-20T04:28:17Z</time>
      </trkpt>
      <trkpt lat="45.24939" lon="5.85131">
        <ele>288</ele>
        <time>2016-08-20T04:28:26Z</time>
      </trkpt>
      <trkpt lat="45.2496" lon="5.85133">
        <ele>290</ele>
        <time>2016-08-20T04:28:33Z</time>
      </trkpt>
      <trkpt lat="45.24981" lon="5.85133">
        <ele>291</ele>
        <time>2016-08-20T04:28:40Z</time>
      </trkpt>
      <trkpt lat="45.25002" lon="5.85137">
        <ele>292</ele>
        <time>2016-08-20T04:28:48Z</time>
      </trkpt>
      <trkpt lat="45.25022" lon="5.85141">
        <ele>292</ele>
        <time>2016-08-20T04:28:56Z</time>
      </trkpt>
      <trkpt lat="45.25041" lon="5.85142">
        <ele>295</ele>
        <time>2016-08-20T04:29:03Z</time>
      </trkpt>
      <trkpt lat="45.25059" lon="5.85144">
        <ele>296</ele>
        <time>2016-08-20T04:29:10Z</time>
      </trkpt>
      <trkpt lat="45.25077" lon="5.85145">
        <ele>297</ele>
        <time>2016-08-20T04:29:17Z</time>
      </trkpt>
      <trkpt lat="45.25096" lon="5.85142">
        <ele>299</ele>
        <time>2016-08-20T04:29:25Z</time>
      </trkpt>
      <trkpt lat="45.25105" lon="5.85138">
        <ele>300</ele>
        <time>2016-08-20T04:29:30Z</time>
      </trkpt>
      <trkpt lat="45.251" lon="5.85141">
        <ele>300</ele>
        <time>2016-08-20T04:29:31Z</time>
      </trkpt>
      <trkpt lat="45.251" lon="5.85137">
        <ele>300</ele>
        <time>2016-08-20T04:29:32Z</time>
      </trkpt>
      <trkpt lat="45.251" lon="5.85133">
        <ele>300</ele>
        <time>2016-08-20T04:29:33Z</time>
      </trkpt>
      <trkpt lat="45.25099" lon="5.8513">
        <ele>300</ele>
        <time>2016-08-20T04:29:34Z</time>
      </trkpt>
      <trkpt lat="45.25098" lon="5.85127">
        <ele>300</ele>
        <time>2016-08-20T04:29:35Z</time>
      </trkpt>
      <trkpt lat="45.25097" lon="5.85124">
        <ele>300</ele>
        <time>2016-08-20T04:29:36Z</time>
      </trkpt>
      <trkpt lat="45.25086" lon="5.85101">
        <ele>300</ele>
        <time>2016-08-20T04:29:43Z</time>
      </trkpt>
      <trkpt lat="45.25072" lon="5.85083">
        <ele>300</ele>
        <time>2016-08-20T04:29:50Z</time>
      </trkpt>
      <trkpt lat="45.25056" lon="5.85064">
        <ele>300</ele>
        <time>2016-08-20T04:29:57Z</time>
      </trkpt>
      <trkpt lat="45.25041" lon="5.85045">
        <ele>300</ele>
        <time>2016-08-20T04:30:04Z</time>
      </trkpt>
      <trkpt lat="45.25027" lon="5.85023">
        <ele>300</ele>
        <time>2016-08-20T04:30:11Z</time>
      </trkpt>
      <trkpt lat="45.25016" lon="5.84999">
        <ele>300</ele>
        <time>2016-08-20T04:30:18Z</time>
      </trkpt>
      <trkpt lat="45.25007" lon="5.8497">
        <ele>301</ele>
        <time>2016-08-20T04:30:25Z</time>
      </trkpt>
      <trkpt lat="45.25007" lon="5.8494">
        <ele>301</ele>
        <time>2016-08-20T04:30:32Z</time>
      </trkpt>
      <trkpt lat="45.25014" lon="5.8491">
        <ele>301</ele>
        <time>2016-08-20T04:30:39Z</time>
      </trkpt>
      <trkpt lat="45.25027" lon="5.84882">
        <ele>301</ele>
        <time>2016-08-20T04:30:46Z</time>
      </trkpt>
      <trkpt lat="45.2504" lon="5.84854">
        <ele>300</ele>
        <time>2016-08-20T04:30:53Z</time>
      </trkpt>
      <trkpt lat="45.2505" lon="5.84827">
        <ele>300</ele>
        <time>2016-08-20T04:31:00Z</time>
      </trkpt>
      <trkpt lat="45.25061" lon="5.84801">
        <ele>300</ele>
        <time>2016-08-20T04:31:07Z</time>
      </trkpt>
      <trkpt lat="45.25071" lon="5.84777">
        <ele>301</ele>
        <time>2016-08-20T04:31:14Z</time>
      </trkpt>
      <trkpt lat="45.2508" lon="5.84751">
        <ele>301</ele>
        <time>2016-08-20T04:31:21Z</time>
      </trkpt>
      <trkpt lat="45.25088" lon="5.84726">
        <ele>302</ele>
        <time>2016-08-20T04:31:28Z</time>
      </trkpt>
      <trkpt lat="45.25098" lon="5.84701">
        <ele>303</ele>
        <time>2016-08-20T04:31:35Z</time>
      </trkpt>
      <trkpt lat="45.25111" lon="5.84678">
        <ele>304</ele>
        <time>2016-08-20T04:31:43Z</time>
      </trkpt>
      <trkpt lat="45.25127" lon="5.84657">
        <ele>306</ele>
        <time>2016-08-20T04:31:51Z</time>
      </trkpt>
      <trkpt lat="45.25145" lon="5.84642">
        <ele>308</ele>
        <time>2016-08-20T04:31:59Z</time>
      </trkpt>
      <trkpt lat="45.25161" lon="5.84627">
        <ele>309</ele>
        <time>2016-08-20T04:32:07Z</time>
      </trkpt>
      <trkpt lat="45.25178" lon="5.84613">
        <ele>311</ele>
        <time>2016-08-20T04:32:15Z</time>
      </trkpt>
      <trkpt lat="45.25196" lon="5.84604">
        <ele>313</ele>
        <time>2016-08-20T04:32:24Z</time>
      </trkpt>
      <trkpt lat="45.25214" lon="5.84595">
        <ele>314</ele>
        <time>2016-08-20T04:32:32Z</time>
      </trkpt>
      <trkpt lat="45.25232" lon="5.84583">
        <ele>316</ele>
        <time>2016-08-20T04:32:40Z</time>
      </trkpt>
      <trkpt lat="45.2525" lon="5.84576">
        <ele>317</ele>
        <time>2016-08-20T04:32:48Z</time>
      </trkpt>
      <trkpt lat="45.25268" lon="5.84568">
        <ele>319</ele>
        <time>2016-08-20T04:32:56Z</time>
      </trkpt>
      <trkpt lat="45.25285" lon="5.84561">
        <ele>320</ele>
        <time>2016-08-20T04:33:04Z</time>
      </trkpt>
      <trkpt lat="45.25304" lon="5.84551">
        <ele>322</ele>
        <time>2016-08-20T04:33:13Z</time>
      </trkpt>
      <trkpt lat="45.25322" lon="5.84542">
        <ele>325</ele>
        <time>2016-08-20T04:33:22Z</time>
      </trkpt>
      <trkpt lat="45.2534" lon="5.84531">
        <ele>326</ele>
        <time>2016-08-20T04:33:31Z</time>
      </trkpt>
      <trkpt lat="45.25357" lon="5.84518">
        <ele>328</ele>
        <time>2016-08-20T04:33:40Z</time>
      </trkpt>
      <trkpt lat="45.25376" lon="5.84504">
        <ele>330</ele>
        <time>2016-08-20T04:33:49Z</time>
      </trkpt>
      <trkpt lat="45.25393" lon="5.84491">
        <ele>331</ele>
        <time>2016-08-20T04:33:58Z</time>
      </trkpt>
      <trkpt lat="45.25411" lon="5.84478">
        <ele>333</ele>
        <time>2016-08-20T04:34:07Z</time>
      </trkpt>
      <trkpt lat="45.2543" lon="5.84468">
        <ele>335</ele>
        <time>2016-08-20T04:34:16Z</time>
      </trkpt>
      <trkpt lat="45.25449" lon="5.84465">
        <ele>337</ele>
        <time>2016-08-20T04:34:24Z</time>
      </trkpt>
      <trkpt lat="45.25469" lon="5.8447">
        <ele>338</ele>
        <time>2016-08-20T04:34:33Z</time>
      </trkpt>
      <trkpt lat="45.25486" lon="5.84482">
        <ele>339</ele>
        <time>2016-08-20T04:34:42Z</time>
      </trkpt>
      <trkpt lat="45.25505" lon="5.84493">
        <ele>341</ele>
        <time>2016-08-20T04:34:51Z</time>
      </trkpt>
      <trkpt lat="45.25523" lon="5.84502">
        <ele>342</ele>
        <time>2016-08-20T04:34:59Z</time>
      </trkpt>
      <trkpt lat="45.25541" lon="5.84493">
        <ele>344</ele>
        <time>2016-08-20T04:35:08Z</time>
      </trkpt>
      <trkpt lat="45.25557" lon="5.84482">
        <ele>346</ele>
        <time>2016-08-20T04:35:17Z</time>
      </trkpt>
      <trkpt lat="45.25575" lon="5.84465">
        <ele>348</ele>
        <time>2016-08-20T04:35:26Z</time>
      </trkpt>
      <trkpt lat="45.25592" lon="5.8445">
        <ele>350</ele>
        <time>2016-08-20T04:35:35Z</time>
      </trkpt>
      <trkpt lat="45.25607" lon="5.84434">
        <ele>351</ele>
        <time>2016-08-20T04:35:44Z</time>
      </trkpt>
      <trkpt lat="45.25623" lon="5.8442">
        <ele>353</ele>
        <time>2016-08-20T04:35:53Z</time>
      </trkpt>
      <trkpt lat="45.25639" lon="5.84405">
        <ele>355</ele>
        <time>2016-08-20T04:36:02Z</time>
      </trkpt>
      <trkpt lat="45.25657" lon="5.84395">
        <ele>357</ele>
        <time>2016-08-20T04:36:11Z</time>
      </trkpt>
      <trkpt lat="45.25674" lon="5.84379">
        <ele>359</ele>
        <time>2016-08-20T04:36:21Z</time>
      </trkpt>
      <trkpt lat="45.2569" lon="5.84363">
        <ele>361</ele>
        <time>2016-08-20T04:36:30Z</time>
      </trkpt>
      <trkpt lat="45.25707" lon="5.84349">
        <ele>362</ele>
        <time>2016-08-20T04:36:39Z</time>
      </trkpt>
      <trkpt lat="45.25724" lon="5.84338">
        <ele>364</ele>
        <time>2016-08-20T04:36:48Z</time>
      </trkpt>
      <trkpt lat="45.25741" lon="5.84329">
        <ele>366</ele>
        <time>2016-08-20T04:36:57Z</time>
      </trkpt>
      <trkpt lat="45.2576" lon="5.84324">
        <ele>368</ele>
        <time>2016-08-20T04:37:06Z</time>
      </trkpt>
      <trkpt lat="45.2578" lon="5.84326">
        <ele>370</ele>
        <time>2016-08-20T04:37:15Z</time>
      </trkpt>
      <trkpt lat="45.25801" lon="5.84324">
        <ele>372</ele>
        <time>2016-08-20T04:37:25Z</time>
      </trkpt>
      <trkpt lat="45.25817" lon="5.8431">
        <ele>374</ele>
        <time>2016-08-20T04:37:35Z</time>
      </trkpt>
      <trkpt lat="45.25831" lon="5.84292">
        <ele>376</ele>
        <time>2016-08-20T04:37:44Z</time>
      </trkpt>
      <trkpt lat="45.25845" lon="5.84274">
        <ele>378</ele>
        <time>2016-08-20T04:37:54Z</time>
      </trkpt>
      <trkpt lat="45.2586" lon="5.8426">
        <ele>380</ele>
        <time>2016-08-20T04:38:04Z</time>
      </trkpt>
      <trkpt lat="45.25878" lon="5.84248">
        <ele>382</ele>
        <time>2016-08-20T04:38:14Z</time>
      </trkpt>
      <trkpt lat="45.25897" lon="5.84239">
        <ele>384</ele>
        <time>2016-08-20T04:38:24Z</time>
      </trkpt>
      <trkpt lat="45.25915" lon="5.8423">
        <ele>386</ele>
        <time>2016-08-20T04:38:34Z</time>
      </trkpt>
      <trkpt lat="45.25934" lon="5.84223">
        <ele>388</ele>
        <time>2016-08-20T04:38:44Z</time>
      </trkpt>
      <trkpt lat="45.25951" lon="5.84213">
        <ele>390</ele>
        <time>2016-08-20T04:38:54Z</time>
      </trkpt>
      <trkpt lat="45.25969" lon="5.84204">
        <ele>392</ele>
        <time>2016-08-20T04:39:04Z</time>
      </trkpt>
      <trkpt lat="45.25988" lon="5.84194">
        <ele>395</ele>
        <time>2016-08-20T04:39:15Z</time>
      </trkpt>
      <trkpt lat="45.26005" lon="5.84185">
        <ele>397</ele>
        <time>2016-08-20T04:39:25Z</time>
      </trkpt>
      <trkpt lat="45.26024" lon="5.84181">
        <ele>399</ele>
        <time>2016-08-20T04:39:35Z</time>
      </trkpt>
      <trkpt lat="45.26042" lon="5.84171">
        <ele>401</ele>
        <time>2016-08-20T04:39:46Z</time>
      </trkpt>
      <trkpt lat="45.26059" lon="5.8416">
        <ele>403</ele>
        <time>2016-08-20T04:39:56Z</time>
      </trkpt>
      <trkpt lat="45.26077" lon="5.84149">
        <ele>405</ele>
        <time>2016-08-20T04:40:06Z</time>
      </trkpt>
      <trkpt lat="45.26095" lon="5.8414">
        <ele>407</ele>
        <time>2016-08-20T04:40:16Z</time>
      </trkpt>
      <trkpt lat="45.26113" lon="5.8413">
        <ele>410</ele>
        <time>2016-08-20T04:40:27Z</time>
      </trkpt>
      <trkpt lat="45.26125" lon="5.84125">
        <ele>412</ele>
        <time>2016-08-20T04:40:35Z</time>
      </trkpt>
      <trkpt lat="45.26126" lon="5.84124">
        <ele>412</ele>
        <time>2016-08-20T04:40:36Z</time>
      </trkpt>
      <trkpt lat="45.26126" lon="5.84122">
        <ele>412</ele>
        <time>2016-08-20T04:40:37Z</time>
      </trkpt>
      <trkpt lat="45.26125" lon="5.8412">
        <ele>413</ele>
        <time>2016-08-20T04:40:38Z</time>
      </trkpt>
      <trkpt lat="45.26123" lon="5.84117">
        <ele>413</ele>
        <time>2016-08-20T04:40:39Z</time>
      </trkpt>
      <trkpt lat="45.26122" lon="5.84114">
        <ele>413</ele>
        <time>2016-08-20T04:40:40Z</time>
      </trkpt>
      <trkpt lat="45.2612" lon="5.84111">
        <ele>413</ele>
        <time>2016-08-20T04:40:41Z</time>
      </trkpt>
      <trkpt lat="45.26108" lon="5.84088">
        <ele>413</ele>
        <time>2016-08-20T04:40:49Z</time>
      </trkpt>
      <trkpt lat="45.26099" lon="5.8406">
        <ele>413</ele>
        <time>2016-08-20T04:40:58Z</time>
      </trkpt>
      <trkpt lat="45.2609" lon="5.84035">
        <ele>413</ele>
        <time>2016-08-20T04:41:06Z</time>
      </trkpt>
      <trkpt lat="45.26081" lon="5.8401">
        <ele>413</ele>
        <time>2016-08-20T04:41:14Z</time>
      </trkpt>
      <trkpt lat="45.26071" lon="5.83985">
        <ele>412</ele>
        <time>2016-08-20T04:41:22Z</time>
      </trkpt>
      <trkpt lat="45.26062" lon="5.83961">
        <ele>413</ele>
        <time>2016-08-20T04:41:30Z</time>
      </trkpt>
      <trkpt lat="45.26051" lon="5.83938">
        <ele>413</ele>
        <time>2016-08-20T04:41:38Z</time>
      </trkpt>
      <trkpt lat="45.26038" lon="5.83915">
        <ele>413</ele>
        <time>2016-08-20T04:41:46Z</time>
      </trkpt>
      <trkpt lat="45.26029" lon="5.8389">
        <ele>413</ele>
        <time>2016-08-20T04:41:54Z</time>
      </trkpt>
      <trkpt lat="45.26023" lon="5.83862">
        <ele>412</ele>
        <time>2016-08-20T04:42:03Z</time>
      </trkpt>
      <trkpt lat="45.26018" lon="5.83834">
        <ele>413</ele>
        <time>2016-08-20T04:42:11Z</time>
      </trkpt>
      <trkpt lat="45.26012" lon="5.83806">
        <ele>413</ele>
        <time>2016-08-20T04:42:19Z</time>
      </trkpt>
      <trkpt lat="45.26012" lon="5.83792">
        <ele>414</ele>
        <time>2016-08-20T04:42:23Z</time>
      </trkpt>
      <trkpt lat="45.26013" lon="5.83789">
        <ele>414</ele>
        <time>2016-08-20T04:42:24Z</time>
      </trkpt>
      <trkpt lat="45.26014" lon="5.83785">
        <ele>414</ele>
        <time>2016-08-20T04:42:25Z</time>
      </trkpt>
      <trkpt lat="45.26015" lon="5.83782">
        <ele>414</ele>
        <time>2016-08-20T04:42:26Z</time>
      </trkpt>
      <trkpt lat="45.26017" lon="5.8378">
        <ele>414</ele>
        <time>2016-08-20T04:42:27Z</time>
      </trkpt>
      <trkpt lat="45.26019" lon="5.83779">
        <ele>414</ele>
        <time>2016-08-20T04:42:28Z</time>
      </trkpt>
      <trkpt lat="45.26021" lon="5.83778">
        <ele>414</ele>
        <time>2016-08-20T04:42:29Z</time>
      </trkpt>
      <trkpt lat="45.26023" lon="5.83778">
        <ele>414</ele>
        <time>2016-08-20T04:42:30Z</time>
      </trkpt>
      <trkpt lat="45.26026" lon="5.83778">
        <ele>415</ele>
        <time>2016-08-20T04:42:31Z</time>
      </trkpt>
      <trkpt lat="45.26046" lon="5.83775">
        <ele>416</ele>
        <time>2016-08-20T04:42:40Z</time>
      </trkpt>
      <trkpt lat="45.26065" lon="5.83766">
        <ele>419</ele>
        <time>2016-08-20T04:42:50Z</time>
      </trkpt>
      <trkpt lat="45.26082" lon="5.8376">
        <ele>421</ele>
        <time>2016-08-20T04:43:00Z</time>
      </trkpt>
      <trkpt lat="45.261" lon="5.83752">
        <ele>423</ele>
        <time>2016-08-20T04:43:11Z</time>
      </trkpt>
      <trkpt lat="45.26109" lon="5.8375">
        <ele>425</ele>
        <time>2016-08-20T04:43:18Z</time>
      </trkpt>
      <trkpt lat="45.26111" lon="5.8375">
        <ele>425</ele>
        <time>2016-08-20T04:43:19Z</time>
      </trkpt>
      <trkpt lat="45.26114" lon="5.83751">
        <ele>425</ele>
        <time>2016-08-20T04:43:20Z</time>
      </trkpt>
      <trkpt lat="45.26115" lon="5.83753">
        <ele>425</ele>
        <time>2016-08-20T04:43:21Z</time>
      </trkpt>
      <trkpt lat="45.26116" lon="5.83755">
        <ele>426</ele>
        <time>2016-08-20T04:43:22Z</time>
      </trkpt>
      <trkpt lat="45.26131" lon="5.83778">
        <ele>427</ele>
        <time>2016-08-20T04:43:32Z</time>
      </trkpt>
      <trkpt lat="45.26134" lon="5.83781">
        <ele>428</ele>
        <time>2016-08-20T04:43:35Z</time>
      </trkpt>
      <trkpt lat="45.26135" lon="5.83781">
        <ele>428</ele>
        <time>2016-08-20T04:43:36Z</time>
      </trkpt>
      <trkpt lat="45.26137" lon="5.83781">
        <ele>428</ele>
        <time>2016-08-20T04:43:37Z</time>
      </trkpt>
      <trkpt lat="45.26139" lon="5.8378">
        <ele>429</ele>
        <time>2016-08-20T04:43:38Z</time>
      </trkpt>
      <trkpt lat="45.26141" lon="5.8378">
        <ele>429</ele>
        <time>2016-08-20T04:43:39Z</time>
      </trkpt>
      <trkpt lat="45.26159" lon="5.83773">
        <ele>431</ele>
        <time>2016-08-20T04:43:51Z</time>
      </trkpt>
      <trkpt lat="45.26179" lon="5.83765">
        <ele>434</ele>
        <time>2016-08-20T04:44:04Z</time>
      </trkpt>
      <trkpt lat="45.26202" lon="5.83759">
        <ele>437</ele>
        <time>2016-08-20T04:44:18Z</time>
      </trkpt>
      <trkpt lat="45.26223" lon="5.83752">
        <ele>439</ele>
        <time>2016-08-20T04:44:29Z</time>
      </trkpt>
      <trkpt lat="45.26244" lon="5.83746">
        <ele>441</ele>
        <time>2016-08-20T04:44:39Z</time>
      </trkpt>
      <trkpt lat="45.26264" lon="5.83741">
        <ele>444</ele>
        <time>2016-08-20T04:44:51Z</time>
      </trkpt>
      <trkpt lat="45.26284" lon="5.83735">
        <ele>447</ele>
        <time>2016-08-20T04:45:05Z</time>
      </trkpt>
      <trkpt lat="45.26305" lon="5.83728">
        <ele>449</ele>
        <time>2016-08-20T04:45:17Z</time>
      </trkpt>
      <trkpt lat="45.26309" lon="5.83724">
        <ele>450</ele>
        <time>2016-08-20T04:45:20Z</time>
      </trkpt>
      <trkpt lat="45.26309" lon="5.83722">
        <ele>450</ele>
        <time>2016-08-20T04:45:21Z</time>
      </trkpt>
      <trkpt lat="45.26308" lon="5.83715">
        <ele>450</ele>
        <time>2016-08-20T04:45:23Z</time>
      </trkpt>
      <trkpt lat="45.26308" lon="5.83712">
        <ele>450</ele>
        <time>2016-08-20T04:45:24Z</time>
      </trkpt>
      <trkpt lat="45.26304" lon="5.83685">
        <ele>450</ele>
        <time>2016-08-20T04:45:33Z</time>
      </trkpt>
      <trkpt lat="45.26298" lon="5.83656">
        <ele>450</ele>
        <time>2016-08-20T04:45:42Z</time>
      </trkpt>
      <trkpt lat="45.263" lon="5.83629">
        <ele>449</ele>
        <time>2016-08-20T04:45:51Z</time>
      </trkpt>
      <trkpt lat="45.26297" lon="5.83629">
        <ele>449</ele>
        <time>2016-08-20T04:45:52Z</time>
      </trkpt>
      <trkpt lat="45.26296" lon="5.83629">
        <ele>449</ele>
        <time>2016-08-20T04:45:53Z</time>
      </trkpt>
      <trkpt lat="45.26294" lon="5.83628">
        <ele>449</ele>
        <time>2016-08-20T04:45:54Z</time>
      </trkpt>
      <trkpt lat="45.26292" lon="5.83627">
        <ele>449</ele>
        <time>2016-08-20T04:45:55Z</time>
      </trkpt>
      <trkpt lat="45.26291" lon="5.83625">
        <ele>449</ele>
        <time>2016-08-20T04:45:56Z</time>
      </trkpt>
      <trkpt lat="45.2629" lon="5.83622">
        <ele>449</ele>
        <time>2016-08-20T04:45:57Z</time>
      </trkpt>
      <trkpt lat="45.2629" lon="5.83619">
        <ele>449</ele>
        <time>2016-08-20T04:45:58Z</time>
      </trkpt>
      <trkpt lat="45.26291" lon="5.83617">
        <ele>450</ele>
        <time>2016-08-20T04:45:59Z</time>
      </trkpt>
      <trkpt lat="45.26292" lon="5.83614">
        <ele>450</ele>
        <time>2016-08-20T04:46:00Z</time>
      </trkpt>
      <trkpt lat="45.26293" lon="5.83612">
        <ele>450</ele>
        <time>2016-08-20T04:46:01Z</time>
      </trkpt>
      <trkpt lat="45.26295" lon="5.83609">
        <ele>450</ele>
        <time>2016-08-20T04:46:02Z</time>
      </trkpt>
      <trkpt lat="45.26297" lon="5.83608">
        <ele>450</ele>
        <time>2016-08-20T04:46:03Z</time>
      </trkpt>
      <trkpt lat="45.26298" lon="5.83606">
        <ele>450</ele>
        <time>2016-08-20T04:46:04Z</time>
      </trkpt>
      <trkpt lat="45.263" lon="5.83606">
        <ele>450</ele>
        <time>2016-08-20T04:46:05Z</time>
      </trkpt>
      <trkpt lat="45.26302" lon="5.83605">
        <ele>450</ele>
        <time>2016-08-20T04:46:06Z</time>
      </trkpt>
      <trkpt lat="45.26304" lon="5.83605">
        <ele>451</ele>
        <time>2016-08-20T04:46:07Z</time>
      </trkpt>
      <trkpt lat="45.26306" lon="5.83605">
        <ele>451</ele>
        <time>2016-08-20T04:46:08Z</time>
      </trkpt>
      <trkpt lat="45.26308" lon="5.83604">
        <ele>451</ele>
        <time>2016-08-20T04:46:09Z</time>
      </trkpt>
      <trkpt lat="45.2631" lon="5.83604">
        <ele>451</ele>
        <time>2016-08-20T04:46:10Z</time>
      </trkpt>
      <trkpt lat="45.26312" lon="5.83603">
        <ele>451</ele>
        <time>2016-08-20T04:46:11Z</time>
      </trkpt>
      <trkpt lat="45.2633" lon="5.83593">
        <ele>453</ele>
        <time>2016-08-20T04:46:22Z</time>
      </trkpt>
      <trkpt lat="45.26348" lon="5.83579">
        <ele>456</ele>
        <time>2016-08-20T04:46:34Z</time>
      </trkpt>
      <trkpt lat="45.26369" lon="5.83567">
        <ele>459</ele>
        <time>2016-08-20T04:46:47Z</time>
      </trkpt>
      <trkpt lat="45.26389" lon="5.83558">
        <ele>461</ele>
        <time>2016-08-20T04:46:57Z</time>
      </trkpt>
      <trkpt lat="45.26407" lon="5.83543">
        <ele>464</ele>
        <time>2016-08-20T04:47:10Z</time>
      </trkpt>
      <trkpt lat="45.26427" lon="5.83534">
        <ele>467</ele>
        <time>2016-08-20T04:47:24Z</time>
      </trkpt>
      <trkpt lat="45.26448" lon="5.83526">
        <ele>470</ele>
        <time>2016-08-20T04:47:37Z</time>
      </trkpt>
      <trkpt lat="45.26469" lon="5.83519">
        <ele>472</ele>
        <time>2016-08-20T04:47:48Z</time>
      </trkpt>
      <trkpt lat="45.26485" lon="5.83508">
        <ele>474</ele>
        <time>2016-08-20T04:48:00Z</time>
      </trkpt>
      <trkpt lat="45.26504" lon="5.83496">
        <ele>477</ele>
        <time>2016-08-20T04:48:12Z</time>
      </trkpt>
      <trkpt lat="45.26522" lon="5.83484">
        <ele>480</ele>
        <time>2016-08-20T04:48:27Z</time>
      </trkpt>
      <trkpt lat="45.2654" lon="5.83479">
        <ele>483</ele>
        <time>2016-08-20T04:48:42Z</time>
      </trkpt>
      <trkpt lat="45.26565" lon="5.83467">
        <ele>486</ele>
        <time>2016-08-20T04:48:55Z</time>
      </trkpt>
      <trkpt lat="45.26585" lon="5.83452">
        <ele>489</ele>
        <time>2016-08-20T04:49:09Z</time>
      </trkpt>
      <trkpt lat="45.26604" lon="5.83437">
        <ele>492</ele>
        <time>2016-08-20T04:49:23Z</time>
      </trkpt>
      <trkpt lat="45.26623" lon="5.83426">
        <ele>495</ele>
        <time>2016-08-20T04:49:38Z</time>
      </trkpt>
      <trkpt lat="45.26644" lon="5.83417">
        <ele>498</ele>
        <time>2016-08-20T04:49:52Z</time>
      </trkpt>
      <trkpt lat="45.26664" lon="5.83411">
        <ele>501</ele>
        <time>2016-08-20T04:50:06Z</time>
      </trkpt>
      <trkpt lat="45.26684" lon="5.83403">
        <ele>503</ele>
        <time>2016-08-20T04:50:19Z</time>
      </trkpt>
      <trkpt lat="45.26704" lon="5.83387">
        <ele>505</ele>
        <time>2016-08-20T04:50:32Z</time>
      </trkpt>
      <trkpt lat="45.26722" lon="5.83368">
        <ele>508</ele>
        <time>2016-08-20T04:50:46Z</time>
      </trkpt>
      <trkpt lat="45.26725" lon="5.83366">
        <ele>509</ele>
        <time>2016-08-20T04:50:49Z</time>
      </trkpt>
      <trkpt lat="45.26726" lon="5.83365">
        <ele>509</ele>
        <time>2016-08-20T04:50:50Z</time>
      </trkpt>
      <trkpt lat="45.26748" lon="5.83342">
        <ele>511</ele>
        <time>2016-08-20T04:51:04Z</time>
      </trkpt>
      <trkpt lat="45.26765" lon="5.83324">
        <ele>514</ele>
        <time>2016-08-20T04:51:16Z</time>
      </trkpt>
      <trkpt lat="45.26779" lon="5.83313">
        <ele>517</ele>
        <time>2016-08-20T04:51:28Z</time>
      </trkpt>
      <trkpt lat="45.26795" lon="5.83306">
        <ele>520</ele>
        <time>2016-08-20T04:51:40Z</time>
      </trkpt>
      <trkpt lat="45.26799" lon="5.83299">
        <ele>521</ele>
        <time>2016-08-20T04:51:44Z</time>
      </trkpt>
      <trkpt lat="45.268" lon="5.83297">
        <ele>522</ele>
        <time>2016-08-20T04:51:45Z</time>
      </trkpt>
      <trkpt lat="45.268" lon="5.83296">
        <ele>522</ele>
        <time>2016-08-20T04:51:46Z</time>
      </trkpt>
      <trkpt lat="45.26798" lon="5.83294">
        <ele>522</ele>
        <time>2016-08-20T04:51:48Z</time>
      </trkpt>
      <trkpt lat="45.26798" lon="5.83294">
        <ele>522</ele>
        <time>2016-08-20T04:51:49Z</time>
      </trkpt>
      <trkpt lat="45.26793" lon="5.83293">
        <ele>524</ele>
        <time>2016-08-20T04:51:53Z</time>
      </trkpt>
      <trkpt lat="45.2679" lon="5.83293">
        <ele>525</ele>
        <time>2016-08-20T04:51:56Z</time>
      </trkpt>
      <trkpt lat="45.26789" lon="5.83292">
        <ele>525</ele>
        <time>2016-08-20T04:51:57Z</time>
      </trkpt>
      <trkpt lat="45.26788" lon="5.83291">
        <ele>525</ele>
        <time>2016-08-20T04:51:58Z</time>
      </trkpt>
      <trkpt lat="45.26787" lon="5.8329">
        <ele>526</ele>
        <time>2016-08-20T04:51:59Z</time>
      </trkpt>
      <trkpt lat="45.26785" lon="5.83288">
        <ele>526</ele>
        <time>2016-08-20T04:52:00Z</time>
      </trkpt>
      <trkpt lat="45.26785" lon="5.83285">
        <ele>526</ele>
        <time>2016-08-20T04:52:01Z</time>
      </trkpt>
      <trkpt lat="45.26784" lon="5.83283">
        <ele>526</ele>
        <time>2016-08-20T04:52:02Z</time>
      </trkpt>
      <trkpt lat="45.26784" lon="5.83281">
        <ele>527</ele>
        <time>2016-08-20T04:52:03Z</time>
      </trkpt>
      <trkpt lat="45.26783" lon="5.83278">
        <ele>527</ele>
        <time>2016-08-20T04:52:04Z</time>
      </trkpt>
      <trkpt lat="45.26782" lon="5.83273">
        <ele>528</ele>
        <time>2016-08-20T04:52:06Z</time>
      </trkpt>
      <trkpt lat="45.26782" lon="5.83271">
        <ele>528</ele>
        <time>2016-08-20T04:52:07Z</time>
      </trkpt>
      <trkpt lat="45.26786" lon="5.83262">
        <ele>530</ele>
        <time>2016-08-20T04:52:14Z</time>
      </trkpt>
      <trkpt lat="45.26788" lon="5.8326">
        <ele>530</ele>
        <time>2016-08-20T04:52:16Z</time>
      </trkpt>
      <trkpt lat="45.26788" lon="5.83259">
        <ele>531</ele>
        <time>2016-08-20T04:52:17Z</time>
      </trkpt>
      <trkpt lat="45.26789" lon="5.83258">
        <ele>531</ele>
        <time>2016-08-20T04:52:18Z</time>
      </trkpt>
      <trkpt lat="45.26797" lon="5.83247">
        <ele>534</ele>
        <time>2016-08-20T04:52:29Z</time>
      </trkpt>
      <trkpt lat="45.26798" lon="5.83247">
        <ele>535</ele>
        <time>2016-08-20T04:52:30Z</time>
      </trkpt>
      <trkpt lat="45.26798" lon="5.83246">
        <ele>535</ele>
        <time>2016-08-20T04:52:31Z</time>
      </trkpt>
      <trkpt lat="45.26806" lon="5.83238">
        <ele>538</ele>
        <time>2016-08-20T04:52:43Z</time>
      </trkpt>
      <trkpt lat="45.26813" lon="5.83229">
        <ele>541</ele>
        <time>2016-08-20T04:52:55Z</time>
      </trkpt>
      <trkpt lat="45.26828" lon="5.83226">
        <ele>544</ele>
        <time>2016-08-20T04:53:08Z</time>
      </trkpt>
      <trkpt lat="45.26834" lon="5.83226">
        <ele>547</ele>
        <time>2016-08-20T04:53:17Z</time>
      </trkpt>
      <trkpt lat="45.26837" lon="5.83224">
        <ele>547</ele>
        <time>2016-08-20T04:53:21Z</time>
      </trkpt>
      <trkpt lat="45.26849" lon="5.83218">
        <ele>550</ele>
        <time>2016-08-20T04:53:32Z</time>
      </trkpt>
      <trkpt lat="45.26852" lon="5.83217">
        <ele>551</ele>
        <time>2016-08-20T04:53:35Z</time>
      </trkpt>
      <trkpt lat="45.26853" lon="5.83217">
        <ele>552</ele>
        <time>2016-08-20T04:53:36Z</time>
      </trkpt>
      <trkpt lat="45.26854" lon="5.83215">
        <ele>552</ele>
        <time>2016-08-20T04:53:37Z</time>
      </trkpt>
      <trkpt lat="45.26862" lon="5.83193">
        <ele>555</ele>
        <time>2016-08-20T04:53:49Z</time>
      </trkpt>
      <trkpt lat="45.26859" lon="5.83179">
        <ele>556</ele>
        <time>2016-08-20T04:53:57Z</time>
      </trkpt>
      <trkpt lat="45.26858" lon="5.83164">
        <ele>560</ele>
        <time>2016-08-20T04:54:09Z</time>
      </trkpt>
      <trkpt lat="45.26857" lon="5.8316">
        <ele>560</ele>
        <time>2016-08-20T04:54:12Z</time>
      </trkpt>
      <trkpt lat="45.26854" lon="5.83151">
        <ele>562</ele>
        <time>2016-08-20T04:54:19Z</time>
      </trkpt>
      <trkpt lat="45.26849" lon="5.83144">
        <ele>564</ele>
        <time>2016-08-20T04:54:26Z</time>
      </trkpt>
      <trkpt lat="45.26845" lon="5.83135">
        <ele>566</ele>
        <time>2016-08-20T04:54:34Z</time>
      </trkpt>
      <trkpt lat="45.26846" lon="5.83122">
        <ele>568</ele>
        <time>2016-08-20T04:54:43Z</time>
      </trkpt>
      <trkpt lat="45.26844" lon="5.83117">
        <ele>570</ele>
        <time>2016-08-20T04:54:51Z</time>
      </trkpt>
      <trkpt lat="45.26843" lon="5.83114">
        <ele>571</ele>
        <time>2016-08-20T04:54:53Z</time>
      </trkpt>
      <trkpt lat="45.26843" lon="5.83107">
        <ele>574</ele>
        <time>2016-08-20T04:55:04Z</time>
      </trkpt>
      <trkpt lat="45.26844" lon="5.83105">
        <ele>574</ele>
        <time>2016-08-20T04:55:05Z</time>
      </trkpt>
      <trkpt lat="45.26843" lon="5.83099">
        <ele>576</ele>
        <time>2016-08-20T04:55:11Z</time>
      </trkpt>
      <trkpt lat="45.26843" lon="5.83095">
        <ele>577</ele>
        <time>2016-08-20T04:55:16Z</time>
      </trkpt>
      <trkpt lat="45.26844" lon="5.83085">
        <ele>580</ele>
        <time>2016-08-20T04:55:26Z</time>
      </trkpt>
      <trkpt lat="45.26845" lon="5.83081">
        <ele>581</ele>
        <time>2016-08-20T04:55:30Z</time>
      </trkpt>
      <trkpt lat="45.26846" lon="5.83075">
        <ele>583</ele>
        <time>2016-08-20T04:55:35Z</time>
      </trkpt>
      <trkpt lat="45.26847" lon="5.83065">
        <ele>586</ele>
        <time>2016-08-20T04:55:46Z</time>
      </trkpt>
      <trkpt lat="45.26846" lon="5.83055">
        <ele>588</ele>
        <time>2016-08-20T04:55:55Z</time>
      </trkpt>
      <trkpt lat="45.26843" lon="5.83046">
        <ele>591</ele>
        <time>2016-08-20T04:56:06Z</time>
      </trkpt>
      <trkpt lat="45.26842" lon="5.83044">
        <ele>592</ele>
        <time>2016-08-20T04:56:08Z</time>
      </trkpt>
      <trkpt lat="45.26841" lon="5.83041">
        <ele>593</ele>
        <time>2016-08-20T04:56:11Z</time>
      </trkpt>
      <trkpt lat="45.26843" lon="5.83039">
        <ele>594</ele>
        <time>2016-08-20T04:56:14Z</time>
      </trkpt>
      <trkpt lat="45.26845" lon="5.83035">
        <ele>597</ele>
        <time>2016-08-20T04:56:25Z</time>
      </trkpt>
      <trkpt lat="45.26845" lon="5.83032">
        <ele>597</ele>
        <time>2016-08-20T04:56:28Z</time>
      </trkpt>
      <trkpt lat="45.26838" lon="5.83024">
        <ele>600</ele>
        <time>2016-08-20T04:56:41Z</time>
      </trkpt>
      <trkpt lat="45.26832" lon="5.83014">
        <ele>604</ele>
        <time>2016-08-20T04:56:56Z</time>
      </trkpt>
      <trkpt lat="45.26832" lon="5.83013">
        <ele>604</ele>
        <time>2016-08-20T04:56:57Z</time>
      </trkpt>
      <trkpt lat="45.26828" lon="5.83001">
        <ele>606</ele>
        <time>2016-08-20T04:57:05Z</time>
      </trkpt>
      <trkpt lat="45.26831" lon="5.82997">
        <ele>609</ele>
        <time>2016-08-20T04:57:17Z</time>
      </trkpt>
      <trkpt lat="45.26824" lon="5.82992">
        <ele>612</ele>
        <time>2016-08-20T04:57:29Z</time>
      </trkpt>
      <trkpt lat="45.26817" lon="5.82985">
        <ele>615</ele>
        <time>2016-08-20T04:57:40Z</time>
      </trkpt>
      <trkpt lat="45.26812" lon="5.82975">
        <ele>618</ele>
        <time>2016-08-20T04:57:54Z</time>
      </trkpt>
      <trkpt lat="45.26814" lon="5.82974">
        <ele>618</ele>
        <time>2016-08-20T04:57:56Z</time>
      </trkpt>
      <trkpt lat="45.26824" lon="5.82972">
        <ele>622</ele>
        <time>2016-08-20T04:58:09Z</time>
      </trkpt>
      <trkpt lat="45.26833" lon="5.82967">
        <ele>625</ele>
        <time>2016-08-20T04:58:23Z</time>
      </trkpt>
      <trkpt lat="45.26833" lon="5.82965">
        <ele>626</ele>
        <time>2016-08-20T04:58:26Z</time>
      </trkpt>
      <trkpt lat="45.26832" lon="5.82963">
        <ele>627</ele>
        <time>2016-08-20T04:58:30Z</time>
      </trkpt>
      <trkpt lat="45.26831" lon="5.82962">
        <ele>627</ele>
        <time>2016-08-20T04:58:31Z</time>
      </trkpt>
      <trkpt lat="45.26821" lon="5.82951">
        <ele>630</ele>
        <time>2016-08-20T04:58:50Z</time>
      </trkpt>
      <trkpt lat="45.26821" lon="5.8295">
        <ele>631</ele>
        <time>2016-08-20T04:58:51Z</time>
      </trkpt>
      <trkpt lat="45.26818" lon="5.82943">
        <ele>634</ele>
        <time>2016-08-20T04:59:02Z</time>
      </trkpt>
      <trkpt lat="45.2682" lon="5.82935">
        <ele>637</ele>
        <time>2016-08-20T04:59:14Z</time>
      </trkpt>
      <trkpt lat="45.26827" lon="5.82935">
        <ele>639</ele>
        <time>2016-08-20T04:59:24Z</time>
      </trkpt>
      <trkpt lat="45.26828" lon="5.82935">
        <ele>639</ele>
        <time>2016-08-20T04:59:25Z</time>
      </trkpt>
      <trkpt lat="45.26849" lon="5.8294">
        <ele>642</ele>
        <time>2016-08-20T04:59:43Z</time>
      </trkpt>
      <trkpt lat="45.26868" lon="5.82927">
        <ele>640</ele>
        <time>2016-08-20T05:00:01Z</time>
      </trkpt>
      <trkpt lat="45.26884" lon="5.82924">
        <ele>644</ele>
        <time>2016-08-20T05:00:16Z</time>
      </trkpt>
      <trkpt lat="45.26905" lon="5.82925">
        <ele>647</ele>
        <time>2016-08-20T05:00:34Z</time>
      </trkpt>
      <trkpt lat="45.26916" lon="5.82917">
        <ele>650</ele>
        <time>2016-08-20T05:00:47Z</time>
      </trkpt>
      <trkpt lat="45.26917" lon="5.82915">
        <ele>650</ele>
        <time>2016-08-20T05:00:49Z</time>
      </trkpt>
      <trkpt lat="45.26919" lon="5.82908">
        <ele>652</ele>
        <time>2016-08-20T05:00:54Z</time>
      </trkpt>
      <trkpt lat="45.26919" lon="5.82907">
        <ele>652</ele>
        <time>2016-08-20T05:00:55Z</time>
      </trkpt>
      <trkpt lat="45.2692" lon="5.82905">
        <ele>652</ele>
        <time>2016-08-20T05:00:56Z</time>
      </trkpt>
      <trkpt lat="45.2692" lon="5.82904">
        <ele>652</ele>
        <time>2016-08-20T05:00:57Z</time>
      </trkpt>
      <trkpt lat="45.26924" lon="5.82892">
        <ele>656</ele>
        <time>2016-08-20T05:01:09Z</time>
      </trkpt>
      <trkpt lat="45.26921" lon="5.82881">
        <ele>659</ele>
        <time>2016-08-20T05:01:21Z</time>
      </trkpt>
      <trkpt lat="45.26922" lon="5.82878">
        <ele>660</ele>
        <time>2016-08-20T05:01:24Z</time>
      </trkpt>
      <trkpt lat="45.26921" lon="5.82871">
        <ele>662</ele>
        <time>2016-08-20T05:01:31Z</time>
      </trkpt>
      <trkpt lat="45.2692" lon="5.82864">
        <ele>663</ele>
        <time>2016-08-20T05:01:37Z</time>
      </trkpt>
      <trkpt lat="45.26921" lon="5.8286">
        <ele>664</ele>
        <time>2016-08-20T05:01:40Z</time>
      </trkpt>
      <trkpt lat="45.26924" lon="5.82857">
        <ele>666</ele>
        <time>2016-08-20T05:01:49Z</time>
      </trkpt>
      <trkpt lat="45.26932" lon="5.82859">
        <ele>669</ele>
        <time>2016-08-20T05:02:01Z</time>
      </trkpt>
      <trkpt lat="45.26934" lon="5.8286">
        <ele>671</ele>
        <time>2016-08-20T05:02:05Z</time>
      </trkpt>
      <trkpt lat="45.26941" lon="5.82862">
        <ele>674</ele>
        <time>2016-08-20T05:02:16Z</time>
      </trkpt>
      <trkpt lat="45.26947" lon="5.82868">
        <ele>676</ele>
        <time>2016-08-20T05:02:26Z</time>
      </trkpt>
      <trkpt lat="45.26948" lon="5.82868">
        <ele>676</ele>
        <time>2016-08-20T05:02:27Z</time>
      </trkpt>
      <trkpt lat="45.26958" lon="5.82871">
        <ele>679</ele>
        <time>2016-08-20T05:02:39Z</time>
      </trkpt>
      <trkpt lat="45.26962" lon="5.82868">
        <ele>682</ele>
        <time>2016-08-20T05:02:51Z</time>
      </trkpt>
      <trkpt lat="45.2697" lon="5.82866">
        <ele>685</ele>
        <time>2016-08-20T05:03:02Z</time>
      </trkpt>
      <trkpt lat="45.26971" lon="5.82867">
        <ele>686</ele>
        <time>2016-08-20T05:03:04Z</time>
      </trkpt>
      <trkpt lat="45.26985" lon="5.82865">
        <ele>689</ele>
        <time>2016-08-20T05:03:18Z</time>
      </trkpt>
      <trkpt lat="45.26986" lon="5.82864">
        <ele>689</ele>
        <time>2016-08-20T05:03:19Z</time>
      </trkpt>
      <trkpt lat="45.26987" lon="5.82863">
        <ele>690</ele>
        <time>2016-08-20T05:03:20Z</time>
      </trkpt>
      <trkpt lat="45.26987" lon="5.82858">
        <ele>691</ele>
        <time>2016-08-20T05:03:27Z</time>
      </trkpt>
      <trkpt lat="45.26986" lon="5.82851">
        <ele>693</ele>
        <time>2016-08-20T05:03:35Z</time>
      </trkpt>
      <trkpt lat="45.26986" lon="5.82849">
        <ele>694</ele>
        <time>2016-08-20T05:03:38Z</time>
      </trkpt>
      <trkpt lat="45.26986" lon="5.82847">
        <ele>694</ele>
        <time>2016-08-20T05:03:39Z</time>
      </trkpt>
      <trkpt lat="45.26987" lon="5.82842">
        <ele>695</ele>
        <time>2016-08-20T05:03:43Z</time>
      </trkpt>
      <trkpt lat="45.26987" lon="5.82841">
        <ele>696</ele>
        <time>2016-08-20T05:03:44Z</time>
      </trkpt>
      <trkpt lat="45.2699" lon="5.82826">
        <ele>699</ele>
        <time>2016-08-20T05:03:59Z</time>
      </trkpt>
      <trkpt lat="45.26992" lon="5.82823">
        <ele>700</ele>
        <time>2016-08-20T05:04:02Z</time>
      </trkpt>
      <trkpt lat="45.26993" lon="5.82816">
        <ele>702</ele>
        <time>2016-08-20T05:04:10Z</time>
      </trkpt>
      <trkpt lat="45.26994" lon="5.82814">
        <ele>702</ele>
        <time>2016-08-20T05:04:11Z</time>
      </trkpt>
      <trkpt lat="45.26995" lon="5.82812">
        <ele>703</ele>
        <time>2016-08-20T05:04:13Z</time>
      </trkpt>
      <trkpt lat="45.26996" lon="5.82801">
        <ele>706</ele>
        <time>2016-08-20T05:04:24Z</time>
      </trkpt>
      <trkpt lat="45.27" lon="5.82798">
        <ele>707</ele>
        <time>2016-08-20T05:04:28Z</time>
      </trkpt>
      <trkpt lat="45.27009" lon="5.82801">
        <ele>710</ele>
        <time>2016-08-20T05:04:40Z</time>
      </trkpt>
      <trkpt lat="45.27013" lon="5.82806">
        <ele>713</ele>
        <time>2016-08-20T05:04:49Z</time>
      </trkpt>
      <trkpt lat="45.27012" lon="5.82801">
        <ele>714</ele>
        <time>2016-08-20T05:04:55Z</time>
      </trkpt>
      <trkpt lat="45.27012" lon="5.82801">
        <ele>715</ele>
        <time>2016-08-20T05:04:56Z</time>
      </trkpt>
      <trkpt lat="45.27017" lon="5.82798">
        <ele>716</ele>
        <time>2016-08-20T05:05:04Z</time>
      </trkpt>
      <trkpt lat="45.27018" lon="5.82797">
        <ele>717</ele>
        <time>2016-08-20T05:05:05Z</time>
      </trkpt>
      <trkpt lat="45.27018" lon="5.82796">
        <ele>717</ele>
        <time>2016-08-20T05:05:06Z</time>
      </trkpt>
      <trkpt lat="45.27018" lon="5.82795">
        <ele>717</ele>
        <time>2016-08-20T05:05:07Z</time>
      </trkpt>
      <trkpt lat="45.27019" lon="5.82794">
        <ele>717</ele>
        <time>2016-08-20T05:05:08Z</time>
      </trkpt>
      <trkpt lat="45.2702" lon="5.82789">
        <ele>718</ele>
        <time>2016-08-20T05:05:12Z</time>
      </trkpt>
      <trkpt lat="45.27022" lon="5.82787">
        <ele>719</ele>
        <time>2016-08-20T05:05:15Z</time>
      </trkpt>
      <trkpt lat="45.27024" lon="5.82785">
        <ele>720</ele>
        <time>2016-08-20T05:05:20Z</time>
      </trkpt>
      <trkpt lat="45.27026" lon="5.82783">
        <ele>721</ele>
        <time>2016-08-20T05:05:23Z</time>
      </trkpt>
      <trkpt lat="45.27031" lon="5.82779">
        <ele>724</ele>
        <time>2016-08-20T05:05:34Z</time>
      </trkpt>
      <trkpt lat="45.2703" lon="5.82776">
        <ele>725</ele>
        <time>2016-08-20T05:05:37Z</time>
      </trkpt>
      <trkpt lat="45.2703" lon="5.82774">
        <ele>725</ele>
        <time>2016-08-20T05:05:38Z</time>
      </trkpt>
      <trkpt lat="45.2703" lon="5.82773">
        <ele>726</ele>
        <time>2016-08-20T05:05:39Z</time>
      </trkpt>
      <trkpt lat="45.27028" lon="5.82772">
        <ele>726</ele>
        <time>2016-08-20T05:05:41Z</time>
      </trkpt>
      <trkpt lat="45.27028" lon="5.8277">
        <ele>726</ele>
        <time>2016-08-20T05:05:42Z</time>
      </trkpt>
      <trkpt lat="45.27029" lon="5.82767">
        <ele>728</ele>
        <time>2016-08-20T05:05:47Z</time>
      </trkpt>
      <trkpt lat="45.27036" lon="5.8276">
        <ele>728</ele>
        <time>2016-08-20T05:06:04Z</time>
      </trkpt>
      <trkpt lat="45.27038" lon="5.8276">
        <ele>727</ele>
        <time>2016-08-20T05:06:05Z</time>
      </trkpt>
      <trkpt lat="45.27039" lon="5.8276">
        <ele>726</ele>
        <time>2016-08-20T05:06:06Z</time>
      </trkpt>
      <trkpt lat="45.2705" lon="5.82761">
        <ele>723</ele>
        <time>2016-08-20T05:06:13Z</time>
      </trkpt>
      <trkpt lat="45.27051" lon="5.82762">
        <ele>723</ele>
        <time>2016-08-20T05:06:15Z</time>
      </trkpt>
      <trkpt lat="45.27055" lon="5.82761">
        <ele>723</ele>
        <time>2016-08-20T05:06:18Z</time>
      </trkpt>
      <trkpt lat="45.27072" lon="5.8276">
        <ele>723</ele>
        <time>2016-08-20T05:06:29Z</time>
      </trkpt>
      <trkpt lat="45.27085" lon="5.82759">
        <ele>726</ele>
        <time>2016-08-20T05:06:41Z</time>
      </trkpt>
      <trkpt lat="45.27092" lon="5.82762">
        <ele>728</ele>
        <time>2016-08-20T05:06:50Z</time>
      </trkpt>
      <trkpt lat="45.27098" lon="5.82763">
        <ele>728</ele>
        <time>2016-08-20T05:06:55Z</time>
      </trkpt>
      <trkpt lat="45.27109" lon="5.8276">
        <ele>726</ele>
        <time>2016-08-20T05:07:04Z</time>
      </trkpt>
      <trkpt lat="45.27112" lon="5.82761">
        <ele>726</ele>
        <time>2016-08-20T05:07:05Z</time>
      </trkpt>
      <trkpt lat="45.27121" lon="5.82761">
        <ele>724</ele>
        <time>2016-08-20T05:07:10Z</time>
      </trkpt>
      <trkpt lat="45.27124" lon="5.82762">
        <ele>724</ele>
        <time>2016-08-20T05:07:11Z</time>
      </trkpt>
      <trkpt lat="45.27126" lon="5.82761">
        <ele>723</ele>
        <time>2016-08-20T05:07:12Z</time>
      </trkpt>
      <trkpt lat="45.27128" lon="5.82761">
        <ele>723</ele>
        <time>2016-08-20T05:07:13Z</time>
      </trkpt>
      <trkpt lat="45.2713" lon="5.8276">
        <ele>723</ele>
        <time>2016-08-20T05:07:14Z</time>
      </trkpt>
      <trkpt lat="45.27133" lon="5.8276">
        <ele>722</ele>
        <time>2016-08-20T05:07:15Z</time>
      </trkpt>
      <trkpt lat="45.2716" lon="5.82755">
        <ele>720</ele>
        <time>2016-08-20T05:07:29Z</time>
      </trkpt>
      <trkpt lat="45.27164" lon="5.82755">
        <ele>721</ele>
        <time>2016-08-20T05:07:32Z</time>
      </trkpt>
      <trkpt lat="45.27165" lon="5.82754">
        <ele>721</ele>
        <time>2016-08-20T05:07:33Z</time>
      </trkpt>
      <trkpt lat="45.27166" lon="5.82754">
        <ele>721</ele>
        <time>2016-08-20T05:07:34Z</time>
      </trkpt>
      <trkpt lat="45.27185" lon="5.82743">
        <ele>724</ele>
        <time>2016-08-20T05:07:51Z</time>
      </trkpt>
      <trkpt lat="45.27187" lon="5.82741">
        <ele>725</ele>
        <time>2016-08-20T05:07:54Z</time>
      </trkpt>
      <trkpt lat="45.27187" lon="5.8274">
        <ele>725</ele>
        <time>2016-08-20T05:07:55Z</time>
      </trkpt>
      <trkpt lat="45.2719" lon="5.82732">
        <ele>728</ele>
        <time>2016-08-20T05:08:03Z</time>
      </trkpt>
      <trkpt lat="45.2719" lon="5.82731">
        <ele>728</ele>
        <time>2016-08-20T05:08:04Z</time>
      </trkpt>
      <trkpt lat="45.27189" lon="5.8273">
        <ele>729</ele>
        <time>2016-08-20T05:08:05Z</time>
      </trkpt>
      <trkpt lat="45.27189" lon="5.82729">
        <ele>729</ele>
        <time>2016-08-20T05:08:06Z</time>
      </trkpt>
      <trkpt lat="45.27189" lon="5.82728">
        <ele>729</ele>
        <time>2016-08-20T05:08:07Z</time>
      </trkpt>
      <trkpt lat="45.27189" lon="5.82727">
        <ele>729</ele>
        <time>2016-08-20T05:08:08Z</time>
      </trkpt>
      <trkpt lat="45.27189" lon="5.82721">
        <ele>731</ele>
        <time>2016-08-20T05:08:13Z</time>
      </trkpt>
      <trkpt lat="45.27189" lon="5.82719">
        <ele>731</ele>
        <time>2016-08-20T05:08:14Z</time>
      </trkpt>
      <trkpt lat="45.27191" lon="5.82701">
        <ele>733</ele>
        <time>2016-08-20T05:08:25Z</time>
      </trkpt>
      <trkpt lat="45.27194" lon="5.82691">
        <ele>736</ele>
        <time>2016-08-20T05:08:36Z</time>
      </trkpt>
      <trkpt lat="45.27194" lon="5.82687">
        <ele>737</ele>
        <time>2016-08-20T05:08:39Z</time>
      </trkpt>
      <trkpt lat="45.27194" lon="5.82685">
        <ele>737</ele>
        <time>2016-08-20T05:08:40Z</time>
      </trkpt>
      <trkpt lat="45.27194" lon="5.82684">
        <ele>737</ele>
        <time>2016-08-20T05:08:41Z</time>
      </trkpt>
      <trkpt lat="45.27196" lon="5.82678">
        <ele>739</ele>
        <time>2016-08-20T05:08:46Z</time>
      </trkpt>
      <trkpt lat="45.27196" lon="5.82677">
        <ele>739</ele>
        <time>2016-08-20T05:08:47Z</time>
      </trkpt>
      <trkpt lat="45.27198" lon="5.8267">
        <ele>740</ele>
        <time>2016-08-20T05:08:52Z</time>
      </trkpt>
      <trkpt lat="45.27198" lon="5.82669">
        <ele>740</ele>
        <time>2016-08-20T05:08:53Z</time>
      </trkpt>
      <trkpt lat="45.27197" lon="5.82665">
        <ele>741</ele>
        <time>2016-08-20T05:08:57Z</time>
      </trkpt>
      <trkpt lat="45.27197" lon="5.82653">
        <ele>744</ele>
        <time>2016-08-20T05:09:09Z</time>
      </trkpt>
      <trkpt lat="45.27198" lon="5.82645">
        <ele>747</ele>
        <time>2016-08-20T05:09:16Z</time>
      </trkpt>
      <trkpt lat="45.27197" lon="5.82633">
        <ele>749</ele>
        <time>2016-08-20T05:09:25Z</time>
      </trkpt>
      <trkpt lat="45.272" lon="5.82625">
        <ele>751</ele>
        <time>2016-08-20T05:09:35Z</time>
      </trkpt>
      <trkpt lat="45.27201" lon="5.82624">
        <ele>751</ele>
        <time>2016-08-20T05:09:36Z</time>
      </trkpt>
      <trkpt lat="45.27203" lon="5.82621">
        <ele>752</ele>
        <time>2016-08-20T05:09:38Z</time>
      </trkpt>
      <trkpt lat="45.27204" lon="5.82621">
        <ele>752</ele>
        <time>2016-08-20T05:09:39Z</time>
      </trkpt>
      <trkpt lat="45.27205" lon="5.82616">
        <ele>753</ele>
        <time>2016-08-20T05:09:43Z</time>
      </trkpt>
      <trkpt lat="45.27203" lon="5.82611">
        <ele>756</ele>
        <time>2016-08-20T05:09:53Z</time>
      </trkpt>
      <trkpt lat="45.27202" lon="5.82611">
        <ele>756</ele>
        <time>2016-08-20T05:09:54Z</time>
      </trkpt>
      <trkpt lat="45.272" lon="5.8261">
        <ele>757</ele>
        <time>2016-08-20T05:09:58Z</time>
      </trkpt>
      <trkpt lat="45.27197" lon="5.8261">
        <ele>758</ele>
        <time>2016-08-20T05:10:02Z</time>
      </trkpt>
      <trkpt lat="45.27193" lon="5.82612">
        <ele>759</ele>
        <time>2016-08-20T05:10:08Z</time>
      </trkpt>
      <trkpt lat="45.27192" lon="5.82614">
        <ele>759</ele>
        <time>2016-08-20T05:10:09Z</time>
      </trkpt>
      <trkpt lat="45.27191" lon="5.82615">
        <ele>760</ele>
        <time>2016-08-20T05:10:10Z</time>
      </trkpt>
      <trkpt lat="45.27186" lon="5.82623">
        <ele>763</ele>
        <time>2016-08-20T05:10:22Z</time>
      </trkpt>
      <trkpt lat="45.27184" lon="5.82615">
        <ele>764</ele>
        <time>2016-08-20T05:10:31Z</time>
      </trkpt>
      <trkpt lat="45.27184" lon="5.82604">
        <ele>767</ele>
        <time>2016-08-20T05:10:42Z</time>
      </trkpt>
      <trkpt lat="45.27185" lon="5.82598">
        <ele>770</ele>
        <time>2016-08-20T05:10:53Z</time>
      </trkpt>
      <trkpt lat="45.27191" lon="5.82589">
        <ele>773</ele>
        <time>2016-08-20T05:11:05Z</time>
      </trkpt>
      <trkpt lat="45.27192" lon="5.82585">
        <ele>774</ele>
        <time>2016-08-20T05:11:08Z</time>
      </trkpt>
      <trkpt lat="45.27192" lon="5.82583">
        <ele>774</ele>
        <time>2016-08-20T05:11:09Z</time>
      </trkpt>
      <trkpt lat="45.27193" lon="5.82579">
        <ele>775</ele>
        <time>2016-08-20T05:11:12Z</time>
      </trkpt>
      <trkpt lat="45.27193" lon="5.82563">
        <ele>778</ele>
        <time>2016-08-20T05:11:25Z</time>
      </trkpt>
      <trkpt lat="45.27194" lon="5.82561">
        <ele>779</ele>
        <time>2016-08-20T05:11:28Z</time>
      </trkpt>
      <trkpt lat="45.27197" lon="5.82556">
        <ele>781</ele>
        <time>2016-08-20T05:11:37Z</time>
      </trkpt>
      <trkpt lat="45.27196" lon="5.82555">
        <ele>781</ele>
        <time>2016-08-20T05:11:38Z</time>
      </trkpt>
      <trkpt lat="45.27195" lon="5.82555">
        <ele>781</ele>
        <time>2016-08-20T05:11:39Z</time>
      </trkpt>
      <trkpt lat="45.27187" lon="5.8255">
        <ele>783</ele>
        <time>2016-08-20T05:11:47Z</time>
      </trkpt>
      <trkpt lat="45.27186" lon="5.8255">
        <ele>783</ele>
        <time>2016-08-20T05:11:48Z</time>
      </trkpt>
      <trkpt lat="45.27184" lon="5.82556">
        <ele>785</ele>
        <time>2016-08-20T05:11:57Z</time>
      </trkpt>
      <trkpt lat="45.27184" lon="5.82557">
        <ele>786</ele>
        <time>2016-08-20T05:11:58Z</time>
      </trkpt>
      <trkpt lat="45.27184" lon="5.82558">
        <ele>786</ele>
        <time>2016-08-20T05:11:59Z</time>
      </trkpt>
      <trkpt lat="45.27184" lon="5.8256">
        <ele>786</ele>
        <time>2016-08-20T05:12:00Z</time>
      </trkpt>
      <trkpt lat="45.2718" lon="5.82565">
        <ele>788</ele>
        <time>2016-08-20T05:12:09Z</time>
      </trkpt>
      <trkpt lat="45.27179" lon="5.82565">
        <ele>788</ele>
        <time>2016-08-20T05:12:10Z</time>
      </trkpt>
      <trkpt lat="45.27178" lon="5.82564">
        <ele>788</ele>
        <time>2016-08-20T05:12:11Z</time>
      </trkpt>
      <trkpt lat="45.27176" lon="5.82563">
        <ele>788</ele>
        <time>2016-08-20T05:12:13Z</time>
      </trkpt>
      <trkpt lat="45.27174" lon="5.82563">
        <ele>788</ele>
        <time>2016-08-20T05:12:14Z</time>
      </trkpt>
      <trkpt lat="45.27163" lon="5.8256">
        <ele>791</ele>
        <time>2016-08-20T05:12:27Z</time>
      </trkpt>
      <trkpt lat="45.27163" lon="5.8256">
        <ele>791</ele>
        <time>2016-08-20T05:12:28Z</time>
      </trkpt>
      <trkpt lat="45.27155" lon="5.82559">
        <ele>794</ele>
        <time>2016-08-20T05:12:44Z</time>
      </trkpt>
      <trkpt lat="45.27155" lon="5.82555">
        <ele>797</ele>
        <time>2016-08-20T05:12:59Z</time>
      </trkpt>
      <trkpt lat="45.27158" lon="5.8255">
        <ele>800</ele>
        <time>2016-08-20T05:13:10Z</time>
      </trkpt>
      <trkpt lat="45.27159" lon="5.82548">
        <ele>801</ele>
        <time>2016-08-20T05:13:14Z</time>
      </trkpt>
      <trkpt lat="45.27162" lon="5.82543">
        <ele>802</ele>
        <time>2016-08-20T05:13:19Z</time>
      </trkpt>
      <trkpt lat="45.27164" lon="5.82539">
        <ele>803</ele>
        <time>2016-08-20T05:13:22Z</time>
      </trkpt>
      <trkpt lat="45.27165" lon="5.82538">
        <ele>803</ele>
        <time>2016-08-20T05:13:23Z</time>
      </trkpt>
      <trkpt lat="45.27164" lon="5.82524">
        <ele>806</ele>
        <time>2016-08-20T05:13:33Z</time>
      </trkpt>
      <trkpt lat="45.27163" lon="5.82522">
        <ele>806</ele>
        <time>2016-08-20T05:13:35Z</time>
      </trkpt>
      <trkpt lat="45.27165" lon="5.82513">
        <ele>809</ele>
        <time>2016-08-20T05:13:44Z</time>
      </trkpt>
      <trkpt lat="45.27165" lon="5.82512">
        <ele>809</ele>
        <time>2016-08-20T05:13:45Z</time>
      </trkpt>
      <trkpt lat="45.27168" lon="5.82501">
        <ele>811</ele>
        <time>2016-08-20T05:13:55Z</time>
      </trkpt>
      <trkpt lat="45.27177" lon="5.82482">
        <ele>815</ele>
        <time>2016-08-20T05:14:11Z</time>
      </trkpt>
      <trkpt lat="45.27183" lon="5.82467">
        <ele>818</ele>
        <time>2016-08-20T05:14:25Z</time>
      </trkpt>
      <trkpt lat="45.27185" lon="5.82454">
        <ele>820</ele>
        <time>2016-08-20T05:14:36Z</time>
      </trkpt>
      <trkpt lat="45.27186" lon="5.8245">
        <ele>821</ele>
        <time>2016-08-20T05:14:38Z</time>
      </trkpt>
      <trkpt lat="45.27186" lon="5.82449">
        <ele>821</ele>
        <time>2016-08-20T05:14:39Z</time>
      </trkpt>
      <trkpt lat="45.27187" lon="5.82441">
        <ele>824</ele>
        <time>2016-08-20T05:14:48Z</time>
      </trkpt>
      <trkpt lat="45.27189" lon="5.82436">
        <ele>827</ele>
        <time>2016-08-20T05:14:58Z</time>
      </trkpt>
      <trkpt lat="45.27185" lon="5.8244">
        <ele>828</ele>
        <time>2016-08-20T05:15:04Z</time>
      </trkpt>
      <trkpt lat="45.27185" lon="5.8244">
        <ele>828</ele>
        <time>2016-08-20T05:15:05Z</time>
      </trkpt>
      <trkpt lat="45.27184" lon="5.8244">
        <ele>828</ele>
        <time>2016-08-20T05:15:06Z</time>
      </trkpt>
      <trkpt lat="45.27183" lon="5.82441">
        <ele>828</ele>
        <time>2016-08-20T05:15:07Z</time>
      </trkpt>
      <trkpt lat="45.27182" lon="5.8244">
        <ele>829</ele>
        <time>2016-08-20T05:15:09Z</time>
      </trkpt>
      <trkpt lat="45.27181" lon="5.8244">
        <ele>829</ele>
        <time>2016-08-20T05:15:10Z</time>
      </trkpt>
      <trkpt lat="45.2718" lon="5.8244">
        <ele>830</ele>
        <time>2016-08-20T05:15:11Z</time>
      </trkpt>
      <trkpt lat="45.27178" lon="5.82438">
        <ele>830</ele>
        <time>2016-08-20T05:15:14Z</time>
      </trkpt>
      <trkpt lat="45.27177" lon="5.82437">
        <ele>831</ele>
        <time>2016-08-20T05:15:15Z</time>
      </trkpt>
      <trkpt lat="45.27176" lon="5.82437">
        <ele>831</ele>
        <time>2016-08-20T05:15:16Z</time>
      </trkpt>
      <trkpt lat="45.27175" lon="5.82436">
        <ele>831</ele>
        <time>2016-08-20T05:15:17Z</time>
      </trkpt>
      <trkpt lat="45.27174" lon="5.82436">
        <ele>831</ele>
        <time>2016-08-20T05:15:18Z</time>
      </trkpt>
      <trkpt lat="45.27173" lon="5.82436">
        <ele>832</ele>
        <time>2016-08-20T05:15:19Z</time>
      </trkpt>
      <trkpt lat="45.27172" lon="5.82436">
        <ele>832</ele>
        <time>2016-08-20T05:15:20Z</time>
      </trkpt>
      <trkpt lat="45.2717" lon="5.82436">
        <ele>832</ele>
        <time>2016-08-20T05:15:22Z</time>
      </trkpt>
      <trkpt lat="45.27161" lon="5.82452">
        <ele>835</ele>
        <time>2016-08-20T05:15:34Z</time>
      </trkpt>
      <trkpt lat="45.27144" lon="5.82473">
        <ele>838</ele>
        <time>2016-08-20T05:15:53Z</time>
      </trkpt>
      <trkpt lat="45.27128" lon="5.82481">
        <ele>841</ele>
        <time>2016-08-20T05:16:09Z</time>
      </trkpt>
      <trkpt lat="45.27111" lon="5.82469">
        <ele>844</ele>
        <time>2016-08-20T05:16:27Z</time>
      </trkpt>
      <trkpt lat="45.27102" lon="5.82452">
        <ele>847</ele>
        <time>2016-08-20T05:16:47Z</time>
      </trkpt>
      <trkpt lat="45.27086" lon="5.82439">
        <ele>850</ele>
        <time>2016-08-20T05:17:10Z</time>
      </trkpt>
      <trkpt lat="45.27067" lon="5.82422">
        <ele>848</ele>
        <time>2016-08-20T05:17:26Z</time>
      </trkpt>
      <trkpt lat="45.27058" lon="5.82416">
        <ele>850</ele>
        <time>2016-08-20T05:17:34Z</time>
      </trkpt>
      <trkpt lat="45.27056" lon="5.82415">
        <ele>851</ele>
        <time>2016-08-20T05:17:36Z</time>
      </trkpt>
      <trkpt lat="45.27049" lon="5.82415">
        <ele>852</ele>
        <time>2016-08-20T05:17:41Z</time>
      </trkpt>
      <trkpt lat="45.27049" lon="5.82411">
        <ele>853</ele>
        <time>2016-08-20T05:17:44Z</time>
      </trkpt>
      <trkpt lat="45.27051" lon="5.82408">
        <ele>853</ele>
        <time>2016-08-20T05:17:46Z</time>
      </trkpt>
      <trkpt lat="45.27056" lon="5.82404">
        <ele>854</ele>
        <time>2016-08-20T05:17:51Z</time>
      </trkpt>
      <trkpt lat="45.27057" lon="5.82403">
        <ele>855</ele>
        <time>2016-08-20T05:17:52Z</time>
      </trkpt>
      <trkpt lat="45.27058" lon="5.82402">
        <ele>855</ele>
        <time>2016-08-20T05:17:53Z</time>
      </trkpt>
      <trkpt lat="45.27068" lon="5.82395">
        <ele>858</ele>
        <time>2016-08-20T05:18:11Z</time>
      </trkpt>
      <trkpt lat="45.27068" lon="5.82395">
        <ele>858</ele>
        <time>2016-08-20T05:18:12Z</time>
      </trkpt>
      <trkpt lat="45.27069" lon="5.82395">
        <ele>858</ele>
        <time>2016-08-20T05:18:13Z</time>
      </trkpt>
      <trkpt lat="45.27083" lon="5.82405">
        <ele>862</ele>
        <time>2016-08-20T05:18:28Z</time>
      </trkpt>
      <trkpt lat="45.27092" lon="5.82405">
        <ele>864</ele>
        <time>2016-08-20T05:18:39Z</time>
      </trkpt>
      <trkpt lat="45.2709" lon="5.82399">
        <ele>867</ele>
        <time>2016-08-20T05:18:50Z</time>
      </trkpt>
      <trkpt lat="45.27084" lon="5.8238">
        <ele>868</ele>
        <time>2016-08-20T05:19:00Z</time>
      </trkpt>
      <trkpt lat="45.27084" lon="5.82379">
        <ele>868</ele>
        <time>2016-08-20T05:19:01Z</time>
      </trkpt>
      <trkpt lat="45.27084" lon="5.82377">
        <ele>869</ele>
        <time>2016-08-20T05:19:03Z</time>
      </trkpt>
      <trkpt lat="45.27082" lon="5.82376">
        <ele>870</ele>
        <time>2016-08-20T05:19:07Z</time>
      </trkpt>
      <trkpt lat="45.2708" lon="5.82375">
        <ele>870</ele>
        <time>2016-08-20T05:19:08Z</time>
      </trkpt>
      <trkpt lat="45.27061" lon="5.82362">
        <ele>872</ele>
        <time>2016-08-20T05:19:24Z</time>
      </trkpt>
      <trkpt lat="45.27057" lon="5.82349">
        <ele>873</ele>
        <time>2016-08-20T05:19:31Z</time>
      </trkpt>
      <trkpt lat="45.27056" lon="5.82348">
        <ele>873</ele>
        <time>2016-08-20T05:19:32Z</time>
      </trkpt>
      <trkpt lat="45.27056" lon="5.82346">
        <ele>873</ele>
        <time>2016-08-20T05:19:33Z</time>
      </trkpt>
      <trkpt lat="45.27055" lon="5.82345">
        <ele>873</ele>
        <time>2016-08-20T05:19:34Z</time>
      </trkpt>
      <trkpt lat="45.27054" lon="5.82342">
        <ele>873</ele>
        <time>2016-08-20T05:19:36Z</time>
      </trkpt>
      <trkpt lat="45.27053" lon="5.82341">
        <ele>874</ele>
        <time>2016-08-20T05:19:37Z</time>
      </trkpt>
      <trkpt lat="45.27053" lon="5.82339">
        <ele>874</ele>
        <time>2016-08-20T05:19:38Z</time>
      </trkpt>
      <trkpt lat="45.2705" lon="5.82336">
        <ele>874</ele>
        <time>2016-08-20T05:19:41Z</time>
      </trkpt>
      <trkpt lat="45.2705" lon="5.82335">
        <ele>874</ele>
        <time>2016-08-20T05:19:42Z</time>
      </trkpt>
      <trkpt lat="45.27048" lon="5.82334">
        <ele>875</ele>
        <time>2016-08-20T05:19:43Z</time>
      </trkpt>
      <trkpt lat="45.27047" lon="5.82334">
        <ele>875</ele>
        <time>2016-08-20T05:19:44Z</time>
      </trkpt>
      <trkpt lat="45.27045" lon="5.82333">
        <ele>876</ele>
        <time>2016-08-20T05:19:45Z</time>
      </trkpt>
      <trkpt lat="45.27044" lon="5.82332">
        <ele>876</ele>
        <time>2016-08-20T05:19:46Z</time>
      </trkpt>
      <trkpt lat="45.27037" lon="5.82316">
        <ele>878</ele>
        <time>2016-08-20T05:19:58Z</time>
      </trkpt>
      <trkpt lat="45.27036" lon="5.82315">
        <ele>878</ele>
        <time>2016-08-20T05:20:00Z</time>
      </trkpt>
      <trkpt lat="45.27035" lon="5.82314">
        <ele>878</ele>
        <time>2016-08-20T05:20:01Z</time>
      </trkpt>
      <trkpt lat="45.27034" lon="5.82313">
        <ele>878</ele>
        <time>2016-08-20T05:20:02Z</time>
      </trkpt>
      <trkpt lat="45.27033" lon="5.82312">
        <ele>878</ele>
        <time>2016-08-20T05:20:03Z</time>
      </trkpt>
      <trkpt lat="45.27034" lon="5.82309">
        <ele>878</ele>
        <time>2016-08-20T05:20:04Z</time>
      </trkpt>
      <trkpt lat="45.27033" lon="5.82308">
        <ele>878</ele>
        <time>2016-08-20T05:20:05Z</time>
      </trkpt>
      <trkpt lat="45.2703" lon="5.82296">
        <ele>880</ele>
        <time>2016-08-20T05:20:12Z</time>
      </trkpt>
      <trkpt lat="45.27029" lon="5.82294">
        <ele>880</ele>
        <time>2016-08-20T05:20:13Z</time>
      </trkpt>
      <trkpt lat="45.27024" lon="5.82285">
        <ele>882</ele>
        <time>2016-08-20T05:20:19Z</time>
      </trkpt>
      <trkpt lat="45.27022" lon="5.82284">
        <ele>882</ele>
        <time>2016-08-20T05:20:20Z</time>
      </trkpt>
      <trkpt lat="45.27021" lon="5.82283">
        <ele>882</ele>
        <time>2016-08-20T05:20:21Z</time>
      </trkpt>
      <trkpt lat="45.27021" lon="5.82282">
        <ele>882</ele>
        <time>2016-08-20T05:20:22Z</time>
      </trkpt>
      <trkpt lat="45.2702" lon="5.82281">
        <ele>883</ele>
        <time>2016-08-20T05:20:23Z</time>
      </trkpt>
      <trkpt lat="45.27019" lon="5.8228">
        <ele>883</ele>
        <time>2016-08-20T05:20:24Z</time>
      </trkpt>
      <trkpt lat="45.27018" lon="5.82278">
        <ele>883</ele>
        <time>2016-08-20T05:20:25Z</time>
      </trkpt>
      <trkpt lat="45.27018" lon="5.82277">
        <ele>883</ele>
        <time>2016-08-20T05:20:26Z</time>
      </trkpt>
      <trkpt lat="45.27017" lon="5.82276">
        <ele>883</ele>
        <time>2016-08-20T05:20:27Z</time>
      </trkpt>
      <trkpt lat="45.27017" lon="5.82274">
        <ele>884</ele>
        <time>2016-08-20T05:20:28Z</time>
      </trkpt>
      <trkpt lat="45.27016" lon="5.82273">
        <ele>884</ele>
        <time>2016-08-20T05:20:29Z</time>
      </trkpt>
      <trkpt lat="45.27012" lon="5.82262">
        <ele>885</ele>
        <time>2016-08-20T05:20:36Z</time>
      </trkpt>
      <trkpt lat="45.27011" lon="5.82261">
        <ele>886</ele>
        <time>2016-08-20T05:20:37Z</time>
      </trkpt>
      <trkpt lat="45.2701" lon="5.82259">
        <ele>886</ele>
        <time>2016-08-20T05:20:38Z</time>
      </trkpt>
      <trkpt lat="45.27009" lon="5.82258">
        <ele>887</ele>
        <time>2016-08-20T05:20:40Z</time>
      </trkpt>
      <trkpt lat="45.27009" lon="5.82256">
        <ele>887</ele>
        <time>2016-08-20T05:20:41Z</time>
      </trkpt>
      <trkpt lat="45.27009" lon="5.82254">
        <ele>887</ele>
        <time>2016-08-20T05:20:42Z</time>
      </trkpt>
      <trkpt lat="45.27009" lon="5.82253">
        <ele>887</ele>
        <time>2016-08-20T05:20:43Z</time>
      </trkpt>
      <trkpt lat="45.27009" lon="5.82251">
        <ele>888</ele>
        <time>2016-08-20T05:20:44Z</time>
      </trkpt>
      <trkpt lat="45.2701" lon="5.82249">
        <ele>888</ele>
        <time>2016-08-20T05:20:45Z</time>
      </trkpt>
      <trkpt lat="45.2701" lon="5.82247">
        <ele>888</ele>
        <time>2016-08-20T05:20:46Z</time>
      </trkpt>
      <trkpt lat="45.2701" lon="5.82246">
        <ele>888</ele>
        <time>2016-08-20T05:20:47Z</time>
      </trkpt>
      <trkpt lat="45.27011" lon="5.82244">
        <ele>888</ele>
        <time>2016-08-20T05:20:48Z</time>
      </trkpt>
      <trkpt lat="45.27011" lon="5.82242">
        <ele>889</ele>
        <time>2016-08-20T05:20:49Z</time>
      </trkpt>
      <trkpt lat="45.2701" lon="5.8224">
        <ele>889</ele>
        <time>2016-08-20T05:20:50Z</time>
      </trkpt>
      <trkpt lat="45.2701" lon="5.82237">
        <ele>889</ele>
        <time>2016-08-20T05:20:51Z</time>
      </trkpt>
      <trkpt lat="45.2701" lon="5.82235">
        <ele>889</ele>
        <time>2016-08-20T05:20:52Z</time>
      </trkpt>
      <trkpt lat="45.2701" lon="5.82224">
        <ele>890</ele>
        <time>2016-08-20T05:20:57Z</time>
      </trkpt>
      <trkpt lat="45.27009" lon="5.82223">
        <ele>890</ele>
        <time>2016-08-20T05:20:58Z</time>
      </trkpt>
      <trkpt lat="45.27005" lon="5.82205">
        <ele>893</ele>
        <time>2016-08-20T05:21:09Z</time>
      </trkpt>
      <trkpt lat="45.27005" lon="5.82203">
        <ele>893</ele>
        <time>2016-08-20T05:21:10Z</time>
      </trkpt>
      <trkpt lat="45.27004" lon="5.82201">
        <ele>893</ele>
        <time>2016-08-20T05:21:11Z</time>
      </trkpt>
      <trkpt lat="45.27004" lon="5.82198">
        <ele>893</ele>
        <time>2016-08-20T05:21:13Z</time>
      </trkpt>
      <trkpt lat="45.27005" lon="5.82197">
        <ele>894</ele>
        <time>2016-08-20T05:21:14Z</time>
      </trkpt>
      <trkpt lat="45.27007" lon="5.82196">
        <ele>894</ele>
        <time>2016-08-20T05:21:16Z</time>
      </trkpt>
      <trkpt lat="45.27009" lon="5.82199">
        <ele>896</ele>
        <time>2016-08-20T05:21:21Z</time>
      </trkpt>
      <trkpt lat="45.2701" lon="5.822">
        <ele>896</ele>
        <time>2016-08-20T05:21:22Z</time>
      </trkpt>
      <trkpt lat="45.27011" lon="5.82201">
        <ele>896</ele>
        <time>2016-08-20T05:21:23Z</time>
      </trkpt>
      <trkpt lat="45.27012" lon="5.82202">
        <ele>897</ele>
        <time>2016-08-20T05:21:24Z</time>
      </trkpt>
      <trkpt lat="45.27013" lon="5.82203">
        <ele>897</ele>
        <time>2016-08-20T05:21:25Z</time>
      </trkpt>
      <trkpt lat="45.27014" lon="5.82204">
        <ele>897</ele>
        <time>2016-08-20T05:21:26Z</time>
      </trkpt>
      <trkpt lat="45.27015" lon="5.82205">
        <ele>897</ele>
        <time>2016-08-20T05:21:27Z</time>
      </trkpt>
      <trkpt lat="45.27024" lon="5.82218">
        <ele>899</ele>
        <time>2016-08-20T05:21:37Z</time>
      </trkpt>
      <trkpt lat="45.27029" lon="5.8223">
        <ele>901</ele>
        <time>2016-08-20T05:21:47Z</time>
      </trkpt>
      <trkpt lat="45.27035" lon="5.82242">
        <ele>904</ele>
        <time>2016-08-20T05:21:59Z</time>
      </trkpt>
      <trkpt lat="45.2705" lon="5.82253">
        <ele>907</ele>
        <time>2016-08-20T05:22:14Z</time>
      </trkpt>
      <trkpt lat="45.2706" lon="5.82258">
        <ele>910</ele>
        <time>2016-08-20T05:22:27Z</time>
      </trkpt>
      <trkpt lat="45.27061" lon="5.82259">
        <ele>911</ele>
        <time>2016-08-20T05:22:28Z</time>
      </trkpt>
      <trkpt lat="45.27065" lon="5.82261">
        <ele>912</ele>
        <time>2016-08-20T05:22:32Z</time>
      </trkpt>
      <trkpt lat="45.27067" lon="5.82261">
        <ele>912</ele>
        <time>2016-08-20T05:22:34Z</time>
      </trkpt>
      <trkpt lat="45.27068" lon="5.82262">
        <ele>913</ele>
        <time>2016-08-20T05:22:35Z</time>
      </trkpt>
      <trkpt lat="45.2707" lon="5.82262">
        <ele>913</ele>
        <time>2016-08-20T05:22:36Z</time>
      </trkpt>
      <trkpt lat="45.27079" lon="5.82264">
        <ele>916</ele>
        <time>2016-08-20T05:22:49Z</time>
      </trkpt>
      <trkpt lat="45.27084" lon="5.82264">
        <ele>917</ele>
        <time>2016-08-20T05:22:53Z</time>
      </trkpt>
      <trkpt lat="45.27085" lon="5.82263">
        <ele>917</ele>
        <time>2016-08-20T05:22:54Z</time>
      </trkpt>
      <trkpt lat="45.27086" lon="5.82263">
        <ele>917</ele>
        <time>2016-08-20T05:22:55Z</time>
      </trkpt>
      <trkpt lat="45.27099" lon="5.82259">
        <ele>920</ele>
        <time>2016-08-20T05:23:08Z</time>
      </trkpt>
      <trkpt lat="45.27101" lon="5.82258">
        <ele>921</ele>
        <time>2016-08-20T05:23:12Z</time>
      </trkpt>
      <trkpt lat="45.27101" lon="5.82258">
        <ele>921</ele>
        <time>2016-08-20T05:23:13Z</time>
      </trkpt>
      <trkpt lat="45.27108" lon="5.8226">
        <ele>923</ele>
        <time>2016-08-20T05:23:20Z</time>
      </trkpt>
      <trkpt lat="45.27109" lon="5.82262">
        <ele>923</ele>
        <time>2016-08-20T05:23:21Z</time>
      </trkpt>
      <trkpt lat="45.2711" lon="5.82263">
        <ele>924</ele>
        <time>2016-08-20T05:23:22Z</time>
      </trkpt>
      <trkpt lat="45.27111" lon="5.82263">
        <ele>924</ele>
        <time>2016-08-20T05:23:23Z</time>
      </trkpt>
      <trkpt lat="45.27112" lon="5.82264">
        <ele>924</ele>
        <time>2016-08-20T05:23:24Z</time>
      </trkpt>
      <trkpt lat="45.27113" lon="5.82265">
        <ele>924</ele>
        <time>2016-08-20T05:23:25Z</time>
      </trkpt>
      <trkpt lat="45.27114" lon="5.82266">
        <ele>925</ele>
        <time>2016-08-20T05:23:26Z</time>
      </trkpt>
      <trkpt lat="45.27115" lon="5.82267">
        <ele>925</ele>
        <time>2016-08-20T05:23:27Z</time>
      </trkpt>
      <trkpt lat="45.27116" lon="5.82267">
        <ele>925</ele>
        <time>2016-08-20T05:23:28Z</time>
      </trkpt>
      <trkpt lat="45.27129" lon="5.82279">
        <ele>927</ele>
        <time>2016-08-20T05:23:38Z</time>
      </trkpt>
      <trkpt lat="45.2713" lon="5.8228">
        <ele>928</ele>
        <time>2016-08-20T05:23:39Z</time>
      </trkpt>
      <trkpt lat="45.2714" lon="5.82287">
        <ele>930</ele>
        <time>2016-08-20T05:23:49Z</time>
      </trkpt>
      <trkpt lat="45.27142" lon="5.82284">
        <ele>930</ele>
        <time>2016-08-20T05:23:51Z</time>
      </trkpt>
      <trkpt lat="45.27141" lon="5.82283">
        <ele>931</ele>
        <time>2016-08-20T05:23:52Z</time>
      </trkpt>
      <trkpt lat="45.27141" lon="5.82281">
        <ele>931</ele>
        <time>2016-08-20T05:23:53Z</time>
      </trkpt>
      <trkpt lat="45.27139" lon="5.82278">
        <ele>933</ele>
        <time>2016-08-20T05:23:59Z</time>
      </trkpt>
      <trkpt lat="45.27138" lon="5.82276">
        <ele>933</ele>
        <time>2016-08-20T05:24:00Z</time>
      </trkpt>
      <trkpt lat="45.27134" lon="5.82269">
        <ele>935</ele>
        <time>2016-08-20T05:24:09Z</time>
      </trkpt>
      <trkpt lat="45.27134" lon="5.82268">
        <ele>935</ele>
        <time>2016-08-20T05:24:10Z</time>
      </trkpt>
      <trkpt lat="45.27133" lon="5.82267">
        <ele>935</ele>
        <time>2016-08-20T05:24:11Z</time>
      </trkpt>
      <trkpt lat="45.27133" lon="5.82265">
        <ele>935</ele>
        <time>2016-08-20T05:24:12Z</time>
      </trkpt>
      <trkpt lat="45.27132" lon="5.82264">
        <ele>935</ele>
        <time>2016-08-20T05:24:13Z</time>
      </trkpt>
      <trkpt lat="45.27132" lon="5.82263">
        <ele>936</ele>
        <time>2016-08-20T05:24:14Z</time>
      </trkpt>
      <trkpt lat="45.27133" lon="5.8226">
        <ele>936</ele>
        <time>2016-08-20T05:24:16Z</time>
      </trkpt>
      <trkpt lat="45.27133" lon="5.82258">
        <ele>936</ele>
        <time>2016-08-20T05:24:17Z</time>
      </trkpt>
      <trkpt lat="45.27133" lon="5.82256">
        <ele>936</ele>
        <time>2016-08-20T05:24:18Z</time>
      </trkpt>
      <trkpt lat="45.27132" lon="5.82254">
        <ele>937</ele>
        <time>2016-08-20T05:24:19Z</time>
      </trkpt>
      <trkpt lat="45.27132" lon="5.82253">
        <ele>937</ele>
        <time>2016-08-20T05:24:20Z</time>
      </trkpt>
      <trkpt lat="45.27131" lon="5.82251">
        <ele>937</ele>
        <time>2016-08-20T05:24:21Z</time>
      </trkpt>
      <trkpt lat="45.27131" lon="5.82248">
        <ele>937</ele>
        <time>2016-08-20T05:24:22Z</time>
      </trkpt>
      <trkpt lat="45.27131" lon="5.82246">
        <ele>938</ele>
        <time>2016-08-20T05:24:23Z</time>
      </trkpt>
      <trkpt lat="45.2713" lon="5.82244">
        <ele>938</ele>
        <time>2016-08-20T05:24:24Z</time>
      </trkpt>
      <trkpt lat="45.27129" lon="5.82243">
        <ele>938</ele>
        <time>2016-08-20T05:24:25Z</time>
      </trkpt>
      <trkpt lat="45.27128" lon="5.82241">
        <ele>938</ele>
        <time>2016-08-20T05:24:26Z</time>
      </trkpt>
      <trkpt lat="45.27127" lon="5.8224">
        <ele>938</ele>
        <time>2016-08-20T05:24:27Z</time>
      </trkpt>
      <trkpt lat="45.27126" lon="5.82239">
        <ele>938</ele>
        <time>2016-08-20T05:24:28Z</time>
      </trkpt>
      <trkpt lat="45.27105" lon="5.82234">
        <ele>941</ele>
        <time>2016-08-20T05:24:43Z</time>
      </trkpt>
      <trkpt lat="45.27101" lon="5.82232">
        <ele>942</ele>
        <time>2016-08-20T05:24:46Z</time>
      </trkpt>
      <trkpt lat="45.271" lon="5.8223">
        <ele>942</ele>
        <time>2016-08-20T05:24:47Z</time>
      </trkpt>
      <trkpt lat="45.27099" lon="5.82228">
        <ele>943</ele>
        <time>2016-08-20T05:24:48Z</time>
      </trkpt>
      <trkpt lat="45.27098" lon="5.82227">
        <ele>943</ele>
        <time>2016-08-20T05:24:49Z</time>
      </trkpt>
      <trkpt lat="45.27097" lon="5.82226">
        <ele>943</ele>
        <time>2016-08-20T05:24:50Z</time>
      </trkpt>
      <trkpt lat="45.27094" lon="5.82226">
        <ele>943</ele>
        <time>2016-08-20T05:24:51Z</time>
      </trkpt>
      <trkpt lat="45.27093" lon="5.82225">
        <ele>943</ele>
        <time>2016-08-20T05:24:52Z</time>
      </trkpt>
      <trkpt lat="45.27091" lon="5.82225">
        <ele>944</ele>
        <time>2016-08-20T05:24:53Z</time>
      </trkpt>
      <trkpt lat="45.2709" lon="5.82225">
        <ele>944</ele>
        <time>2016-08-20T05:24:54Z</time>
      </trkpt>
      <trkpt lat="45.27088" lon="5.82224">
        <ele>944</ele>
        <time>2016-08-20T05:24:55Z</time>
      </trkpt>
      <trkpt lat="45.27086" lon="5.82222">
        <ele>944</ele>
        <time>2016-08-20T05:24:56Z</time>
      </trkpt>
      <trkpt lat="45.27085" lon="5.82219">
        <ele>944</ele>
        <time>2016-08-20T05:24:57Z</time>
      </trkpt>
      <trkpt lat="45.27083" lon="5.82217">
        <ele>944</ele>
        <time>2016-08-20T05:24:58Z</time>
      </trkpt>
      <trkpt lat="45.27065" lon="5.82186">
        <ele>947</ele>
        <time>2016-08-20T05:25:12Z</time>
      </trkpt>
      <trkpt lat="45.27062" lon="5.82166">
        <ele>950</ele>
        <time>2016-08-20T05:25:21Z</time>
      </trkpt>
      <trkpt lat="45.27062" lon="5.82164">
        <ele>950</ele>
        <time>2016-08-20T05:25:22Z</time>
      </trkpt>
      <trkpt lat="45.27063" lon="5.82162">
        <ele>950</ele>
        <time>2016-08-20T05:25:23Z</time>
      </trkpt>
      <trkpt lat="45.27064" lon="5.82162">
        <ele>951</ele>
        <time>2016-08-20T05:25:27Z</time>
      </trkpt>
      <trkpt lat="45.27064" lon="5.82163">
        <ele>951</ele>
        <time>2016-08-20T05:25:28Z</time>
      </trkpt>
      <trkpt lat="45.27065" lon="5.82165">
        <ele>952</ele>
        <time>2016-08-20T05:25:31Z</time>
      </trkpt>
      <trkpt lat="45.27066" lon="5.82166">
        <ele>952</ele>
        <time>2016-08-20T05:25:32Z</time>
      </trkpt>
      <trkpt lat="45.27067" lon="5.82167">
        <ele>952</ele>
        <time>2016-08-20T05:25:33Z</time>
      </trkpt>
      <trkpt lat="45.27068" lon="5.82168">
        <ele>952</ele>
        <time>2016-08-20T05:25:34Z</time>
      </trkpt>
      <trkpt lat="45.2707" lon="5.8217">
        <ele>953</ele>
        <time>2016-08-20T05:25:35Z</time>
      </trkpt>
      <trkpt lat="45.27086" lon="5.82184">
        <ele>956</ele>
        <time>2016-08-20T05:25:54Z</time>
      </trkpt>
      <trkpt lat="45.27089" lon="5.82182">
        <ele>957</ele>
        <time>2016-08-20T05:25:57Z</time>
      </trkpt>
      <trkpt lat="45.27095" lon="5.82183">
        <ele>957</ele>
        <time>2016-08-20T05:26:01Z</time>
      </trkpt>
      <trkpt lat="45.27112" lon="5.82187">
        <ele>960</ele>
        <time>2016-08-20T05:26:15Z</time>
      </trkpt>
      <trkpt lat="45.27121" lon="5.82184">
        <ele>961</ele>
        <time>2016-08-20T05:26:25Z</time>
      </trkpt>
      <trkpt lat="45.27127" lon="5.82182">
        <ele>963</ele>
        <time>2016-08-20T05:26:33Z</time>
      </trkpt>
      <trkpt lat="45.27128" lon="5.82182">
        <ele>963</ele>
        <time>2016-08-20T05:26:34Z</time>
      </trkpt>
      <trkpt lat="45.27129" lon="5.82179">
        <ele>965</ele>
        <time>2016-08-20T05:26:39Z</time>
      </trkpt>
      <trkpt lat="45.27129" lon="5.82179">
        <ele>965</ele>
        <time>2016-08-20T05:26:41Z</time>
      </trkpt>
      <trkpt lat="45.27128" lon="5.82179">
        <ele>965</ele>
        <time>2016-08-20T05:26:42Z</time>
      </trkpt>
      <trkpt lat="45.27128" lon="5.82178">
        <ele>966</ele>
        <time>2016-08-20T05:26:43Z</time>
      </trkpt>
      <trkpt lat="45.27127" lon="5.82177">
        <ele>966</ele>
        <time>2016-08-20T05:26:44Z</time>
      </trkpt>
      <trkpt lat="45.27127" lon="5.82175">
        <ele>967</ele>
        <time>2016-08-20T05:26:47Z</time>
      </trkpt>
      <trkpt lat="45.27127" lon="5.82174">
        <ele>967</ele>
        <time>2016-08-20T05:26:48Z</time>
      </trkpt>
      <trkpt lat="45.27126" lon="5.82173">
        <ele>967</ele>
        <time>2016-08-20T05:26:49Z</time>
      </trkpt>
      <trkpt lat="45.27125" lon="5.82173">
        <ele>967</ele>
        <time>2016-08-20T05:26:50Z</time>
      </trkpt>
      <trkpt lat="45.27124" lon="5.82173">
        <ele>968</ele>
        <time>2016-08-20T05:26:51Z</time>
      </trkpt>
      <trkpt lat="45.27124" lon="5.82173">
        <ele>968</ele>
        <time>2016-08-20T05:26:52Z</time>
      </trkpt>
      <trkpt lat="45.27122" lon="5.82173">
        <ele>968</ele>
        <time>2016-08-20T05:26:53Z</time>
      </trkpt>
      <trkpt lat="45.27121" lon="5.82173">
        <ele>968</ele>
        <time>2016-08-20T05:26:54Z</time>
      </trkpt>
      <trkpt lat="45.27119" lon="5.82173">
        <ele>968</ele>
        <time>2016-08-20T05:26:55Z</time>
      </trkpt>
      <trkpt lat="45.27118" lon="5.82173">
        <ele>968</ele>
        <time>2016-08-20T05:26:56Z</time>
      </trkpt>
      <trkpt lat="45.27115" lon="5.8217">
        <ele>968</ele>
        <time>2016-08-20T05:26:58Z</time>
      </trkpt>
      <trkpt lat="45.27114" lon="5.82168">
        <ele>968</ele>
        <time>2016-08-20T05:26:59Z</time>
      </trkpt>
      <trkpt lat="45.27111" lon="5.82164">
        <ele>969</ele>
        <time>2016-08-20T05:27:02Z</time>
      </trkpt>
      <trkpt lat="45.2711" lon="5.82162">
        <ele>969</ele>
        <time>2016-08-20T05:27:03Z</time>
      </trkpt>
      <trkpt lat="45.2711" lon="5.8216">
        <ele>969</ele>
        <time>2016-08-20T05:27:04Z</time>
      </trkpt>
      <trkpt lat="45.27107" lon="5.82156">
        <ele>970</ele>
        <time>2016-08-20T05:27:09Z</time>
      </trkpt>
      <trkpt lat="45.27106" lon="5.82155">
        <ele>970</ele>
        <time>2016-08-20T05:27:10Z</time>
      </trkpt>
      <trkpt lat="45.27105" lon="5.82154">
        <ele>970</ele>
        <time>2016-08-20T05:27:11Z</time>
      </trkpt>
      <trkpt lat="45.27104" lon="5.82153">
        <ele>970</ele>
        <time>2016-08-20T05:27:12Z</time>
      </trkpt>
      <trkpt lat="45.27104" lon="5.82152">
        <ele>970</ele>
        <time>2016-08-20T05:27:13Z</time>
      </trkpt>
      <trkpt lat="45.27103" lon="5.8215">
        <ele>971</ele>
        <time>2016-08-20T05:27:14Z</time>
      </trkpt>
      <trkpt lat="45.27103" lon="5.82149">
        <ele>971</ele>
        <time>2016-08-20T05:27:15Z</time>
      </trkpt>
      <trkpt lat="45.27102" lon="5.82148">
        <ele>971</ele>
        <time>2016-08-20T05:27:16Z</time>
      </trkpt>
      <trkpt lat="45.27101" lon="5.82147">
        <ele>971</ele>
        <time>2016-08-20T05:27:17Z</time>
      </trkpt>
      <trkpt lat="45.27099" lon="5.82146">
        <ele>971</ele>
        <time>2016-08-20T05:27:18Z</time>
      </trkpt>
      <trkpt lat="45.27098" lon="5.82145">
        <ele>971</ele>
        <time>2016-08-20T05:27:19Z</time>
      </trkpt>
      <trkpt lat="45.27097" lon="5.82143">
        <ele>972</ele>
        <time>2016-08-20T05:27:20Z</time>
      </trkpt>
      <trkpt lat="45.27096" lon="5.82142">
        <ele>972</ele>
        <time>2016-08-20T05:27:21Z</time>
      </trkpt>
      <trkpt lat="45.27095" lon="5.82137">
        <ele>972</ele>
        <time>2016-08-20T05:27:26Z</time>
      </trkpt>
      <trkpt lat="45.27095" lon="5.82135">
        <ele>973</ele>
        <time>2016-08-20T05:27:27Z</time>
      </trkpt>
      <trkpt lat="45.27095" lon="5.82133">
        <ele>973</ele>
        <time>2016-08-20T05:27:28Z</time>
      </trkpt>
      <trkpt lat="45.27092" lon="5.8211">
        <ele>976</ele>
        <time>2016-08-20T05:27:43Z</time>
      </trkpt>
      <trkpt lat="45.27091" lon="5.82112">
        <ele>977</ele>
        <time>2016-08-20T05:27:47Z</time>
      </trkpt>
      <trkpt lat="45.27092" lon="5.82113">
        <ele>978</ele>
        <time>2016-08-20T05:27:48Z</time>
      </trkpt>
      <trkpt lat="45.27092" lon="5.82114">
        <ele>978</ele>
        <time>2016-08-20T05:27:50Z</time>
      </trkpt>
      <trkpt lat="45.27092" lon="5.82115">
        <ele>978</ele>
        <time>2016-08-20T05:27:51Z</time>
      </trkpt>
      <trkpt lat="45.27099" lon="5.82126">
        <ele>980</ele>
        <time>2016-08-20T05:28:01Z</time>
      </trkpt>
      <trkpt lat="45.271" lon="5.82127">
        <ele>980</ele>
        <time>2016-08-20T05:28:02Z</time>
      </trkpt>
      <trkpt lat="45.27112" lon="5.82131">
        <ele>984</ele>
        <time>2016-08-20T05:28:15Z</time>
      </trkpt>
      <trkpt lat="45.27123" lon="5.82134">
        <ele>986</ele>
        <time>2016-08-20T05:28:27Z</time>
      </trkpt>
      <trkpt lat="45.27125" lon="5.82134">
        <ele>986</ele>
        <time>2016-08-20T05:28:28Z</time>
      </trkpt>
      <trkpt lat="45.27141" lon="5.82133">
        <ele>989</ele>
        <time>2016-08-20T05:28:42Z</time>
      </trkpt>
      <trkpt lat="45.2715" lon="5.82132">
        <ele>992</ele>
        <time>2016-08-20T05:28:52Z</time>
      </trkpt>
      <trkpt lat="45.27163" lon="5.82125">
        <ele>995</ele>
        <time>2016-08-20T05:29:04Z</time>
      </trkpt>
      <trkpt lat="45.2716" lon="5.82121">
        <ele>997</ele>
        <time>2016-08-20T05:29:11Z</time>
      </trkpt>
      <trkpt lat="45.27158" lon="5.82123">
        <ele>997</ele>
        <time>2016-08-20T05:29:12Z</time>
      </trkpt>
      <trkpt lat="45.27157" lon="5.82123">
        <ele>997</ele>
        <time>2016-08-20T05:29:13Z</time>
      </trkpt>
      <trkpt lat="45.27156" lon="5.82123">
        <ele>997</ele>
        <time>2016-08-20T05:29:14Z</time>
      </trkpt>
      <trkpt lat="45.27155" lon="5.82123">
        <ele>997</ele>
        <time>2016-08-20T05:29:15Z</time>
      </trkpt>
      <trkpt lat="45.27147" lon="5.82118">
        <ele>999</ele>
        <time>2016-08-20T05:29:24Z</time>
      </trkpt>
      <trkpt lat="45.27146" lon="5.82116">
        <ele>999</ele>
        <time>2016-08-20T05:29:25Z</time>
      </trkpt>
      <trkpt lat="45.27145" lon="5.82111">
        <ele>1000</ele>
        <time>2016-08-20T05:29:29Z</time>
      </trkpt>
      <trkpt lat="45.27142" lon="5.82108">
        <ele>1002</ele>
        <time>2016-08-20T05:29:33Z</time>
      </trkpt>
      <trkpt lat="45.2714" lon="5.82108">
        <ele>1002</ele>
        <time>2016-08-20T05:29:34Z</time>
      </trkpt>
      <trkpt lat="45.27139" lon="5.82107">
        <ele>1002</ele>
        <time>2016-08-20T05:29:35Z</time>
      </trkpt>
      <trkpt lat="45.27138" lon="5.82105">
        <ele>1002</ele>
        <time>2016-08-20T05:29:36Z</time>
      </trkpt>
      <trkpt lat="45.27136" lon="5.82104">
        <ele>1002</ele>
        <time>2016-08-20T05:29:37Z</time>
      </trkpt>
      <trkpt lat="45.27123" lon="5.82087">
        <ele>1005</ele>
        <time>2016-08-20T05:29:53Z</time>
      </trkpt>
      <trkpt lat="45.27123" lon="5.82085">
        <ele>1006</ele>
        <time>2016-08-20T05:29:54Z</time>
      </trkpt>
      <trkpt lat="45.27123" lon="5.82083">
        <ele>1006</ele>
        <time>2016-08-20T05:29:56Z</time>
      </trkpt>
      <trkpt lat="45.27122" lon="5.82081">
        <ele>1006</ele>
        <time>2016-08-20T05:29:57Z</time>
      </trkpt>
      <trkpt lat="45.27122" lon="5.8208">
        <ele>1007</ele>
        <time>2016-08-20T05:29:58Z</time>
      </trkpt>
      <trkpt lat="45.27121" lon="5.82079">
        <ele>1007</ele>
        <time>2016-08-20T05:29:59Z</time>
      </trkpt>
      <trkpt lat="45.27121" lon="5.82073">
        <ele>1008</ele>
        <time>2016-08-20T05:30:03Z</time>
      </trkpt>
      <trkpt lat="45.27122" lon="5.82072">
        <ele>1008</ele>
        <time>2016-08-20T05:30:04Z</time>
      </trkpt>
      <trkpt lat="45.27123" lon="5.8207">
        <ele>1009</ele>
        <time>2016-08-20T05:30:06Z</time>
      </trkpt>
      <trkpt lat="45.27124" lon="5.8207">
        <ele>1009</ele>
        <time>2016-08-20T05:30:07Z</time>
      </trkpt>
      <trkpt lat="45.27125" lon="5.82069">
        <ele>1009</ele>
        <time>2016-08-20T05:30:08Z</time>
      </trkpt>
      <trkpt lat="45.27126" lon="5.82069">
        <ele>1009</ele>
        <time>2016-08-20T05:30:09Z</time>
      </trkpt>
      <trkpt lat="45.27127" lon="5.8207">
        <ele>1010</ele>
        <time>2016-08-20T05:30:10Z</time>
      </trkpt>
      <trkpt lat="45.27128" lon="5.8207">
        <ele>1010</ele>
        <time>2016-08-20T05:30:11Z</time>
      </trkpt>
      <trkpt lat="45.27129" lon="5.82071">
        <ele>1010</ele>
        <time>2016-08-20T05:30:12Z</time>
      </trkpt>
      <trkpt lat="45.2713" lon="5.82073">
        <ele>1011</ele>
        <time>2016-08-20T05:30:15Z</time>
      </trkpt>
      <trkpt lat="45.27135" lon="5.82074">
        <ele>1013</ele>
        <time>2016-08-20T05:30:21Z</time>
      </trkpt>
      <trkpt lat="45.27141" lon="5.82075">
        <ele>1015</ele>
        <time>2016-08-20T05:30:30Z</time>
      </trkpt>
      <trkpt lat="45.27144" lon="5.82074">
        <ele>1015</ele>
        <time>2016-08-20T05:30:32Z</time>
      </trkpt>
      <trkpt lat="45.27145" lon="5.82074">
        <ele>1016</ele>
        <time>2016-08-20T05:30:33Z</time>
      </trkpt>
      <trkpt lat="45.27148" lon="5.82073">
        <ele>1017</ele>
        <time>2016-08-20T05:30:37Z</time>
      </trkpt>
      <trkpt lat="45.27154" lon="5.82072">
        <ele>1019</ele>
        <time>2016-08-20T05:30:47Z</time>
      </trkpt>
      <trkpt lat="45.2716" lon="5.82076">
        <ele>1020</ele>
        <time>2016-08-20T05:30:53Z</time>
      </trkpt>
      <trkpt lat="45.27161" lon="5.82076">
        <ele>1021</ele>
        <time>2016-08-20T05:30:54Z</time>
      </trkpt>
      <trkpt lat="45.27176" lon="5.82072">
        <ele>1024</ele>
        <time>2016-08-20T05:31:08Z</time>
      </trkpt>
      <trkpt lat="45.2718" lon="5.8207">
        <ele>1025</ele>
        <time>2016-08-20T05:31:12Z</time>
      </trkpt>
      <trkpt lat="45.27181" lon="5.82069">
        <ele>1025</ele>
        <time>2016-08-20T05:31:13Z</time>
      </trkpt>
      <trkpt lat="45.27182" lon="5.82068">
        <ele>1025</ele>
        <time>2016-08-20T05:31:14Z</time>
      </trkpt>
      <trkpt lat="45.27184" lon="5.82068">
        <ele>1026</ele>
        <time>2016-08-20T05:31:15Z</time>
      </trkpt>
      <trkpt lat="45.27185" lon="5.82068">
        <ele>1026</ele>
        <time>2016-08-20T05:31:16Z</time>
      </trkpt>
      <trkpt lat="45.27187" lon="5.82065">
        <ele>1027</ele>
        <time>2016-08-20T05:31:19Z</time>
      </trkpt>
      <trkpt lat="45.27187" lon="5.82064">
        <ele>1029</ele>
        <time>2016-08-20T05:31:26Z</time>
      </trkpt>
      <trkpt lat="45.27184" lon="5.82064">
        <ele>1030</ele>
        <time>2016-08-20T05:31:29Z</time>
      </trkpt>
      <trkpt lat="45.27184" lon="5.82063">
        <ele>1030</ele>
        <time>2016-08-20T05:31:30Z</time>
      </trkpt>
      <trkpt lat="45.27183" lon="5.82062">
        <ele>1030</ele>
        <time>2016-08-20T05:31:31Z</time>
      </trkpt>
      <trkpt lat="45.27181" lon="5.82056">
        <ele>1031</ele>
        <time>2016-08-20T05:31:35Z</time>
      </trkpt>
      <trkpt lat="45.2718" lon="5.82055">
        <ele>1032</ele>
        <time>2016-08-20T05:31:36Z</time>
      </trkpt>
      <trkpt lat="45.2718" lon="5.82054">
        <ele>1032</ele>
        <time>2016-08-20T05:31:37Z</time>
      </trkpt>
      <trkpt lat="45.27179" lon="5.82054">
        <ele>1032</ele>
        <time>2016-08-20T05:31:38Z</time>
      </trkpt>
      <trkpt lat="45.27178" lon="5.82053">
        <ele>1032</ele>
        <time>2016-08-20T05:31:39Z</time>
      </trkpt>
      <trkpt lat="45.27177" lon="5.82052">
        <ele>1032</ele>
        <time>2016-08-20T05:31:40Z</time>
      </trkpt>
      <trkpt lat="45.27177" lon="5.82051">
        <ele>1033</ele>
        <time>2016-08-20T05:31:41Z</time>
      </trkpt>
      <trkpt lat="45.27177" lon="5.82049">
        <ele>1033</ele>
        <time>2016-08-20T05:31:42Z</time>
      </trkpt>
      <trkpt lat="45.27175" lon="5.82048">
        <ele>1033</ele>
        <time>2016-08-20T05:31:44Z</time>
      </trkpt>
      <trkpt lat="45.27173" lon="5.82048">
        <ele>1033</ele>
        <time>2016-08-20T05:31:46Z</time>
      </trkpt>
      <trkpt lat="45.27172" lon="5.82048">
        <ele>1034</ele>
        <time>2016-08-20T05:31:47Z</time>
      </trkpt>
      <trkpt lat="45.27171" lon="5.82047">
        <ele>1034</ele>
        <time>2016-08-20T05:31:48Z</time>
      </trkpt>
      <trkpt lat="45.2717" lon="5.82047">
        <ele>1034</ele>
        <time>2016-08-20T05:31:49Z</time>
      </trkpt>
      <trkpt lat="45.27166" lon="5.82045">
        <ele>1035</ele>
        <time>2016-08-20T05:31:53Z</time>
      </trkpt>
      <trkpt lat="45.27161" lon="5.82037">
        <ele>1036</ele>
        <time>2016-08-20T05:32:00Z</time>
      </trkpt>
      <trkpt lat="45.2716" lon="5.82036">
        <ele>1037</ele>
        <time>2016-08-20T05:32:01Z</time>
      </trkpt>
      <trkpt lat="45.27155" lon="5.82024">
        <ele>1039</ele>
        <time>2016-08-20T05:32:12Z</time>
      </trkpt>
      <trkpt lat="45.27155" lon="5.82023">
        <ele>1039</ele>
        <time>2016-08-20T05:32:13Z</time>
      </trkpt>
      <trkpt lat="45.27155" lon="5.82022">
        <ele>1041</ele>
        <time>2016-08-20T05:32:18Z</time>
      </trkpt>
      <trkpt lat="45.27156" lon="5.82023">
        <ele>1041</ele>
        <time>2016-08-20T05:32:19Z</time>
      </trkpt>
      <trkpt lat="45.27157" lon="5.82024">
        <ele>1041</ele>
        <time>2016-08-20T05:32:20Z</time>
      </trkpt>
      <trkpt lat="45.27161" lon="5.82025">
        <ele>1042</ele>
        <time>2016-08-20T05:32:25Z</time>
      </trkpt>
      <trkpt lat="45.27171" lon="5.82023">
        <ele>1046</ele>
        <time>2016-08-20T05:32:37Z</time>
      </trkpt>
      <trkpt lat="45.27172" lon="5.82022">
        <ele>1047</ele>
        <time>2016-08-20T05:32:40Z</time>
      </trkpt>
      <trkpt lat="45.27174" lon="5.82023">
        <ele>1047</ele>
        <time>2016-08-20T05:32:42Z</time>
      </trkpt>
      <trkpt lat="45.27176" lon="5.82023">
        <ele>1047</ele>
        <time>2016-08-20T05:32:44Z</time>
      </trkpt>
      <trkpt lat="45.27177" lon="5.82022">
        <ele>1047</ele>
        <time>2016-08-20T05:32:45Z</time>
      </trkpt>
      <trkpt lat="45.27188" lon="5.82021">
        <ele>1051</ele>
        <time>2016-08-20T05:32:59Z</time>
      </trkpt>
      <trkpt lat="45.27201" lon="5.82022">
        <ele>1054</ele>
        <time>2016-08-20T05:33:13Z</time>
      </trkpt>
      <trkpt lat="45.27215" lon="5.82016">
        <ele>1056</ele>
        <time>2016-08-20T05:33:24Z</time>
      </trkpt>
      <trkpt lat="45.27216" lon="5.82016">
        <ele>1057</ele>
        <time>2016-08-20T05:33:25Z</time>
      </trkpt>
      <trkpt lat="45.27218" lon="5.82016">
        <ele>1057</ele>
        <time>2016-08-20T05:33:26Z</time>
      </trkpt>
      <trkpt lat="45.27219" lon="5.82017">
        <ele>1057</ele>
        <time>2016-08-20T05:33:27Z</time>
      </trkpt>
      <trkpt lat="45.27221" lon="5.82016">
        <ele>1057</ele>
        <time>2016-08-20T05:33:28Z</time>
      </trkpt>
      <trkpt lat="45.27225" lon="5.82017">
        <ele>1059</ele>
        <time>2016-08-20T05:33:33Z</time>
      </trkpt>
      <trkpt lat="45.27226" lon="5.82018">
        <ele>1059</ele>
        <time>2016-08-20T05:33:34Z</time>
      </trkpt>
      <trkpt lat="45.27227" lon="5.82019">
        <ele>1059</ele>
        <time>2016-08-20T05:33:35Z</time>
      </trkpt>
      <trkpt lat="45.27232" lon="5.82022">
        <ele>1060</ele>
        <time>2016-08-20T05:33:41Z</time>
      </trkpt>
      <trkpt lat="45.27233" lon="5.82023">
        <ele>1061</ele>
        <time>2016-08-20T05:33:44Z</time>
      </trkpt>
      <trkpt lat="45.27237" lon="5.82022">
        <ele>1062</ele>
        <time>2016-08-20T05:33:47Z</time>
      </trkpt>
      <trkpt lat="45.27239" lon="5.82022">
        <ele>1062</ele>
        <time>2016-08-20T05:33:48Z</time>
      </trkpt>
      <trkpt lat="45.27253" lon="5.8202">
        <ele>1065</ele>
        <time>2016-08-20T05:34:00Z</time>
      </trkpt>
      <trkpt lat="45.27256" lon="5.82022">
        <ele>1066</ele>
        <time>2016-08-20T05:34:03Z</time>
      </trkpt>
      <trkpt lat="45.27262" lon="5.82021">
        <ele>1067</ele>
        <time>2016-08-20T05:34:07Z</time>
      </trkpt>
      <trkpt lat="45.27263" lon="5.82021">
        <ele>1067</ele>
        <time>2016-08-20T05:34:08Z</time>
      </trkpt>
      <trkpt lat="45.27264" lon="5.82021">
        <ele>1067</ele>
        <time>2016-08-20T05:34:09Z</time>
      </trkpt>
      <trkpt lat="45.27282" lon="5.82021">
        <ele>1070</ele>
        <time>2016-08-20T05:34:25Z</time>
      </trkpt>
      <trkpt lat="45.27291" lon="5.82022">
        <ele>1072</ele>
        <time>2016-08-20T05:34:36Z</time>
      </trkpt>
      <trkpt lat="45.27292" lon="5.82022">
        <ele>1072</ele>
        <time>2016-08-20T05:34:37Z</time>
      </trkpt>
      <trkpt lat="45.27293" lon="5.82023">
        <ele>1072</ele>
        <time>2016-08-20T05:34:38Z</time>
      </trkpt>
      <trkpt lat="45.273" lon="5.82026">
        <ele>1073</ele>
        <time>2016-08-20T05:34:44Z</time>
      </trkpt>
      <trkpt lat="45.27301" lon="5.82026">
        <ele>1074</ele>
        <time>2016-08-20T05:34:45Z</time>
      </trkpt>
      <trkpt lat="45.27305" lon="5.82029">
        <ele>1074</ele>
        <time>2016-08-20T05:34:49Z</time>
      </trkpt>
      <trkpt lat="45.27323" lon="5.82044">
        <ele>1077</ele>
        <time>2016-08-20T05:35:03Z</time>
      </trkpt>
      <trkpt lat="45.27325" lon="5.82046">
        <ele>1077</ele>
        <time>2016-08-20T05:35:04Z</time>
      </trkpt>
      <trkpt lat="45.27327" lon="5.82048">
        <ele>1077</ele>
        <time>2016-08-20T05:35:05Z</time>
      </trkpt>
      <trkpt lat="45.27332" lon="5.82051">
        <ele>1078</ele>
        <time>2016-08-20T05:35:08Z</time>
      </trkpt>
      <trkpt lat="45.27335" lon="5.82051">
        <ele>1078</ele>
        <time>2016-08-20T05:35:09Z</time>
      </trkpt>
      <trkpt lat="45.27347" lon="5.82052">
        <ele>1079</ele>
        <time>2016-08-20T05:35:16Z</time>
      </trkpt>
      <trkpt lat="45.27348" lon="5.82052">
        <ele>1079</ele>
        <time>2016-08-20T05:35:17Z</time>
      </trkpt>
      <trkpt lat="45.27351" lon="5.82052">
        <ele>1080</ele>
        <time>2016-08-20T05:35:18Z</time>
      </trkpt>
      <trkpt lat="45.27352" lon="5.82052">
        <ele>1080</ele>
        <time>2016-08-20T05:35:19Z</time>
      </trkpt>
      <trkpt lat="45.27354" lon="5.82051">
        <ele>1080</ele>
        <time>2016-08-20T05:35:20Z</time>
      </trkpt>
      <trkpt lat="45.27364" lon="5.8205">
        <ele>1081</ele>
        <time>2016-08-20T05:35:28Z</time>
      </trkpt>
      <trkpt lat="45.27365" lon="5.82051">
        <ele>1081</ele>
        <time>2016-08-20T05:35:29Z</time>
      </trkpt>
      <trkpt lat="45.27385" lon="5.82051">
        <ele>1084</ele>
        <time>2016-08-20T05:35:46Z</time>
      </trkpt>
      <trkpt lat="45.27397" lon="5.82053">
        <ele>1086</ele>
        <time>2016-08-20T05:35:55Z</time>
      </trkpt>
      <trkpt lat="45.27399" lon="5.82053">
        <ele>1086</ele>
        <time>2016-08-20T05:35:56Z</time>
      </trkpt>
      <trkpt lat="45.27415" lon="5.82061">
        <ele>1089</ele>
        <time>2016-08-20T05:36:09Z</time>
      </trkpt>
      <trkpt lat="45.2743" lon="5.82069">
        <ele>1092</ele>
        <time>2016-08-20T05:36:24Z</time>
      </trkpt>
      <trkpt lat="45.27432" lon="5.8207">
        <ele>1092</ele>
        <time>2016-08-20T05:36:26Z</time>
      </trkpt>
      <trkpt lat="45.27433" lon="5.82071">
        <ele>1092</ele>
        <time>2016-08-20T05:36:27Z</time>
      </trkpt>
      <trkpt lat="45.27437" lon="5.82069">
        <ele>1093</ele>
        <time>2016-08-20T05:36:31Z</time>
      </trkpt>
      <trkpt lat="45.27438" lon="5.8207">
        <ele>1093</ele>
        <time>2016-08-20T05:36:32Z</time>
      </trkpt>
      <trkpt lat="45.2744" lon="5.82071">
        <ele>1093</ele>
        <time>2016-08-20T05:36:33Z</time>
      </trkpt>
      <trkpt lat="45.27441" lon="5.82072">
        <ele>1093</ele>
        <time>2016-08-20T05:36:34Z</time>
      </trkpt>
      <trkpt lat="45.27443" lon="5.82072">
        <ele>1094</ele>
        <time>2016-08-20T05:36:35Z</time>
      </trkpt>
      <trkpt lat="45.27444" lon="5.82072">
        <ele>1094</ele>
        <time>2016-08-20T05:36:36Z</time>
      </trkpt>
      <trkpt lat="45.27454" lon="5.82074">
        <ele>1095</ele>
        <time>2016-08-20T05:36:43Z</time>
      </trkpt>
      <trkpt lat="45.27455" lon="5.82074">
        <ele>1095</ele>
        <time>2016-08-20T05:36:44Z</time>
      </trkpt>
      <trkpt lat="45.27457" lon="5.82074">
        <ele>1095</ele>
        <time>2016-08-20T05:36:45Z</time>
      </trkpt>
      <trkpt lat="45.27458" lon="5.82074">
        <ele>1095</ele>
        <time>2016-08-20T05:36:46Z</time>
      </trkpt>
      <trkpt lat="45.27475" lon="5.82076">
        <ele>1098</ele>
        <time>2016-08-20T05:37:01Z</time>
      </trkpt>
      <trkpt lat="45.275" lon="5.82086">
        <ele>1101</ele>
        <time>2016-08-20T05:37:19Z</time>
      </trkpt>
      <trkpt lat="45.27516" lon="5.82097">
        <ele>1103</ele>
        <time>2016-08-20T05:37:31Z</time>
      </trkpt>
      <trkpt lat="45.27534" lon="5.82105">
        <ele>1106</ele>
        <time>2016-08-20T05:37:47Z</time>
      </trkpt>
      <trkpt lat="45.27537" lon="5.82105">
        <ele>1107</ele>
        <time>2016-08-20T05:37:50Z</time>
      </trkpt>
      <trkpt lat="45.27538" lon="5.82105">
        <ele>1107</ele>
        <time>2016-08-20T05:37:51Z</time>
      </trkpt>
      <trkpt lat="45.27545" lon="5.82102">
        <ele>1109</ele>
        <time>2016-08-20T05:37:58Z</time>
      </trkpt>
      <trkpt lat="45.27546" lon="5.82102">
        <ele>1109</ele>
        <time>2016-08-20T05:37:59Z</time>
      </trkpt>
      <trkpt lat="45.27559" lon="5.82101">
        <ele>1112</ele>
        <time>2016-08-20T05:38:13Z</time>
      </trkpt>
      <trkpt lat="45.2756" lon="5.82101">
        <ele>1112</ele>
        <time>2016-08-20T05:38:14Z</time>
      </trkpt>
      <trkpt lat="45.27561" lon="5.82101">
        <ele>1113</ele>
        <time>2016-08-20T05:38:15Z</time>
      </trkpt>
      <trkpt lat="45.27562" lon="5.821">
        <ele>1113</ele>
        <time>2016-08-20T05:38:16Z</time>
      </trkpt>
      <trkpt lat="45.27564" lon="5.82099">
        <ele>1113</ele>
        <time>2016-08-20T05:38:17Z</time>
      </trkpt>
      <trkpt lat="45.27565" lon="5.82099">
        <ele>1114</ele>
        <time>2016-08-20T05:38:18Z</time>
      </trkpt>
      <trkpt lat="45.27566" lon="5.82099">
        <ele>1114</ele>
        <time>2016-08-20T05:38:19Z</time>
      </trkpt>
      <trkpt lat="45.27575" lon="5.821">
        <ele>1116</ele>
        <time>2016-08-20T05:38:27Z</time>
      </trkpt>
      <trkpt lat="45.27577" lon="5.821">
        <ele>1116</ele>
        <time>2016-08-20T05:38:28Z</time>
      </trkpt>
      <trkpt lat="45.27582" lon="5.82103">
        <ele>1117</ele>
        <time>2016-08-20T05:38:33Z</time>
      </trkpt>
      <trkpt lat="45.27583" lon="5.82103">
        <ele>1117</ele>
        <time>2016-08-20T05:38:34Z</time>
      </trkpt>
      <trkpt lat="45.27594" lon="5.82106">
        <ele>1119</ele>
        <time>2016-08-20T05:38:45Z</time>
      </trkpt>
      <trkpt lat="45.27615" lon="5.82105">
        <ele>1121</ele>
        <time>2016-08-20T05:39:00Z</time>
      </trkpt>
      <trkpt lat="45.2763" lon="5.82102">
        <ele>1124</ele>
        <time>2016-08-20T05:39:13Z</time>
      </trkpt>
      <trkpt lat="45.2763" lon="5.821">
        <ele>1125</ele>
        <time>2016-08-20T05:39:15Z</time>
      </trkpt>
      <trkpt lat="45.27634" lon="5.82098">
        <ele>1125</ele>
        <time>2016-08-20T05:39:18Z</time>
      </trkpt>
      <trkpt lat="45.27643" lon="5.82092">
        <ele>1128</ele>
        <time>2016-08-20T05:39:30Z</time>
      </trkpt>
      <trkpt lat="45.27648" lon="5.82089">
        <ele>1129</ele>
        <time>2016-08-20T05:39:35Z</time>
      </trkpt>
      <trkpt lat="45.27649" lon="5.82089">
        <ele>1129</ele>
        <time>2016-08-20T05:39:36Z</time>
      </trkpt>
      <trkpt lat="45.27675" lon="5.82081">
        <ele>1131</ele>
        <time>2016-08-20T05:39:57Z</time>
      </trkpt>
      <trkpt lat="45.27682" lon="5.82081">
        <ele>1132</ele>
        <time>2016-08-20T05:40:04Z</time>
      </trkpt>
      <trkpt lat="45.27698" lon="5.82083">
        <ele>1135</ele>
        <time>2016-08-20T05:40:16Z</time>
      </trkpt>
      <trkpt lat="45.27721" lon="5.8208">
        <ele>1136</ele>
        <time>2016-08-20T05:40:33Z</time>
      </trkpt>
      <trkpt lat="45.27741" lon="5.82065">
        <ele>1138</ele>
        <time>2016-08-20T05:40:46Z</time>
      </trkpt>
      <trkpt lat="45.27757" lon="5.82047">
        <ele>1139</ele>
        <time>2016-08-20T05:40:59Z</time>
      </trkpt>
      <trkpt lat="45.27765" lon="5.82041">
        <ele>1140</ele>
        <time>2016-08-20T05:41:06Z</time>
      </trkpt>
      <trkpt lat="45.27767" lon="5.8204">
        <ele>1141</ele>
        <time>2016-08-20T05:41:07Z</time>
      </trkpt>
      <trkpt lat="45.27768" lon="5.82039">
        <ele>1141</ele>
        <time>2016-08-20T05:41:08Z</time>
      </trkpt>
      <trkpt lat="45.2777" lon="5.82037">
        <ele>1141</ele>
        <time>2016-08-20T05:41:09Z</time>
      </trkpt>
      <trkpt lat="45.27771" lon="5.82036">
        <ele>1141</ele>
        <time>2016-08-20T05:41:10Z</time>
      </trkpt>
      <trkpt lat="45.27784" lon="5.82028">
        <ele>1144</ele>
        <time>2016-08-20T05:41:22Z</time>
      </trkpt>
      <trkpt lat="45.27791" lon="5.82032">
        <ele>1147</ele>
        <time>2016-08-20T05:41:33Z</time>
      </trkpt>
      <trkpt lat="45.27793" lon="5.82033">
        <ele>1148</ele>
        <time>2016-08-20T05:41:34Z</time>
      </trkpt>
      <trkpt lat="45.27796" lon="5.82032">
        <ele>1149</ele>
        <time>2016-08-20T05:41:38Z</time>
      </trkpt>
      <trkpt lat="45.27798" lon="5.82032">
        <ele>1149</ele>
        <time>2016-08-20T05:41:39Z</time>
      </trkpt>
      <trkpt lat="45.27806" lon="5.82033">
        <ele>1152</ele>
        <time>2016-08-20T05:41:47Z</time>
      </trkpt>
      <trkpt lat="45.27808" lon="5.82033">
        <ele>1152</ele>
        <time>2016-08-20T05:41:48Z</time>
      </trkpt>
      <trkpt lat="45.27809" lon="5.82034">
        <ele>1152</ele>
        <time>2016-08-20T05:41:49Z</time>
      </trkpt>
      <trkpt lat="45.27811" lon="5.82035">
        <ele>1153</ele>
        <time>2016-08-20T05:41:52Z</time>
      </trkpt>
      <trkpt lat="45.27812" lon="5.82035">
        <ele>1153</ele>
        <time>2016-08-20T05:41:53Z</time>
      </trkpt>
      <trkpt lat="45.27825" lon="5.82032">
        <ele>1156</ele>
        <time>2016-08-20T05:42:07Z</time>
      </trkpt>
      <trkpt lat="45.27836" lon="5.82029">
        <ele>1159</ele>
        <time>2016-08-20T05:42:19Z</time>
      </trkpt>
      <trkpt lat="45.27846" lon="5.82014">
        <ele>1162</ele>
        <time>2016-08-20T05:42:34Z</time>
      </trkpt>
      <trkpt lat="45.27856" lon="5.81996">
        <ele>1165</ele>
        <time>2016-08-20T05:42:46Z</time>
      </trkpt>
      <trkpt lat="45.27865" lon="5.81981">
        <ele>1168</ele>
        <time>2016-08-20T05:42:59Z</time>
      </trkpt>
      <trkpt lat="45.27871" lon="5.81972">
        <ele>1171</ele>
        <time>2016-08-20T05:43:13Z</time>
      </trkpt>
      <trkpt lat="45.27873" lon="5.81972">
        <ele>1171</ele>
        <time>2016-08-20T05:43:16Z</time>
      </trkpt>
      <trkpt lat="45.27874" lon="5.81972">
        <ele>1171</ele>
        <time>2016-08-20T05:43:17Z</time>
      </trkpt>
      <trkpt lat="45.27887" lon="5.81973">
        <ele>1175</ele>
        <time>2016-08-20T05:43:29Z</time>
      </trkpt>
      <trkpt lat="45.27891" lon="5.81974">
        <ele>1175</ele>
        <time>2016-08-20T05:43:32Z</time>
      </trkpt>
      <trkpt lat="45.27906" lon="5.81987">
        <ele>1179</ele>
        <time>2016-08-20T05:43:48Z</time>
      </trkpt>
      <trkpt lat="45.27908" lon="5.81988">
        <ele>1180</ele>
        <time>2016-08-20T05:43:51Z</time>
      </trkpt>
      <trkpt lat="45.27915" lon="5.81988">
        <ele>1182</ele>
        <time>2016-08-20T05:44:01Z</time>
      </trkpt>
      <trkpt lat="45.27913" lon="5.81983">
        <ele>1185</ele>
        <time>2016-08-20T05:44:12Z</time>
      </trkpt>
      <trkpt lat="45.2791" lon="5.81971">
        <ele>1186</ele>
        <time>2016-08-20T05:44:22Z</time>
      </trkpt>
      <trkpt lat="45.27911" lon="5.81966">
        <ele>1188</ele>
        <time>2016-08-20T05:44:28Z</time>
      </trkpt>
      <trkpt lat="45.2791" lon="5.8196">
        <ele>1189</ele>
        <time>2016-08-20T05:44:35Z</time>
      </trkpt>
      <trkpt lat="45.27909" lon="5.81958">
        <ele>1189</ele>
        <time>2016-08-20T05:44:36Z</time>
      </trkpt>
      <trkpt lat="45.27909" lon="5.81955">
        <ele>1190</ele>
        <time>2016-08-20T05:44:38Z</time>
      </trkpt>
      <trkpt lat="45.27909" lon="5.81954">
        <ele>1190</ele>
        <time>2016-08-20T05:44:39Z</time>
      </trkpt>
      <trkpt lat="45.27908" lon="5.81952">
        <ele>1190</ele>
        <time>2016-08-20T05:44:40Z</time>
      </trkpt>
      <trkpt lat="45.27899" lon="5.81942">
        <ele>1192</ele>
        <time>2016-08-20T05:44:50Z</time>
      </trkpt>
      <trkpt lat="45.2789" lon="5.81928">
        <ele>1194</ele>
        <time>2016-08-20T05:45:00Z</time>
      </trkpt>
      <trkpt lat="45.27887" lon="5.81923">
        <ele>1196</ele>
        <time>2016-08-20T05:45:06Z</time>
      </trkpt>
      <trkpt lat="45.27888" lon="5.81923">
        <ele>1196</ele>
        <time>2016-08-20T05:45:07Z</time>
      </trkpt>
      <trkpt lat="45.27891" lon="5.81924">
        <ele>1197</ele>
        <time>2016-08-20T05:45:11Z</time>
      </trkpt>
      <trkpt lat="45.27895" lon="5.81924">
        <ele>1200</ele>
        <time>2016-08-20T05:45:21Z</time>
      </trkpt>
      <trkpt lat="45.27898" lon="5.81924">
        <ele>1200</ele>
        <time>2016-08-20T05:45:24Z</time>
      </trkpt>
      <trkpt lat="45.27905" lon="5.81929">
        <ele>1202</ele>
        <time>2016-08-20T05:45:33Z</time>
      </trkpt>
      <trkpt lat="45.27908" lon="5.81929">
        <ele>1202</ele>
        <time>2016-08-20T05:45:34Z</time>
      </trkpt>
      <trkpt lat="45.27909" lon="5.81929">
        <ele>1203</ele>
        <time>2016-08-20T05:45:35Z</time>
      </trkpt>
      <trkpt lat="45.27911" lon="5.81929">
        <ele>1203</ele>
        <time>2016-08-20T05:45:36Z</time>
      </trkpt>
      <trkpt lat="45.27912" lon="5.81929">
        <ele>1203</ele>
        <time>2016-08-20T05:45:37Z</time>
      </trkpt>
      <trkpt lat="45.27913" lon="5.81929">
        <ele>1203</ele>
        <time>2016-08-20T05:45:38Z</time>
      </trkpt>
      <trkpt lat="45.27917" lon="5.81932">
        <ele>1204</ele>
        <time>2016-08-20T05:45:43Z</time>
      </trkpt>
      <trkpt lat="45.27918" lon="5.81933">
        <ele>1204</ele>
        <time>2016-08-20T05:45:44Z</time>
      </trkpt>
      <trkpt lat="45.27919" lon="5.81934">
        <ele>1204</ele>
        <time>2016-08-20T05:45:45Z</time>
      </trkpt>
      <trkpt lat="45.2792" lon="5.81935">
        <ele>1204</ele>
        <time>2016-08-20T05:45:46Z</time>
      </trkpt>
      <trkpt lat="45.27921" lon="5.81935">
        <ele>1205</ele>
        <time>2016-08-20T05:45:47Z</time>
      </trkpt>
      <trkpt lat="45.27922" lon="5.81936">
        <ele>1205</ele>
        <time>2016-08-20T05:45:48Z</time>
      </trkpt>
      <trkpt lat="45.27932" lon="5.81942">
        <ele>1207</ele>
        <time>2016-08-20T05:45:57Z</time>
      </trkpt>
      <trkpt lat="45.27933" lon="5.81943">
        <ele>1207</ele>
        <time>2016-08-20T05:45:58Z</time>
      </trkpt>
      <trkpt lat="45.27933" lon="5.81943">
        <ele>1208</ele>
        <time>2016-08-20T05:45:59Z</time>
      </trkpt>
      <trkpt lat="45.27936" lon="5.81944">
        <ele>1208</ele>
        <time>2016-08-20T05:46:03Z</time>
      </trkpt>
      <trkpt lat="45.27936" lon="5.81945">
        <ele>1208</ele>
        <time>2016-08-20T05:46:04Z</time>
      </trkpt>
      <trkpt lat="45.27937" lon="5.81947">
        <ele>1209</ele>
        <time>2016-08-20T05:46:05Z</time>
      </trkpt>
      <trkpt lat="45.27938" lon="5.81948">
        <ele>1209</ele>
        <time>2016-08-20T05:46:06Z</time>
      </trkpt>
      <trkpt lat="45.27939" lon="5.8195">
        <ele>1209</ele>
        <time>2016-08-20T05:46:07Z</time>
      </trkpt>
      <trkpt lat="45.2794" lon="5.81952">
        <ele>1209</ele>
        <time>2016-08-20T05:46:08Z</time>
      </trkpt>
      <trkpt lat="45.27942" lon="5.81956">
        <ele>1210</ele>
        <time>2016-08-20T05:46:10Z</time>
      </trkpt>
      <trkpt lat="45.27942" lon="5.81957">
        <ele>1210</ele>
        <time>2016-08-20T05:46:11Z</time>
      </trkpt>
      <trkpt lat="45.27943" lon="5.81958">
        <ele>1210</ele>
        <time>2016-08-20T05:46:12Z</time>
      </trkpt>
      <trkpt lat="45.27944" lon="5.81959">
        <ele>1210</ele>
        <time>2016-08-20T05:46:13Z</time>
      </trkpt>
      <trkpt lat="45.27945" lon="5.81961">
        <ele>1210</ele>
        <time>2016-08-20T05:46:14Z</time>
      </trkpt>
      <trkpt lat="45.27946" lon="5.81962">
        <ele>1210</ele>
        <time>2016-08-20T05:46:15Z</time>
      </trkpt>
      <trkpt lat="45.27947" lon="5.81963">
        <ele>1211</ele>
        <time>2016-08-20T05:46:16Z</time>
      </trkpt>
      <trkpt lat="45.27955" lon="5.81971">
        <ele>1214</ele>
        <time>2016-08-20T05:46:30Z</time>
      </trkpt>
      <trkpt lat="45.27969" lon="5.81986">
        <ele>1217</ele>
        <time>2016-08-20T05:46:45Z</time>
      </trkpt>
      <trkpt lat="45.2798" lon="5.82008">
        <ele>1220</ele>
        <time>2016-08-20T05:46:59Z</time>
      </trkpt>
      <trkpt lat="45.27984" lon="5.82023">
        <ele>1223</ele>
        <time>2016-08-20T05:47:11Z</time>
      </trkpt>
      <trkpt lat="45.27989" lon="5.82034">
        <ele>1226</ele>
        <time>2016-08-20T05:47:23Z</time>
      </trkpt>
      <trkpt lat="45.27989" lon="5.82035">
        <ele>1227</ele>
        <time>2016-08-20T05:47:24Z</time>
      </trkpt>
      <trkpt lat="45.27996" lon="5.82035">
        <ele>1229</ele>
        <time>2016-08-20T05:47:34Z</time>
      </trkpt>
      <trkpt lat="45.28001" lon="5.82039">
        <ele>1230</ele>
        <time>2016-08-20T05:47:40Z</time>
      </trkpt>
      <trkpt lat="45.28002" lon="5.8204">
        <ele>1230</ele>
        <time>2016-08-20T05:47:41Z</time>
      </trkpt>
      <trkpt lat="45.28002" lon="5.82042">
        <ele>1230</ele>
        <time>2016-08-20T05:47:42Z</time>
      </trkpt>
      <trkpt lat="45.28003" lon="5.82042">
        <ele>1230</ele>
        <time>2016-08-20T05:47:43Z</time>
      </trkpt>
      <trkpt lat="45.28004" lon="5.82044">
        <ele>1230</ele>
        <time>2016-08-20T05:47:44Z</time>
      </trkpt>
      <trkpt lat="45.28004" lon="5.82045">
        <ele>1230</ele>
        <time>2016-08-20T05:47:45Z</time>
      </trkpt>
      <trkpt lat="45.2801" lon="5.82059">
        <ele>1233</ele>
        <time>2016-08-20T05:47:56Z</time>
      </trkpt>
      <trkpt lat="45.28011" lon="5.82059">
        <ele>1233</ele>
        <time>2016-08-20T05:47:57Z</time>
      </trkpt>
      <trkpt lat="45.28012" lon="5.8206">
        <ele>1233</ele>
        <time>2016-08-20T05:47:58Z</time>
      </trkpt>
      <trkpt lat="45.28013" lon="5.8206">
        <ele>1233</ele>
        <time>2016-08-20T05:47:59Z</time>
      </trkpt>
      <trkpt lat="45.28015" lon="5.82059">
        <ele>1233</ele>
        <time>2016-08-20T05:48:00Z</time>
      </trkpt>
      <trkpt lat="45.28021" lon="5.8206">
        <ele>1234</ele>
        <time>2016-08-20T05:48:02Z</time>
      </trkpt>
      <trkpt lat="45.28024" lon="5.82059">
        <ele>1234</ele>
        <time>2016-08-20T05:48:03Z</time>
      </trkpt>
      <trkpt lat="45.28026" lon="5.82059">
        <ele>1234</ele>
        <time>2016-08-20T05:48:04Z</time>
      </trkpt>
      <trkpt lat="45.28028" lon="5.8206">
        <ele>1234</ele>
        <time>2016-08-20T05:48:05Z</time>
      </trkpt>
      <trkpt lat="45.2803" lon="5.8206">
        <ele>1234</ele>
        <time>2016-08-20T05:48:06Z</time>
      </trkpt>
      <trkpt lat="45.28036" lon="5.82062">
        <ele>1235</ele>
        <time>2016-08-20T05:48:11Z</time>
      </trkpt>
      <trkpt lat="45.28037" lon="5.82061">
        <ele>1235</ele>
        <time>2016-08-20T05:48:12Z</time>
      </trkpt>
      <trkpt lat="45.28051" lon="5.82053">
        <ele>1238</ele>
        <time>2016-08-20T05:48:25Z</time>
      </trkpt>
      <trkpt lat="45.28063" lon="5.82049">
        <ele>1241</ele>
        <time>2016-08-20T05:48:37Z</time>
      </trkpt>
      <trkpt lat="45.28067" lon="5.8205">
        <ele>1243</ele>
        <time>2016-08-20T05:48:43Z</time>
      </trkpt>
      <trkpt lat="45.28067" lon="5.8205">
        <ele>1243</ele>
        <time>2016-08-20T05:48:44Z</time>
      </trkpt>
      <trkpt lat="45.28069" lon="5.82048">
        <ele>1244</ele>
        <time>2016-08-20T05:48:48Z</time>
      </trkpt>
      <trkpt lat="45.28072" lon="5.82046">
        <ele>1246</ele>
        <time>2016-08-20T05:48:52Z</time>
      </trkpt>
      <trkpt lat="45.28075" lon="5.82045">
        <ele>1247</ele>
        <time>2016-08-20T05:48:56Z</time>
      </trkpt>
      <trkpt lat="45.28076" lon="5.82044">
        <ele>1247</ele>
        <time>2016-08-20T05:48:57Z</time>
      </trkpt>
      <trkpt lat="45.28078" lon="5.82043">
        <ele>1247</ele>
        <time>2016-08-20T05:48:58Z</time>
      </trkpt>
      <trkpt lat="45.28079" lon="5.82043">
        <ele>1248</ele>
        <time>2016-08-20T05:48:59Z</time>
      </trkpt>
      <trkpt lat="45.28083" lon="5.8204">
        <ele>1250</ele>
        <time>2016-08-20T05:49:06Z</time>
      </trkpt>
      <trkpt lat="45.28084" lon="5.82041">
        <ele>1250</ele>
        <time>2016-08-20T05:49:07Z</time>
      </trkpt>
      <trkpt lat="45.28085" lon="5.8204">
        <ele>1250</ele>
        <time>2016-08-20T05:49:08Z</time>
      </trkpt>
      <trkpt lat="45.28086" lon="5.82039">
        <ele>1250</ele>
        <time>2016-08-20T05:49:09Z</time>
      </trkpt>
      <trkpt lat="45.28087" lon="5.82038">
        <ele>1251</ele>
        <time>2016-08-20T05:49:10Z</time>
      </trkpt>
      <trkpt lat="45.28088" lon="5.82038">
        <ele>1251</ele>
        <time>2016-08-20T05:49:11Z</time>
      </trkpt>
      <trkpt lat="45.2809" lon="5.8204">
        <ele>1253</ele>
        <time>2016-08-20T05:49:17Z</time>
      </trkpt>
      <trkpt lat="45.28091" lon="5.82039">
        <ele>1253</ele>
        <time>2016-08-20T05:49:18Z</time>
      </trkpt>
      <trkpt lat="45.28103" lon="5.82033">
        <ele>1256</ele>
        <time>2016-08-20T05:49:32Z</time>
      </trkpt>
      <trkpt lat="45.28113" lon="5.82033">
        <ele>1258</ele>
        <time>2016-08-20T05:49:39Z</time>
      </trkpt>
      <trkpt lat="45.28117" lon="5.82032">
        <ele>1259</ele>
        <time>2016-08-20T05:49:44Z</time>
      </trkpt>
      <trkpt lat="45.2812" lon="5.8203">
        <ele>1261</ele>
        <time>2016-08-20T05:49:53Z</time>
      </trkpt>
      <trkpt lat="45.28121" lon="5.82031">
        <ele>1261</ele>
        <time>2016-08-20T05:49:54Z</time>
      </trkpt>
      <trkpt lat="45.28126" lon="5.8203">
        <ele>1262</ele>
        <time>2016-08-20T05:49:59Z</time>
      </trkpt>
      <trkpt lat="45.28127" lon="5.82029">
        <ele>1262</ele>
        <time>2016-08-20T05:50:00Z</time>
      </trkpt>
      <trkpt lat="45.28137" lon="5.82031">
        <ele>1264</ele>
        <time>2016-08-20T05:50:09Z</time>
      </trkpt>
      <trkpt lat="45.28146" lon="5.82034">
        <ele>1266</ele>
        <time>2016-08-20T05:50:17Z</time>
      </trkpt>
      <trkpt lat="45.28158" lon="5.82039">
        <ele>1269</ele>
        <time>2016-08-20T05:50:30Z</time>
      </trkpt>
      <trkpt lat="45.28161" lon="5.82041">
        <ele>1270</ele>
        <time>2016-08-20T05:50:33Z</time>
      </trkpt>
      <trkpt lat="45.28163" lon="5.82041">
        <ele>1270</ele>
        <time>2016-08-20T05:50:34Z</time>
      </trkpt>
      <trkpt lat="45.28175" lon="5.82041">
        <ele>1273</ele>
        <time>2016-08-20T05:50:47Z</time>
      </trkpt>
      <trkpt lat="45.28172" lon="5.82025">
        <ele>1275</ele>
        <time>2016-08-20T05:51:01Z</time>
      </trkpt>
      <trkpt lat="45.28172" lon="5.8202">
        <ele>1276</ele>
        <time>2016-08-20T05:51:05Z</time>
      </trkpt>
      <trkpt lat="45.28167" lon="5.82015">
        <ele>1277</ele>
        <time>2016-08-20T05:51:10Z</time>
      </trkpt>
      <trkpt lat="45.28167" lon="5.82013">
        <ele>1277</ele>
        <time>2016-08-20T05:51:11Z</time>
      </trkpt>
      <trkpt lat="45.28166" lon="5.82011">
        <ele>1277</ele>
        <time>2016-08-20T05:51:12Z</time>
      </trkpt>
      <trkpt lat="45.28166" lon="5.8201">
        <ele>1278</ele>
        <time>2016-08-20T05:51:13Z</time>
      </trkpt>
      <trkpt lat="45.28164" lon="5.82009">
        <ele>1278</ele>
        <time>2016-08-20T05:51:15Z</time>
      </trkpt>
      <trkpt lat="45.28161" lon="5.82003">
        <ele>1279</ele>
        <time>2016-08-20T05:51:20Z</time>
      </trkpt>
      <trkpt lat="45.28161" lon="5.82001">
        <ele>1280</ele>
        <time>2016-08-20T05:51:22Z</time>
      </trkpt>
      <trkpt lat="45.28162" lon="5.81998">
        <ele>1280</ele>
        <time>2016-08-20T05:51:24Z</time>
      </trkpt>
      <trkpt lat="45.28164" lon="5.81995">
        <ele>1281</ele>
        <time>2016-08-20T05:51:29Z</time>
      </trkpt>
      <trkpt lat="45.28168" lon="5.81989">
        <ele>1283</ele>
        <time>2016-08-20T05:51:36Z</time>
      </trkpt>
      <trkpt lat="45.28179" lon="5.81993">
        <ele>1286</ele>
        <time>2016-08-20T05:51:49Z</time>
      </trkpt>
      <trkpt lat="45.28185" lon="5.81998">
        <ele>1288</ele>
        <time>2016-08-20T05:51:57Z</time>
      </trkpt>
      <trkpt lat="45.28186" lon="5.81998">
        <ele>1288</ele>
        <time>2016-08-20T05:51:58Z</time>
      </trkpt>
      <trkpt lat="45.28189" lon="5.81995">
        <ele>1290</ele>
        <time>2016-08-20T05:52:03Z</time>
      </trkpt>
      <trkpt lat="45.28188" lon="5.81994">
        <ele>1290</ele>
        <time>2016-08-20T05:52:05Z</time>
      </trkpt>
      <trkpt lat="45.28188" lon="5.81993">
        <ele>1291</ele>
        <time>2016-08-20T05:52:06Z</time>
      </trkpt>
      <trkpt lat="45.28188" lon="5.81991">
        <ele>1291</ele>
        <time>2016-08-20T05:52:07Z</time>
      </trkpt>
      <trkpt lat="45.28188" lon="5.8199">
        <ele>1291</ele>
        <time>2016-08-20T05:52:08Z</time>
      </trkpt>
      <trkpt lat="45.28188" lon="5.81989">
        <ele>1291</ele>
        <time>2016-08-20T05:52:09Z</time>
      </trkpt>
      <trkpt lat="45.2819" lon="5.8198">
        <ele>1293</ele>
        <time>2016-08-20T05:52:16Z</time>
      </trkpt>
      <trkpt lat="45.2819" lon="5.81977">
        <ele>1294</ele>
        <time>2016-08-20T05:52:19Z</time>
      </trkpt>
      <trkpt lat="45.2819" lon="5.81973">
        <ele>1296</ele>
        <time>2016-08-20T05:52:24Z</time>
      </trkpt>
      <trkpt lat="45.28185" lon="5.81955">
        <ele>1299</ele>
        <time>2016-08-20T05:52:38Z</time>
      </trkpt>
      <trkpt lat="45.28183" lon="5.81954">
        <ele>1299</ele>
        <time>2016-08-20T05:52:41Z</time>
      </trkpt>
      <trkpt lat="45.28182" lon="5.81953">
        <ele>1300</ele>
        <time>2016-08-20T05:52:42Z</time>
      </trkpt>
      <trkpt lat="45.28181" lon="5.81952">
        <ele>1300</ele>
        <time>2016-08-20T05:52:43Z</time>
      </trkpt>
      <trkpt lat="45.2818" lon="5.81952">
        <ele>1300</ele>
        <time>2016-08-20T05:52:44Z</time>
      </trkpt>
      <trkpt lat="45.28178" lon="5.81953">
        <ele>1300</ele>
        <time>2016-08-20T05:52:46Z</time>
      </trkpt>
      <trkpt lat="45.28176" lon="5.81951">
        <ele>1301</ele>
        <time>2016-08-20T05:52:49Z</time>
      </trkpt>
      <trkpt lat="45.28173" lon="5.81943">
        <ele>1302</ele>
        <time>2016-08-20T05:52:55Z</time>
      </trkpt>
      <trkpt lat="45.28174" lon="5.81941">
        <ele>1302</ele>
        <time>2016-08-20T05:52:56Z</time>
      </trkpt>
      <trkpt lat="45.28175" lon="5.8194">
        <ele>1303</ele>
        <time>2016-08-20T05:52:57Z</time>
      </trkpt>
      <trkpt lat="45.28176" lon="5.81939">
        <ele>1303</ele>
        <time>2016-08-20T05:52:58Z</time>
      </trkpt>
      <trkpt lat="45.28177" lon="5.81938">
        <ele>1303</ele>
        <time>2016-08-20T05:52:59Z</time>
      </trkpt>
      <trkpt lat="45.28178" lon="5.81938">
        <ele>1304</ele>
        <time>2016-08-20T05:53:01Z</time>
      </trkpt>
      <trkpt lat="45.28181" lon="5.81939">
        <ele>1305</ele>
        <time>2016-08-20T05:53:05Z</time>
      </trkpt>
      <trkpt lat="45.28181" lon="5.81939">
        <ele>1305</ele>
        <time>2016-08-20T05:53:06Z</time>
      </trkpt>
      <trkpt lat="45.28183" lon="5.8194">
        <ele>1305</ele>
        <time>2016-08-20T05:53:08Z</time>
      </trkpt>
      <trkpt lat="45.28185" lon="5.81939">
        <ele>1305</ele>
        <time>2016-08-20T05:53:09Z</time>
      </trkpt>
      <trkpt lat="45.282" lon="5.81941">
        <ele>1307</ele>
        <time>2016-08-20T05:53:21Z</time>
      </trkpt>
      <trkpt lat="45.28205" lon="5.81943">
        <ele>1309</ele>
        <time>2016-08-20T05:53:29Z</time>
      </trkpt>
      <trkpt lat="45.28213" lon="5.81952">
        <ele>1311</ele>
        <time>2016-08-20T05:53:39Z</time>
      </trkpt>
      <trkpt lat="45.28213" lon="5.81954">
        <ele>1311</ele>
        <time>2016-08-20T05:53:40Z</time>
      </trkpt>
      <trkpt lat="45.28213" lon="5.81956">
        <ele>1311</ele>
        <time>2016-08-20T05:53:41Z</time>
      </trkpt>
      <trkpt lat="45.28214" lon="5.81958">
        <ele>1311</ele>
        <time>2016-08-20T05:53:42Z</time>
      </trkpt>
      <trkpt lat="45.28214" lon="5.81959">
        <ele>1312</ele>
        <time>2016-08-20T05:53:43Z</time>
      </trkpt>
      <trkpt lat="45.28214" lon="5.8196">
        <ele>1312</ele>
        <time>2016-08-20T05:53:44Z</time>
      </trkpt>
      <trkpt lat="45.28215" lon="5.81962">
        <ele>1312</ele>
        <time>2016-08-20T05:53:45Z</time>
      </trkpt>
      <trkpt lat="45.28215" lon="5.81964">
        <ele>1312</ele>
        <time>2016-08-20T05:53:46Z</time>
      </trkpt>
      <trkpt lat="45.28225" lon="5.8198">
        <ele>1315</ele>
        <time>2016-08-20T05:53:59Z</time>
      </trkpt>
      <trkpt lat="45.28243" lon="5.81988">
        <ele>1318</ele>
        <time>2016-08-20T05:54:15Z</time>
      </trkpt>
      <trkpt lat="45.28256" lon="5.81988">
        <ele>1321</ele>
        <time>2016-08-20T05:54:29Z</time>
      </trkpt>
      <trkpt lat="45.28265" lon="5.81989">
        <ele>1324</ele>
        <time>2016-08-20T05:54:41Z</time>
      </trkpt>
      <trkpt lat="45.28272" lon="5.81988">
        <ele>1326</ele>
        <time>2016-08-20T05:54:47Z</time>
      </trkpt>
      <trkpt lat="45.28279" lon="5.81984">
        <ele>1327</ele>
        <time>2016-08-20T05:54:53Z</time>
      </trkpt>
      <trkpt lat="45.28281" lon="5.8198">
        <ele>1328</ele>
        <time>2016-08-20T05:54:57Z</time>
      </trkpt>
      <trkpt lat="45.28282" lon="5.81979">
        <ele>1328</ele>
        <time>2016-08-20T05:54:58Z</time>
      </trkpt>
      <trkpt lat="45.28283" lon="5.81976">
        <ele>1329</ele>
        <time>2016-08-20T05:55:03Z</time>
      </trkpt>
      <trkpt lat="45.28282" lon="5.81975">
        <ele>1329</ele>
        <time>2016-08-20T05:55:04Z</time>
      </trkpt>
      <trkpt lat="45.28282" lon="5.81975">
        <ele>1329</ele>
        <time>2016-08-20T05:55:05Z</time>
      </trkpt>
      <trkpt lat="45.28281" lon="5.81969">
        <ele>1330</ele>
        <time>2016-08-20T05:55:11Z</time>
      </trkpt>
      <trkpt lat="45.28277" lon="5.81968">
        <ele>1332</ele>
        <time>2016-08-20T05:55:17Z</time>
      </trkpt>
      <trkpt lat="45.28275" lon="5.81968">
        <ele>1332</ele>
        <time>2016-08-20T05:55:18Z</time>
      </trkpt>
      <trkpt lat="45.28271" lon="5.81967">
        <ele>1333</ele>
        <time>2016-08-20T05:55:22Z</time>
      </trkpt>
      <trkpt lat="45.28267" lon="5.81964">
        <ele>1333</ele>
        <time>2016-08-20T05:55:28Z</time>
      </trkpt>
      <trkpt lat="45.28266" lon="5.81963">
        <ele>1333</ele>
        <time>2016-08-20T05:55:29Z</time>
      </trkpt>
      <trkpt lat="45.28264" lon="5.81962">
        <ele>1333</ele>
        <time>2016-08-20T05:55:30Z</time>
      </trkpt>
      <trkpt lat="45.28258" lon="5.81955">
        <ele>1334</ele>
        <time>2016-08-20T05:55:36Z</time>
      </trkpt>
      <trkpt lat="45.28257" lon="5.81954">
        <ele>1334</ele>
        <time>2016-08-20T05:55:37Z</time>
      </trkpt>
      <trkpt lat="45.28256" lon="5.81952">
        <ele>1334</ele>
        <time>2016-08-20T05:55:38Z</time>
      </trkpt>
      <trkpt lat="45.28256" lon="5.81951">
        <ele>1335</ele>
        <time>2016-08-20T05:55:39Z</time>
      </trkpt>
      <trkpt lat="45.28255" lon="5.8195">
        <ele>1335</ele>
        <time>2016-08-20T05:55:40Z</time>
      </trkpt>
      <trkpt lat="45.28252" lon="5.81946">
        <ele>1335</ele>
        <time>2016-08-20T05:55:44Z</time>
      </trkpt>
      <trkpt lat="45.28251" lon="5.81944">
        <ele>1335</ele>
        <time>2016-08-20T05:55:45Z</time>
      </trkpt>
      <trkpt lat="45.2825" lon="5.81938">
        <ele>1336</ele>
        <time>2016-08-20T05:55:49Z</time>
      </trkpt>
      <trkpt lat="45.28247" lon="5.81934">
        <ele>1337</ele>
        <time>2016-08-20T05:55:53Z</time>
      </trkpt>
      <trkpt lat="45.28248" lon="5.81932">
        <ele>1337</ele>
        <time>2016-08-20T05:55:54Z</time>
      </trkpt>
      <trkpt lat="45.28248" lon="5.81931">
        <ele>1337</ele>
        <time>2016-08-20T05:55:55Z</time>
      </trkpt>
      <trkpt lat="45.28249" lon="5.81931">
        <ele>1337</ele>
        <time>2016-08-20T05:55:56Z</time>
      </trkpt>
      <trkpt lat="45.28252" lon="5.81934">
        <ele>1339</ele>
        <time>2016-08-20T05:56:04Z</time>
      </trkpt>
      <trkpt lat="45.28261" lon="5.81939">
        <ele>1342</ele>
        <time>2016-08-20T05:56:18Z</time>
      </trkpt>
      <trkpt lat="45.28266" lon="5.81939">
        <ele>1343</ele>
        <time>2016-08-20T05:56:23Z</time>
      </trkpt>
      <trkpt lat="45.28267" lon="5.8194">
        <ele>1343</ele>
        <time>2016-08-20T05:56:24Z</time>
      </trkpt>
      <trkpt lat="45.28269" lon="5.8194">
        <ele>1343</ele>
        <time>2016-08-20T05:56:25Z</time>
      </trkpt>
      <trkpt lat="45.28277" lon="5.81938">
        <ele>1344</ele>
        <time>2016-08-20T05:56:32Z</time>
      </trkpt>
      <trkpt lat="45.2828" lon="5.81938">
        <ele>1345</ele>
        <time>2016-08-20T05:56:34Z</time>
      </trkpt>
      <trkpt lat="45.28281" lon="5.81938">
        <ele>1345</ele>
        <time>2016-08-20T05:56:35Z</time>
      </trkpt>
      <trkpt lat="45.28285" lon="5.81939">
        <ele>1345</ele>
        <time>2016-08-20T05:56:38Z</time>
      </trkpt>
      <trkpt lat="45.28286" lon="5.81939">
        <ele>1345</ele>
        <time>2016-08-20T05:56:39Z</time>
      </trkpt>
      <trkpt lat="45.28288" lon="5.81938">
        <ele>1346</ele>
        <time>2016-08-20T05:56:41Z</time>
      </trkpt>
      <trkpt lat="45.2829" lon="5.81938">
        <ele>1346</ele>
        <time>2016-08-20T05:56:42Z</time>
      </trkpt>
      <trkpt lat="45.28309" lon="5.81942">
        <ele>1349</ele>
        <time>2016-08-20T05:57:01Z</time>
      </trkpt>
      <trkpt lat="45.2831" lon="5.81941">
        <ele>1349</ele>
        <time>2016-08-20T05:57:02Z</time>
      </trkpt>
      <trkpt lat="45.28313" lon="5.8194">
        <ele>1350</ele>
        <time>2016-08-20T05:57:05Z</time>
      </trkpt>
      <trkpt lat="45.28315" lon="5.81939">
        <ele>1350</ele>
        <time>2016-08-20T05:57:06Z</time>
      </trkpt>
      <trkpt lat="45.28317" lon="5.8194">
        <ele>1350</ele>
        <time>2016-08-20T05:57:08Z</time>
      </trkpt>
      <trkpt lat="45.28325" lon="5.81941">
        <ele>1352</ele>
        <time>2016-08-20T05:57:15Z</time>
      </trkpt>
      <trkpt lat="45.28331" lon="5.81941">
        <ele>1353</ele>
        <time>2016-08-20T05:57:20Z</time>
      </trkpt>
      <trkpt lat="45.28333" lon="5.8194">
        <ele>1353</ele>
        <time>2016-08-20T05:57:21Z</time>
      </trkpt>
      <trkpt lat="45.28334" lon="5.8194">
        <ele>1353</ele>
        <time>2016-08-20T05:57:22Z</time>
      </trkpt>
      <trkpt lat="45.28335" lon="5.81939">
        <ele>1353</ele>
        <time>2016-08-20T05:57:23Z</time>
      </trkpt>
      <trkpt lat="45.28337" lon="5.81937">
        <ele>1354</ele>
        <time>2016-08-20T05:57:25Z</time>
      </trkpt>
      <trkpt lat="45.28338" lon="5.81937">
        <ele>1354</ele>
        <time>2016-08-20T05:57:26Z</time>
      </trkpt>
      <trkpt lat="45.2835" lon="5.81939">
        <ele>1357</ele>
        <time>2016-08-20T05:57:40Z</time>
      </trkpt>
      <trkpt lat="45.28352" lon="5.81938">
        <ele>1357</ele>
        <time>2016-08-20T05:57:42Z</time>
      </trkpt>
      <trkpt lat="45.28353" lon="5.81939">
        <ele>1359</ele>
        <time>2016-08-20T05:57:49Z</time>
      </trkpt>
      <trkpt lat="45.28352" lon="5.81939">
        <ele>1359</ele>
        <time>2016-08-20T05:57:50Z</time>
      </trkpt>
      <trkpt lat="45.28347" lon="5.81933">
        <ele>1361</ele>
        <time>2016-08-20T05:57:59Z</time>
      </trkpt>
      <trkpt lat="45.28347" lon="5.81932">
        <ele>1361</ele>
        <time>2016-08-20T05:58:00Z</time>
      </trkpt>
      <trkpt lat="45.28346" lon="5.81932">
        <ele>1361</ele>
        <time>2016-08-20T05:58:01Z</time>
      </trkpt>
      <trkpt lat="45.28344" lon="5.81931">
        <ele>1362</ele>
        <time>2016-08-20T05:58:06Z</time>
      </trkpt>
      <trkpt lat="45.28343" lon="5.8193">
        <ele>1363</ele>
        <time>2016-08-20T05:58:07Z</time>
      </trkpt>
      <trkpt lat="45.28342" lon="5.81926">
        <ele>1364</ele>
        <time>2016-08-20T05:58:11Z</time>
      </trkpt>
      <trkpt lat="45.28347" lon="5.81921">
        <ele>1367</ele>
        <time>2016-08-20T05:58:24Z</time>
      </trkpt>
      <trkpt lat="45.28348" lon="5.81921">
        <ele>1367</ele>
        <time>2016-08-20T05:58:25Z</time>
      </trkpt>
      <trkpt lat="45.2835" lon="5.81922">
        <ele>1367</ele>
        <time>2016-08-20T05:58:26Z</time>
      </trkpt>
      <trkpt lat="45.28356" lon="5.81922">
        <ele>1369</ele>
        <time>2016-08-20T05:58:32Z</time>
      </trkpt>
      <trkpt lat="45.28357" lon="5.81922">
        <ele>1369</ele>
        <time>2016-08-20T05:58:33Z</time>
      </trkpt>
      <trkpt lat="45.28366" lon="5.81919">
        <ele>1372</ele>
        <time>2016-08-20T05:58:46Z</time>
      </trkpt>
      <trkpt lat="45.28373" lon="5.81919">
        <ele>1374</ele>
        <time>2016-08-20T05:58:53Z</time>
      </trkpt>
      <trkpt lat="45.28374" lon="5.81919">
        <ele>1374</ele>
        <time>2016-08-20T05:58:54Z</time>
      </trkpt>
      <trkpt lat="45.28381" lon="5.81924">
        <ele>1377</ele>
        <time>2016-08-20T05:59:06Z</time>
      </trkpt>
      <trkpt lat="45.28384" lon="5.81923">
        <ele>1378</ele>
        <time>2016-08-20T05:59:09Z</time>
      </trkpt>
      <trkpt lat="45.28386" lon="5.81922">
        <ele>1378</ele>
        <time>2016-08-20T05:59:10Z</time>
      </trkpt>
      <trkpt lat="45.2839" lon="5.8192">
        <ele>1380</ele>
        <time>2016-08-20T05:59:16Z</time>
      </trkpt>
      <trkpt lat="45.28392" lon="5.8192">
        <ele>1380</ele>
        <time>2016-08-20T05:59:17Z</time>
      </trkpt>
      <trkpt lat="45.28393" lon="5.8192">
        <ele>1381</ele>
        <time>2016-08-20T05:59:19Z</time>
      </trkpt>
      <trkpt lat="45.28396" lon="5.81921">
        <ele>1381</ele>
        <time>2016-08-20T05:59:22Z</time>
      </trkpt>
      <trkpt lat="45.28397" lon="5.8192">
        <ele>1382</ele>
        <time>2016-08-20T05:59:23Z</time>
      </trkpt>
      <trkpt lat="45.28404" lon="5.81918">
        <ele>1385</ele>
        <time>2016-08-20T05:59:34Z</time>
      </trkpt>
      <trkpt lat="45.2842" lon="5.81918">
        <ele>1388</ele>
        <time>2016-08-20T05:59:46Z</time>
      </trkpt>
      <trkpt lat="45.28424" lon="5.81918">
        <ele>1389</ele>
        <time>2016-08-20T05:59:49Z</time>
      </trkpt>
      <trkpt lat="45.28433" lon="5.81915">
        <ele>1390</ele>
        <time>2016-08-20T06:00:00Z</time>
      </trkpt>
      <trkpt lat="45.28434" lon="5.81915">
        <ele>1390</ele>
        <time>2016-08-20T06:00:01Z</time>
      </trkpt>
      <trkpt lat="45.28435" lon="5.81914">
        <ele>1390</ele>
        <time>2016-08-20T06:00:02Z</time>
      </trkpt>
      <trkpt lat="45.28448" lon="5.81911">
        <ele>1389</ele>
        <time>2016-08-20T06:00:13Z</time>
      </trkpt>
      <trkpt lat="45.28447" lon="5.81908">
        <ele>1388</ele>
        <time>2016-08-20T06:00:16Z</time>
      </trkpt>
      <trkpt lat="45.28428" lon="5.819">
        <ele>1391</ele>
        <time>2016-08-20T06:00:32Z</time>
      </trkpt>
      <trkpt lat="45.28402" lon="5.81891">
        <ele>1392</ele>
        <time>2016-08-20T06:00:47Z</time>
      </trkpt>
      <trkpt lat="45.28375" lon="5.81883">
        <ele>1393</ele>
        <time>2016-08-20T06:01:01Z</time>
      </trkpt>
      <trkpt lat="45.2835" lon="5.81864">
        <ele>1392</ele>
        <time>2016-08-20T06:01:12Z</time>
      </trkpt>
      <trkpt lat="45.28331" lon="5.81843">
        <ele>1390</ele>
        <time>2016-08-20T06:01:22Z</time>
      </trkpt>
      <trkpt lat="45.28311" lon="5.81827">
        <ele>1388</ele>
        <time>2016-08-20T06:01:32Z</time>
      </trkpt>
      <trkpt lat="45.28288" lon="5.81809">
        <ele>1387</ele>
        <time>2016-08-20T06:01:43Z</time>
      </trkpt>
      <trkpt lat="45.28268" lon="5.81787">
        <ele>1385</ele>
        <time>2016-08-20T06:01:53Z</time>
      </trkpt>
      <trkpt lat="45.2826" lon="5.8178">
        <ele>1384</ele>
        <time>2016-08-20T06:02:02Z</time>
      </trkpt>
      <trkpt lat="45.28258" lon="5.81779">
        <ele>1384</ele>
        <time>2016-08-20T06:02:03Z</time>
      </trkpt>
      <trkpt lat="45.28257" lon="5.81778">
        <ele>1384</ele>
        <time>2016-08-20T06:02:04Z</time>
      </trkpt>
      <trkpt lat="45.28256" lon="5.81776">
        <ele>1384</ele>
        <time>2016-08-20T06:02:05Z</time>
      </trkpt>
      <trkpt lat="45.28245" lon="5.81764">
        <ele>1386</ele>
        <time>2016-08-20T06:02:16Z</time>
      </trkpt>
      <trkpt lat="45.28244" lon="5.81763">
        <ele>1386</ele>
        <time>2016-08-20T06:02:17Z</time>
      </trkpt>
      <trkpt lat="45.28242" lon="5.8176">
        <ele>1386</ele>
        <time>2016-08-20T06:02:18Z</time>
      </trkpt>
      <trkpt lat="45.28226" lon="5.81749">
        <ele>1388</ele>
        <time>2016-08-20T06:02:32Z</time>
      </trkpt>
      <trkpt lat="45.28225" lon="5.81748">
        <ele>1388</ele>
        <time>2016-08-20T06:02:33Z</time>
      </trkpt>
      <trkpt lat="45.28221" lon="5.81743">
        <ele>1388</ele>
        <time>2016-08-20T06:02:37Z</time>
      </trkpt>
      <trkpt lat="45.2822" lon="5.81741">
        <ele>1388</ele>
        <time>2016-08-20T06:02:38Z</time>
      </trkpt>
      <trkpt lat="45.28218" lon="5.81739">
        <ele>1388</ele>
        <time>2016-08-20T06:02:39Z</time>
      </trkpt>
      <trkpt lat="45.28216" lon="5.81738">
        <ele>1388</ele>
        <time>2016-08-20T06:02:40Z</time>
      </trkpt>
      <trkpt lat="45.28215" lon="5.81737">
        <ele>1388</ele>
        <time>2016-08-20T06:02:41Z</time>
      </trkpt>
      <trkpt lat="45.28214" lon="5.81736">
        <ele>1388</ele>
        <time>2016-08-20T06:02:42Z</time>
      </trkpt>
      <trkpt lat="45.2821" lon="5.81735">
        <ele>1388</ele>
        <time>2016-08-20T06:02:45Z</time>
      </trkpt>
      <trkpt lat="45.28209" lon="5.81735">
        <ele>1389</ele>
        <time>2016-08-20T06:02:46Z</time>
      </trkpt>
      <trkpt lat="45.28194" lon="5.81732">
        <ele>1392</ele>
        <time>2016-08-20T06:02:59Z</time>
      </trkpt>
      <trkpt lat="45.28189" lon="5.8173">
        <ele>1393</ele>
        <time>2016-08-20T06:03:04Z</time>
      </trkpt>
      <trkpt lat="45.28188" lon="5.8173">
        <ele>1393</ele>
        <time>2016-08-20T06:03:05Z</time>
      </trkpt>
      <trkpt lat="45.28187" lon="5.81728">
        <ele>1394</ele>
        <time>2016-08-20T06:03:06Z</time>
      </trkpt>
      <trkpt lat="45.28175" lon="5.81725">
        <ele>1397</ele>
        <time>2016-08-20T06:03:22Z</time>
      </trkpt>
      <trkpt lat="45.28161" lon="5.81717">
        <ele>1400</ele>
        <time>2016-08-20T06:03:36Z</time>
      </trkpt>
      <trkpt lat="45.28145" lon="5.81711">
        <ele>1403</ele>
        <time>2016-08-20T06:03:51Z</time>
      </trkpt>
      <trkpt lat="45.28132" lon="5.81705">
        <ele>1406</ele>
        <time>2016-08-20T06:04:03Z</time>
      </trkpt>
      <trkpt lat="45.2813" lon="5.81706">
        <ele>1407</ele>
        <time>2016-08-20T06:04:05Z</time>
      </trkpt>
      <trkpt lat="45.28129" lon="5.81706">
        <ele>1407</ele>
        <time>2016-08-20T06:04:06Z</time>
      </trkpt>
      <trkpt lat="45.28118" lon="5.81707">
        <ele>1410</ele>
        <time>2016-08-20T06:04:17Z</time>
      </trkpt>
      <trkpt lat="45.28109" lon="5.81704">
        <ele>1413</ele>
        <time>2016-08-20T06:04:29Z</time>
      </trkpt>
      <trkpt lat="45.28098" lon="5.817">
        <ele>1416</ele>
        <time>2016-08-20T06:04:42Z</time>
      </trkpt>
      <trkpt lat="45.2809" lon="5.81696">
        <ele>1419</ele>
        <time>2016-08-20T06:04:53Z</time>
      </trkpt>
      <trkpt lat="45.28089" lon="5.81691">
        <ele>1420</ele>
        <time>2016-08-20T06:04:58Z</time>
      </trkpt>
      <trkpt lat="45.28089" lon="5.81689">
        <ele>1420</ele>
        <time>2016-08-20T06:04:59Z</time>
      </trkpt>
      <trkpt lat="45.28088" lon="5.8168">
        <ele>1424</ele>
        <time>2016-08-20T06:05:11Z</time>
      </trkpt>
      <trkpt lat="45.28088" lon="5.81665">
        <ele>1427</ele>
        <time>2016-08-20T06:05:25Z</time>
      </trkpt>
      <trkpt lat="45.28079" lon="5.81653">
        <ele>1430</ele>
        <time>2016-08-20T06:05:37Z</time>
      </trkpt>
      <trkpt lat="45.28069" lon="5.81634">
        <ele>1433</ele>
        <time>2016-08-20T06:05:52Z</time>
      </trkpt>
      <trkpt lat="45.2807" lon="5.81631">
        <ele>1434</ele>
        <time>2016-08-20T06:05:54Z</time>
      </trkpt>
      <trkpt lat="45.28071" lon="5.81627">
        <ele>1435</ele>
        <time>2016-08-20T06:05:57Z</time>
      </trkpt>
      <trkpt lat="45.28071" lon="5.81625">
        <ele>1435</ele>
        <time>2016-08-20T06:05:59Z</time>
      </trkpt>
      <trkpt lat="45.2807" lon="5.81622">
        <ele>1436</ele>
        <time>2016-08-20T06:06:01Z</time>
      </trkpt>
      <trkpt lat="45.28069" lon="5.81621">
        <ele>1437</ele>
        <time>2016-08-20T06:06:02Z</time>
      </trkpt>
      <trkpt lat="45.28053" lon="5.81609">
        <ele>1440</ele>
        <time>2016-08-20T06:06:17Z</time>
      </trkpt>
      <trkpt lat="45.2804" lon="5.81589">
        <ele>1441</ele>
        <time>2016-08-20T06:06:28Z</time>
      </trkpt>
      <trkpt lat="45.28035" lon="5.81581">
        <ele>1441</ele>
        <time>2016-08-20T06:06:33Z</time>
      </trkpt>
      <trkpt lat="45.28034" lon="5.81581">
        <ele>1441</ele>
        <time>2016-08-20T06:06:34Z</time>
      </trkpt>
      <trkpt lat="45.28027" lon="5.81573">
        <ele>1443</ele>
        <time>2016-08-20T06:06:41Z</time>
      </trkpt>
      <trkpt lat="45.28025" lon="5.81571">
        <ele>1444</ele>
        <time>2016-08-20T06:06:46Z</time>
      </trkpt>
      <trkpt lat="45.28023" lon="5.81571">
        <ele>1444</ele>
        <time>2016-08-20T06:06:48Z</time>
      </trkpt>
      <trkpt lat="45.28021" lon="5.8157">
        <ele>1444</ele>
        <time>2016-08-20T06:06:49Z</time>
      </trkpt>
      <trkpt lat="45.28021" lon="5.81569">
        <ele>1445</ele>
        <time>2016-08-20T06:06:50Z</time>
      </trkpt>
      <trkpt lat="45.2802" lon="5.81567">
        <ele>1445</ele>
        <time>2016-08-20T06:06:51Z</time>
      </trkpt>
      <trkpt lat="45.2802" lon="5.81566">
        <ele>1445</ele>
        <time>2016-08-20T06:06:52Z</time>
      </trkpt>
      <trkpt lat="45.28019" lon="5.8156">
        <ele>1446</ele>
        <time>2016-08-20T06:06:58Z</time>
      </trkpt>
      <trkpt lat="45.28019" lon="5.81558">
        <ele>1446</ele>
        <time>2016-08-20T06:06:59Z</time>
      </trkpt>
      <trkpt lat="45.28018" lon="5.81557">
        <ele>1446</ele>
        <time>2016-08-20T06:07:00Z</time>
      </trkpt>
      <trkpt lat="45.28018" lon="5.81555">
        <ele>1446</ele>
        <time>2016-08-20T06:07:01Z</time>
      </trkpt>
      <trkpt lat="45.28015" lon="5.81544">
        <ele>1449</ele>
        <time>2016-08-20T06:07:10Z</time>
      </trkpt>
      <trkpt lat="45.28012" lon="5.81534">
        <ele>1452</ele>
        <time>2016-08-20T06:07:20Z</time>
      </trkpt>
      <trkpt lat="45.28004" lon="5.81504">
        <ele>1453</ele>
        <time>2016-08-20T06:07:35Z</time>
      </trkpt>
      <trkpt lat="45.28002" lon="5.81498">
        <ele>1452</ele>
        <time>2016-08-20T06:07:38Z</time>
      </trkpt>
      <trkpt lat="45.28002" lon="5.81489">
        <ele>1452</ele>
        <time>2016-08-20T06:07:43Z</time>
      </trkpt>
      <trkpt lat="45.28003" lon="5.81486">
        <ele>1452</ele>
        <time>2016-08-20T06:07:44Z</time>
      </trkpt>
      <trkpt lat="45.28003" lon="5.81481">
        <ele>1451</ele>
        <time>2016-08-20T06:07:45Z</time>
      </trkpt>
      <trkpt lat="45.28003" lon="5.81477">
        <ele>1451</ele>
        <time>2016-08-20T06:07:46Z</time>
      </trkpt>
      <trkpt lat="45.28003" lon="5.81473">
        <ele>1451</ele>
        <time>2016-08-20T06:07:47Z</time>
      </trkpt>
      <trkpt lat="45.28002" lon="5.81469">
        <ele>1451</ele>
        <time>2016-08-20T06:07:48Z</time>
      </trkpt>
      <trkpt lat="45.28002" lon="5.81465">
        <ele>1452</ele>
        <time>2016-08-20T06:07:49Z</time>
      </trkpt>
      <trkpt lat="45.28002" lon="5.81432">
        <ele>1454</ele>
        <time>2016-08-20T06:07:58Z</time>
      </trkpt>
      <trkpt lat="45.28006" lon="5.81404">
        <ele>1454</ele>
        <time>2016-08-20T06:08:06Z</time>
      </trkpt>
      <trkpt lat="45.28011" lon="5.81378">
        <ele>1453</ele>
        <time>2016-08-20T06:08:13Z</time>
      </trkpt>
      <trkpt lat="45.28013" lon="5.8135">
        <ele>1452</ele>
        <time>2016-08-20T06:08:21Z</time>
      </trkpt>
      <trkpt lat="45.28015" lon="5.81322">
        <ele>1448</ele>
        <time>2016-08-20T06:08:29Z</time>
      </trkpt>
      <trkpt lat="45.28021" lon="5.81301">
        <ele>1445</ele>
        <time>2016-08-20T06:08:35Z</time>
      </trkpt>
      <trkpt lat="45.28028" lon="5.81282">
        <ele>1442</ele>
        <time>2016-08-20T06:08:41Z</time>
      </trkpt>
      <trkpt lat="45.28034" lon="5.81266">
        <ele>1439</ele>
        <time>2016-08-20T06:08:46Z</time>
      </trkpt>
      <trkpt lat="45.28039" lon="5.8125">
        <ele>1436</ele>
        <time>2016-08-20T06:08:51Z</time>
      </trkpt>
      <trkpt lat="45.28042" lon="5.81238">
        <ele>1432</ele>
        <time>2016-08-20T06:08:55Z</time>
      </trkpt>
      <trkpt lat="45.28047" lon="5.81228">
        <ele>1429</ele>
        <time>2016-08-20T06:08:59Z</time>
      </trkpt>
      <trkpt lat="45.28051" lon="5.81216">
        <ele>1426</ele>
        <time>2016-08-20T06:09:03Z</time>
      </trkpt>
      <trkpt lat="45.28058" lon="5.81201">
        <ele>1423</ele>
        <time>2016-08-20T06:09:08Z</time>
      </trkpt>
      <trkpt lat="45.28064" lon="5.81182">
        <ele>1420</ele>
        <time>2016-08-20T06:09:14Z</time>
      </trkpt>
      <trkpt lat="45.28069" lon="5.81164">
        <ele>1417</ele>
        <time>2016-08-20T06:09:19Z</time>
      </trkpt>
      <trkpt lat="45.28076" lon="5.81146">
        <ele>1413</ele>
        <time>2016-08-20T06:09:24Z</time>
      </trkpt>
      <trkpt lat="45.28084" lon="5.81128">
        <ele>1410</ele>
        <time>2016-08-20T06:09:30Z</time>
      </trkpt>
      <trkpt lat="45.28095" lon="5.81112">
        <ele>1407</ele>
        <time>2016-08-20T06:09:36Z</time>
      </trkpt>
      <trkpt lat="45.28105" lon="5.81095">
        <ele>1403</ele>
        <time>2016-08-20T06:09:42Z</time>
      </trkpt>
      <trkpt lat="45.28113" lon="5.8108">
        <ele>1400</ele>
        <time>2016-08-20T06:09:47Z</time>
      </trkpt>
      <trkpt lat="45.28129" lon="5.81059">
        <ele>1397</ele>
        <time>2016-08-20T06:09:54Z</time>
      </trkpt>
      <trkpt lat="45.28137" lon="5.81031">
        <ele>1395</ele>
        <time>2016-08-20T06:10:01Z</time>
      </trkpt>
      <trkpt lat="45.28142" lon="5.81001">
        <ele>1393</ele>
        <time>2016-08-20T06:10:09Z</time>
      </trkpt>
      <trkpt lat="45.28145" lon="5.80973">
        <ele>1391</ele>
        <time>2016-08-20T06:10:16Z</time>
      </trkpt>
      <trkpt lat="45.28147" lon="5.80947">
        <ele>1388</ele>
        <time>2016-08-20T06:10:23Z</time>
      </trkpt>
      <trkpt lat="45.28147" lon="5.80939">
        <ele>1386</ele>
        <time>2016-08-20T06:10:26Z</time>
      </trkpt>
      <trkpt lat="45.28139" lon="5.80923">
        <ele>1383</ele>
        <time>2016-08-20T06:10:33Z</time>
      </trkpt>
      <trkpt lat="45.28128" lon="5.80903">
        <ele>1380</ele>
        <time>2016-08-20T06:10:40Z</time>
      </trkpt>
      <trkpt lat="45.28117" lon="5.8089">
        <ele>1377</ele>
        <time>2016-08-20T06:10:47Z</time>
      </trkpt>
      <trkpt lat="45.28107" lon="5.8088">
        <ele>1374</ele>
        <time>2016-08-20T06:10:53Z</time>
      </trkpt>
      <trkpt lat="45.28095" lon="5.8087">
        <ele>1371</ele>
        <time>2016-08-20T06:10:59Z</time>
      </trkpt>
      <trkpt lat="45.28082" lon="5.80857">
        <ele>1367</ele>
        <time>2016-08-20T06:11:05Z</time>
      </trkpt>
      <trkpt lat="45.28066" lon="5.80847">
        <ele>1364</ele>
        <time>2016-08-20T06:11:12Z</time>
      </trkpt>
      <trkpt lat="45.28048" lon="5.80835">
        <ele>1362</ele>
        <time>2016-08-20T06:11:19Z</time>
      </trkpt>
      <trkpt lat="45.28041" lon="5.80827">
        <ele>1360</ele>
        <time>2016-08-20T06:11:22Z</time>
      </trkpt>
      <trkpt lat="45.28023" lon="5.80813">
        <ele>1359</ele>
        <time>2016-08-20T06:11:29Z</time>
      </trkpt>
      <trkpt lat="45.28003" lon="5.80801">
        <ele>1357</ele>
        <time>2016-08-20T06:11:37Z</time>
      </trkpt>
      <trkpt lat="45.27982" lon="5.80792">
        <ele>1355</ele>
        <time>2016-08-20T06:11:45Z</time>
      </trkpt>
      <trkpt lat="45.27961" lon="5.80782">
        <ele>1352</ele>
        <time>2016-08-20T06:11:54Z</time>
      </trkpt>
      <trkpt lat="45.27945" lon="5.80772">
        <ele>1349</ele>
        <time>2016-08-20T06:12:03Z</time>
      </trkpt>
      <trkpt lat="45.27928" lon="5.80757">
        <ele>1346</ele>
        <time>2016-08-20T06:12:12Z</time>
      </trkpt>
      <trkpt lat="45.27913" lon="5.80738">
        <ele>1343</ele>
        <time>2016-08-20T06:12:20Z</time>
      </trkpt>
      <trkpt lat="45.27906" lon="5.80737">
        <ele>1341</ele>
        <time>2016-08-20T06:12:25Z</time>
      </trkpt>
      <trkpt lat="45.27904" lon="5.80737">
        <ele>1341</ele>
        <time>2016-08-20T06:12:26Z</time>
      </trkpt>
      <trkpt lat="45.27904" lon="5.80736">
        <ele>1340</ele>
        <time>2016-08-20T06:12:27Z</time>
      </trkpt>
      <trkpt lat="45.27903" lon="5.8073">
        <ele>1340</ele>
        <time>2016-08-20T06:12:32Z</time>
      </trkpt>
      <trkpt lat="45.27903" lon="5.80728">
        <ele>1340</ele>
        <time>2016-08-20T06:12:33Z</time>
      </trkpt>
      <trkpt lat="45.27888" lon="5.80706">
        <ele>1337</ele>
        <time>2016-08-20T06:12:43Z</time>
      </trkpt>
      <trkpt lat="45.27876" lon="5.80693">
        <ele>1333</ele>
        <time>2016-08-20T06:12:50Z</time>
      </trkpt>
      <trkpt lat="45.2786" lon="5.80682">
        <ele>1330</ele>
        <time>2016-08-20T06:12:57Z</time>
      </trkpt>
      <trkpt lat="45.27856" lon="5.80678">
        <ele>1329</ele>
        <time>2016-08-20T06:12:59Z</time>
      </trkpt>
      <trkpt lat="45.27848" lon="5.80668">
        <ele>1327</ele>
        <time>2016-08-20T06:13:04Z</time>
      </trkpt>
      <trkpt lat="45.27847" lon="5.80664">
        <ele>1326</ele>
        <time>2016-08-20T06:13:05Z</time>
      </trkpt>
      <trkpt lat="45.27847" lon="5.80659">
        <ele>1326</ele>
        <time>2016-08-20T06:13:06Z</time>
      </trkpt>
      <trkpt lat="45.27847" lon="5.80655">
        <ele>1325</ele>
        <time>2016-08-20T06:13:07Z</time>
      </trkpt>
      <trkpt lat="45.27848" lon="5.80652">
        <ele>1325</ele>
        <time>2016-08-20T06:13:08Z</time>
      </trkpt>
      <trkpt lat="45.27851" lon="5.80643">
        <ele>1324</ele>
        <time>2016-08-20T06:13:11Z</time>
      </trkpt>
      <trkpt lat="45.27854" lon="5.80641">
        <ele>1324</ele>
        <time>2016-08-20T06:13:12Z</time>
      </trkpt>
      <trkpt lat="45.27856" lon="5.80639">
        <ele>1324</ele>
        <time>2016-08-20T06:13:13Z</time>
      </trkpt>
      <trkpt lat="45.27878" lon="5.80634">
        <ele>1321</ele>
        <time>2016-08-20T06:13:20Z</time>
      </trkpt>
      <trkpt lat="45.27897" lon="5.80636">
        <ele>1320</ele>
        <time>2016-08-20T06:13:28Z</time>
      </trkpt>
      <trkpt lat="45.27918" lon="5.80639">
        <ele>1320</ele>
        <time>2016-08-20T06:13:35Z</time>
      </trkpt>
      <trkpt lat="45.27936" lon="5.80645">
        <ele>1319</ele>
        <time>2016-08-20T06:13:44Z</time>
      </trkpt>
      <trkpt lat="45.27955" lon="5.80646">
        <ele>1318</ele>
        <time>2016-08-20T06:13:51Z</time>
      </trkpt>
      <trkpt lat="45.27972" lon="5.80645">
        <ele>1317</ele>
        <time>2016-08-20T06:13:59Z</time>
      </trkpt>
      <trkpt lat="45.27992" lon="5.80638">
        <ele>1318</ele>
        <time>2016-08-20T06:14:06Z</time>
      </trkpt>
      <trkpt lat="45.2801" lon="5.80634">
        <ele>1317</ele>
        <time>2016-08-20T06:14:13Z</time>
      </trkpt>
      <trkpt lat="45.28029" lon="5.80643">
        <ele>1316</ele>
        <time>2016-08-20T06:14:21Z</time>
      </trkpt>
      <trkpt lat="45.28049" lon="5.80639">
        <ele>1315</ele>
        <time>2016-08-20T06:14:29Z</time>
      </trkpt>
      <trkpt lat="45.28066" lon="5.8063">
        <ele>1314</ele>
        <time>2016-08-20T06:14:38Z</time>
      </trkpt>
      <trkpt lat="45.28083" lon="5.80615">
        <ele>1315</ele>
        <time>2016-08-20T06:14:48Z</time>
      </trkpt>
      <trkpt lat="45.2809" lon="5.80603">
        <ele>1317</ele>
        <time>2016-08-20T06:14:55Z</time>
      </trkpt>
      <trkpt lat="45.2809" lon="5.80601">
        <ele>1317</ele>
        <time>2016-08-20T06:14:56Z</time>
      </trkpt>
      <trkpt lat="45.28091" lon="5.80598">
        <ele>1317</ele>
        <time>2016-08-20T06:14:57Z</time>
      </trkpt>
      <trkpt lat="45.28092" lon="5.80596">
        <ele>1317</ele>
        <time>2016-08-20T06:14:58Z</time>
      </trkpt>
      <trkpt lat="45.28092" lon="5.80594">
        <ele>1317</ele>
        <time>2016-08-20T06:14:59Z</time>
      </trkpt>
      <trkpt lat="45.28093" lon="5.80592">
        <ele>1317</ele>
        <time>2016-08-20T06:15:00Z</time>
      </trkpt>
      <trkpt lat="45.28093" lon="5.8059">
        <ele>1318</ele>
        <time>2016-08-20T06:15:01Z</time>
      </trkpt>
      <trkpt lat="45.28094" lon="5.80589">
        <ele>1318</ele>
        <time>2016-08-20T06:15:02Z</time>
      </trkpt>
      <trkpt lat="45.28108" lon="5.80565">
        <ele>1317</ele>
        <time>2016-08-20T06:15:12Z</time>
      </trkpt>
      <trkpt lat="45.28124" lon="5.80542">
        <ele>1315</ele>
        <time>2016-08-20T06:15:21Z</time>
      </trkpt>
      <trkpt lat="45.28132" lon="5.80515">
        <ele>1312</ele>
        <time>2016-08-20T06:15:29Z</time>
      </trkpt>
      <trkpt lat="45.2814" lon="5.80488">
        <ele>1312</ele>
        <time>2016-08-20T06:15:37Z</time>
      </trkpt>
      <trkpt lat="45.28151" lon="5.80464">
        <ele>1311</ele>
        <time>2016-08-20T06:15:45Z</time>
      </trkpt>
      <trkpt lat="45.2816" lon="5.80439">
        <ele>1309</ele>
        <time>2016-08-20T06:15:53Z</time>
      </trkpt>
      <trkpt lat="45.28169" lon="5.80413">
        <ele>1309</ele>
        <time>2016-08-20T06:16:02Z</time>
      </trkpt>
      <trkpt lat="45.28181" lon="5.80387">
        <ele>1309</ele>
        <time>2016-08-20T06:16:12Z</time>
      </trkpt>
      <trkpt lat="45.28197" lon="5.80368">
        <ele>1306</ele>
        <time>2016-08-20T06:16:20Z</time>
      </trkpt>
      <trkpt lat="45.28207" lon="5.80345">
        <ele>1304</ele>
        <time>2016-08-20T06:16:28Z</time>
      </trkpt>
      <trkpt lat="45.28212" lon="5.80336">
        <ele>1304</ele>
        <time>2016-08-20T06:16:31Z</time>
      </trkpt>
      <trkpt lat="45.2823" lon="5.80317">
        <ele>1302</ele>
        <time>2016-08-20T06:16:39Z</time>
      </trkpt>
      <trkpt lat="45.28248" lon="5.80301">
        <ele>1301</ele>
        <time>2016-08-20T06:16:46Z</time>
      </trkpt>
      <trkpt lat="45.28261" lon="5.8028">
        <ele>1301</ele>
        <time>2016-08-20T06:16:54Z</time>
      </trkpt>
      <trkpt lat="45.28269" lon="5.80255">
        <ele>1300</ele>
        <time>2016-08-20T06:17:03Z</time>
      </trkpt>
      <trkpt lat="45.28271" lon="5.80246">
        <ele>1299</ele>
        <time>2016-08-20T06:17:08Z</time>
      </trkpt>
      <trkpt lat="45.28272" lon="5.80246">
        <ele>1299</ele>
        <time>2016-08-20T06:17:09Z</time>
      </trkpt>
      <trkpt lat="45.28274" lon="5.80246">
        <ele>1299</ele>
        <time>2016-08-20T06:17:10Z</time>
      </trkpt>
      <trkpt lat="45.28275" lon="5.80246">
        <ele>1300</ele>
        <time>2016-08-20T06:17:11Z</time>
      </trkpt>
      <trkpt lat="45.28277" lon="5.80247">
        <ele>1300</ele>
        <time>2016-08-20T06:17:12Z</time>
      </trkpt>
      <trkpt lat="45.28278" lon="5.80248">
        <ele>1300</ele>
        <time>2016-08-20T06:17:13Z</time>
      </trkpt>
      <trkpt lat="45.2828" lon="5.8025">
        <ele>1301</ele>
        <time>2016-08-20T06:17:15Z</time>
      </trkpt>
      <trkpt lat="45.28287" lon="5.80259">
        <ele>1303</ele>
        <time>2016-08-20T06:17:23Z</time>
      </trkpt>
      <trkpt lat="45.28288" lon="5.80261">
        <ele>1303</ele>
        <time>2016-08-20T06:17:24Z</time>
      </trkpt>
      <trkpt lat="45.28288" lon="5.80263">
        <ele>1303</ele>
        <time>2016-08-20T06:17:25Z</time>
      </trkpt>
      <trkpt lat="45.28289" lon="5.80265">
        <ele>1303</ele>
        <time>2016-08-20T06:17:26Z</time>
      </trkpt>
      <trkpt lat="45.28289" lon="5.80267">
        <ele>1304</ele>
        <time>2016-08-20T06:17:27Z</time>
      </trkpt>
      <trkpt lat="45.2829" lon="5.8027">
        <ele>1305</ele>
        <time>2016-08-20T06:17:31Z</time>
      </trkpt>
      <trkpt lat="45.28291" lon="5.80271">
        <ele>1306</ele>
        <time>2016-08-20T06:17:34Z</time>
      </trkpt>
      <trkpt lat="45.28293" lon="5.80273">
        <ele>1307</ele>
        <time>2016-08-20T06:17:37Z</time>
      </trkpt>
      <trkpt lat="45.28294" lon="5.80273">
        <ele>1307</ele>
        <time>2016-08-20T06:17:39Z</time>
      </trkpt>
      <trkpt lat="45.28295" lon="5.80273">
        <ele>1307</ele>
        <time>2016-08-20T06:17:40Z</time>
      </trkpt>
      <trkpt lat="45.28297" lon="5.80273">
        <ele>1308</ele>
        <time>2016-08-20T06:17:41Z</time>
      </trkpt>
      <trkpt lat="45.28298" lon="5.80274">
        <ele>1308</ele>
        <time>2016-08-20T06:17:42Z</time>
      </trkpt>
      <trkpt lat="45.28301" lon="5.80286">
        <ele>1310</ele>
        <time>2016-08-20T06:17:51Z</time>
      </trkpt>
      <trkpt lat="45.28301" lon="5.80287">
        <ele>1310</ele>
        <time>2016-08-20T06:17:52Z</time>
      </trkpt>
      <trkpt lat="45.28301" lon="5.80288">
        <ele>1311</ele>
        <time>2016-08-20T06:17:54Z</time>
      </trkpt>
      <trkpt lat="45.28304" lon="5.8029">
        <ele>1312</ele>
        <time>2016-08-20T06:18:00Z</time>
      </trkpt>
      <trkpt lat="45.28305" lon="5.80292">
        <ele>1313</ele>
        <time>2016-08-20T06:18:03Z</time>
      </trkpt>
      <trkpt lat="45.28307" lon="5.80292">
        <ele>1314</ele>
        <time>2016-08-20T06:18:05Z</time>
      </trkpt>
      <trkpt lat="45.28308" lon="5.80293">
        <ele>1314</ele>
        <time>2016-08-20T06:18:06Z</time>
      </trkpt>
      <trkpt lat="45.28317" lon="5.80297">
        <ele>1316</ele>
        <time>2016-08-20T06:18:16Z</time>
      </trkpt>
      <trkpt lat="45.28319" lon="5.80302">
        <ele>1317</ele>
        <time>2016-08-20T06:18:21Z</time>
      </trkpt>
      <trkpt lat="45.28321" lon="5.80307">
        <ele>1319</ele>
        <time>2016-08-20T06:18:28Z</time>
      </trkpt>
      <trkpt lat="45.28322" lon="5.80308">
        <ele>1319</ele>
        <time>2016-08-20T06:18:29Z</time>
      </trkpt>
      <trkpt lat="45.28329" lon="5.8032">
        <ele>1322</ele>
        <time>2016-08-20T06:18:43Z</time>
      </trkpt>
      <trkpt lat="45.2834" lon="5.80329">
        <ele>1325</ele>
        <time>2016-08-20T06:19:02Z</time>
      </trkpt>
      <trkpt lat="45.28349" lon="5.80345">
        <ele>1328</ele>
        <time>2016-08-20T06:19:22Z</time>
      </trkpt>
      <trkpt lat="45.28351" lon="5.80357">
        <ele>1331</ele>
        <time>2016-08-20T06:19:40Z</time>
      </trkpt>
      <trkpt lat="45.28356" lon="5.80372">
        <ele>1334</ele>
        <time>2016-08-20T06:19:53Z</time>
      </trkpt>
      <trkpt lat="45.28366" lon="5.80375">
        <ele>1337</ele>
        <time>2016-08-20T06:20:06Z</time>
      </trkpt>
      <trkpt lat="45.28371" lon="5.80376">
        <ele>1339</ele>
        <time>2016-08-20T06:20:17Z</time>
      </trkpt>
      <trkpt lat="45.28373" lon="5.80369">
        <ele>1338</ele>
        <time>2016-08-20T06:20:23Z</time>
      </trkpt>
      <trkpt lat="45.28374" lon="5.80367">
        <ele>1338</ele>
        <time>2016-08-20T06:20:24Z</time>
      </trkpt>
      <trkpt lat="45.2838" lon="5.80365">
        <ele>1341</ele>
        <time>2016-08-20T06:20:36Z</time>
      </trkpt>
      <trkpt lat="45.2838" lon="5.80366">
        <ele>1342</ele>
        <time>2016-08-20T06:20:37Z</time>
      </trkpt>
      <trkpt lat="45.28383" lon="5.80379">
        <ele>1345</ele>
        <time>2016-08-20T06:20:50Z</time>
      </trkpt>
      <trkpt lat="45.28384" lon="5.80378">
        <ele>1345</ele>
        <time>2016-08-20T06:20:51Z</time>
      </trkpt>
      <trkpt lat="45.28386" lon="5.80374">
        <ele>1346</ele>
        <time>2016-08-20T06:20:55Z</time>
      </trkpt>
      <trkpt lat="45.28386" lon="5.80373">
        <ele>1346</ele>
        <time>2016-08-20T06:20:56Z</time>
      </trkpt>
      <trkpt lat="45.28387" lon="5.80372">
        <ele>1346</ele>
        <time>2016-08-20T06:20:57Z</time>
      </trkpt>
      <trkpt lat="45.28388" lon="5.80371">
        <ele>1346</ele>
        <time>2016-08-20T06:20:58Z</time>
      </trkpt>
      <trkpt lat="45.28388" lon="5.80371">
        <ele>1347</ele>
        <time>2016-08-20T06:20:59Z</time>
      </trkpt>
      <trkpt lat="45.2839" lon="5.80369">
        <ele>1347</ele>
        <time>2016-08-20T06:21:00Z</time>
      </trkpt>
      <trkpt lat="45.28391" lon="5.80369">
        <ele>1347</ele>
        <time>2016-08-20T06:21:01Z</time>
      </trkpt>
      <trkpt lat="45.28391" lon="5.80371">
        <ele>1348</ele>
        <time>2016-08-20T06:21:03Z</time>
      </trkpt>
      <trkpt lat="45.28391" lon="5.80372">
        <ele>1348</ele>
        <time>2016-08-20T06:21:04Z</time>
      </trkpt>
      <trkpt lat="45.2839" lon="5.80373">
        <ele>1348</ele>
        <time>2016-08-20T06:21:05Z</time>
      </trkpt>
      <trkpt lat="45.28393" lon="5.80368">
        <ele>1349</ele>
        <time>2016-08-20T06:21:12Z</time>
      </trkpt>
      <trkpt lat="45.28397" lon="5.80353">
        <ele>1352</ele>
        <time>2016-08-20T06:21:26Z</time>
      </trkpt>
      <trkpt lat="45.284" lon="5.80337">
        <ele>1356</ele>
        <time>2016-08-20T06:21:37Z</time>
      </trkpt>
      <trkpt lat="45.28401" lon="5.80332">
        <ele>1357</ele>
        <time>2016-08-20T06:21:41Z</time>
      </trkpt>
      <trkpt lat="45.28404" lon="5.80327">
        <ele>1358</ele>
        <time>2016-08-20T06:21:50Z</time>
      </trkpt>
      <trkpt lat="45.28406" lon="5.80326">
        <ele>1358</ele>
        <time>2016-08-20T06:21:51Z</time>
      </trkpt>
      <trkpt lat="45.28407" lon="5.80326">
        <ele>1357</ele>
        <time>2016-08-20T06:21:52Z</time>
      </trkpt>
      <trkpt lat="45.2841" lon="5.80323">
        <ele>1357</ele>
        <time>2016-08-20T06:21:54Z</time>
      </trkpt>
      <trkpt lat="45.28413" lon="5.80322">
        <ele>1357</ele>
        <time>2016-08-20T06:21:55Z</time>
      </trkpt>
      <trkpt lat="45.28419" lon="5.80314">
        <ele>1354</ele>
        <time>2016-08-20T06:22:00Z</time>
      </trkpt>
      <trkpt lat="45.28421" lon="5.80306">
        <ele>1352</ele>
        <time>2016-08-20T06:22:05Z</time>
      </trkpt>
      <trkpt lat="45.28422" lon="5.80305">
        <ele>1352</ele>
        <time>2016-08-20T06:22:06Z</time>
      </trkpt>
      <trkpt lat="45.28422" lon="5.80303">
        <ele>1351</ele>
        <time>2016-08-20T06:22:07Z</time>
      </trkpt>
      <trkpt lat="45.28423" lon="5.80302">
        <ele>1351</ele>
        <time>2016-08-20T06:22:08Z</time>
      </trkpt>
      <trkpt lat="45.28424" lon="5.803">
        <ele>1351</ele>
        <time>2016-08-20T06:22:09Z</time>
      </trkpt>
      <trkpt lat="45.28441" lon="5.80276">
        <ele>1351</ele>
        <time>2016-08-20T06:22:20Z</time>
      </trkpt>
      <trkpt lat="45.28452" lon="5.80253">
        <ele>1352</ele>
        <time>2016-08-20T06:22:29Z</time>
      </trkpt>
      <trkpt lat="45.28451" lon="5.80251">
        <ele>1352</ele>
        <time>2016-08-20T06:22:30Z</time>
      </trkpt>
      <trkpt lat="45.28451" lon="5.80249">
        <ele>1352</ele>
        <time>2016-08-20T06:22:31Z</time>
      </trkpt>
      <trkpt lat="45.28451" lon="5.80247">
        <ele>1352</ele>
        <time>2016-08-20T06:22:32Z</time>
      </trkpt>
      <trkpt lat="45.28452" lon="5.80244">
        <ele>1351</ele>
        <time>2016-08-20T06:22:33Z</time>
      </trkpt>
      <trkpt lat="45.28452" lon="5.8024">
        <ele>1351</ele>
        <time>2016-08-20T06:22:34Z</time>
      </trkpt>
      <trkpt lat="45.28458" lon="5.80205">
        <ele>1349</ele>
        <time>2016-08-20T06:22:44Z</time>
      </trkpt>
      <trkpt lat="45.28461" lon="5.80179">
        <ele>1350</ele>
        <time>2016-08-20T06:22:53Z</time>
      </trkpt>
      <trkpt lat="45.28461" lon="5.80177">
        <ele>1350</ele>
        <time>2016-08-20T06:22:54Z</time>
      </trkpt>
      <trkpt lat="45.2847" lon="5.80142">
        <ele>1351</ele>
        <time>2016-08-20T06:23:07Z</time>
      </trkpt>
      <trkpt lat="45.28473" lon="5.80113">
        <ele>1351</ele>
        <time>2016-08-20T06:23:17Z</time>
      </trkpt>
      <trkpt lat="45.28473" lon="5.80102">
        <ele>1351</ele>
        <time>2016-08-20T06:23:22Z</time>
      </trkpt>
      <trkpt lat="45.28468" lon="5.80087">
        <ele>1352</ele>
        <time>2016-08-20T06:23:29Z</time>
      </trkpt>
      <trkpt lat="45.28466" lon="5.80085">
        <ele>1353</ele>
        <time>2016-08-20T06:23:30Z</time>
      </trkpt>
      <trkpt lat="45.28461" lon="5.8005">
        <ele>1355</ele>
        <time>2016-08-20T06:23:45Z</time>
      </trkpt>
      <trkpt lat="45.28461" lon="5.80048">
        <ele>1355</ele>
        <time>2016-08-20T06:23:46Z</time>
      </trkpt>
      <trkpt lat="45.28461" lon="5.80044">
        <ele>1356</ele>
        <time>2016-08-20T06:23:48Z</time>
      </trkpt>
      <trkpt lat="45.28461" lon="5.80041">
        <ele>1356</ele>
        <time>2016-08-20T06:23:49Z</time>
      </trkpt>
      <trkpt lat="45.28461" lon="5.80036">
        <ele>1357</ele>
        <time>2016-08-20T06:23:52Z</time>
      </trkpt>
      <trkpt lat="45.28459" lon="5.80024">
        <ele>1360</ele>
        <time>2016-08-20T06:24:03Z</time>
      </trkpt>
      <trkpt lat="45.28459" lon="5.80021">
        <ele>1360</ele>
        <time>2016-08-20T06:24:04Z</time>
      </trkpt>
      <trkpt lat="45.28459" lon="5.80019">
        <ele>1361</ele>
        <time>2016-08-20T06:24:06Z</time>
      </trkpt>
      <trkpt lat="45.28458" lon="5.80007">
        <ele>1364</ele>
        <time>2016-08-20T06:24:18Z</time>
      </trkpt>
      <trkpt lat="45.28455" lon="5.79997">
        <ele>1366</ele>
        <time>2016-08-20T06:24:26Z</time>
      </trkpt>
      <trkpt lat="45.28449" lon="5.79974">
        <ele>1369</ele>
        <time>2016-08-20T06:24:40Z</time>
      </trkpt>
      <trkpt lat="45.2845" lon="5.79958">
        <ele>1372</ele>
        <time>2016-08-20T06:24:52Z</time>
      </trkpt>
      <trkpt lat="45.2845" lon="5.79943">
        <ele>1375</ele>
        <time>2016-08-20T06:25:04Z</time>
      </trkpt>
      <trkpt lat="45.28449" lon="5.79932">
        <ele>1378</ele>
        <time>2016-08-20T06:25:13Z</time>
      </trkpt>
      <trkpt lat="45.28444" lon="5.79918">
        <ele>1381</ele>
        <time>2016-08-20T06:25:26Z</time>
      </trkpt>
      <trkpt lat="45.2844" lon="5.79905">
        <ele>1384</ele>
        <time>2016-08-20T06:25:39Z</time>
      </trkpt>
      <trkpt lat="45.28437" lon="5.79888">
        <ele>1387</ele>
        <time>2016-08-20T06:25:52Z</time>
      </trkpt>
      <trkpt lat="45.28435" lon="5.79875">
        <ele>1390</ele>
        <time>2016-08-20T06:26:04Z</time>
      </trkpt>
      <trkpt lat="45.28431" lon="5.79863">
        <ele>1393</ele>
        <time>2016-08-20T06:26:17Z</time>
      </trkpt>
      <trkpt lat="45.28432" lon="5.79862">
        <ele>1393</ele>
        <time>2016-08-20T06:26:19Z</time>
      </trkpt>
      <trkpt lat="45.28439" lon="5.79847">
        <ele>1397</ele>
        <time>2016-08-20T06:26:33Z</time>
      </trkpt>
      <trkpt lat="45.28439" lon="5.79835">
        <ele>1400</ele>
        <time>2016-08-20T06:26:46Z</time>
      </trkpt>
      <trkpt lat="45.28438" lon="5.79833">
        <ele>1401</ele>
        <time>2016-08-20T06:26:50Z</time>
      </trkpt>
      <trkpt lat="45.2844" lon="5.79825">
        <ele>1404</ele>
        <time>2016-08-20T06:27:02Z</time>
      </trkpt>
      <trkpt lat="45.28443" lon="5.79816">
        <ele>1407</ele>
        <time>2016-08-20T06:27:14Z</time>
      </trkpt>
      <trkpt lat="45.28443" lon="5.79804">
        <ele>1410</ele>
        <time>2016-08-20T06:27:27Z</time>
      </trkpt>
      <trkpt lat="45.28446" lon="5.79792">
        <ele>1413</ele>
        <time>2016-08-20T06:27:40Z</time>
      </trkpt>
      <trkpt lat="45.28449" lon="5.79781">
        <ele>1416</ele>
        <time>2016-08-20T06:27:53Z</time>
      </trkpt>
      <trkpt lat="45.28442" lon="5.79771">
        <ele>1419</ele>
        <time>2016-08-20T06:28:07Z</time>
      </trkpt>
      <trkpt lat="45.2843" lon="5.79758">
        <ele>1422</ele>
        <time>2016-08-20T06:28:24Z</time>
      </trkpt>
      <trkpt lat="45.28423" lon="5.7975">
        <ele>1424</ele>
        <time>2016-08-20T06:28:33Z</time>
      </trkpt>
      <trkpt lat="45.28412" lon="5.79742">
        <ele>1425</ele>
        <time>2016-08-20T06:28:44Z</time>
      </trkpt>
      <trkpt lat="45.28404" lon="5.79726">
        <ele>1429</ele>
        <time>2016-08-20T06:28:58Z</time>
      </trkpt>
      <trkpt lat="45.28405" lon="5.79718">
        <ele>1431</ele>
        <time>2016-08-20T06:29:11Z</time>
      </trkpt>
      <trkpt lat="45.28421" lon="5.79712">
        <ele>1434</ele>
        <time>2016-08-20T06:29:28Z</time>
      </trkpt>
      <trkpt lat="45.2843" lon="5.79701">
        <ele>1437</ele>
        <time>2016-08-20T06:29:38Z</time>
      </trkpt>
      <trkpt lat="45.28451" lon="5.79695">
        <ele>1440</ele>
        <time>2016-08-20T06:29:57Z</time>
      </trkpt>
      <trkpt lat="45.28465" lon="5.79691">
        <ele>1442</ele>
        <time>2016-08-20T06:30:09Z</time>
      </trkpt>
      <trkpt lat="45.28464" lon="5.79686">
        <ele>1445</ele>
        <time>2016-08-20T06:30:17Z</time>
      </trkpt>
      <trkpt lat="45.28459" lon="5.7968">
        <ele>1448</ele>
        <time>2016-08-20T06:30:29Z</time>
      </trkpt>
      <trkpt lat="45.28456" lon="5.79682">
        <ele>1448</ele>
        <time>2016-08-20T06:30:31Z</time>
      </trkpt>
      <trkpt lat="45.28455" lon="5.79681">
        <ele>1448</ele>
        <time>2016-08-20T06:30:32Z</time>
      </trkpt>
      <trkpt lat="45.28448" lon="5.79678">
        <ele>1449</ele>
        <time>2016-08-20T06:30:39Z</time>
      </trkpt>
      <trkpt lat="45.28447" lon="5.79678">
        <ele>1449</ele>
        <time>2016-08-20T06:30:40Z</time>
      </trkpt>
      <trkpt lat="45.28438" lon="5.79677">
        <ele>1450</ele>
        <time>2016-08-20T06:30:46Z</time>
      </trkpt>
      <trkpt lat="45.28432" lon="5.7967">
        <ele>1451</ele>
        <time>2016-08-20T06:30:57Z</time>
      </trkpt>
      <trkpt lat="45.28432" lon="5.7967">
        <ele>1451</ele>
        <time>2016-08-20T06:30:58Z</time>
      </trkpt>
      <trkpt lat="45.28436" lon="5.79667">
        <ele>1453</ele>
        <time>2016-08-20T06:31:04Z</time>
      </trkpt>
      <trkpt lat="45.28437" lon="5.79666">
        <ele>1453</ele>
        <time>2016-08-20T06:31:05Z</time>
      </trkpt>
      <trkpt lat="45.28438" lon="5.79664">
        <ele>1453</ele>
        <time>2016-08-20T06:31:06Z</time>
      </trkpt>
      <trkpt lat="45.28439" lon="5.79664">
        <ele>1454</ele>
        <time>2016-08-20T06:31:07Z</time>
      </trkpt>
      <trkpt lat="45.28447" lon="5.79655">
        <ele>1456</ele>
        <time>2016-08-20T06:31:18Z</time>
      </trkpt>
      <trkpt lat="45.28455" lon="5.79645">
        <ele>1460</ele>
        <time>2016-08-20T06:31:33Z</time>
      </trkpt>
      <trkpt lat="45.28452" lon="5.7964">
        <ele>1462</ele>
        <time>2016-08-20T06:31:39Z</time>
      </trkpt>
      <trkpt lat="45.28451" lon="5.79637">
        <ele>1462</ele>
        <time>2016-08-20T06:31:42Z</time>
      </trkpt>
      <trkpt lat="45.28449" lon="5.79629">
        <ele>1465</ele>
        <time>2016-08-20T06:31:54Z</time>
      </trkpt>
      <trkpt lat="45.28444" lon="5.79618">
        <ele>1468</ele>
        <time>2016-08-20T06:32:09Z</time>
      </trkpt>
      <trkpt lat="45.28444" lon="5.79616">
        <ele>1469</ele>
        <time>2016-08-20T06:32:10Z</time>
      </trkpt>
      <trkpt lat="45.28443" lon="5.79614">
        <ele>1469</ele>
        <time>2016-08-20T06:32:12Z</time>
      </trkpt>
      <trkpt lat="45.28441" lon="5.79605">
        <ele>1472</ele>
        <time>2016-08-20T06:32:26Z</time>
      </trkpt>
      <trkpt lat="45.2844" lon="5.796">
        <ele>1473</ele>
        <time>2016-08-20T06:32:31Z</time>
      </trkpt>
      <trkpt lat="45.28438" lon="5.79599">
        <ele>1474</ele>
        <time>2016-08-20T06:32:35Z</time>
      </trkpt>
      <trkpt lat="45.28432" lon="5.79597">
        <ele>1476</ele>
        <time>2016-08-20T06:32:44Z</time>
      </trkpt>
      <trkpt lat="45.28431" lon="5.79596">
        <ele>1476</ele>
        <time>2016-08-20T06:32:46Z</time>
      </trkpt>
      <trkpt lat="45.28428" lon="5.79592">
        <ele>1478</ele>
        <time>2016-08-20T06:32:53Z</time>
      </trkpt>
      <trkpt lat="45.28428" lon="5.79576">
        <ele>1481</ele>
        <time>2016-08-20T06:33:06Z</time>
      </trkpt>
      <trkpt lat="45.28428" lon="5.79563">
        <ele>1485</ele>
        <time>2016-08-20T06:33:18Z</time>
      </trkpt>
      <trkpt lat="45.28426" lon="5.7955">
        <ele>1487</ele>
        <time>2016-08-20T06:33:31Z</time>
      </trkpt>
      <trkpt lat="45.28426" lon="5.79547">
        <ele>1487</ele>
        <time>2016-08-20T06:33:33Z</time>
      </trkpt>
      <trkpt lat="45.28426" lon="5.79546">
        <ele>1487</ele>
        <time>2016-08-20T06:33:34Z</time>
      </trkpt>
      <trkpt lat="45.28427" lon="5.79543">
        <ele>1488</ele>
        <time>2016-08-20T06:33:36Z</time>
      </trkpt>
      <trkpt lat="45.28426" lon="5.79542">
        <ele>1488</ele>
        <time>2016-08-20T06:33:37Z</time>
      </trkpt>
      <trkpt lat="45.28426" lon="5.79541">
        <ele>1488</ele>
        <time>2016-08-20T06:33:39Z</time>
      </trkpt>
      <trkpt lat="45.28426" lon="5.79538">
        <ele>1489</ele>
        <time>2016-08-20T06:33:41Z</time>
      </trkpt>
      <trkpt lat="45.28426" lon="5.79536">
        <ele>1489</ele>
        <time>2016-08-20T06:33:42Z</time>
      </trkpt>
      <trkpt lat="45.28425" lon="5.79535">
        <ele>1489</ele>
        <time>2016-08-20T06:33:43Z</time>
      </trkpt>
      <trkpt lat="45.28425" lon="5.79533">
        <ele>1489</ele>
        <time>2016-08-20T06:33:44Z</time>
      </trkpt>
      <trkpt lat="45.28425" lon="5.79532">
        <ele>1490</ele>
        <time>2016-08-20T06:33:45Z</time>
      </trkpt>
      <trkpt lat="45.28425" lon="5.7953">
        <ele>1490</ele>
        <time>2016-08-20T06:33:47Z</time>
      </trkpt>
      <trkpt lat="45.28422" lon="5.79517">
        <ele>1493</ele>
        <time>2016-08-20T06:34:01Z</time>
      </trkpt>
      <trkpt lat="45.2842" lon="5.79513">
        <ele>1494</ele>
        <time>2016-08-20T06:34:03Z</time>
      </trkpt>
      <trkpt lat="45.28417" lon="5.79496">
        <ele>1497</ele>
        <time>2016-08-20T06:34:17Z</time>
      </trkpt>
      <trkpt lat="45.28419" lon="5.7949">
        <ele>1498</ele>
        <time>2016-08-20T06:34:22Z</time>
      </trkpt>
      <trkpt lat="45.28421" lon="5.79478">
        <ele>1501</ele>
        <time>2016-08-20T06:34:35Z</time>
      </trkpt>
      <trkpt lat="45.28419" lon="5.7947">
        <ele>1504</ele>
        <time>2016-08-20T06:34:48Z</time>
      </trkpt>
      <trkpt lat="45.2842" lon="5.79452">
        <ele>1507</ele>
        <time>2016-08-20T06:35:03Z</time>
      </trkpt>
      <trkpt lat="45.28423" lon="5.79422">
        <ele>1510</ele>
        <time>2016-08-20T06:35:22Z</time>
      </trkpt>
      <trkpt lat="45.28412" lon="5.79396">
        <ele>1512</ele>
        <time>2016-08-20T06:35:41Z</time>
      </trkpt>
      <trkpt lat="45.28398" lon="5.79381">
        <ele>1513</ele>
        <time>2016-08-20T06:35:54Z</time>
      </trkpt>
      <trkpt lat="45.28382" lon="5.79371">
        <ele>1517</ele>
        <time>2016-08-20T06:36:11Z</time>
      </trkpt>
      <trkpt lat="45.28372" lon="5.79363">
        <ele>1520</ele>
        <time>2016-08-20T06:36:23Z</time>
      </trkpt>
      <trkpt lat="45.28365" lon="5.79361">
        <ele>1522</ele>
        <time>2016-08-20T06:36:31Z</time>
      </trkpt>
      <trkpt lat="45.28364" lon="5.79362">
        <ele>1522</ele>
        <time>2016-08-20T06:36:33Z</time>
      </trkpt>
      <trkpt lat="45.28362" lon="5.79363">
        <ele>1522</ele>
        <time>2016-08-20T06:36:35Z</time>
      </trkpt>
      <trkpt lat="45.28361" lon="5.79365">
        <ele>1522</ele>
        <time>2016-08-20T06:36:36Z</time>
      </trkpt>
      <trkpt lat="45.28361" lon="5.79365">
        <ele>1523</ele>
        <time>2016-08-20T06:36:37Z</time>
      </trkpt>
      <trkpt lat="45.28359" lon="5.79367">
        <ele>1523</ele>
        <time>2016-08-20T06:36:40Z</time>
      </trkpt>
      <trkpt lat="45.28358" lon="5.79368">
        <ele>1524</ele>
        <time>2016-08-20T06:36:41Z</time>
      </trkpt>
      <trkpt lat="45.28348" lon="5.79376">
        <ele>1526</ele>
        <time>2016-08-20T06:36:53Z</time>
      </trkpt>
      <trkpt lat="45.28347" lon="5.79376">
        <ele>1527</ele>
        <time>2016-08-20T06:36:55Z</time>
      </trkpt>
      <trkpt lat="45.28345" lon="5.79377">
        <ele>1527</ele>
        <time>2016-08-20T06:36:56Z</time>
      </trkpt>
      <trkpt lat="45.28336" lon="5.79383">
        <ele>1529</ele>
        <time>2016-08-20T06:37:08Z</time>
      </trkpt>
      <trkpt lat="45.28335" lon="5.79384">
        <ele>1529</ele>
        <time>2016-08-20T06:37:09Z</time>
      </trkpt>
      <trkpt lat="45.28334" lon="5.79384">
        <ele>1530</ele>
        <time>2016-08-20T06:37:10Z</time>
      </trkpt>
      <trkpt lat="45.28333" lon="5.79385">
        <ele>1530</ele>
        <time>2016-08-20T06:37:11Z</time>
      </trkpt>
      <trkpt lat="45.28332" lon="5.79386">
        <ele>1530</ele>
        <time>2016-08-20T06:37:12Z</time>
      </trkpt>
      <trkpt lat="45.2833" lon="5.79386">
        <ele>1530</ele>
        <time>2016-08-20T06:37:13Z</time>
      </trkpt>
      <trkpt lat="45.28319" lon="5.79383">
        <ele>1533</ele>
        <time>2016-08-20T06:37:24Z</time>
      </trkpt>
      <trkpt lat="45.28319" lon="5.79382">
        <ele>1533</ele>
        <time>2016-08-20T06:37:25Z</time>
      </trkpt>
      <trkpt lat="45.28304" lon="5.79371">
        <ele>1536</ele>
        <time>2016-08-20T06:37:40Z</time>
      </trkpt>
      <trkpt lat="45.28293" lon="5.7936">
        <ele>1538</ele>
        <time>2016-08-20T06:37:51Z</time>
      </trkpt>
      <trkpt lat="45.28291" lon="5.7936">
        <ele>1538</ele>
        <time>2016-08-20T06:37:52Z</time>
      </trkpt>
      <trkpt lat="45.2829" lon="5.79359">
        <ele>1538</ele>
        <time>2016-08-20T06:37:53Z</time>
      </trkpt>
      <trkpt lat="45.28288" lon="5.79359">
        <ele>1538</ele>
        <time>2016-08-20T06:37:54Z</time>
      </trkpt>
      <trkpt lat="45.28286" lon="5.79358">
        <ele>1538</ele>
        <time>2016-08-20T06:37:55Z</time>
      </trkpt>
      <trkpt lat="45.28284" lon="5.79357">
        <ele>1538</ele>
        <time>2016-08-20T06:37:56Z</time>
      </trkpt>
      <trkpt lat="45.28264" lon="5.79347">
        <ele>1539</ele>
        <time>2016-08-20T06:38:07Z</time>
      </trkpt>
      <trkpt lat="45.2825" lon="5.7934">
        <ele>1540</ele>
        <time>2016-08-20T06:38:19Z</time>
      </trkpt>
      <trkpt lat="45.28247" lon="5.79336">
        <ele>1542</ele>
        <time>2016-08-20T06:38:27Z</time>
      </trkpt>
      <trkpt lat="45.28242" lon="5.79335">
        <ele>1542</ele>
        <time>2016-08-20T06:38:32Z</time>
      </trkpt>
      <trkpt lat="45.28223" lon="5.79319">
        <ele>1544</ele>
        <time>2016-08-20T06:38:47Z</time>
      </trkpt>
      <trkpt lat="45.28212" lon="5.79313">
        <ele>1546</ele>
        <time>2016-08-20T06:38:53Z</time>
      </trkpt>
      <trkpt lat="45.2821" lon="5.79312">
        <ele>1546</ele>
        <time>2016-08-20T06:38:54Z</time>
      </trkpt>
      <trkpt lat="45.28209" lon="5.79311">
        <ele>1546</ele>
        <time>2016-08-20T06:38:55Z</time>
      </trkpt>
      <trkpt lat="45.28207" lon="5.7931">
        <ele>1546</ele>
        <time>2016-08-20T06:38:56Z</time>
      </trkpt>
      <trkpt lat="45.28205" lon="5.79308">
        <ele>1545</ele>
        <time>2016-08-20T06:38:57Z</time>
      </trkpt>
      <trkpt lat="45.28204" lon="5.79307">
        <ele>1545</ele>
        <time>2016-08-20T06:38:58Z</time>
      </trkpt>
      <trkpt lat="45.28203" lon="5.79305">
        <ele>1545</ele>
        <time>2016-08-20T06:38:59Z</time>
      </trkpt>
      <trkpt lat="45.28183" lon="5.79291">
        <ele>1547</ele>
        <time>2016-08-20T06:39:15Z</time>
      </trkpt>
      <trkpt lat="45.28176" lon="5.79279">
        <ele>1548</ele>
        <time>2016-08-20T06:39:23Z</time>
      </trkpt>
      <trkpt lat="45.28176" lon="5.79278">
        <ele>1548</ele>
        <time>2016-08-20T06:39:24Z</time>
      </trkpt>
      <trkpt lat="45.28175" lon="5.79278">
        <ele>1548</ele>
        <time>2016-08-20T06:39:25Z</time>
      </trkpt>
      <trkpt lat="45.28174" lon="5.79277">
        <ele>1548</ele>
        <time>2016-08-20T06:39:26Z</time>
      </trkpt>
      <trkpt lat="45.28172" lon="5.79277">
        <ele>1548</ele>
        <time>2016-08-20T06:39:27Z</time>
      </trkpt>
      <trkpt lat="45.28165" lon="5.79273">
        <ele>1548</ele>
        <time>2016-08-20T06:39:31Z</time>
      </trkpt>
      <trkpt lat="45.28163" lon="5.79272">
        <ele>1547</ele>
        <time>2016-08-20T06:39:32Z</time>
      </trkpt>
      <trkpt lat="45.28162" lon="5.79271">
        <ele>1547</ele>
        <time>2016-08-20T06:39:33Z</time>
      </trkpt>
      <trkpt lat="45.2816" lon="5.7927">
        <ele>1547</ele>
        <time>2016-08-20T06:39:34Z</time>
      </trkpt>
      <trkpt lat="45.28158" lon="5.7927">
        <ele>1546</ele>
        <time>2016-08-20T06:39:35Z</time>
      </trkpt>
      <trkpt lat="45.28156" lon="5.79271">
        <ele>1546</ele>
        <time>2016-08-20T06:39:36Z</time>
      </trkpt>
      <trkpt lat="45.28154" lon="5.79271">
        <ele>1546</ele>
        <time>2016-08-20T06:39:37Z</time>
      </trkpt>
      <trkpt lat="45.28146" lon="5.79269">
        <ele>1546</ele>
        <time>2016-08-20T06:39:42Z</time>
      </trkpt>
      <trkpt lat="45.28145" lon="5.79268">
        <ele>1547</ele>
        <time>2016-08-20T06:39:43Z</time>
      </trkpt>
      <trkpt lat="45.28143" lon="5.79268">
        <ele>1547</ele>
        <time>2016-08-20T06:39:44Z</time>
      </trkpt>
      <trkpt lat="45.28142" lon="5.79267">
        <ele>1547</ele>
        <time>2016-08-20T06:39:45Z</time>
      </trkpt>
      <trkpt lat="45.28141" lon="5.79266">
        <ele>1547</ele>
        <time>2016-08-20T06:39:46Z</time>
      </trkpt>
      <trkpt lat="45.28139" lon="5.79266">
        <ele>1547</ele>
        <time>2016-08-20T06:39:47Z</time>
      </trkpt>
      <trkpt lat="45.28137" lon="5.79264">
        <ele>1546</ele>
        <time>2016-08-20T06:39:48Z</time>
      </trkpt>
      <trkpt lat="45.28134" lon="5.79264">
        <ele>1546</ele>
        <time>2016-08-20T06:39:49Z</time>
      </trkpt>
      <trkpt lat="45.28132" lon="5.79264">
        <ele>1546</ele>
        <time>2016-08-20T06:39:50Z</time>
      </trkpt>
      <trkpt lat="45.28108" lon="5.79259">
        <ele>1545</ele>
        <time>2016-08-20T06:40:00Z</time>
      </trkpt>
      <trkpt lat="45.28091" lon="5.79237">
        <ele>1544</ele>
        <time>2016-08-20T06:40:09Z</time>
      </trkpt>
      <trkpt lat="45.28074" lon="5.79223">
        <ele>1544</ele>
        <time>2016-08-20T06:40:19Z</time>
      </trkpt>
      <trkpt lat="45.28056" lon="5.79217">
        <ele>1544</ele>
        <time>2016-08-20T06:40:29Z</time>
      </trkpt>
      <trkpt lat="45.28039" lon="5.79202">
        <ele>1546</ele>
        <time>2016-08-20T06:40:39Z</time>
      </trkpt>
      <trkpt lat="45.28035" lon="5.79199">
        <ele>1547</ele>
        <time>2016-08-20T06:40:44Z</time>
      </trkpt>
      <trkpt lat="45.2802" lon="5.79202">
        <ele>1546</ele>
        <time>2016-08-20T06:40:54Z</time>
      </trkpt>
      <trkpt lat="45.28009" lon="5.79209">
        <ele>1543</ele>
        <time>2016-08-20T06:41:02Z</time>
      </trkpt>
      <trkpt lat="45.28007" lon="5.79217">
        <ele>1540</ele>
        <time>2016-08-20T06:41:07Z</time>
      </trkpt>
      <trkpt lat="45.28006" lon="5.79222">
        <ele>1539</ele>
        <time>2016-08-20T06:41:09Z</time>
      </trkpt>
      <trkpt lat="45.28002" lon="5.79234">
        <ele>1536</ele>
        <time>2016-08-20T06:41:15Z</time>
      </trkpt>
      <trkpt lat="45.27995" lon="5.79247">
        <ele>1533</ele>
        <time>2016-08-20T06:41:20Z</time>
      </trkpt>
      <trkpt lat="45.27987" lon="5.79259">
        <ele>1529</ele>
        <time>2016-08-20T06:41:26Z</time>
      </trkpt>
      <trkpt lat="45.27985" lon="5.7926">
        <ele>1528</ele>
        <time>2016-08-20T06:41:29Z</time>
      </trkpt>
      <trkpt lat="45.27983" lon="5.79257">
        <ele>1527</ele>
        <time>2016-08-20T06:41:41Z</time>
      </trkpt>
      <trkpt lat="45.27983" lon="5.79253">
        <ele>1528</ele>
        <time>2016-08-20T06:42:15Z</time>
      </trkpt>
      <trkpt lat="45.27981" lon="5.7925">
        <ele>1528</ele>
        <time>2016-08-20T06:43:00Z</time>
      </trkpt>
      <trkpt lat="45.27986" lon="5.79252">
        <ele>1528</ele>
        <time>2016-08-20T06:43:41Z</time>
      </trkpt>
      <trkpt lat="45.27986" lon="5.79252">
        <ele>1528</ele>
        <time>2016-08-20T06:43:42Z</time>
      </trkpt>
      <trkpt lat="45.27984" lon="5.7925">
        <ele>1528</ele>
        <time>2016-08-20T06:43:56Z</time>
      </trkpt>
      <trkpt lat="45.27983" lon="5.79251">
        <ele>1528</ele>
        <time>2016-08-20T06:43:57Z</time>
      </trkpt>
      <trkpt lat="45.27985" lon="5.79249">
        <ele>1528</ele>
        <time>2016-08-20T06:44:49Z</time>
      </trkpt>
      <trkpt lat="45.27982" lon="5.79244">
        <ele>1528</ele>
        <time>2016-08-20T06:44:53Z</time>
      </trkpt>
      <trkpt lat="45.27981" lon="5.79243">
        <ele>1528</ele>
        <time>2016-08-20T06:44:54Z</time>
      </trkpt>
      <trkpt lat="45.2798" lon="5.7924">
        <ele>1528</ele>
        <time>2016-08-20T06:44:55Z</time>
      </trkpt>
      <trkpt lat="45.2798" lon="5.79238">
        <ele>1528</ele>
        <time>2016-08-20T06:44:56Z</time>
      </trkpt>
      <trkpt lat="45.27979" lon="5.79236">
        <ele>1528</ele>
        <time>2016-08-20T06:44:57Z</time>
      </trkpt>
      <trkpt lat="45.27979" lon="5.79234">
        <ele>1528</ele>
        <time>2016-08-20T06:44:58Z</time>
      </trkpt>
      <trkpt lat="45.27979" lon="5.79233">
        <ele>1528</ele>
        <time>2016-08-20T06:44:59Z</time>
      </trkpt>
      <trkpt lat="45.27979" lon="5.79231">
        <ele>1529</ele>
        <time>2016-08-20T06:45:00Z</time>
      </trkpt>
      <trkpt lat="45.27987" lon="5.79206">
        <ele>1532</ele>
        <time>2016-08-20T06:45:13Z</time>
      </trkpt>
      <trkpt lat="45.27993" lon="5.79185">
        <ele>1535</ele>
        <time>2016-08-20T06:45:24Z</time>
      </trkpt>
      <trkpt lat="45.27994" lon="5.79181">
        <ele>1536</ele>
        <time>2016-08-20T06:45:27Z</time>
      </trkpt>
      <trkpt lat="45.27995" lon="5.79179">
        <ele>1536</ele>
        <time>2016-08-20T06:45:28Z</time>
      </trkpt>
      <trkpt lat="45.27996" lon="5.79178">
        <ele>1537</ele>
        <time>2016-08-20T06:45:29Z</time>
      </trkpt>
      <trkpt lat="45.27996" lon="5.79177">
        <ele>1537</ele>
        <time>2016-08-20T06:45:30Z</time>
      </trkpt>
      <trkpt lat="45.27997" lon="5.79176">
        <ele>1537</ele>
        <time>2016-08-20T06:45:31Z</time>
      </trkpt>
      <trkpt lat="45.28004" lon="5.79164">
        <ele>1540</ele>
        <time>2016-08-20T06:45:43Z</time>
      </trkpt>
      <trkpt lat="45.28011" lon="5.79151">
        <ele>1543</ele>
        <time>2016-08-20T06:45:54Z</time>
      </trkpt>
      <trkpt lat="45.28017" lon="5.79141">
        <ele>1545</ele>
        <time>2016-08-20T06:46:03Z</time>
      </trkpt>
      <trkpt lat="45.28018" lon="5.7914">
        <ele>1545</ele>
        <time>2016-08-20T06:46:04Z</time>
      </trkpt>
      <trkpt lat="45.28026" lon="5.7913">
        <ele>1548</ele>
        <time>2016-08-20T06:46:15Z</time>
      </trkpt>
      <trkpt lat="45.28035" lon="5.79104">
        <ele>1551</ele>
        <time>2016-08-20T06:46:33Z</time>
      </trkpt>
      <trkpt lat="45.28039" lon="5.79092">
        <ele>1553</ele>
        <time>2016-08-20T06:46:40Z</time>
      </trkpt>
      <trkpt lat="45.28039" lon="5.79091">
        <ele>1553</ele>
        <time>2016-08-20T06:46:41Z</time>
      </trkpt>
      <trkpt lat="45.28041" lon="5.79085">
        <ele>1554</ele>
        <time>2016-08-20T06:46:45Z</time>
      </trkpt>
      <trkpt lat="45.28045" lon="5.79057">
        <ele>1557</ele>
        <time>2016-08-20T06:47:03Z</time>
      </trkpt>
      <trkpt lat="45.28051" lon="5.79038">
        <ele>1560</ele>
        <time>2016-08-20T06:47:16Z</time>
      </trkpt>
      <trkpt lat="45.28058" lon="5.79012">
        <ele>1563</ele>
        <time>2016-08-20T06:47:33Z</time>
      </trkpt>
      <trkpt lat="45.28068" lon="5.78983">
        <ele>1566</ele>
        <time>2016-08-20T06:47:46Z</time>
      </trkpt>
      <trkpt lat="45.28071" lon="5.78974">
        <ele>1567</ele>
        <time>2016-08-20T06:47:51Z</time>
      </trkpt>
      <trkpt lat="45.28071" lon="5.78972">
        <ele>1568</ele>
        <time>2016-08-20T06:47:52Z</time>
      </trkpt>
      <trkpt lat="45.28072" lon="5.7897">
        <ele>1568</ele>
        <time>2016-08-20T06:47:53Z</time>
      </trkpt>
      <trkpt lat="45.28073" lon="5.78969">
        <ele>1568</ele>
        <time>2016-08-20T06:47:54Z</time>
      </trkpt>
      <trkpt lat="45.28073" lon="5.78967">
        <ele>1568</ele>
        <time>2016-08-20T06:47:55Z</time>
      </trkpt>
      <trkpt lat="45.28074" lon="5.78966">
        <ele>1568</ele>
        <time>2016-08-20T06:47:56Z</time>
      </trkpt>
      <trkpt lat="45.28081" lon="5.78935">
        <ele>1571</ele>
        <time>2016-08-20T06:48:10Z</time>
      </trkpt>
      <trkpt lat="45.28086" lon="5.78929">
        <ele>1572</ele>
        <time>2016-08-20T06:48:14Z</time>
      </trkpt>
      <trkpt lat="45.28087" lon="5.78928">
        <ele>1572</ele>
        <time>2016-08-20T06:48:15Z</time>
      </trkpt>
      <trkpt lat="45.28087" lon="5.78926">
        <ele>1573</ele>
        <time>2016-08-20T06:48:16Z</time>
      </trkpt>
      <trkpt lat="45.28088" lon="5.78924">
        <ele>1573</ele>
        <time>2016-08-20T06:48:17Z</time>
      </trkpt>
      <trkpt lat="45.2809" lon="5.78923">
        <ele>1573</ele>
        <time>2016-08-20T06:48:18Z</time>
      </trkpt>
      <trkpt lat="45.28091" lon="5.78921">
        <ele>1573</ele>
        <time>2016-08-20T06:48:19Z</time>
      </trkpt>
      <trkpt lat="45.28092" lon="5.78919">
        <ele>1574</ele>
        <time>2016-08-20T06:48:20Z</time>
      </trkpt>
      <trkpt lat="45.28093" lon="5.78917">
        <ele>1574</ele>
        <time>2016-08-20T06:48:21Z</time>
      </trkpt>
      <trkpt lat="45.28094" lon="5.78915">
        <ele>1574</ele>
        <time>2016-08-20T06:48:22Z</time>
      </trkpt>
      <trkpt lat="45.28094" lon="5.78913">
        <ele>1574</ele>
        <time>2016-08-20T06:48:23Z</time>
      </trkpt>
      <trkpt lat="45.28096" lon="5.78907">
        <ele>1575</ele>
        <time>2016-08-20T06:48:26Z</time>
      </trkpt>
      <trkpt lat="45.28096" lon="5.78902">
        <ele>1575</ele>
        <time>2016-08-20T06:48:28Z</time>
      </trkpt>
      <trkpt lat="45.28097" lon="5.78901">
        <ele>1575</ele>
        <time>2016-08-20T06:48:29Z</time>
      </trkpt>
      <trkpt lat="45.28097" lon="5.78898">
        <ele>1575</ele>
        <time>2016-08-20T06:48:30Z</time>
      </trkpt>
      <trkpt lat="45.28097" lon="5.78897">
        <ele>1575</ele>
        <time>2016-08-20T06:48:31Z</time>
      </trkpt>
      <trkpt lat="45.28095" lon="5.78893">
        <ele>1576</ele>
        <time>2016-08-20T06:48:34Z</time>
      </trkpt>
      <trkpt lat="45.28094" lon="5.78892">
        <ele>1576</ele>
        <time>2016-08-20T06:48:35Z</time>
      </trkpt>
      <trkpt lat="45.28077" lon="5.78879">
        <ele>1575</ele>
        <time>2016-08-20T06:48:45Z</time>
      </trkpt>
      <trkpt lat="45.28061" lon="5.78858">
        <ele>1576</ele>
        <time>2016-08-20T06:48:55Z</time>
      </trkpt>
      <trkpt lat="45.2805" lon="5.78827">
        <ele>1576</ele>
        <time>2016-08-20T06:49:04Z</time>
      </trkpt>
      <trkpt lat="45.28051" lon="5.78796">
        <ele>1576</ele>
        <time>2016-08-20T06:49:14Z</time>
      </trkpt>
      <trkpt lat="45.28051" lon="5.78765">
        <ele>1576</ele>
        <time>2016-08-20T06:49:25Z</time>
      </trkpt>
      <trkpt lat="45.28045" lon="5.78736">
        <ele>1575</ele>
        <time>2016-08-20T06:49:34Z</time>
      </trkpt>
      <trkpt lat="45.28041" lon="5.78708">
        <ele>1575</ele>
        <time>2016-08-20T06:49:44Z</time>
      </trkpt>
      <trkpt lat="45.28041" lon="5.78683">
        <ele>1577</ele>
        <time>2016-08-20T06:49:52Z</time>
      </trkpt>
      <trkpt lat="45.28041" lon="5.7868">
        <ele>1577</ele>
        <time>2016-08-20T06:49:53Z</time>
      </trkpt>
      <trkpt lat="45.28042" lon="5.78678">
        <ele>1578</ele>
        <time>2016-08-20T06:49:54Z</time>
      </trkpt>
      <trkpt lat="45.28041" lon="5.78669">
        <ele>1579</ele>
        <time>2016-08-20T06:49:57Z</time>
      </trkpt>
      <trkpt lat="45.2804" lon="5.78667">
        <ele>1579</ele>
        <time>2016-08-20T06:49:58Z</time>
      </trkpt>
      <trkpt lat="45.2803" lon="5.78641">
        <ele>1578</ele>
        <time>2016-08-20T06:50:07Z</time>
      </trkpt>
      <trkpt lat="45.28029" lon="5.78639">
        <ele>1578</ele>
        <time>2016-08-20T06:50:08Z</time>
      </trkpt>
      <trkpt lat="45.28022" lon="5.7861">
        <ele>1579</ele>
        <time>2016-08-20T06:50:17Z</time>
      </trkpt>
      <trkpt lat="45.28012" lon="5.78585">
        <ele>1579</ele>
        <time>2016-08-20T06:50:26Z</time>
      </trkpt>
      <trkpt lat="45.28003" lon="5.7856">
        <ele>1578</ele>
        <time>2016-08-20T06:50:35Z</time>
      </trkpt>
      <trkpt lat="45.27999" lon="5.78547">
        <ele>1578</ele>
        <time>2016-08-20T06:50:41Z</time>
      </trkpt>
      <trkpt lat="45.27998" lon="5.78546">
        <ele>1578</ele>
        <time>2016-08-20T06:50:42Z</time>
      </trkpt>
      <trkpt lat="45.27997" lon="5.78543">
        <ele>1578</ele>
        <time>2016-08-20T06:50:43Z</time>
      </trkpt>
      <trkpt lat="45.2799" lon="5.78517">
        <ele>1579</ele>
        <time>2016-08-20T06:50:53Z</time>
      </trkpt>
      <trkpt lat="45.2799" lon="5.78515">
        <ele>1579</ele>
        <time>2016-08-20T06:50:54Z</time>
      </trkpt>
      <trkpt lat="45.27983" lon="5.78487">
        <ele>1581</ele>
        <time>2016-08-20T06:51:06Z</time>
      </trkpt>
      <trkpt lat="45.27984" lon="5.78474">
        <ele>1582</ele>
        <time>2016-08-20T06:51:15Z</time>
      </trkpt>
      <trkpt lat="45.27983" lon="5.78471">
        <ele>1583</ele>
        <time>2016-08-20T06:51:17Z</time>
      </trkpt>
      <trkpt lat="45.27983" lon="5.78469">
        <ele>1583</ele>
        <time>2016-08-20T06:51:18Z</time>
      </trkpt>
      <trkpt lat="45.27983" lon="5.78468">
        <ele>1583</ele>
        <time>2016-08-20T06:51:19Z</time>
      </trkpt>
      <trkpt lat="45.27983" lon="5.78466">
        <ele>1583</ele>
        <time>2016-08-20T06:51:20Z</time>
      </trkpt>
      <trkpt lat="45.27983" lon="5.78465">
        <ele>1584</ele>
        <time>2016-08-20T06:51:21Z</time>
      </trkpt>
      <trkpt lat="45.27982" lon="5.78463">
        <ele>1584</ele>
        <time>2016-08-20T06:51:22Z</time>
      </trkpt>
      <trkpt lat="45.27981" lon="5.78462">
        <ele>1584</ele>
        <time>2016-08-20T06:51:23Z</time>
      </trkpt>
      <trkpt lat="45.27979" lon="5.78459">
        <ele>1584</ele>
        <time>2016-08-20T06:51:24Z</time>
      </trkpt>
      <trkpt lat="45.27967" lon="5.78437">
        <ele>1584</ele>
        <time>2016-08-20T06:51:32Z</time>
      </trkpt>
      <trkpt lat="45.27953" lon="5.78417">
        <ele>1585</ele>
        <time>2016-08-20T06:51:43Z</time>
      </trkpt>
      <trkpt lat="45.27948" lon="5.78388">
        <ele>1587</ele>
        <time>2016-08-20T06:51:54Z</time>
      </trkpt>
      <trkpt lat="45.27949" lon="5.78376">
        <ele>1586</ele>
        <time>2016-08-20T06:51:59Z</time>
      </trkpt>
      <trkpt lat="45.27949" lon="5.78374">
        <ele>1586</ele>
        <time>2016-08-20T06:52:00Z</time>
      </trkpt>
      <trkpt lat="45.2795" lon="5.78372">
        <ele>1586</ele>
        <time>2016-08-20T06:52:01Z</time>
      </trkpt>
      <trkpt lat="45.2795" lon="5.78369">
        <ele>1586</ele>
        <time>2016-08-20T06:52:02Z</time>
      </trkpt>
      <trkpt lat="45.2795" lon="5.78367">
        <ele>1586</ele>
        <time>2016-08-20T06:52:03Z</time>
      </trkpt>
      <trkpt lat="45.2795" lon="5.78364">
        <ele>1586</ele>
        <time>2016-08-20T06:52:04Z</time>
      </trkpt>
      <trkpt lat="45.27946" lon="5.78329">
        <ele>1586</ele>
        <time>2016-08-20T06:52:16Z</time>
      </trkpt>
      <trkpt lat="45.27943" lon="5.78294">
        <ele>1586</ele>
        <time>2016-08-20T06:52:26Z</time>
      </trkpt>
      <trkpt lat="45.27943" lon="5.78282">
        <ele>1587</ele>
        <time>2016-08-20T06:52:31Z</time>
      </trkpt>
      <trkpt lat="45.27943" lon="5.78281">
        <ele>1587</ele>
        <time>2016-08-20T06:52:32Z</time>
      </trkpt>
      <trkpt lat="45.27943" lon="5.78279">
        <ele>1587</ele>
        <time>2016-08-20T06:52:33Z</time>
      </trkpt>
      <trkpt lat="45.27943" lon="5.78277">
        <ele>1588</ele>
        <time>2016-08-20T06:52:34Z</time>
      </trkpt>
      <trkpt lat="45.27942" lon="5.78274">
        <ele>1588</ele>
        <time>2016-08-20T06:52:35Z</time>
      </trkpt>
      <trkpt lat="45.27941" lon="5.78272">
        <ele>1588</ele>
        <time>2016-08-20T06:52:36Z</time>
      </trkpt>
      <trkpt lat="45.2794" lon="5.78269">
        <ele>1588</ele>
        <time>2016-08-20T06:52:37Z</time>
      </trkpt>
      <trkpt lat="45.27938" lon="5.78267">
        <ele>1588</ele>
        <time>2016-08-20T06:52:38Z</time>
      </trkpt>
      <trkpt lat="45.27936" lon="5.78264">
        <ele>1588</ele>
        <time>2016-08-20T06:52:39Z</time>
      </trkpt>
      <trkpt lat="45.27934" lon="5.78261">
        <ele>1587</ele>
        <time>2016-08-20T06:52:40Z</time>
      </trkpt>
      <trkpt lat="45.27933" lon="5.78259">
        <ele>1587</ele>
        <time>2016-08-20T06:52:41Z</time>
      </trkpt>
      <trkpt lat="45.27928" lon="5.78225">
        <ele>1585</ele>
        <time>2016-08-20T06:52:52Z</time>
      </trkpt>
      <trkpt lat="45.27915" lon="5.78198">
        <ele>1582</ele>
        <time>2016-08-20T06:53:02Z</time>
      </trkpt>
      <trkpt lat="45.27914" lon="5.78194">
        <ele>1581</ele>
        <time>2016-08-20T06:53:04Z</time>
      </trkpt>
      <trkpt lat="45.27912" lon="5.78193">
        <ele>1581</ele>
        <time>2016-08-20T06:53:05Z</time>
      </trkpt>
      <trkpt lat="45.27905" lon="5.78188">
        <ele>1579</ele>
        <time>2016-08-20T06:53:11Z</time>
      </trkpt>
      <trkpt lat="45.27904" lon="5.78187">
        <ele>1579</ele>
        <time>2016-08-20T06:53:12Z</time>
      </trkpt>
      <trkpt lat="45.27891" lon="5.78163">
        <ele>1581</ele>
        <time>2016-08-20T06:53:28Z</time>
      </trkpt>
      <trkpt lat="45.27881" lon="5.78158">
        <ele>1581</ele>
        <time>2016-08-20T06:53:35Z</time>
      </trkpt>
      <trkpt lat="45.2788" lon="5.78156">
        <ele>1581</ele>
        <time>2016-08-20T06:53:36Z</time>
      </trkpt>
      <trkpt lat="45.27864" lon="5.78134">
        <ele>1582</ele>
        <time>2016-08-20T06:53:45Z</time>
      </trkpt>
      <trkpt lat="45.27861" lon="5.78102">
        <ele>1582</ele>
        <time>2016-08-20T06:53:55Z</time>
      </trkpt>
      <trkpt lat="45.27866" lon="5.78085">
        <ele>1581</ele>
        <time>2016-08-20T06:54:03Z</time>
      </trkpt>
      <trkpt lat="45.27867" lon="5.78084">
        <ele>1581</ele>
        <time>2016-08-20T06:54:04Z</time>
      </trkpt>
      <trkpt lat="45.27868" lon="5.78082">
        <ele>1581</ele>
        <time>2016-08-20T06:54:05Z</time>
      </trkpt>
      <trkpt lat="45.27869" lon="5.7808">
        <ele>1580</ele>
        <time>2016-08-20T06:54:06Z</time>
      </trkpt>
      <trkpt lat="45.2787" lon="5.78079">
        <ele>1580</ele>
        <time>2016-08-20T06:54:07Z</time>
      </trkpt>
      <trkpt lat="45.27871" lon="5.78077">
        <ele>1580</ele>
        <time>2016-08-20T06:54:08Z</time>
      </trkpt>
      <trkpt lat="45.27889" lon="5.78048">
        <ele>1582</ele>
        <time>2016-08-20T06:54:21Z</time>
      </trkpt>
      <trkpt lat="45.27906" lon="5.78025">
        <ele>1579</ele>
        <time>2016-08-20T06:54:40Z</time>
      </trkpt>
      <trkpt lat="45.27915" lon="5.77991">
        <ele>1580</ele>
        <time>2016-08-20T06:54:52Z</time>
      </trkpt>
      <trkpt lat="45.27918" lon="5.7797">
        <ele>1581</ele>
        <time>2016-08-20T06:55:00Z</time>
      </trkpt>
      <trkpt lat="45.27918" lon="5.77966">
        <ele>1580</ele>
        <time>2016-08-20T06:55:01Z</time>
      </trkpt>
      <trkpt lat="45.27918" lon="5.77962">
        <ele>1580</ele>
        <time>2016-08-20T06:55:02Z</time>
      </trkpt>
      <trkpt lat="45.27918" lon="5.77959">
        <ele>1580</ele>
        <time>2016-08-20T06:55:03Z</time>
      </trkpt>
      <trkpt lat="45.27918" lon="5.77955">
        <ele>1580</ele>
        <time>2016-08-20T06:55:04Z</time>
      </trkpt>
      <trkpt lat="45.27918" lon="5.77951">
        <ele>1580</ele>
        <time>2016-08-20T06:55:05Z</time>
      </trkpt>
      <trkpt lat="45.27919" lon="5.77943">
        <ele>1580</ele>
        <time>2016-08-20T06:55:08Z</time>
      </trkpt>
      <trkpt lat="45.27921" lon="5.77941">
        <ele>1580</ele>
        <time>2016-08-20T06:55:09Z</time>
      </trkpt>
      <trkpt lat="45.27922" lon="5.7794">
        <ele>1581</ele>
        <time>2016-08-20T06:55:10Z</time>
      </trkpt>
      <trkpt lat="45.27923" lon="5.77937">
        <ele>1581</ele>
        <time>2016-08-20T06:55:11Z</time>
      </trkpt>
      <trkpt lat="45.27923" lon="5.77935">
        <ele>1581</ele>
        <time>2016-08-20T06:55:12Z</time>
      </trkpt>
      <trkpt lat="45.27939" lon="5.77905">
        <ele>1583</ele>
        <time>2016-08-20T06:55:24Z</time>
      </trkpt>
      <trkpt lat="45.27957" lon="5.77884">
        <ele>1585</ele>
        <time>2016-08-20T06:55:37Z</time>
      </trkpt>
      <trkpt lat="45.2797" lon="5.77867">
        <ele>1587</ele>
        <time>2016-08-20T06:55:46Z</time>
      </trkpt>
      <trkpt lat="45.27973" lon="5.77866">
        <ele>1587</ele>
        <time>2016-08-20T06:55:47Z</time>
      </trkpt>
      <trkpt lat="45.27974" lon="5.77864">
        <ele>1587</ele>
        <time>2016-08-20T06:55:48Z</time>
      </trkpt>
      <trkpt lat="45.27994" lon="5.77843">
        <ele>1589</ele>
        <time>2016-08-20T06:56:00Z</time>
      </trkpt>
      <trkpt lat="45.28007" lon="5.7782">
        <ele>1590</ele>
        <time>2016-08-20T06:56:12Z</time>
      </trkpt>
      <trkpt lat="45.2801" lon="5.77816">
        <ele>1591</ele>
        <time>2016-08-20T06:56:15Z</time>
      </trkpt>
      <trkpt lat="45.28011" lon="5.77816">
        <ele>1591</ele>
        <time>2016-08-20T06:56:16Z</time>
      </trkpt>
      <trkpt lat="45.28025" lon="5.77789">
        <ele>1591</ele>
        <time>2016-08-20T06:56:28Z</time>
      </trkpt>
      <trkpt lat="45.28035" lon="5.77779">
        <ele>1592</ele>
        <time>2016-08-20T06:56:34Z</time>
      </trkpt>
      <trkpt lat="45.28036" lon="5.77777">
        <ele>1592</ele>
        <time>2016-08-20T06:56:35Z</time>
      </trkpt>
      <trkpt lat="45.28036" lon="5.77774">
        <ele>1592</ele>
        <time>2016-08-20T06:56:36Z</time>
      </trkpt>
      <trkpt lat="45.28045" lon="5.77746">
        <ele>1589</ele>
        <time>2016-08-20T06:56:49Z</time>
      </trkpt>
      <trkpt lat="45.28063" lon="5.77721">
        <ele>1587</ele>
        <time>2016-08-20T06:56:59Z</time>
      </trkpt>
      <trkpt lat="45.28087" lon="5.77707">
        <ele>1589</ele>
        <time>2016-08-20T06:57:11Z</time>
      </trkpt>
      <trkpt lat="45.28088" lon="5.77704">
        <ele>1589</ele>
        <time>2016-08-20T06:57:12Z</time>
      </trkpt>
      <trkpt lat="45.28096" lon="5.77688">
        <ele>1587</ele>
        <time>2016-08-20T06:57:19Z</time>
      </trkpt>
      <trkpt lat="45.28097" lon="5.77685">
        <ele>1587</ele>
        <time>2016-08-20T06:57:20Z</time>
      </trkpt>
      <trkpt lat="45.28099" lon="5.77679">
        <ele>1586</ele>
        <time>2016-08-20T06:57:22Z</time>
      </trkpt>
      <trkpt lat="45.28103" lon="5.77673">
        <ele>1586</ele>
        <time>2016-08-20T06:57:26Z</time>
      </trkpt>
      <trkpt lat="45.28117" lon="5.77672">
        <ele>1589</ele>
        <time>2016-08-20T06:57:36Z</time>
      </trkpt>
      <trkpt lat="45.28142" lon="5.7767">
        <ele>1590</ele>
        <time>2016-08-20T06:57:52Z</time>
      </trkpt>
      <trkpt lat="45.28164" lon="5.77678">
        <ele>1591</ele>
        <time>2016-08-20T06:58:03Z</time>
      </trkpt>
      <trkpt lat="45.28185" lon="5.77692">
        <ele>1594</ele>
        <time>2016-08-20T06:58:15Z</time>
      </trkpt>
      <trkpt lat="45.28201" lon="5.77698">
        <ele>1596</ele>
        <time>2016-08-20T06:58:27Z</time>
      </trkpt>
      <trkpt lat="45.28203" lon="5.77698">
        <ele>1596</ele>
        <time>2016-08-20T06:58:28Z</time>
      </trkpt>
      <trkpt lat="45.28222" lon="5.7771">
        <ele>1597</ele>
        <time>2016-08-20T06:58:41Z</time>
      </trkpt>
      <trkpt lat="45.28235" lon="5.77717">
        <ele>1600</ele>
        <time>2016-08-20T06:58:55Z</time>
      </trkpt>
      <trkpt lat="45.28239" lon="5.7772">
        <ele>1600</ele>
        <time>2016-08-20T06:58:57Z</time>
      </trkpt>
      <trkpt lat="45.28243" lon="5.7772">
        <ele>1600</ele>
        <time>2016-08-20T06:59:03Z</time>
      </trkpt>
      <trkpt lat="45.28245" lon="5.77721">
        <ele>1600</ele>
        <time>2016-08-20T06:59:04Z</time>
      </trkpt>
      <trkpt lat="45.28247" lon="5.77721">
        <ele>1600</ele>
        <time>2016-08-20T06:59:05Z</time>
      </trkpt>
      <trkpt lat="45.28249" lon="5.77722">
        <ele>1599</ele>
        <time>2016-08-20T06:59:06Z</time>
      </trkpt>
      <trkpt lat="45.28252" lon="5.77724">
        <ele>1599</ele>
        <time>2016-08-20T06:59:07Z</time>
      </trkpt>
      <trkpt lat="45.28255" lon="5.77724">
        <ele>1599</ele>
        <time>2016-08-20T06:59:08Z</time>
      </trkpt>
      <trkpt lat="45.28257" lon="5.77725">
        <ele>1599</ele>
        <time>2016-08-20T06:59:09Z</time>
      </trkpt>
      <trkpt lat="45.28276" lon="5.77734">
        <ele>1595</ele>
        <time>2016-08-20T06:59:19Z</time>
      </trkpt>
      <trkpt lat="45.2828" lon="5.77736">
        <ele>1595</ele>
        <time>2016-08-20T06:59:22Z</time>
      </trkpt>
      <trkpt lat="45.28281" lon="5.77736">
        <ele>1595</ele>
        <time>2016-08-20T06:59:23Z</time>
      </trkpt>
      <trkpt lat="45.28283" lon="5.77736">
        <ele>1595</ele>
        <time>2016-08-20T06:59:24Z</time>
      </trkpt>
      <trkpt lat="45.28286" lon="5.77736">
        <ele>1595</ele>
        <time>2016-08-20T06:59:25Z</time>
      </trkpt>
      <trkpt lat="45.28288" lon="5.77737">
        <ele>1595</ele>
        <time>2016-08-20T06:59:26Z</time>
      </trkpt>
      <trkpt lat="45.2829" lon="5.77738">
        <ele>1594</ele>
        <time>2016-08-20T06:59:27Z</time>
      </trkpt>
      <trkpt lat="45.28292" lon="5.77738">
        <ele>1594</ele>
        <time>2016-08-20T06:59:28Z</time>
      </trkpt>
      <trkpt lat="45.28294" lon="5.77738">
        <ele>1594</ele>
        <time>2016-08-20T06:59:29Z</time>
      </trkpt>
      <trkpt lat="45.28296" lon="5.77738">
        <ele>1594</ele>
        <time>2016-08-20T06:59:30Z</time>
      </trkpt>
      <trkpt lat="45.28315" lon="5.77751">
        <ele>1594</ele>
        <time>2016-08-20T06:59:40Z</time>
      </trkpt>
      <trkpt lat="45.28335" lon="5.77764">
        <ele>1594</ele>
        <time>2016-08-20T06:59:54Z</time>
      </trkpt>
      <trkpt lat="45.28352" lon="5.77769">
        <ele>1591</ele>
        <time>2016-08-20T07:00:04Z</time>
      </trkpt>
      <trkpt lat="45.28358" lon="5.77776">
        <ele>1590</ele>
        <time>2016-08-20T07:00:09Z</time>
      </trkpt>
      <trkpt lat="45.28367" lon="5.77785">
        <ele>1589</ele>
        <time>2016-08-20T07:00:19Z</time>
      </trkpt>
      <trkpt lat="45.28369" lon="5.77785">
        <ele>1589</ele>
        <time>2016-08-20T07:00:20Z</time>
      </trkpt>
      <trkpt lat="45.28372" lon="5.77787">
        <ele>1588</ele>
        <time>2016-08-20T07:00:23Z</time>
      </trkpt>
      <trkpt lat="45.28377" lon="5.77798">
        <ele>1590</ele>
        <time>2016-08-20T07:00:33Z</time>
      </trkpt>
      <trkpt lat="45.2838" lon="5.77801">
        <ele>1590</ele>
        <time>2016-08-20T07:00:36Z</time>
      </trkpt>
      <trkpt lat="45.28381" lon="5.77802">
        <ele>1590</ele>
        <time>2016-08-20T07:00:37Z</time>
      </trkpt>
      <trkpt lat="45.28402" lon="5.77811">
        <ele>1589</ele>
        <time>2016-08-20T07:00:49Z</time>
      </trkpt>
      <trkpt lat="45.2842" lon="5.7783">
        <ele>1588</ele>
        <time>2016-08-20T07:00:59Z</time>
      </trkpt>
      <trkpt lat="45.28437" lon="5.77845">
        <ele>1587</ele>
        <time>2016-08-20T07:01:10Z</time>
      </trkpt>
      <trkpt lat="45.28458" lon="5.77862">
        <ele>1586</ele>
        <time>2016-08-20T07:01:20Z</time>
      </trkpt>
      <trkpt lat="45.2848" lon="5.77877">
        <ele>1585</ele>
        <time>2016-08-20T07:01:33Z</time>
      </trkpt>
      <trkpt lat="45.28494" lon="5.77879">
        <ele>1582</ele>
        <time>2016-08-20T07:01:42Z</time>
      </trkpt>
      <trkpt lat="45.28499" lon="5.77881">
        <ele>1581</ele>
        <time>2016-08-20T07:01:44Z</time>
      </trkpt>
      <trkpt lat="45.28501" lon="5.77882">
        <ele>1581</ele>
        <time>2016-08-20T07:01:45Z</time>
      </trkpt>
      <trkpt lat="45.28522" lon="5.77891">
        <ele>1581</ele>
        <time>2016-08-20T07:01:56Z</time>
      </trkpt>
      <trkpt lat="45.28544" lon="5.77898">
        <ele>1579</ele>
        <time>2016-08-20T07:02:07Z</time>
      </trkpt>
      <trkpt lat="45.28565" lon="5.7792">
        <ele>1578</ele>
        <time>2016-08-20T07:02:16Z</time>
      </trkpt>
      <trkpt lat="45.28577" lon="5.77944">
        <ele>1580</ele>
        <time>2016-08-20T07:02:27Z</time>
      </trkpt>
      <trkpt lat="45.2858" lon="5.77967">
        <ele>1583</ele>
        <time>2016-08-20T07:02:47Z</time>
      </trkpt>
      <trkpt lat="45.28582" lon="5.77975">
        <ele>1585</ele>
        <time>2016-08-20T07:02:54Z</time>
      </trkpt>
      <trkpt lat="45.28585" lon="5.77987">
        <ele>1588</ele>
        <time>2016-08-20T07:03:05Z</time>
      </trkpt>
      <trkpt lat="45.28585" lon="5.7799">
        <ele>1589</ele>
        <time>2016-08-20T07:03:08Z</time>
      </trkpt>
      <trkpt lat="45.28587" lon="5.77994">
        <ele>1590</ele>
        <time>2016-08-20T07:03:13Z</time>
      </trkpt>
      <trkpt lat="45.28589" lon="5.78005">
        <ele>1593</ele>
        <time>2016-08-20T07:03:22Z</time>
      </trkpt>
      <trkpt lat="45.28602" lon="5.78012">
        <ele>1596</ele>
        <time>2016-08-20T07:03:37Z</time>
      </trkpt>
      <trkpt lat="45.28613" lon="5.78018">
        <ele>1599</ele>
        <time>2016-08-20T07:03:49Z</time>
      </trkpt>
      <trkpt lat="45.28628" lon="5.78025">
        <ele>1602</ele>
        <time>2016-08-20T07:04:00Z</time>
      </trkpt>
      <trkpt lat="45.28641" lon="5.78034">
        <ele>1605</ele>
        <time>2016-08-20T07:04:15Z</time>
      </trkpt>
      <trkpt lat="45.28652" lon="5.78035">
        <ele>1608</ele>
        <time>2016-08-20T07:04:26Z</time>
      </trkpt>
      <trkpt lat="45.28663" lon="5.78035">
        <ele>1610</ele>
        <time>2016-08-20T07:04:36Z</time>
      </trkpt>
      <trkpt lat="45.28667" lon="5.78035">
        <ele>1612</ele>
        <time>2016-08-20T07:04:43Z</time>
      </trkpt>
      <trkpt lat="45.28668" lon="5.78035">
        <ele>1613</ele>
        <time>2016-08-20T07:04:44Z</time>
      </trkpt>
      <trkpt lat="45.2867" lon="5.78035">
        <ele>1613</ele>
        <time>2016-08-20T07:04:45Z</time>
      </trkpt>
      <trkpt lat="45.28671" lon="5.78034">
        <ele>1614</ele>
        <time>2016-08-20T07:04:46Z</time>
      </trkpt>
      <trkpt lat="45.28671" lon="5.78034">
        <ele>1614</ele>
        <time>2016-08-20T07:04:47Z</time>
      </trkpt>
      <trkpt lat="45.28673" lon="5.78033">
        <ele>1614</ele>
        <time>2016-08-20T07:04:48Z</time>
      </trkpt>
      <trkpt lat="45.28674" lon="5.78033">
        <ele>1614</ele>
        <time>2016-08-20T07:04:49Z</time>
      </trkpt>
      <trkpt lat="45.28692" lon="5.78022">
        <ele>1617</ele>
        <time>2016-08-20T07:05:04Z</time>
      </trkpt>
      <trkpt lat="45.28707" lon="5.78023">
        <ele>1619</ele>
        <time>2016-08-20T07:05:15Z</time>
      </trkpt>
      <trkpt lat="45.28707" lon="5.78025">
        <ele>1619</ele>
        <time>2016-08-20T07:05:17Z</time>
      </trkpt>
      <trkpt lat="45.28694" lon="5.78038">
        <ele>1622</ele>
        <time>2016-08-20T07:05:29Z</time>
      </trkpt>
      <trkpt lat="45.2869" lon="5.78047">
        <ele>1623</ele>
        <time>2016-08-20T07:05:36Z</time>
      </trkpt>
      <trkpt lat="45.28689" lon="5.78049">
        <ele>1624</ele>
        <time>2016-08-20T07:05:37Z</time>
      </trkpt>
      <trkpt lat="45.28689" lon="5.78051">
        <ele>1624</ele>
        <time>2016-08-20T07:05:38Z</time>
      </trkpt>
      <trkpt lat="45.28688" lon="5.78052">
        <ele>1624</ele>
        <time>2016-08-20T07:05:39Z</time>
      </trkpt>
      <trkpt lat="45.28688" lon="5.78054">
        <ele>1624</ele>
        <time>2016-08-20T07:05:40Z</time>
      </trkpt>
      <trkpt lat="45.28687" lon="5.78057">
        <ele>1625</ele>
        <time>2016-08-20T07:05:42Z</time>
      </trkpt>
      <trkpt lat="45.28687" lon="5.78058">
        <ele>1625</ele>
        <time>2016-08-20T07:05:43Z</time>
      </trkpt>
      <trkpt lat="45.28677" lon="5.78069">
        <ele>1628</ele>
        <time>2016-08-20T07:05:54Z</time>
      </trkpt>
      <trkpt lat="45.28669" lon="5.78076">
        <ele>1630</ele>
        <time>2016-08-20T07:06:02Z</time>
      </trkpt>
      <trkpt lat="45.28668" lon="5.78077">
        <ele>1630</ele>
        <time>2016-08-20T07:06:03Z</time>
      </trkpt>
      <trkpt lat="45.28667" lon="5.78077">
        <ele>1630</ele>
        <time>2016-08-20T07:06:04Z</time>
      </trkpt>
      <trkpt lat="45.28652" lon="5.7809">
        <ele>1633</ele>
        <time>2016-08-20T07:06:20Z</time>
      </trkpt>
      <trkpt lat="45.28637" lon="5.78096">
        <ele>1636</ele>
        <time>2016-08-20T07:06:34Z</time>
      </trkpt>
      <trkpt lat="45.28623" lon="5.78102">
        <ele>1639</ele>
        <time>2016-08-20T07:06:47Z</time>
      </trkpt>
      <trkpt lat="45.2861" lon="5.78106">
        <ele>1643</ele>
        <time>2016-08-20T07:07:01Z</time>
      </trkpt>
      <trkpt lat="45.28605" lon="5.78113">
        <ele>1645</ele>
        <time>2016-08-20T07:07:10Z</time>
      </trkpt>
      <trkpt lat="45.28607" lon="5.78115">
        <ele>1646</ele>
        <time>2016-08-20T07:07:12Z</time>
      </trkpt>
      <trkpt lat="45.28607" lon="5.78115">
        <ele>1646</ele>
        <time>2016-08-20T07:07:13Z</time>
      </trkpt>
      <trkpt lat="45.28608" lon="5.78116">
        <ele>1646</ele>
        <time>2016-08-20T07:07:14Z</time>
      </trkpt>
      <trkpt lat="45.28609" lon="5.78116">
        <ele>1647</ele>
        <time>2016-08-20T07:07:15Z</time>
      </trkpt>
      <trkpt lat="45.28611" lon="5.78117">
        <ele>1647</ele>
        <time>2016-08-20T07:07:16Z</time>
      </trkpt>
      <trkpt lat="45.28624" lon="5.78123">
        <ele>1650</ele>
        <time>2016-08-20T07:07:28Z</time>
      </trkpt>
      <trkpt lat="45.28642" lon="5.78131">
        <ele>1653</ele>
        <time>2016-08-20T07:07:43Z</time>
      </trkpt>
      <trkpt lat="45.28662" lon="5.78131">
        <ele>1655</ele>
        <time>2016-08-20T07:07:57Z</time>
      </trkpt>
      <trkpt lat="45.28679" lon="5.78133">
        <ele>1657</ele>
        <time>2016-08-20T07:08:10Z</time>
      </trkpt>
      <trkpt lat="45.28693" lon="5.7813">
        <ele>1661</ele>
        <time>2016-08-20T07:08:22Z</time>
      </trkpt>
      <trkpt lat="45.28705" lon="5.7813">
        <ele>1664</ele>
        <time>2016-08-20T07:08:32Z</time>
      </trkpt>
      <trkpt lat="45.28718" lon="5.78136">
        <ele>1666</ele>
        <time>2016-08-20T07:08:43Z</time>
      </trkpt>
      <trkpt lat="45.28719" lon="5.78137">
        <ele>1667</ele>
        <time>2016-08-20T07:08:44Z</time>
      </trkpt>
      <trkpt lat="45.28718" lon="5.78139">
        <ele>1667</ele>
        <time>2016-08-20T07:08:45Z</time>
      </trkpt>
      <trkpt lat="45.28713" lon="5.78142">
        <ele>1669</ele>
        <time>2016-08-20T07:08:50Z</time>
      </trkpt>
      <trkpt lat="45.287" lon="5.78155">
        <ele>1672</ele>
        <time>2016-08-20T07:09:05Z</time>
      </trkpt>
      <trkpt lat="45.28697" lon="5.78164">
        <ele>1674</ele>
        <time>2016-08-20T07:09:14Z</time>
      </trkpt>
      <trkpt lat="45.28696" lon="5.78166">
        <ele>1675</ele>
        <time>2016-08-20T07:09:16Z</time>
      </trkpt>
      <trkpt lat="45.28689" lon="5.78178">
        <ele>1678</ele>
        <time>2016-08-20T07:09:30Z</time>
      </trkpt>
      <trkpt lat="45.28688" lon="5.78187">
        <ele>1681</ele>
        <time>2016-08-20T07:09:40Z</time>
      </trkpt>
      <trkpt lat="45.28687" lon="5.78189">
        <ele>1681</ele>
        <time>2016-08-20T07:09:42Z</time>
      </trkpt>
      <trkpt lat="45.28686" lon="5.78191">
        <ele>1681</ele>
        <time>2016-08-20T07:09:44Z</time>
      </trkpt>
      <trkpt lat="45.28685" lon="5.78192">
        <ele>1682</ele>
        <time>2016-08-20T07:09:45Z</time>
      </trkpt>
      <trkpt lat="45.28684" lon="5.78193">
        <ele>1682</ele>
        <time>2016-08-20T07:09:46Z</time>
      </trkpt>
      <trkpt lat="45.28673" lon="5.78199">
        <ele>1685</ele>
        <time>2016-08-20T07:10:00Z</time>
      </trkpt>
      <trkpt lat="45.28669" lon="5.78202">
        <ele>1685</ele>
        <time>2016-08-20T07:10:03Z</time>
      </trkpt>
      <trkpt lat="45.28667" lon="5.78203">
        <ele>1685</ele>
        <time>2016-08-20T07:10:04Z</time>
      </trkpt>
      <trkpt lat="45.28657" lon="5.78205">
        <ele>1688</ele>
        <time>2016-08-20T07:10:15Z</time>
      </trkpt>
      <trkpt lat="45.28653" lon="5.78206">
        <ele>1689</ele>
        <time>2016-08-20T07:10:19Z</time>
      </trkpt>
      <trkpt lat="45.28651" lon="5.78207">
        <ele>1690</ele>
        <time>2016-08-20T07:10:21Z</time>
      </trkpt>
      <trkpt lat="45.2865" lon="5.78208">
        <ele>1690</ele>
        <time>2016-08-20T07:10:22Z</time>
      </trkpt>
      <trkpt lat="45.2865" lon="5.78208">
        <ele>1690</ele>
        <time>2016-08-20T07:10:23Z</time>
      </trkpt>
      <trkpt lat="45.28652" lon="5.78211">
        <ele>1691</ele>
        <time>2016-08-20T07:10:27Z</time>
      </trkpt>
      <trkpt lat="45.28653" lon="5.78211">
        <ele>1692</ele>
        <time>2016-08-20T07:10:28Z</time>
      </trkpt>
      <trkpt lat="45.28654" lon="5.78212">
        <ele>1692</ele>
        <time>2016-08-20T07:10:29Z</time>
      </trkpt>
      <trkpt lat="45.28655" lon="5.78213">
        <ele>1692</ele>
        <time>2016-08-20T07:10:30Z</time>
      </trkpt>
      <trkpt lat="45.28656" lon="5.78213">
        <ele>1692</ele>
        <time>2016-08-20T07:10:31Z</time>
      </trkpt>
      <trkpt lat="45.28657" lon="5.78214">
        <ele>1692</ele>
        <time>2016-08-20T07:10:32Z</time>
      </trkpt>
      <trkpt lat="45.28657" lon="5.78216">
        <ele>1693</ele>
        <time>2016-08-20T07:10:33Z</time>
      </trkpt>
      <trkpt lat="45.28658" lon="5.78217">
        <ele>1693</ele>
        <time>2016-08-20T07:10:34Z</time>
      </trkpt>
      <trkpt lat="45.28662" lon="5.78224">
        <ele>1696</ele>
        <time>2016-08-20T07:10:45Z</time>
      </trkpt>
      <trkpt lat="45.28668" lon="5.78228">
        <ele>1699</ele>
        <time>2016-08-20T07:10:55Z</time>
      </trkpt>
      <trkpt lat="45.28672" lon="5.7823">
        <ele>1701</ele>
        <time>2016-08-20T07:11:01Z</time>
      </trkpt>
      <trkpt lat="45.28673" lon="5.78231">
        <ele>1701</ele>
        <time>2016-08-20T07:11:02Z</time>
      </trkpt>
      <trkpt lat="45.28673" lon="5.78232">
        <ele>1701</ele>
        <time>2016-08-20T07:11:03Z</time>
      </trkpt>
      <trkpt lat="45.28679" lon="5.78239">
        <ele>1704</ele>
        <time>2016-08-20T07:11:14Z</time>
      </trkpt>
      <trkpt lat="45.28686" lon="5.78241">
        <ele>1708</ele>
        <time>2016-08-20T07:11:26Z</time>
      </trkpt>
      <trkpt lat="45.28692" lon="5.78244">
        <ele>1709</ele>
        <time>2016-08-20T07:11:34Z</time>
      </trkpt>
      <trkpt lat="45.28694" lon="5.78245">
        <ele>1710</ele>
        <time>2016-08-20T07:11:37Z</time>
      </trkpt>
      <trkpt lat="45.2869" lon="5.78247">
        <ele>1711</ele>
        <time>2016-08-20T07:11:41Z</time>
      </trkpt>
      <trkpt lat="45.28672" lon="5.78255">
        <ele>1714</ele>
        <time>2016-08-20T07:12:00Z</time>
      </trkpt>
      <trkpt lat="45.28655" lon="5.78245">
        <ele>1715</ele>
        <time>2016-08-20T07:12:14Z</time>
      </trkpt>
      <trkpt lat="45.28647" lon="5.78245">
        <ele>1718</ele>
        <time>2016-08-20T07:12:27Z</time>
      </trkpt>
      <trkpt lat="45.28643" lon="5.78243">
        <ele>1719</ele>
        <time>2016-08-20T07:12:31Z</time>
      </trkpt>
      <trkpt lat="45.28629" lon="5.78244">
        <ele>1722</ele>
        <time>2016-08-20T07:12:44Z</time>
      </trkpt>
      <trkpt lat="45.28625" lon="5.78251">
        <ele>1725</ele>
        <time>2016-08-20T07:12:58Z</time>
      </trkpt>
      <trkpt lat="45.28627" lon="5.78253">
        <ele>1726</ele>
        <time>2016-08-20T07:13:00Z</time>
      </trkpt>
      <trkpt lat="45.28626" lon="5.78258">
        <ele>1728</ele>
        <time>2016-08-20T07:13:05Z</time>
      </trkpt>
      <trkpt lat="45.28623" lon="5.78259">
        <ele>1730</ele>
        <time>2016-08-20T07:13:12Z</time>
      </trkpt>
      <trkpt lat="45.28616" lon="5.78256">
        <ele>1733</ele>
        <time>2016-08-20T07:13:25Z</time>
      </trkpt>
      <trkpt lat="45.2861" lon="5.78256">
        <ele>1733</ele>
        <time>2016-08-20T07:13:30Z</time>
      </trkpt>
      <trkpt lat="45.28607" lon="5.78264">
        <ele>1736</ele>
        <time>2016-08-20T07:13:42Z</time>
      </trkpt>
      <trkpt lat="45.28604" lon="5.78263">
        <ele>1738</ele>
        <time>2016-08-20T07:13:46Z</time>
      </trkpt>
      <trkpt lat="45.28597" lon="5.78263">
        <ele>1739</ele>
        <time>2016-08-20T07:13:51Z</time>
      </trkpt>
      <trkpt lat="45.28595" lon="5.78263">
        <ele>1739</ele>
        <time>2016-08-20T07:13:52Z</time>
      </trkpt>
      <trkpt lat="45.28593" lon="5.78263">
        <ele>1739</ele>
        <time>2016-08-20T07:13:53Z</time>
      </trkpt>
      <trkpt lat="45.28577" lon="5.78264">
        <ele>1742</ele>
        <time>2016-08-20T07:14:07Z</time>
      </trkpt>
      <trkpt lat="45.28557" lon="5.78263">
        <ele>1745</ele>
        <time>2016-08-20T07:14:23Z</time>
      </trkpt>
      <trkpt lat="45.28536" lon="5.78263">
        <ele>1749</ele>
        <time>2016-08-20T07:14:40Z</time>
      </trkpt>
      <trkpt lat="45.28512" lon="5.7826">
        <ele>1752</ele>
        <time>2016-08-20T07:14:57Z</time>
      </trkpt>
      <trkpt lat="45.28496" lon="5.7826">
        <ele>1755</ele>
        <time>2016-08-20T07:15:12Z</time>
      </trkpt>
      <trkpt lat="45.28495" lon="5.7826">
        <ele>1755</ele>
        <time>2016-08-20T07:15:13Z</time>
      </trkpt>
      <trkpt lat="45.28493" lon="5.7826">
        <ele>1756</ele>
        <time>2016-08-20T07:15:14Z</time>
      </trkpt>
      <trkpt lat="45.28486" lon="5.78257">
        <ele>1758</ele>
        <time>2016-08-20T07:15:24Z</time>
      </trkpt>
      <trkpt lat="45.28481" lon="5.78255">
        <ele>1759</ele>
        <time>2016-08-20T07:15:28Z</time>
      </trkpt>
      <trkpt lat="45.2848" lon="5.78255">
        <ele>1759</ele>
        <time>2016-08-20T07:15:29Z</time>
      </trkpt>
      <trkpt lat="45.28479" lon="5.78254">
        <ele>1759</ele>
        <time>2016-08-20T07:15:30Z</time>
      </trkpt>
      <trkpt lat="45.28471" lon="5.78259">
        <ele>1762</ele>
        <time>2016-08-20T07:15:43Z</time>
      </trkpt>
      <trkpt lat="45.28471" lon="5.7826">
        <ele>1762</ele>
        <time>2016-08-20T07:15:44Z</time>
      </trkpt>
      <trkpt lat="45.28471" lon="5.78268">
        <ele>1764</ele>
        <time>2016-08-20T07:15:58Z</time>
      </trkpt>
      <trkpt lat="45.2846" lon="5.78266">
        <ele>1768</ele>
        <time>2016-08-20T07:16:11Z</time>
      </trkpt>
      <trkpt lat="45.28445" lon="5.78265">
        <ele>1771</ele>
        <time>2016-08-20T07:16:26Z</time>
      </trkpt>
      <trkpt lat="45.28429" lon="5.78266">
        <ele>1773</ele>
        <time>2016-08-20T07:16:40Z</time>
      </trkpt>
      <trkpt lat="45.2843" lon="5.7827">
        <ele>1774</ele>
        <time>2016-08-20T07:16:43Z</time>
      </trkpt>
      <trkpt lat="45.28431" lon="5.78272">
        <ele>1774</ele>
        <time>2016-08-20T07:16:45Z</time>
      </trkpt>
      <trkpt lat="45.28431" lon="5.78273">
        <ele>1774</ele>
        <time>2016-08-20T07:16:46Z</time>
      </trkpt>
      <trkpt lat="45.28439" lon="5.78287">
        <ele>1778</ele>
        <time>2016-08-20T07:16:57Z</time>
      </trkpt>
      <trkpt lat="45.2844" lon="5.78288">
        <ele>1778</ele>
        <time>2016-08-20T07:16:58Z</time>
      </trkpt>
      <trkpt lat="45.2844" lon="5.78289">
        <ele>1778</ele>
        <time>2016-08-20T07:16:59Z</time>
      </trkpt>
      <trkpt lat="45.28441" lon="5.78291">
        <ele>1778</ele>
        <time>2016-08-20T07:17:00Z</time>
      </trkpt>
      <trkpt lat="45.28442" lon="5.78292">
        <ele>1778</ele>
        <time>2016-08-20T07:17:01Z</time>
      </trkpt>
      <trkpt lat="45.28444" lon="5.78296">
        <ele>1779</ele>
        <time>2016-08-20T07:17:04Z</time>
      </trkpt>
      <trkpt lat="45.28444" lon="5.78297">
        <ele>1779</ele>
        <time>2016-08-20T07:17:05Z</time>
      </trkpt>
      <trkpt lat="45.28445" lon="5.78299">
        <ele>1779</ele>
        <time>2016-08-20T07:17:06Z</time>
      </trkpt>
      <trkpt lat="45.28446" lon="5.78301">
        <ele>1779</ele>
        <time>2016-08-20T07:17:07Z</time>
      </trkpt>
      <trkpt lat="45.28445" lon="5.78302">
        <ele>1779</ele>
        <time>2016-08-20T07:17:08Z</time>
      </trkpt>
      <trkpt lat="45.28444" lon="5.78303">
        <ele>1780</ele>
        <time>2016-08-20T07:17:09Z</time>
      </trkpt>
      <trkpt lat="45.28442" lon="5.78303">
        <ele>1780</ele>
        <time>2016-08-20T07:17:10Z</time>
      </trkpt>
      <trkpt lat="45.28442" lon="5.78304">
        <ele>1780</ele>
        <time>2016-08-20T07:17:11Z</time>
      </trkpt>
      <trkpt lat="45.2844" lon="5.78304">
        <ele>1781</ele>
        <time>2016-08-20T07:17:13Z</time>
      </trkpt>
      <trkpt lat="45.28439" lon="5.78305">
        <ele>1781</ele>
        <time>2016-08-20T07:17:14Z</time>
      </trkpt>
      <trkpt lat="45.28438" lon="5.78304">
        <ele>1780</ele>
        <time>2016-08-20T07:17:15Z</time>
      </trkpt>
      <trkpt lat="45.28437" lon="5.78304">
        <ele>1780</ele>
        <time>2016-08-20T07:17:16Z</time>
      </trkpt>
      <trkpt lat="45.28434" lon="5.78306">
        <ele>1782</ele>
        <time>2016-08-20T07:17:20Z</time>
      </trkpt>
      <trkpt lat="45.28433" lon="5.78307">
        <ele>1782</ele>
        <time>2016-08-20T07:17:21Z</time>
      </trkpt>
      <trkpt lat="45.28432" lon="5.78307">
        <ele>1782</ele>
        <time>2016-08-20T07:17:22Z</time>
      </trkpt>
      <trkpt lat="45.28431" lon="5.78307">
        <ele>1782</ele>
        <time>2016-08-20T07:17:23Z</time>
      </trkpt>
      <trkpt lat="45.28429" lon="5.78307">
        <ele>1783</ele>
        <time>2016-08-20T07:17:24Z</time>
      </trkpt>
      <trkpt lat="45.28428" lon="5.78307">
        <ele>1783</ele>
        <time>2016-08-20T07:17:25Z</time>
      </trkpt>
      <trkpt lat="45.28428" lon="5.78307">
        <ele>1784</ele>
        <time>2016-08-20T07:17:26Z</time>
      </trkpt>
      <trkpt lat="45.28427" lon="5.78311">
        <ele>1785</ele>
        <time>2016-08-20T07:17:37Z</time>
      </trkpt>
      <trkpt lat="45.28428" lon="5.78312">
        <ele>1785</ele>
        <time>2016-08-20T07:17:38Z</time>
      </trkpt>
      <trkpt lat="45.28429" lon="5.78313">
        <ele>1785</ele>
        <time>2016-08-20T07:17:39Z</time>
      </trkpt>
      <trkpt lat="45.2843" lon="5.78314">
        <ele>1786</ele>
        <time>2016-08-20T07:17:40Z</time>
      </trkpt>
      <trkpt lat="45.2843" lon="5.78316">
        <ele>1786</ele>
        <time>2016-08-20T07:17:41Z</time>
      </trkpt>
      <trkpt lat="45.28431" lon="5.78317">
        <ele>1786</ele>
        <time>2016-08-20T07:17:42Z</time>
      </trkpt>
      <trkpt lat="45.28432" lon="5.78318">
        <ele>1786</ele>
        <time>2016-08-20T07:17:43Z</time>
      </trkpt>
      <trkpt lat="45.28433" lon="5.78319">
        <ele>1786</ele>
        <time>2016-08-20T07:17:44Z</time>
      </trkpt>
      <trkpt lat="45.28433" lon="5.7832">
        <ele>1787</ele>
        <time>2016-08-20T07:17:45Z</time>
      </trkpt>
      <trkpt lat="45.28434" lon="5.78322">
        <ele>1787</ele>
        <time>2016-08-20T07:17:46Z</time>
      </trkpt>
      <trkpt lat="45.28435" lon="5.78322">
        <ele>1787</ele>
        <time>2016-08-20T07:17:47Z</time>
      </trkpt>
      <trkpt lat="45.28435" lon="5.78324">
        <ele>1787</ele>
        <time>2016-08-20T07:17:48Z</time>
      </trkpt>
      <trkpt lat="45.28436" lon="5.78325">
        <ele>1787</ele>
        <time>2016-08-20T07:17:49Z</time>
      </trkpt>
      <trkpt lat="45.28436" lon="5.78327">
        <ele>1788</ele>
        <time>2016-08-20T07:17:50Z</time>
      </trkpt>
      <trkpt lat="45.28437" lon="5.78328">
        <ele>1788</ele>
        <time>2016-08-20T07:17:52Z</time>
      </trkpt>
      <trkpt lat="45.28438" lon="5.78329">
        <ele>1788</ele>
        <time>2016-08-20T07:17:53Z</time>
      </trkpt>
      <trkpt lat="45.28439" lon="5.78329">
        <ele>1788</ele>
        <time>2016-08-20T07:17:54Z</time>
      </trkpt>
      <trkpt lat="45.2844" lon="5.78331">
        <ele>1789</ele>
        <time>2016-08-20T07:17:55Z</time>
      </trkpt>
      <trkpt lat="45.2844" lon="5.78332">
        <ele>1789</ele>
        <time>2016-08-20T07:17:56Z</time>
      </trkpt>
      <trkpt lat="45.28441" lon="5.78333">
        <ele>1789</ele>
        <time>2016-08-20T07:17:57Z</time>
      </trkpt>
      <trkpt lat="45.28442" lon="5.78335">
        <ele>1789</ele>
        <time>2016-08-20T07:17:58Z</time>
      </trkpt>
      <trkpt lat="45.28442" lon="5.78336">
        <ele>1789</ele>
        <time>2016-08-20T07:17:59Z</time>
      </trkpt>
      <trkpt lat="45.28443" lon="5.78336">
        <ele>1790</ele>
        <time>2016-08-20T07:18:00Z</time>
      </trkpt>
      <trkpt lat="45.28443" lon="5.78338">
        <ele>1790</ele>
        <time>2016-08-20T07:18:01Z</time>
      </trkpt>
      <trkpt lat="45.28442" lon="5.78339">
        <ele>1790</ele>
        <time>2016-08-20T07:18:02Z</time>
      </trkpt>
      <trkpt lat="45.28441" lon="5.7834">
        <ele>1790</ele>
        <time>2016-08-20T07:18:03Z</time>
      </trkpt>
      <trkpt lat="45.2844" lon="5.78341">
        <ele>1791</ele>
        <time>2016-08-20T07:18:04Z</time>
      </trkpt>
      <trkpt lat="45.28439" lon="5.78342">
        <ele>1791</ele>
        <time>2016-08-20T07:18:05Z</time>
      </trkpt>
      <trkpt lat="45.28434" lon="5.78344">
        <ele>1792</ele>
        <time>2016-08-20T07:18:12Z</time>
      </trkpt>
      <trkpt lat="45.28433" lon="5.78344">
        <ele>1792</ele>
        <time>2016-08-20T07:18:13Z</time>
      </trkpt>
      <trkpt lat="45.28433" lon="5.78345">
        <ele>1792</ele>
        <time>2016-08-20T07:18:14Z</time>
      </trkpt>
      <trkpt lat="45.28431" lon="5.78351">
        <ele>1794</ele>
        <time>2016-08-20T07:18:25Z</time>
      </trkpt>
      <trkpt lat="45.2844" lon="5.78364">
        <ele>1798</ele>
        <time>2016-08-20T07:18:37Z</time>
      </trkpt>
      <trkpt lat="45.28446" lon="5.78373">
        <ele>1799</ele>
        <time>2016-08-20T07:18:45Z</time>
      </trkpt>
      <trkpt lat="45.28446" lon="5.78375">
        <ele>1799</ele>
        <time>2016-08-20T07:18:46Z</time>
      </trkpt>
      <trkpt lat="45.28445" lon="5.78376">
        <ele>1800</ele>
        <time>2016-08-20T07:18:47Z</time>
      </trkpt>
      <trkpt lat="45.28444" lon="5.78377">
        <ele>1800</ele>
        <time>2016-08-20T07:18:50Z</time>
      </trkpt>
      <trkpt lat="45.28434" lon="5.78385">
        <ele>1803</ele>
        <time>2016-08-20T07:19:04Z</time>
      </trkpt>
      <trkpt lat="45.28417" lon="5.78389">
        <ele>1807</ele>
        <time>2016-08-20T07:19:20Z</time>
      </trkpt>
      <trkpt lat="45.28419" lon="5.78395">
        <ele>1808</ele>
        <time>2016-08-20T07:19:25Z</time>
      </trkpt>
      <trkpt lat="45.28421" lon="5.78396">
        <ele>1808</ele>
        <time>2016-08-20T07:19:26Z</time>
      </trkpt>
      <trkpt lat="45.28421" lon="5.78397">
        <ele>1809</ele>
        <time>2016-08-20T07:19:27Z</time>
      </trkpt>
      <trkpt lat="45.28422" lon="5.78398">
        <ele>1809</ele>
        <time>2016-08-20T07:19:28Z</time>
      </trkpt>
      <trkpt lat="45.28423" lon="5.78399">
        <ele>1809</ele>
        <time>2016-08-20T07:19:29Z</time>
      </trkpt>
      <trkpt lat="45.28424" lon="5.784">
        <ele>1810</ele>
        <time>2016-08-20T07:19:30Z</time>
      </trkpt>
      <trkpt lat="45.28426" lon="5.78401">
        <ele>1810</ele>
        <time>2016-08-20T07:19:31Z</time>
      </trkpt>
      <trkpt lat="45.28427" lon="5.78402">
        <ele>1810</ele>
        <time>2016-08-20T07:19:32Z</time>
      </trkpt>
      <trkpt lat="45.28428" lon="5.78402">
        <ele>1810</ele>
        <time>2016-08-20T07:19:33Z</time>
      </trkpt>
      <trkpt lat="45.28429" lon="5.78404">
        <ele>1811</ele>
        <time>2016-08-20T07:19:34Z</time>
      </trkpt>
      <trkpt lat="45.2843" lon="5.78405">
        <ele>1811</ele>
        <time>2016-08-20T07:19:35Z</time>
      </trkpt>
      <trkpt lat="45.2844" lon="5.78413">
        <ele>1812</ele>
        <time>2016-08-20T07:19:44Z</time>
      </trkpt>
      <trkpt lat="45.28441" lon="5.78414">
        <ele>1813</ele>
        <time>2016-08-20T07:19:45Z</time>
      </trkpt>
      <trkpt lat="45.28442" lon="5.78415">
        <ele>1813</ele>
        <time>2016-08-20T07:19:46Z</time>
      </trkpt>
      <trkpt lat="45.28442" lon="5.78416">
        <ele>1813</ele>
        <time>2016-08-20T07:19:47Z</time>
      </trkpt>
      <trkpt lat="45.28443" lon="5.78417">
        <ele>1813</ele>
        <time>2016-08-20T07:19:48Z</time>
      </trkpt>
      <trkpt lat="45.28445" lon="5.78419">
        <ele>1814</ele>
        <time>2016-08-20T07:19:50Z</time>
      </trkpt>
      <trkpt lat="45.28446" lon="5.78419">
        <ele>1814</ele>
        <time>2016-08-20T07:19:51Z</time>
      </trkpt>
      <trkpt lat="45.28455" lon="5.78428">
        <ele>1817</ele>
        <time>2016-08-20T07:20:05Z</time>
      </trkpt>
      <trkpt lat="45.28458" lon="5.78433">
        <ele>1819</ele>
        <time>2016-08-20T07:20:11Z</time>
      </trkpt>
      <trkpt lat="45.28468" lon="5.78443">
        <ele>1822</ele>
        <time>2016-08-20T07:20:24Z</time>
      </trkpt>
      <trkpt lat="45.2848" lon="5.78449">
        <ele>1825</ele>
        <time>2016-08-20T07:20:39Z</time>
      </trkpt>
      <trkpt lat="45.28481" lon="5.78449">
        <ele>1825</ele>
        <time>2016-08-20T07:20:40Z</time>
      </trkpt>
      <trkpt lat="45.2849" lon="5.78455">
        <ele>1827</ele>
        <time>2016-08-20T07:20:51Z</time>
      </trkpt>
      <trkpt lat="45.28491" lon="5.78456">
        <ele>1827</ele>
        <time>2016-08-20T07:20:52Z</time>
      </trkpt>
      <trkpt lat="45.28496" lon="5.78457">
        <ele>1829</ele>
        <time>2016-08-20T07:20:59Z</time>
      </trkpt>
      <trkpt lat="45.28498" lon="5.78458">
        <ele>1829</ele>
        <time>2016-08-20T07:21:01Z</time>
      </trkpt>
      <trkpt lat="45.28498" lon="5.78459">
        <ele>1829</ele>
        <time>2016-08-20T07:21:02Z</time>
      </trkpt>
      <trkpt lat="45.28499" lon="5.7846">
        <ele>1830</ele>
        <time>2016-08-20T07:21:03Z</time>
      </trkpt>
      <trkpt lat="45.285" lon="5.7846">
        <ele>1830</ele>
        <time>2016-08-20T07:21:04Z</time>
      </trkpt>
      <trkpt lat="45.28506" lon="5.78461">
        <ele>1832</ele>
        <time>2016-08-20T07:21:11Z</time>
      </trkpt>
      <trkpt lat="45.28507" lon="5.78461">
        <ele>1832</ele>
        <time>2016-08-20T07:21:12Z</time>
      </trkpt>
      <trkpt lat="45.28508" lon="5.78461">
        <ele>1832</ele>
        <time>2016-08-20T07:21:13Z</time>
      </trkpt>
      <trkpt lat="45.28519" lon="5.78467">
        <ele>1835</ele>
        <time>2016-08-20T07:21:26Z</time>
      </trkpt>
      <trkpt lat="45.28521" lon="5.78467">
        <ele>1835</ele>
        <time>2016-08-20T07:21:28Z</time>
      </trkpt>
      <trkpt lat="45.28532" lon="5.7847">
        <ele>1838</ele>
        <time>2016-08-20T07:21:40Z</time>
      </trkpt>
      <trkpt lat="45.28533" lon="5.78471">
        <ele>1839</ele>
        <time>2016-08-20T07:21:41Z</time>
      </trkpt>
      <trkpt lat="45.28534" lon="5.78471">
        <ele>1839</ele>
        <time>2016-08-20T07:21:42Z</time>
      </trkpt>
      <trkpt lat="45.28535" lon="5.78472">
        <ele>1839</ele>
        <time>2016-08-20T07:21:43Z</time>
      </trkpt>
      <trkpt lat="45.28536" lon="5.78473">
        <ele>1839</ele>
        <time>2016-08-20T07:21:44Z</time>
      </trkpt>
      <trkpt lat="45.28537" lon="5.78473">
        <ele>1839</ele>
        <time>2016-08-20T07:21:45Z</time>
      </trkpt>
      <trkpt lat="45.28545" lon="5.78478">
        <ele>1841</ele>
        <time>2016-08-20T07:21:53Z</time>
      </trkpt>
      <trkpt lat="45.28546" lon="5.7848">
        <ele>1841</ele>
        <time>2016-08-20T07:21:54Z</time>
      </trkpt>
      <trkpt lat="45.28545" lon="5.78481">
        <ele>1841</ele>
        <time>2016-08-20T07:21:55Z</time>
      </trkpt>
      <trkpt lat="45.28544" lon="5.78481">
        <ele>1842</ele>
        <time>2016-08-20T07:21:56Z</time>
      </trkpt>
      <trkpt lat="45.28543" lon="5.78482">
        <ele>1842</ele>
        <time>2016-08-20T07:21:57Z</time>
      </trkpt>
      <trkpt lat="45.28542" lon="5.78482">
        <ele>1842</ele>
        <time>2016-08-20T07:21:58Z</time>
      </trkpt>
      <trkpt lat="45.28541" lon="5.78482">
        <ele>1842</ele>
        <time>2016-08-20T07:21:59Z</time>
      </trkpt>
      <trkpt lat="45.2854" lon="5.78483">
        <ele>1842</ele>
        <time>2016-08-20T07:22:00Z</time>
      </trkpt>
      <trkpt lat="45.28538" lon="5.78484">
        <ele>1842</ele>
        <time>2016-08-20T07:22:01Z</time>
      </trkpt>
      <trkpt lat="45.28537" lon="5.78484">
        <ele>1843</ele>
        <time>2016-08-20T07:22:02Z</time>
      </trkpt>
      <trkpt lat="45.28534" lon="5.78489">
        <ele>1844</ele>
        <time>2016-08-20T07:22:11Z</time>
      </trkpt>
      <trkpt lat="45.28535" lon="5.7849">
        <ele>1845</ele>
        <time>2016-08-20T07:22:12Z</time>
      </trkpt>
      <trkpt lat="45.28536" lon="5.7849">
        <ele>1845</ele>
        <time>2016-08-20T07:22:13Z</time>
      </trkpt>
      <trkpt lat="45.28537" lon="5.7849">
        <ele>1845</ele>
        <time>2016-08-20T07:22:14Z</time>
      </trkpt>
      <trkpt lat="45.28538" lon="5.7849">
        <ele>1845</ele>
        <time>2016-08-20T07:22:15Z</time>
      </trkpt>
      <trkpt lat="45.28551" lon="5.78494">
        <ele>1848</ele>
        <time>2016-08-20T07:22:26Z</time>
      </trkpt>
      <trkpt lat="45.28569" lon="5.78499">
        <ele>1850</ele>
        <time>2016-08-20T07:22:40Z</time>
      </trkpt>
      <trkpt lat="45.28576" lon="5.78502">
        <ele>1851</ele>
        <time>2016-08-20T07:22:46Z</time>
      </trkpt>
      <trkpt lat="45.28577" lon="5.78503">
        <ele>1852</ele>
        <time>2016-08-20T07:22:47Z</time>
      </trkpt>
      <trkpt lat="45.28581" lon="5.78506">
        <ele>1852</ele>
        <time>2016-08-20T07:22:51Z</time>
      </trkpt>
      <trkpt lat="45.28582" lon="5.78507">
        <ele>1852</ele>
        <time>2016-08-20T07:22:52Z</time>
      </trkpt>
      <trkpt lat="45.28583" lon="5.78507">
        <ele>1852</ele>
        <time>2016-08-20T07:22:53Z</time>
      </trkpt>
      <trkpt lat="45.28584" lon="5.78507">
        <ele>1852</ele>
        <time>2016-08-20T07:22:54Z</time>
      </trkpt>
      <trkpt lat="45.28585" lon="5.78507">
        <ele>1853</ele>
        <time>2016-08-20T07:22:55Z</time>
      </trkpt>
      <trkpt lat="45.28586" lon="5.78507">
        <ele>1853</ele>
        <time>2016-08-20T07:22:56Z</time>
      </trkpt>
      <trkpt lat="45.28587" lon="5.78507">
        <ele>1853</ele>
        <time>2016-08-20T07:22:57Z</time>
      </trkpt>
      <trkpt lat="45.28589" lon="5.78508">
        <ele>1853</ele>
        <time>2016-08-20T07:22:58Z</time>
      </trkpt>
      <trkpt lat="45.2859" lon="5.78508">
        <ele>1853</ele>
        <time>2016-08-20T07:22:59Z</time>
      </trkpt>
      <trkpt lat="45.28604" lon="5.7852">
        <ele>1856</ele>
        <time>2016-08-20T07:23:12Z</time>
      </trkpt>
      <trkpt lat="45.28606" lon="5.78521">
        <ele>1857</ele>
        <time>2016-08-20T07:23:14Z</time>
      </trkpt>
      <trkpt lat="45.28607" lon="5.78522">
        <ele>1857</ele>
        <time>2016-08-20T07:23:15Z</time>
      </trkpt>
      <trkpt lat="45.28608" lon="5.78522">
        <ele>1858</ele>
        <time>2016-08-20T07:23:16Z</time>
      </trkpt>
      <trkpt lat="45.28609" lon="5.78523">
        <ele>1858</ele>
        <time>2016-08-20T07:23:17Z</time>
      </trkpt>
      <trkpt lat="45.2861" lon="5.78524">
        <ele>1858</ele>
        <time>2016-08-20T07:23:18Z</time>
      </trkpt>
      <trkpt lat="45.28611" lon="5.78525">
        <ele>1858</ele>
        <time>2016-08-20T07:23:19Z</time>
      </trkpt>
      <trkpt lat="45.28621" lon="5.78532">
        <ele>1862</ele>
        <time>2016-08-20T07:23:32Z</time>
      </trkpt>
      <trkpt lat="45.28626" lon="5.78535">
        <ele>1862</ele>
        <time>2016-08-20T07:23:37Z</time>
      </trkpt>
      <trkpt lat="45.28628" lon="5.78536">
        <ele>1864</ele>
        <time>2016-08-20T07:23:41Z</time>
      </trkpt>
      <trkpt lat="45.28629" lon="5.78537">
        <ele>1864</ele>
        <time>2016-08-20T07:23:42Z</time>
      </trkpt>
      <trkpt lat="45.2863" lon="5.78538">
        <ele>1864</ele>
        <time>2016-08-20T07:23:43Z</time>
      </trkpt>
      <trkpt lat="45.28631" lon="5.78539">
        <ele>1864</ele>
        <time>2016-08-20T07:23:44Z</time>
      </trkpt>
      <trkpt lat="45.28632" lon="5.7854">
        <ele>1864</ele>
        <time>2016-08-20T07:23:45Z</time>
      </trkpt>
      <trkpt lat="45.28638" lon="5.78549">
        <ele>1867</ele>
        <time>2016-08-20T07:24:00Z</time>
      </trkpt>
      <trkpt lat="45.28629" lon="5.78553">
        <ele>1871</ele>
        <time>2016-08-20T07:24:12Z</time>
      </trkpt>
      <trkpt lat="45.28621" lon="5.78554">
        <ele>1873</ele>
        <time>2016-08-20T07:24:23Z</time>
      </trkpt>
      <trkpt lat="45.28613" lon="5.78562">
        <ele>1877</ele>
        <time>2016-08-20T07:24:41Z</time>
      </trkpt>
      <trkpt lat="45.28616" lon="5.78567">
        <ele>1879</ele>
        <time>2016-08-20T07:24:47Z</time>
      </trkpt>
      <trkpt lat="45.28626" lon="5.78573">
        <ele>1882</ele>
        <time>2016-08-20T07:24:58Z</time>
      </trkpt>
      <trkpt lat="45.28638" lon="5.78584">
        <ele>1885</ele>
        <time>2016-08-20T07:25:14Z</time>
      </trkpt>
      <trkpt lat="45.28642" lon="5.78588">
        <ele>1886</ele>
        <time>2016-08-20T07:25:19Z</time>
      </trkpt>
      <trkpt lat="45.28634" lon="5.78592">
        <ele>1888</ele>
        <time>2016-08-20T07:25:28Z</time>
      </trkpt>
      <trkpt lat="45.28621" lon="5.78593">
        <ele>1891</ele>
        <time>2016-08-20T07:25:43Z</time>
      </trkpt>
      <trkpt lat="45.28606" lon="5.78599">
        <ele>1894</ele>
        <time>2016-08-20T07:26:02Z</time>
      </trkpt>
      <trkpt lat="45.28609" lon="5.78604">
        <ele>1895</ele>
        <time>2016-08-20T07:26:08Z</time>
      </trkpt>
      <trkpt lat="45.28613" lon="5.78606">
        <ele>1897</ele>
        <time>2016-08-20T07:26:13Z</time>
      </trkpt>
      <trkpt lat="45.28628" lon="5.78608">
        <ele>1898</ele>
        <time>2016-08-20T07:26:26Z</time>
      </trkpt>
      <trkpt lat="45.28629" lon="5.78609">
        <ele>1899</ele>
        <time>2016-08-20T07:26:27Z</time>
      </trkpt>
      <trkpt lat="45.2863" lon="5.78609">
        <ele>1899</ele>
        <time>2016-08-20T07:26:28Z</time>
      </trkpt>
      <trkpt lat="45.28631" lon="5.7861">
        <ele>1899</ele>
        <time>2016-08-20T07:26:29Z</time>
      </trkpt>
      <trkpt lat="45.28632" lon="5.7861">
        <ele>1899</ele>
        <time>2016-08-20T07:26:30Z</time>
      </trkpt>
      <trkpt lat="45.28633" lon="5.7861">
        <ele>1899</ele>
        <time>2016-08-20T07:26:31Z</time>
      </trkpt>
      <trkpt lat="45.28635" lon="5.7861">
        <ele>1899</ele>
        <time>2016-08-20T07:26:32Z</time>
      </trkpt>
      <trkpt lat="45.28636" lon="5.78611">
        <ele>1900</ele>
        <time>2016-08-20T07:26:33Z</time>
      </trkpt>
      <trkpt lat="45.28637" lon="5.78612">
        <ele>1900</ele>
        <time>2016-08-20T07:26:34Z</time>
      </trkpt>
      <trkpt lat="45.28644" lon="5.78618">
        <ele>1903</ele>
        <time>2016-08-20T07:26:43Z</time>
      </trkpt>
      <trkpt lat="45.28656" lon="5.78621">
        <ele>1906</ele>
        <time>2016-08-20T07:26:56Z</time>
      </trkpt>
      <trkpt lat="45.28658" lon="5.78632">
        <ele>1909</ele>
        <time>2016-08-20T07:27:15Z</time>
      </trkpt>
      <trkpt lat="45.28652" lon="5.78639">
        <ele>1912</ele>
        <time>2016-08-20T07:27:26Z</time>
      </trkpt>
      <trkpt lat="45.28642" lon="5.78641">
        <ele>1916</ele>
        <time>2016-08-20T07:27:40Z</time>
      </trkpt>
      <trkpt lat="45.28637" lon="5.78644">
        <ele>1918</ele>
        <time>2016-08-20T07:27:51Z</time>
      </trkpt>
      <trkpt lat="45.28641" lon="5.78649">
        <ele>1920</ele>
        <time>2016-08-20T07:27:59Z</time>
      </trkpt>
      <trkpt lat="45.28643" lon="5.78649">
        <ele>1921</ele>
        <time>2016-08-20T07:28:01Z</time>
      </trkpt>
      <trkpt lat="45.28655" lon="5.78654">
        <ele>1924</ele>
        <time>2016-08-20T07:28:16Z</time>
      </trkpt>
      <trkpt lat="45.28655" lon="5.78656">
        <ele>1924</ele>
        <time>2016-08-20T07:28:17Z</time>
      </trkpt>
      <trkpt lat="45.28661" lon="5.78663">
        <ele>1927</ele>
        <time>2016-08-20T07:28:29Z</time>
      </trkpt>
      <trkpt lat="45.28655" lon="5.78667">
        <ele>1931</ele>
        <time>2016-08-20T07:28:42Z</time>
      </trkpt>
      <trkpt lat="45.28656" lon="5.78669">
        <ele>1931</ele>
        <time>2016-08-20T07:28:48Z</time>
      </trkpt>
      <trkpt lat="45.28657" lon="5.78669">
        <ele>1931</ele>
        <time>2016-08-20T07:28:49Z</time>
      </trkpt>
      <trkpt lat="45.28657" lon="5.7867">
        <ele>1932</ele>
        <time>2016-08-20T07:28:50Z</time>
      </trkpt>
      <trkpt lat="45.28663" lon="5.78675">
        <ele>1934</ele>
        <time>2016-08-20T07:28:59Z</time>
      </trkpt>
      <trkpt lat="45.28662" lon="5.78676">
        <ele>1934</ele>
        <time>2016-08-20T07:29:00Z</time>
      </trkpt>
      <trkpt lat="45.2866" lon="5.78682">
        <ele>1938</ele>
        <time>2016-08-20T07:29:08Z</time>
      </trkpt>
      <trkpt lat="45.28652" lon="5.78684">
        <ele>1941</ele>
        <time>2016-08-20T07:29:21Z</time>
      </trkpt>
      <trkpt lat="45.28642" lon="5.78687">
        <ele>1944</ele>
        <time>2016-08-20T07:29:36Z</time>
      </trkpt>
      <trkpt lat="45.28635" lon="5.78696">
        <ele>1947</ele>
        <time>2016-08-20T07:29:51Z</time>
      </trkpt>
      <trkpt lat="45.28628" lon="5.78705">
        <ele>1950</ele>
        <time>2016-08-20T07:30:03Z</time>
      </trkpt>
      <trkpt lat="45.28625" lon="5.78705">
        <ele>1952</ele>
        <time>2016-08-20T07:30:07Z</time>
      </trkpt>
      <trkpt lat="45.28614" lon="5.78699">
        <ele>1950</ele>
        <time>2016-08-20T07:30:34Z</time>
      </trkpt>
      <trkpt lat="45.28612" lon="5.78698">
        <ele>1950</ele>
        <time>2016-08-20T07:30:35Z</time>
      </trkpt>
      <trkpt lat="45.28607" lon="5.78694">
        <ele>1947</ele>
        <time>2016-08-20T07:30:40Z</time>
      </trkpt>
      <trkpt lat="45.28605" lon="5.78691">
        <ele>1946</ele>
        <time>2016-08-20T07:30:42Z</time>
      </trkpt>
      <trkpt lat="45.28598" lon="5.78687">
        <ele>1944</ele>
        <time>2016-08-20T07:30:47Z</time>
      </trkpt>
      <trkpt lat="45.28596" lon="5.78685">
        <ele>1943</ele>
        <time>2016-08-20T07:30:48Z</time>
      </trkpt>
      <trkpt lat="45.2859" lon="5.78679">
        <ele>1939</ele>
        <time>2016-08-20T07:30:54Z</time>
      </trkpt>
      <trkpt lat="45.28589" lon="5.78677">
        <ele>1938</ele>
        <time>2016-08-20T07:30:55Z</time>
      </trkpt>
      <trkpt lat="45.28589" lon="5.78676">
        <ele>1937</ele>
        <time>2016-08-20T07:30:56Z</time>
      </trkpt>
      <trkpt lat="45.28589" lon="5.78674">
        <ele>1937</ele>
        <time>2016-08-20T07:30:57Z</time>
      </trkpt>
      <trkpt lat="45.28588" lon="5.78673">
        <ele>1936</ele>
        <time>2016-08-20T07:30:58Z</time>
      </trkpt>
      <trkpt lat="45.28586" lon="5.78672">
        <ele>1936</ele>
        <time>2016-08-20T07:30:59Z</time>
      </trkpt>
      <trkpt lat="45.28584" lon="5.78672">
        <ele>1936</ele>
        <time>2016-08-20T07:31:00Z</time>
      </trkpt>
      <trkpt lat="45.28582" lon="5.78671">
        <ele>1935</ele>
        <time>2016-08-20T07:31:01Z</time>
      </trkpt>
      <trkpt lat="45.28581" lon="5.7867">
        <ele>1935</ele>
        <time>2016-08-20T07:31:02Z</time>
      </trkpt>
      <trkpt lat="45.28579" lon="5.78669">
        <ele>1934</ele>
        <time>2016-08-20T07:31:03Z</time>
      </trkpt>
      <trkpt lat="45.28578" lon="5.78668">
        <ele>1934</ele>
        <time>2016-08-20T07:31:04Z</time>
      </trkpt>
      <trkpt lat="45.28576" lon="5.78666">
        <ele>1933</ele>
        <time>2016-08-20T07:31:06Z</time>
      </trkpt>
      <trkpt lat="45.28566" lon="5.78664">
        <ele>1929</ele>
        <time>2016-08-20T07:31:11Z</time>
      </trkpt>
      <trkpt lat="45.28561" lon="5.78664">
        <ele>1928</ele>
        <time>2016-08-20T07:31:13Z</time>
      </trkpt>
      <trkpt lat="45.28552" lon="5.78663">
        <ele>1926</ele>
        <time>2016-08-20T07:31:17Z</time>
      </trkpt>
      <trkpt lat="45.28538" lon="5.78663">
        <ele>1923</ele>
        <time>2016-08-20T07:31:23Z</time>
      </trkpt>
      <trkpt lat="45.28526" lon="5.78662">
        <ele>1920</ele>
        <time>2016-08-20T07:31:29Z</time>
      </trkpt>
      <trkpt lat="45.28522" lon="5.78662">
        <ele>1919</ele>
        <time>2016-08-20T07:31:31Z</time>
      </trkpt>
      <trkpt lat="45.28513" lon="5.7866">
        <ele>1916</ele>
        <time>2016-08-20T07:31:35Z</time>
      </trkpt>
      <trkpt lat="45.28511" lon="5.78659">
        <ele>1915</ele>
        <time>2016-08-20T07:31:36Z</time>
      </trkpt>
      <trkpt lat="45.28502" lon="5.78662">
        <ele>1912</ele>
        <time>2016-08-20T07:31:41Z</time>
      </trkpt>
      <trkpt lat="45.28491" lon="5.78658">
        <ele>1910</ele>
        <time>2016-08-20T07:31:46Z</time>
      </trkpt>
      <trkpt lat="45.28477" lon="5.78656">
        <ele>1907</ele>
        <time>2016-08-20T07:31:51Z</time>
      </trkpt>
      <trkpt lat="45.28474" lon="5.78655">
        <ele>1906</ele>
        <time>2016-08-20T07:31:52Z</time>
      </trkpt>
      <trkpt lat="45.28462" lon="5.78647">
        <ele>1903</ele>
        <time>2016-08-20T07:31:57Z</time>
      </trkpt>
      <trkpt lat="45.28454" lon="5.78646">
        <ele>1900</ele>
        <time>2016-08-20T07:32:00Z</time>
      </trkpt>
      <trkpt lat="45.28452" lon="5.78646">
        <ele>1900</ele>
        <time>2016-08-20T07:32:01Z</time>
      </trkpt>
      <trkpt lat="45.28449" lon="5.78646">
        <ele>1899</ele>
        <time>2016-08-20T07:32:03Z</time>
      </trkpt>
      <trkpt lat="45.28448" lon="5.78645">
        <ele>1899</ele>
        <time>2016-08-20T07:32:04Z</time>
      </trkpt>
      <trkpt lat="45.28447" lon="5.78644">
        <ele>1898</ele>
        <time>2016-08-20T07:32:05Z</time>
      </trkpt>
      <trkpt lat="45.28445" lon="5.78643">
        <ele>1898</ele>
        <time>2016-08-20T07:32:06Z</time>
      </trkpt>
      <trkpt lat="45.28444" lon="5.78642">
        <ele>1897</ele>
        <time>2016-08-20T07:32:07Z</time>
      </trkpt>
      <trkpt lat="45.28442" lon="5.7864">
        <ele>1896</ele>
        <time>2016-08-20T07:32:08Z</time>
      </trkpt>
      <trkpt lat="45.2844" lon="5.78638">
        <ele>1895</ele>
        <time>2016-08-20T07:32:09Z</time>
      </trkpt>
      <trkpt lat="45.28439" lon="5.78637">
        <ele>1895</ele>
        <time>2016-08-20T07:32:10Z</time>
      </trkpt>
      <trkpt lat="45.28437" lon="5.78637">
        <ele>1895</ele>
        <time>2016-08-20T07:32:11Z</time>
      </trkpt>
      <trkpt lat="45.28436" lon="5.78637">
        <ele>1894</ele>
        <time>2016-08-20T07:32:12Z</time>
      </trkpt>
      <trkpt lat="45.28434" lon="5.78636">
        <ele>1893</ele>
        <time>2016-08-20T07:32:13Z</time>
      </trkpt>
      <trkpt lat="45.28433" lon="5.78636">
        <ele>1893</ele>
        <time>2016-08-20T07:32:14Z</time>
      </trkpt>
      <trkpt lat="45.28431" lon="5.78634">
        <ele>1892</ele>
        <time>2016-08-20T07:32:15Z</time>
      </trkpt>
      <trkpt lat="45.2843" lon="5.78632">
        <ele>1891</ele>
        <time>2016-08-20T07:32:16Z</time>
      </trkpt>
      <trkpt lat="45.28429" lon="5.7863">
        <ele>1890</ele>
        <time>2016-08-20T07:32:17Z</time>
      </trkpt>
      <trkpt lat="45.28427" lon="5.78628">
        <ele>1890</ele>
        <time>2016-08-20T07:32:18Z</time>
      </trkpt>
      <trkpt lat="45.28425" lon="5.78626">
        <ele>1889</ele>
        <time>2016-08-20T07:32:19Z</time>
      </trkpt>
      <trkpt lat="45.28424" lon="5.78625">
        <ele>1889</ele>
        <time>2016-08-20T07:32:20Z</time>
      </trkpt>
      <trkpt lat="45.28421" lon="5.78623">
        <ele>1889</ele>
        <time>2016-08-20T07:32:21Z</time>
      </trkpt>
      <trkpt lat="45.28402" lon="5.78611">
        <ele>1886</ele>
        <time>2016-08-20T07:32:28Z</time>
      </trkpt>
      <trkpt lat="45.28395" lon="5.78604">
        <ele>1884</ele>
        <time>2016-08-20T07:32:31Z</time>
      </trkpt>
      <trkpt lat="45.28387" lon="5.78599">
        <ele>1881</ele>
        <time>2016-08-20T07:32:35Z</time>
      </trkpt>
      <trkpt lat="45.28383" lon="5.78593">
        <ele>1880</ele>
        <time>2016-08-20T07:32:38Z</time>
      </trkpt>
      <trkpt lat="45.28378" lon="5.78578">
        <ele>1876</ele>
        <time>2016-08-20T07:32:43Z</time>
      </trkpt>
      <trkpt lat="45.2837" lon="5.78561">
        <ele>1872</ele>
        <time>2016-08-20T07:32:49Z</time>
      </trkpt>
      <trkpt lat="45.28359" lon="5.78548">
        <ele>1869</ele>
        <time>2016-08-20T07:32:54Z</time>
      </trkpt>
      <trkpt lat="45.28354" lon="5.78541">
        <ele>1867</ele>
        <time>2016-08-20T07:32:57Z</time>
      </trkpt>
      <trkpt lat="45.28348" lon="5.78532">
        <ele>1866</ele>
        <time>2016-08-20T07:33:00Z</time>
      </trkpt>
      <trkpt lat="45.28337" lon="5.78519">
        <ele>1863</ele>
        <time>2016-08-20T07:33:05Z</time>
      </trkpt>
      <trkpt lat="45.28323" lon="5.785">
        <ele>1860</ele>
        <time>2016-08-20T07:33:12Z</time>
      </trkpt>
      <trkpt lat="45.28312" lon="5.78477">
        <ele>1856</ele>
        <time>2016-08-20T07:33:20Z</time>
      </trkpt>
      <trkpt lat="45.28306" lon="5.78462">
        <ele>1853</ele>
        <time>2016-08-20T07:33:25Z</time>
      </trkpt>
      <trkpt lat="45.28303" lon="5.78448">
        <ele>1850</ele>
        <time>2016-08-20T07:33:29Z</time>
      </trkpt>
      <trkpt lat="45.28295" lon="5.78432">
        <ele>1847</ele>
        <time>2016-08-20T07:33:36Z</time>
      </trkpt>
      <trkpt lat="45.28296" lon="5.78427">
        <ele>1844</ele>
        <time>2016-08-20T07:33:38Z</time>
      </trkpt>
      <trkpt lat="45.28297" lon="5.78425">
        <ele>1844</ele>
        <time>2016-08-20T07:33:39Z</time>
      </trkpt>
      <trkpt lat="45.28298" lon="5.78423">
        <ele>1843</ele>
        <time>2016-08-20T07:33:40Z</time>
      </trkpt>
      <trkpt lat="45.28298" lon="5.78421">
        <ele>1842</ele>
        <time>2016-08-20T07:33:41Z</time>
      </trkpt>
      <trkpt lat="45.28298" lon="5.78419">
        <ele>1842</ele>
        <time>2016-08-20T07:33:42Z</time>
      </trkpt>
      <trkpt lat="45.28297" lon="5.78416">
        <ele>1841</ele>
        <time>2016-08-20T07:33:43Z</time>
      </trkpt>
      <trkpt lat="45.28297" lon="5.78415">
        <ele>1841</ele>
        <time>2016-08-20T07:33:44Z</time>
      </trkpt>
      <trkpt lat="45.28296" lon="5.78413">
        <ele>1840</ele>
        <time>2016-08-20T07:33:45Z</time>
      </trkpt>
      <trkpt lat="45.28296" lon="5.78411">
        <ele>1839</ele>
        <time>2016-08-20T07:33:46Z</time>
      </trkpt>
      <trkpt lat="45.28295" lon="5.78409">
        <ele>1839</ele>
        <time>2016-08-20T07:33:47Z</time>
      </trkpt>
      <trkpt lat="45.28295" lon="5.78407">
        <ele>1838</ele>
        <time>2016-08-20T07:33:48Z</time>
      </trkpt>
      <trkpt lat="45.28294" lon="5.78405">
        <ele>1838</ele>
        <time>2016-08-20T07:33:49Z</time>
      </trkpt>
      <trkpt lat="45.28293" lon="5.78403">
        <ele>1837</ele>
        <time>2016-08-20T07:33:50Z</time>
      </trkpt>
      <trkpt lat="45.28294" lon="5.78401">
        <ele>1837</ele>
        <time>2016-08-20T07:33:51Z</time>
      </trkpt>
      <trkpt lat="45.28294" lon="5.78399">
        <ele>1836</ele>
        <time>2016-08-20T07:33:52Z</time>
      </trkpt>
      <trkpt lat="45.28294" lon="5.78383">
        <ele>1832</ele>
        <time>2016-08-20T07:33:59Z</time>
      </trkpt>
      <trkpt lat="45.28297" lon="5.7838">
        <ele>1830</ele>
        <time>2016-08-20T07:34:01Z</time>
      </trkpt>
      <trkpt lat="45.28299" lon="5.78379">
        <ele>1828</ele>
        <time>2016-08-20T07:34:03Z</time>
      </trkpt>
      <trkpt lat="45.283" lon="5.78378">
        <ele>1828</ele>
        <time>2016-08-20T07:34:04Z</time>
      </trkpt>
      <trkpt lat="45.28301" lon="5.78377">
        <ele>1827</ele>
        <time>2016-08-20T07:34:05Z</time>
      </trkpt>
      <trkpt lat="45.28302" lon="5.78376">
        <ele>1827</ele>
        <time>2016-08-20T07:34:06Z</time>
      </trkpt>
      <trkpt lat="45.28304" lon="5.78376">
        <ele>1826</ele>
        <time>2016-08-20T07:34:07Z</time>
      </trkpt>
      <trkpt lat="45.28305" lon="5.78376">
        <ele>1826</ele>
        <time>2016-08-20T07:34:08Z</time>
      </trkpt>
      <trkpt lat="45.28307" lon="5.78376">
        <ele>1825</ele>
        <time>2016-08-20T07:34:09Z</time>
      </trkpt>
      <trkpt lat="45.2831" lon="5.78376">
        <ele>1824</ele>
        <time>2016-08-20T07:34:11Z</time>
      </trkpt>
      <trkpt lat="45.2831" lon="5.78375">
        <ele>1824</ele>
        <time>2016-08-20T07:34:12Z</time>
      </trkpt>
      <trkpt lat="45.28311" lon="5.78373">
        <ele>1824</ele>
        <time>2016-08-20T07:34:13Z</time>
      </trkpt>
      <trkpt lat="45.2831" lon="5.78372">
        <ele>1824</ele>
        <time>2016-08-20T07:34:14Z</time>
      </trkpt>
      <trkpt lat="45.2831" lon="5.7837">
        <ele>1823</ele>
        <time>2016-08-20T07:34:15Z</time>
      </trkpt>
      <trkpt lat="45.28309" lon="5.78368">
        <ele>1822</ele>
        <time>2016-08-20T07:34:16Z</time>
      </trkpt>
      <trkpt lat="45.2831" lon="5.78366">
        <ele>1822</ele>
        <time>2016-08-20T07:34:17Z</time>
      </trkpt>
      <trkpt lat="45.28311" lon="5.78366">
        <ele>1821</ele>
        <time>2016-08-20T07:34:18Z</time>
      </trkpt>
      <trkpt lat="45.28312" lon="5.78366">
        <ele>1820</ele>
        <time>2016-08-20T07:34:19Z</time>
      </trkpt>
      <trkpt lat="45.28314" lon="5.78366">
        <ele>1819</ele>
        <time>2016-08-20T07:34:20Z</time>
      </trkpt>
      <trkpt lat="45.28316" lon="5.78366">
        <ele>1818</ele>
        <time>2016-08-20T07:34:21Z</time>
      </trkpt>
      <trkpt lat="45.28317" lon="5.78365">
        <ele>1818</ele>
        <time>2016-08-20T07:34:22Z</time>
      </trkpt>
      <trkpt lat="45.28326" lon="5.78359">
        <ele>1814</ele>
        <time>2016-08-20T07:34:27Z</time>
      </trkpt>
      <trkpt lat="45.28333" lon="5.78356">
        <ele>1812</ele>
        <time>2016-08-20T07:34:31Z</time>
      </trkpt>
      <trkpt lat="45.28335" lon="5.78355">
        <ele>1811</ele>
        <time>2016-08-20T07:34:32Z</time>
      </trkpt>
      <trkpt lat="45.28336" lon="5.78354">
        <ele>1810</ele>
        <time>2016-08-20T07:34:33Z</time>
      </trkpt>
      <trkpt lat="45.28337" lon="5.78353">
        <ele>1810</ele>
        <time>2016-08-20T07:34:34Z</time>
      </trkpt>
      <trkpt lat="45.28339" lon="5.78352">
        <ele>1809</ele>
        <time>2016-08-20T07:34:35Z</time>
      </trkpt>
      <trkpt lat="45.2834" lon="5.78352">
        <ele>1808</ele>
        <time>2016-08-20T07:34:36Z</time>
      </trkpt>
      <trkpt lat="45.28341" lon="5.78351">
        <ele>1808</ele>
        <time>2016-08-20T07:34:37Z</time>
      </trkpt>
      <trkpt lat="45.28343" lon="5.78349">
        <ele>1807</ele>
        <time>2016-08-20T07:34:38Z</time>
      </trkpt>
      <trkpt lat="45.28344" lon="5.78348">
        <ele>1806</ele>
        <time>2016-08-20T07:34:39Z</time>
      </trkpt>
      <trkpt lat="45.28346" lon="5.78347">
        <ele>1806</ele>
        <time>2016-08-20T07:34:40Z</time>
      </trkpt>
      <trkpt lat="45.28348" lon="5.78347">
        <ele>1806</ele>
        <time>2016-08-20T07:34:41Z</time>
      </trkpt>
      <trkpt lat="45.2835" lon="5.78346">
        <ele>1805</ele>
        <time>2016-08-20T07:34:42Z</time>
      </trkpt>
      <trkpt lat="45.28351" lon="5.78345">
        <ele>1804</ele>
        <time>2016-08-20T07:34:43Z</time>
      </trkpt>
      <trkpt lat="45.28352" lon="5.78345">
        <ele>1804</ele>
        <time>2016-08-20T07:34:44Z</time>
      </trkpt>
      <trkpt lat="45.28354" lon="5.78345">
        <ele>1804</ele>
        <time>2016-08-20T07:34:45Z</time>
      </trkpt>
      <trkpt lat="45.28355" lon="5.78345">
        <ele>1803</ele>
        <time>2016-08-20T07:34:46Z</time>
      </trkpt>
      <trkpt lat="45.28357" lon="5.78345">
        <ele>1803</ele>
        <time>2016-08-20T07:34:47Z</time>
      </trkpt>
      <trkpt lat="45.28365" lon="5.78342">
        <ele>1799</ele>
        <time>2016-08-20T07:34:53Z</time>
      </trkpt>
      <trkpt lat="45.28375" lon="5.78339">
        <ele>1796</ele>
        <time>2016-08-20T07:34:59Z</time>
      </trkpt>
      <trkpt lat="45.28385" lon="5.78334">
        <ele>1792</ele>
        <time>2016-08-20T07:35:05Z</time>
      </trkpt>
      <trkpt lat="45.28386" lon="5.78333">
        <ele>1791</ele>
        <time>2016-08-20T07:35:06Z</time>
      </trkpt>
      <trkpt lat="45.28388" lon="5.78332">
        <ele>1791</ele>
        <time>2016-08-20T07:35:07Z</time>
      </trkpt>
      <trkpt lat="45.28389" lon="5.78331">
        <ele>1790</ele>
        <time>2016-08-20T07:35:08Z</time>
      </trkpt>
      <trkpt lat="45.2839" lon="5.7833">
        <ele>1790</ele>
        <time>2016-08-20T07:35:09Z</time>
      </trkpt>
      <trkpt lat="45.28391" lon="5.78328">
        <ele>1789</ele>
        <time>2016-08-20T07:35:10Z</time>
      </trkpt>
      <trkpt lat="45.28392" lon="5.78326">
        <ele>1788</ele>
        <time>2016-08-20T07:35:11Z</time>
      </trkpt>
      <trkpt lat="45.28394" lon="5.78324">
        <ele>1787</ele>
        <time>2016-08-20T07:35:12Z</time>
      </trkpt>
      <trkpt lat="45.28395" lon="5.78322">
        <ele>1786</ele>
        <time>2016-08-20T07:35:13Z</time>
      </trkpt>
      <trkpt lat="45.28397" lon="5.78321">
        <ele>1786</ele>
        <time>2016-08-20T07:35:14Z</time>
      </trkpt>
      <trkpt lat="45.28398" lon="5.78319">
        <ele>1785</ele>
        <time>2016-08-20T07:35:15Z</time>
      </trkpt>
      <trkpt lat="45.284" lon="5.78316">
        <ele>1784</ele>
        <time>2016-08-20T07:35:16Z</time>
      </trkpt>
      <trkpt lat="45.28401" lon="5.78314">
        <ele>1784</ele>
        <time>2016-08-20T07:35:17Z</time>
      </trkpt>
      <trkpt lat="45.28402" lon="5.78312">
        <ele>1783</ele>
        <time>2016-08-20T07:35:18Z</time>
      </trkpt>
      <trkpt lat="45.28413" lon="5.78302">
        <ele>1780</ele>
        <time>2016-08-20T07:35:24Z</time>
      </trkpt>
      <trkpt lat="45.28418" lon="5.78293">
        <ele>1779</ele>
        <time>2016-08-20T07:35:28Z</time>
      </trkpt>
      <trkpt lat="45.2842" lon="5.78291">
        <ele>1778</ele>
        <time>2016-08-20T07:35:29Z</time>
      </trkpt>
      <trkpt lat="45.28421" lon="5.7829">
        <ele>1777</ele>
        <time>2016-08-20T07:35:30Z</time>
      </trkpt>
      <trkpt lat="45.28423" lon="5.78288">
        <ele>1777</ele>
        <time>2016-08-20T07:35:31Z</time>
      </trkpt>
      <trkpt lat="45.28424" lon="5.78286">
        <ele>1776</ele>
        <time>2016-08-20T07:35:32Z</time>
      </trkpt>
      <trkpt lat="45.28429" lon="5.7828">
        <ele>1775</ele>
        <time>2016-08-20T07:35:35Z</time>
      </trkpt>
      <trkpt lat="45.28429" lon="5.78278">
        <ele>1774</ele>
        <time>2016-08-20T07:35:36Z</time>
      </trkpt>
      <trkpt lat="45.28428" lon="5.78275">
        <ele>1773</ele>
        <time>2016-08-20T07:35:37Z</time>
      </trkpt>
      <trkpt lat="45.28429" lon="5.78272">
        <ele>1772</ele>
        <time>2016-08-20T07:35:38Z</time>
      </trkpt>
      <trkpt lat="45.28429" lon="5.7827">
        <ele>1771</ele>
        <time>2016-08-20T07:35:39Z</time>
      </trkpt>
      <trkpt lat="45.2843" lon="5.78263">
        <ele>1769</ele>
        <time>2016-08-20T07:35:42Z</time>
      </trkpt>
      <trkpt lat="45.28432" lon="5.78262">
        <ele>1769</ele>
        <time>2016-08-20T07:35:43Z</time>
      </trkpt>
      <trkpt lat="45.28434" lon="5.78262">
        <ele>1768</ele>
        <time>2016-08-20T07:35:44Z</time>
      </trkpt>
      <trkpt lat="45.28436" lon="5.78262">
        <ele>1768</ele>
        <time>2016-08-20T07:35:45Z</time>
      </trkpt>
      <trkpt lat="45.28439" lon="5.78263">
        <ele>1767</ele>
        <time>2016-08-20T07:35:46Z</time>
      </trkpt>
      <trkpt lat="45.28442" lon="5.78262">
        <ele>1767</ele>
        <time>2016-08-20T07:35:47Z</time>
      </trkpt>
      <trkpt lat="45.28462" lon="5.7826">
        <ele>1764</ele>
        <time>2016-08-20T07:35:57Z</time>
      </trkpt>
      <trkpt lat="45.28474" lon="5.78262">
        <ele>1761</ele>
        <time>2016-08-20T07:36:03Z</time>
      </trkpt>
      <trkpt lat="45.28479" lon="5.78264">
        <ele>1759</ele>
        <time>2016-08-20T07:36:06Z</time>
      </trkpt>
      <trkpt lat="45.2848" lon="5.78263">
        <ele>1759</ele>
        <time>2016-08-20T07:36:07Z</time>
      </trkpt>
      <trkpt lat="45.28479" lon="5.78261">
        <ele>1759</ele>
        <time>2016-08-20T07:36:08Z</time>
      </trkpt>
      <trkpt lat="45.28478" lon="5.78258">
        <ele>1758</ele>
        <time>2016-08-20T07:36:09Z</time>
      </trkpt>
      <trkpt lat="45.28476" lon="5.78255">
        <ele>1758</ele>
        <time>2016-08-20T07:36:10Z</time>
      </trkpt>
      <trkpt lat="45.28474" lon="5.78253">
        <ele>1758</ele>
        <time>2016-08-20T07:36:11Z</time>
      </trkpt>
      <trkpt lat="45.28473" lon="5.78252">
        <ele>1757</ele>
        <time>2016-08-20T07:36:12Z</time>
      </trkpt>
      <trkpt lat="45.28473" lon="5.78249">
        <ele>1757</ele>
        <time>2016-08-20T07:36:13Z</time>
      </trkpt>
      <trkpt lat="45.28473" lon="5.78247">
        <ele>1756</ele>
        <time>2016-08-20T07:36:14Z</time>
      </trkpt>
      <trkpt lat="45.28474" lon="5.78245">
        <ele>1756</ele>
        <time>2016-08-20T07:36:15Z</time>
      </trkpt>
      <trkpt lat="45.28475" lon="5.78244">
        <ele>1755</ele>
        <time>2016-08-20T07:36:16Z</time>
      </trkpt>
      <trkpt lat="45.28478" lon="5.78244">
        <ele>1755</ele>
        <time>2016-08-20T07:36:17Z</time>
      </trkpt>
      <trkpt lat="45.2848" lon="5.78244">
        <ele>1754</ele>
        <time>2016-08-20T07:36:18Z</time>
      </trkpt>
      <trkpt lat="45.28482" lon="5.78244">
        <ele>1754</ele>
        <time>2016-08-20T07:36:19Z</time>
      </trkpt>
      <trkpt lat="45.28484" lon="5.78244">
        <ele>1753</ele>
        <time>2016-08-20T07:36:20Z</time>
      </trkpt>
      <trkpt lat="45.28496" lon="5.7825">
        <ele>1750</ele>
        <time>2016-08-20T07:36:25Z</time>
      </trkpt>
      <trkpt lat="45.28509" lon="5.78251">
        <ele>1748</ele>
        <time>2016-08-20T07:36:29Z</time>
      </trkpt>
      <trkpt lat="45.28529" lon="5.78254">
        <ele>1745</ele>
        <time>2016-08-20T07:36:35Z</time>
      </trkpt>
      <trkpt lat="45.28548" lon="5.7826">
        <ele>1742</ele>
        <time>2016-08-20T07:36:41Z</time>
      </trkpt>
      <trkpt lat="45.28571" lon="5.78263">
        <ele>1739</ele>
        <time>2016-08-20T07:36:48Z</time>
      </trkpt>
      <trkpt lat="45.28591" lon="5.78264">
        <ele>1736</ele>
        <time>2016-08-20T07:36:55Z</time>
      </trkpt>
      <trkpt lat="45.28605" lon="5.78266">
        <ele>1733</ele>
        <time>2016-08-20T07:37:03Z</time>
      </trkpt>
      <trkpt lat="45.28607" lon="5.78264">
        <ele>1732</ele>
        <time>2016-08-20T07:37:04Z</time>
      </trkpt>
      <trkpt lat="45.28607" lon="5.78262">
        <ele>1731</ele>
        <time>2016-08-20T07:37:05Z</time>
      </trkpt>
      <trkpt lat="45.28607" lon="5.78261">
        <ele>1730</ele>
        <time>2016-08-20T07:37:06Z</time>
      </trkpt>
      <trkpt lat="45.28606" lon="5.78258">
        <ele>1730</ele>
        <time>2016-08-20T07:37:07Z</time>
      </trkpt>
      <trkpt lat="45.28606" lon="5.78257">
        <ele>1729</ele>
        <time>2016-08-20T07:37:08Z</time>
      </trkpt>
      <trkpt lat="45.28608" lon="5.78256">
        <ele>1729</ele>
        <time>2016-08-20T07:37:09Z</time>
      </trkpt>
      <trkpt lat="45.28609" lon="5.78256">
        <ele>1728</ele>
        <time>2016-08-20T07:37:10Z</time>
      </trkpt>
      <trkpt lat="45.28611" lon="5.78256">
        <ele>1728</ele>
        <time>2016-08-20T07:37:11Z</time>
      </trkpt>
      <trkpt lat="45.28612" lon="5.78257">
        <ele>1727</ele>
        <time>2016-08-20T07:37:12Z</time>
      </trkpt>
      <trkpt lat="45.28618" lon="5.78258">
        <ele>1727</ele>
        <time>2016-08-20T07:37:16Z</time>
      </trkpt>
      <trkpt lat="45.2862" lon="5.78258">
        <ele>1727</ele>
        <time>2016-08-20T07:37:17Z</time>
      </trkpt>
      <trkpt lat="45.28622" lon="5.78259">
        <ele>1725</ele>
        <time>2016-08-20T07:37:18Z</time>
      </trkpt>
      <trkpt lat="45.28623" lon="5.7826">
        <ele>1724</ele>
        <time>2016-08-20T07:37:19Z</time>
      </trkpt>
      <trkpt lat="45.28624" lon="5.7826">
        <ele>1723</ele>
        <time>2016-08-20T07:37:20Z</time>
      </trkpt>
      <trkpt lat="45.28625" lon="5.7826">
        <ele>1723</ele>
        <time>2016-08-20T07:37:21Z</time>
      </trkpt>
      <trkpt lat="45.28626" lon="5.78258">
        <ele>1722</ele>
        <time>2016-08-20T07:37:22Z</time>
      </trkpt>
      <trkpt lat="45.28626" lon="5.78255">
        <ele>1721</ele>
        <time>2016-08-20T07:37:24Z</time>
      </trkpt>
      <trkpt lat="45.28626" lon="5.78253">
        <ele>1721</ele>
        <time>2016-08-20T07:37:25Z</time>
      </trkpt>
      <trkpt lat="45.28624" lon="5.78251">
        <ele>1721</ele>
        <time>2016-08-20T07:37:26Z</time>
      </trkpt>
      <trkpt lat="45.28623" lon="5.78248">
        <ele>1721</ele>
        <time>2016-08-20T07:37:27Z</time>
      </trkpt>
      <trkpt lat="45.28622" lon="5.78246">
        <ele>1720</ele>
        <time>2016-08-20T07:37:28Z</time>
      </trkpt>
      <trkpt lat="45.28622" lon="5.78244">
        <ele>1719</ele>
        <time>2016-08-20T07:37:29Z</time>
      </trkpt>
      <trkpt lat="45.28622" lon="5.78243">
        <ele>1718</ele>
        <time>2016-08-20T07:37:30Z</time>
      </trkpt>
      <trkpt lat="45.28622" lon="5.78241">
        <ele>1717</ele>
        <time>2016-08-20T07:37:31Z</time>
      </trkpt>
      <trkpt lat="45.28623" lon="5.7824">
        <ele>1716</ele>
        <time>2016-08-20T07:37:32Z</time>
      </trkpt>
      <trkpt lat="45.28625" lon="5.78237">
        <ele>1715</ele>
        <time>2016-08-20T07:37:35Z</time>
      </trkpt>
      <trkpt lat="45.28634" lon="5.78239">
        <ele>1712</ele>
        <time>2016-08-20T07:37:40Z</time>
      </trkpt>
      <trkpt lat="45.28636" lon="5.78239">
        <ele>1711</ele>
        <time>2016-08-20T07:37:42Z</time>
      </trkpt>
      <trkpt lat="45.28638" lon="5.78239">
        <ele>1710</ele>
        <time>2016-08-20T07:37:43Z</time>
      </trkpt>
      <trkpt lat="45.2864" lon="5.78239">
        <ele>1710</ele>
        <time>2016-08-20T07:37:44Z</time>
      </trkpt>
      <trkpt lat="45.28641" lon="5.78239">
        <ele>1710</ele>
        <time>2016-08-20T07:37:45Z</time>
      </trkpt>
      <trkpt lat="45.28642" lon="5.7824">
        <ele>1709</ele>
        <time>2016-08-20T07:37:46Z</time>
      </trkpt>
      <trkpt lat="45.28644" lon="5.78242">
        <ele>1709</ele>
        <time>2016-08-20T07:37:47Z</time>
      </trkpt>
      <trkpt lat="45.28645" lon="5.78244">
        <ele>1708</ele>
        <time>2016-08-20T07:37:48Z</time>
      </trkpt>
      <trkpt lat="45.28671" lon="5.7826">
        <ele>1708</ele>
        <time>2016-08-20T07:37:57Z</time>
      </trkpt>
      <trkpt lat="45.28683" lon="5.78259">
        <ele>1708</ele>
        <time>2016-08-20T07:38:01Z</time>
      </trkpt>
      <trkpt lat="45.28684" lon="5.78257">
        <ele>1708</ele>
        <time>2016-08-20T07:38:02Z</time>
      </trkpt>
      <trkpt lat="45.28686" lon="5.78255">
        <ele>1707</ele>
        <time>2016-08-20T07:38:03Z</time>
      </trkpt>
      <trkpt lat="45.28687" lon="5.78253">
        <ele>1707</ele>
        <time>2016-08-20T07:38:04Z</time>
      </trkpt>
      <trkpt lat="45.28689" lon="5.78251">
        <ele>1707</ele>
        <time>2016-08-20T07:38:05Z</time>
      </trkpt>
      <trkpt lat="45.28691" lon="5.78249">
        <ele>1706</ele>
        <time>2016-08-20T07:38:06Z</time>
      </trkpt>
      <trkpt lat="45.28692" lon="5.78247">
        <ele>1706</ele>
        <time>2016-08-20T07:38:07Z</time>
      </trkpt>
      <trkpt lat="45.28691" lon="5.78246">
        <ele>1704</ele>
        <time>2016-08-20T07:38:10Z</time>
      </trkpt>
      <trkpt lat="45.28689" lon="5.78245">
        <ele>1704</ele>
        <time>2016-08-20T07:38:11Z</time>
      </trkpt>
      <trkpt lat="45.28679" lon="5.78242">
        <ele>1701</ele>
        <time>2016-08-20T07:38:16Z</time>
      </trkpt>
      <trkpt lat="45.28671" lon="5.78235">
        <ele>1697</ele>
        <time>2016-08-20T07:38:20Z</time>
      </trkpt>
      <trkpt lat="45.28664" lon="5.78229">
        <ele>1694</ele>
        <time>2016-08-20T07:38:25Z</time>
      </trkpt>
      <trkpt lat="45.28664" lon="5.78227">
        <ele>1693</ele>
        <time>2016-08-20T07:38:26Z</time>
      </trkpt>
      <trkpt lat="45.28659" lon="5.7822">
        <ele>1690</ele>
        <time>2016-08-20T07:38:31Z</time>
      </trkpt>
      <trkpt lat="45.28656" lon="5.78216">
        <ele>1688</ele>
        <time>2016-08-20T07:38:34Z</time>
      </trkpt>
      <trkpt lat="45.28651" lon="5.78209">
        <ele>1686</ele>
        <time>2016-08-20T07:38:39Z</time>
      </trkpt>
      <trkpt lat="45.28651" lon="5.78208">
        <ele>1685</ele>
        <time>2016-08-20T07:38:40Z</time>
      </trkpt>
      <trkpt lat="45.28652" lon="5.78207">
        <ele>1685</ele>
        <time>2016-08-20T07:38:41Z</time>
      </trkpt>
      <trkpt lat="45.28653" lon="5.78206">
        <ele>1685</ele>
        <time>2016-08-20T07:38:42Z</time>
      </trkpt>
      <trkpt lat="45.28655" lon="5.78205">
        <ele>1684</ele>
        <time>2016-08-20T07:38:43Z</time>
      </trkpt>
      <trkpt lat="45.28657" lon="5.78204">
        <ele>1683</ele>
        <time>2016-08-20T07:38:44Z</time>
      </trkpt>
      <trkpt lat="45.28659" lon="5.78204">
        <ele>1683</ele>
        <time>2016-08-20T07:38:45Z</time>
      </trkpt>
      <trkpt lat="45.28674" lon="5.78201">
        <ele>1680</ele>
        <time>2016-08-20T07:38:51Z</time>
      </trkpt>
      <trkpt lat="45.28683" lon="5.78189">
        <ele>1676</ele>
        <time>2016-08-20T07:38:57Z</time>
      </trkpt>
      <trkpt lat="45.28686" lon="5.78182">
        <ele>1675</ele>
        <time>2016-08-20T07:39:00Z</time>
      </trkpt>
      <trkpt lat="45.28687" lon="5.78179">
        <ele>1675</ele>
        <time>2016-08-20T07:39:01Z</time>
      </trkpt>
      <trkpt lat="45.28688" lon="5.78176">
        <ele>1674</ele>
        <time>2016-08-20T07:39:02Z</time>
      </trkpt>
      <trkpt lat="45.28694" lon="5.78168">
        <ele>1671</ele>
        <time>2016-08-20T07:39:06Z</time>
      </trkpt>
      <trkpt lat="45.28697" lon="5.78162">
        <ele>1669</ele>
        <time>2016-08-20T07:39:09Z</time>
      </trkpt>
      <trkpt lat="45.28697" lon="5.78159">
        <ele>1669</ele>
        <time>2016-08-20T07:39:10Z</time>
      </trkpt>
      <trkpt lat="45.28697" lon="5.78157">
        <ele>1668</ele>
        <time>2016-08-20T07:39:11Z</time>
      </trkpt>
      <trkpt lat="45.28699" lon="5.78155">
        <ele>1668</ele>
        <time>2016-08-20T07:39:12Z</time>
      </trkpt>
      <trkpt lat="45.287" lon="5.78153">
        <ele>1667</ele>
        <time>2016-08-20T07:39:13Z</time>
      </trkpt>
      <trkpt lat="45.28702" lon="5.78151">
        <ele>1667</ele>
        <time>2016-08-20T07:39:14Z</time>
      </trkpt>
      <trkpt lat="45.2871" lon="5.7814">
        <ele>1664</ele>
        <time>2016-08-20T07:39:18Z</time>
      </trkpt>
      <trkpt lat="45.28715" lon="5.78134">
        <ele>1661</ele>
        <time>2016-08-20T07:39:23Z</time>
      </trkpt>
      <trkpt lat="45.28713" lon="5.78133">
        <ele>1661</ele>
        <time>2016-08-20T07:39:24Z</time>
      </trkpt>
      <trkpt lat="45.28711" lon="5.78132">
        <ele>1660</ele>
        <time>2016-08-20T07:39:25Z</time>
      </trkpt>
      <trkpt lat="45.28709" lon="5.78131">
        <ele>1660</ele>
        <time>2016-08-20T07:39:26Z</time>
      </trkpt>
      <trkpt lat="45.28707" lon="5.78131">
        <ele>1660</ele>
        <time>2016-08-20T07:39:27Z</time>
      </trkpt>
      <trkpt lat="45.28704" lon="5.78131">
        <ele>1659</ele>
        <time>2016-08-20T07:39:28Z</time>
      </trkpt>
      <trkpt lat="45.28701" lon="5.78131">
        <ele>1658</ele>
        <time>2016-08-20T07:39:29Z</time>
      </trkpt>
      <trkpt lat="45.28698" lon="5.78131">
        <ele>1657</ele>
        <time>2016-08-20T07:39:30Z</time>
      </trkpt>
      <trkpt lat="45.28696" lon="5.78131">
        <ele>1656</ele>
        <time>2016-08-20T07:39:31Z</time>
      </trkpt>
      <trkpt lat="45.28693" lon="5.78132">
        <ele>1655</ele>
        <time>2016-08-20T07:39:32Z</time>
      </trkpt>
      <trkpt lat="45.2869" lon="5.78133">
        <ele>1655</ele>
        <time>2016-08-20T07:39:33Z</time>
      </trkpt>
      <trkpt lat="45.28687" lon="5.78134">
        <ele>1654</ele>
        <time>2016-08-20T07:39:34Z</time>
      </trkpt>
      <trkpt lat="45.28675" lon="5.78136">
        <ele>1651</ele>
        <time>2016-08-20T07:39:38Z</time>
      </trkpt>
      <trkpt lat="45.28664" lon="5.78135">
        <ele>1649</ele>
        <time>2016-08-20T07:39:42Z</time>
      </trkpt>
      <trkpt lat="45.2865" lon="5.78133">
        <ele>1648</ele>
        <time>2016-08-20T07:39:46Z</time>
      </trkpt>
      <trkpt lat="45.28634" lon="5.78128">
        <ele>1645</ele>
        <time>2016-08-20T07:39:51Z</time>
      </trkpt>
      <trkpt lat="45.28618" lon="5.78118">
        <ele>1643</ele>
        <time>2016-08-20T07:39:57Z</time>
      </trkpt>
      <trkpt lat="45.28607" lon="5.78113">
        <ele>1640</ele>
        <time>2016-08-20T07:40:02Z</time>
      </trkpt>
      <trkpt lat="45.28608" lon="5.78111">
        <ele>1639</ele>
        <time>2016-08-20T07:40:03Z</time>
      </trkpt>
      <trkpt lat="45.2861" lon="5.78109">
        <ele>1639</ele>
        <time>2016-08-20T07:40:04Z</time>
      </trkpt>
      <trkpt lat="45.2862" lon="5.78101">
        <ele>1635</ele>
        <time>2016-08-20T07:40:09Z</time>
      </trkpt>
      <trkpt lat="45.28631" lon="5.78095">
        <ele>1633</ele>
        <time>2016-08-20T07:40:13Z</time>
      </trkpt>
      <trkpt lat="45.28647" lon="5.78087">
        <ele>1630</ele>
        <time>2016-08-20T07:40:18Z</time>
      </trkpt>
      <trkpt lat="45.28659" lon="5.78079">
        <ele>1626</ele>
        <time>2016-08-20T07:40:23Z</time>
      </trkpt>
      <trkpt lat="45.28661" lon="5.78077">
        <ele>1626</ele>
        <time>2016-08-20T07:40:24Z</time>
      </trkpt>
      <trkpt lat="45.28673" lon="5.78066">
        <ele>1623</ele>
        <time>2016-08-20T07:40:30Z</time>
      </trkpt>
      <trkpt lat="45.28678" lon="5.78065">
        <ele>1622</ele>
        <time>2016-08-20T07:40:32Z</time>
      </trkpt>
      <trkpt lat="45.28685" lon="5.78047">
        <ele>1618</ele>
        <time>2016-08-20T07:40:37Z</time>
      </trkpt>
      <trkpt lat="45.28695" lon="5.78021">
        <ele>1615</ele>
        <time>2016-08-20T07:40:44Z</time>
      </trkpt>
      <trkpt lat="45.28703" lon="5.78015">
        <ele>1612</ele>
        <time>2016-08-20T07:40:49Z</time>
      </trkpt>
      <trkpt lat="45.28701" lon="5.78016">
        <ele>1612</ele>
        <time>2016-08-20T07:40:50Z</time>
      </trkpt>
      <trkpt lat="45.28681" lon="5.78022">
        <ele>1609</ele>
        <time>2016-08-20T07:40:58Z</time>
      </trkpt>
      <trkpt lat="45.28667" lon="5.78028">
        <ele>1606</ele>
        <time>2016-08-20T07:41:05Z</time>
      </trkpt>
      <trkpt lat="45.28664" lon="5.78027">
        <ele>1606</ele>
        <time>2016-08-20T07:41:06Z</time>
      </trkpt>
      <trkpt lat="45.28662" lon="5.78026">
        <ele>1606</ele>
        <time>2016-08-20T07:41:07Z</time>
      </trkpt>
      <trkpt lat="45.28651" lon="5.78024">
        <ele>1602</ele>
        <time>2016-08-20T07:41:11Z</time>
      </trkpt>
      <trkpt lat="45.28637" lon="5.78021">
        <ele>1598</ele>
        <time>2016-08-20T07:41:17Z</time>
      </trkpt>
      <trkpt lat="45.28628" lon="5.78016">
        <ele>1595</ele>
        <time>2016-08-20T07:41:22Z</time>
      </trkpt>
      <trkpt lat="45.28617" lon="5.78004">
        <ele>1592</ele>
        <time>2016-08-20T07:41:29Z</time>
      </trkpt>
      <trkpt lat="45.2861" lon="5.78002">
        <ele>1590</ele>
        <time>2016-08-20T07:41:32Z</time>
      </trkpt>
      <trkpt lat="45.286" lon="5.77996">
        <ele>1586</ele>
        <time>2016-08-20T07:41:39Z</time>
      </trkpt>
      <trkpt lat="45.28596" lon="5.77988">
        <ele>1583</ele>
        <time>2016-08-20T07:41:45Z</time>
      </trkpt>
      <trkpt lat="45.28593" lon="5.77984">
        <ele>1582</ele>
        <time>2016-08-20T07:41:48Z</time>
      </trkpt>
      <trkpt lat="45.28592" lon="5.77979">
        <ele>1579</ele>
        <time>2016-08-20T07:41:51Z</time>
      </trkpt>
      <trkpt lat="45.28594" lon="5.77974">
        <ele>1577</ele>
        <time>2016-08-20T07:41:54Z</time>
      </trkpt>
      <trkpt lat="45.28594" lon="5.77972">
        <ele>1576</ele>
        <time>2016-08-20T07:41:55Z</time>
      </trkpt>
      <trkpt lat="45.28597" lon="5.77968">
        <ele>1574</ele>
        <time>2016-08-20T07:42:01Z</time>
      </trkpt>
      <trkpt lat="45.28598" lon="5.77968">
        <ele>1574</ele>
        <time>2016-08-20T07:42:02Z</time>
      </trkpt>
      <trkpt lat="45.28605" lon="5.77967">
        <ele>1571</ele>
        <time>2016-08-20T07:42:07Z</time>
      </trkpt>
      <trkpt lat="45.28607" lon="5.77964">
        <ele>1570</ele>
        <time>2016-08-20T07:42:09Z</time>
      </trkpt>
      <trkpt lat="45.28608" lon="5.77962">
        <ele>1569</ele>
        <time>2016-08-20T07:42:10Z</time>
      </trkpt>
      <trkpt lat="45.28609" lon="5.77961">
        <ele>1569</ele>
        <time>2016-08-20T07:42:11Z</time>
      </trkpt>
      <trkpt lat="45.2861" lon="5.77961">
        <ele>1569</ele>
        <time>2016-08-20T07:42:12Z</time>
      </trkpt>
      <trkpt lat="45.28611" lon="5.7796">
        <ele>1568</ele>
        <time>2016-08-20T07:42:13Z</time>
      </trkpt>
      <trkpt lat="45.28612" lon="5.77959">
        <ele>1568</ele>
        <time>2016-08-20T07:42:14Z</time>
      </trkpt>
      <trkpt lat="45.28612" lon="5.77957">
        <ele>1567</ele>
        <time>2016-08-20T07:42:15Z</time>
      </trkpt>
      <trkpt lat="45.28612" lon="5.77955">
        <ele>1560</ele>
        <time>2016-08-20T07:42:20Z</time>
      </trkpt>
      <trkpt lat="45.28612" lon="5.77955">
        <ele>1553</ele>
        <time>2016-08-20T07:42:21Z</time>
      </trkpt>
      <trkpt lat="45.28611" lon="5.77955">
        <ele>1545</ele>
        <time>2016-08-20T07:42:23Z</time>
      </trkpt>
      <trkpt lat="45.28611" lon="5.77955">
        <ele>1542</ele>
        <time>2016-08-20T07:42:25Z</time>
      </trkpt>
      <trkpt lat="45.28611" lon="5.77953">
        <ele>1538</ele>
        <time>2016-08-20T07:42:32Z</time>
      </trkpt>
      <trkpt lat="45.28611" lon="5.77954">
        <ele>1535</ele>
        <time>2016-08-20T07:42:34Z</time>
      </trkpt>
      <trkpt lat="45.28611" lon="5.77954">
        <ele>1527</ele>
        <time>2016-08-20T07:42:36Z</time>
      </trkpt>
      <trkpt lat="45.28611" lon="5.77954">
        <ele>1523</ele>
        <time>2016-08-20T07:42:38Z</time>
      </trkpt>
      <trkpt lat="45.28612" lon="5.77954">
        <ele>1520</ele>
        <time>2016-08-20T07:42:41Z</time>
      </trkpt>
      <trkpt lat="45.28611" lon="5.77953">
        <ele>1519</ele>
        <time>2016-08-20T07:42:42Z</time>
      </trkpt>
      <trkpt lat="45.28612" lon="5.77953">
        <ele>1519</ele>
        <time>2016-08-20T07:42:43Z</time>
      </trkpt>
      <trkpt lat="45.28613" lon="5.77951">
        <ele>1519</ele>
        <time>2016-08-20T07:42:44Z</time>
      </trkpt>
      <trkpt lat="45.28614" lon="5.7795">
        <ele>1520</ele>
        <time>2016-08-20T07:42:45Z</time>
      </trkpt>
      <trkpt lat="45.28615" lon="5.7795">
        <ele>1526</ele>
        <time>2016-08-20T07:42:46Z</time>
      </trkpt>
      <trkpt lat="45.28616" lon="5.77949">
        <ele>1531</ele>
        <time>2016-08-20T07:42:47Z</time>
      </trkpt>
      <trkpt lat="45.28617" lon="5.77947">
        <ele>1534</ele>
        <time>2016-08-20T07:42:48Z</time>
      </trkpt>
      <trkpt lat="45.2862" lon="5.77944">
        <ele>1537</ele>
        <time>2016-08-20T07:42:50Z</time>
      </trkpt>
      <trkpt lat="45.28628" lon="5.77931">
        <ele>1537</ele>
        <time>2016-08-20T07:42:57Z</time>
      </trkpt>
      <trkpt lat="45.2863" lon="5.77931">
        <ele>1537</ele>
        <time>2016-08-20T07:42:58Z</time>
      </trkpt>
      <trkpt lat="45.28633" lon="5.77929">
        <ele>1537</ele>
        <time>2016-08-20T07:42:59Z</time>
      </trkpt>
      <trkpt lat="45.28638" lon="5.77921">
        <ele>1533</ele>
        <time>2016-08-20T07:43:04Z</time>
      </trkpt>
      <trkpt lat="45.28642" lon="5.77912">
        <ele>1530</ele>
        <time>2016-08-20T07:43:07Z</time>
      </trkpt>
      <trkpt lat="45.28646" lon="5.77902">
        <ele>1527</ele>
        <time>2016-08-20T07:43:12Z</time>
      </trkpt>
      <trkpt lat="45.28647" lon="5.77897">
        <ele>1523</ele>
        <time>2016-08-20T07:43:15Z</time>
      </trkpt>
      <trkpt lat="45.28647" lon="5.77891">
        <ele>1522</ele>
        <time>2016-08-20T07:43:17Z</time>
      </trkpt>
      <trkpt lat="45.28657" lon="5.77862">
        <ele>1522</ele>
        <time>2016-08-20T07:43:30Z</time>
      </trkpt>
      <trkpt lat="45.28669" lon="5.77846">
        <ele>1525</ele>
        <time>2016-08-20T07:43:40Z</time>
      </trkpt>
      <trkpt lat="45.28671" lon="5.77841">
        <ele>1524</ele>
        <time>2016-08-20T07:43:46Z</time>
      </trkpt>
      <trkpt lat="45.28687" lon="5.77838">
        <ele>1522</ele>
        <time>2016-08-20T07:43:55Z</time>
      </trkpt>
      <trkpt lat="45.28688" lon="5.77837">
        <ele>1522</ele>
        <time>2016-08-20T07:43:56Z</time>
      </trkpt>
      <trkpt lat="45.2869" lon="5.77835">
        <ele>1521</ele>
        <time>2016-08-20T07:43:57Z</time>
      </trkpt>
      <trkpt lat="45.28692" lon="5.77836">
        <ele>1521</ele>
        <time>2016-08-20T07:43:58Z</time>
      </trkpt>
      <trkpt lat="45.28693" lon="5.77834">
        <ele>1520</ele>
        <time>2016-08-20T07:43:59Z</time>
      </trkpt>
      <trkpt lat="45.28695" lon="5.77832">
        <ele>1520</ele>
        <time>2016-08-20T07:44:00Z</time>
      </trkpt>
      <trkpt lat="45.287" lon="5.77831">
        <ele>1519</ele>
        <time>2016-08-20T07:44:02Z</time>
      </trkpt>
      <trkpt lat="45.28723" lon="5.77833">
        <ele>1518</ele>
        <time>2016-08-20T07:44:11Z</time>
      </trkpt>
      <trkpt lat="45.2874" lon="5.77832">
        <ele>1516</ele>
        <time>2016-08-20T07:44:21Z</time>
      </trkpt>
      <trkpt lat="45.28742" lon="5.77832">
        <ele>1516</ele>
        <time>2016-08-20T07:44:22Z</time>
      </trkpt>
      <trkpt lat="45.28766" lon="5.77824">
        <ele>1515</ele>
        <time>2016-08-20T07:44:34Z</time>
      </trkpt>
      <trkpt lat="45.28773" lon="5.77815">
        <ele>1516</ele>
        <time>2016-08-20T07:44:42Z</time>
      </trkpt>
      <trkpt lat="45.28772" lon="5.77814">
        <ele>1516</ele>
        <time>2016-08-20T07:44:43Z</time>
      </trkpt>
      <trkpt lat="45.2877" lon="5.77814">
        <ele>1516</ele>
        <time>2016-08-20T07:44:44Z</time>
      </trkpt>
      <trkpt lat="45.28749" lon="5.77796">
        <ele>1518</ele>
        <time>2016-08-20T07:44:56Z</time>
      </trkpt>
      <trkpt lat="45.28726" lon="5.7778">
        <ele>1519</ele>
        <time>2016-08-20T07:45:08Z</time>
      </trkpt>
      <trkpt lat="45.28695" lon="5.77767">
        <ele>1519</ele>
        <time>2016-08-20T07:45:19Z</time>
      </trkpt>
      <trkpt lat="45.2868" lon="5.77768">
        <ele>1520</ele>
        <time>2016-08-20T07:45:26Z</time>
      </trkpt>
      <trkpt lat="45.2868" lon="5.77767">
        <ele>1520</ele>
        <time>2016-08-20T07:45:27Z</time>
      </trkpt>
      <trkpt lat="45.28681" lon="5.77765">
        <ele>1520</ele>
        <time>2016-08-20T07:45:28Z</time>
      </trkpt>
      <trkpt lat="45.28682" lon="5.77763">
        <ele>1519</ele>
        <time>2016-08-20T07:45:29Z</time>
      </trkpt>
      <trkpt lat="45.28684" lon="5.77763">
        <ele>1520</ele>
        <time>2016-08-20T07:45:30Z</time>
      </trkpt>
      <trkpt lat="45.28686" lon="5.77762">
        <ele>1520</ele>
        <time>2016-08-20T07:45:31Z</time>
      </trkpt>
      <trkpt lat="45.28688" lon="5.7776">
        <ele>1520</ele>
        <time>2016-08-20T07:45:32Z</time>
      </trkpt>
      <trkpt lat="45.2869" lon="5.7776">
        <ele>1520</ele>
        <time>2016-08-20T07:45:33Z</time>
      </trkpt>
      <trkpt lat="45.28692" lon="5.77758">
        <ele>1520</ele>
        <time>2016-08-20T07:45:34Z</time>
      </trkpt>
      <trkpt lat="45.28717" lon="5.7775">
        <ele>1519</ele>
        <time>2016-08-20T07:45:42Z</time>
      </trkpt>
      <trkpt lat="45.28737" lon="5.77741">
        <ele>1517</ele>
        <time>2016-08-20T07:45:49Z</time>
      </trkpt>
      <trkpt lat="45.28756" lon="5.77734">
        <ele>1513</ele>
        <time>2016-08-20T07:45:58Z</time>
      </trkpt>
      <trkpt lat="45.28759" lon="5.77732">
        <ele>1510</ele>
        <time>2016-08-20T07:46:00Z</time>
      </trkpt>
      <trkpt lat="45.28764" lon="5.7773">
        <ele>1507</ele>
        <time>2016-08-20T07:46:02Z</time>
      </trkpt>
      <trkpt lat="45.28767" lon="5.77728">
        <ele>1504</ele>
        <time>2016-08-20T07:46:04Z</time>
      </trkpt>
      <trkpt lat="45.28774" lon="5.77728">
        <ele>1501</ele>
        <time>2016-08-20T07:46:07Z</time>
      </trkpt>
      <trkpt lat="45.28784" lon="5.77726">
        <ele>1497</ele>
        <time>2016-08-20T07:46:10Z</time>
      </trkpt>
      <trkpt lat="45.28794" lon="5.77723">
        <ele>1494</ele>
        <time>2016-08-20T07:46:13Z</time>
      </trkpt>
      <trkpt lat="45.28809" lon="5.77713">
        <ele>1491</ele>
        <time>2016-08-20T07:46:18Z</time>
      </trkpt>
      <trkpt lat="45.28824" lon="5.77702">
        <ele>1487</ele>
        <time>2016-08-20T07:46:23Z</time>
      </trkpt>
      <trkpt lat="45.28834" lon="5.77678">
        <ele>1484</ele>
        <time>2016-08-20T07:46:28Z</time>
      </trkpt>
      <trkpt lat="45.28842" lon="5.77662">
        <ele>1481</ele>
        <time>2016-08-20T07:46:32Z</time>
      </trkpt>
      <trkpt lat="45.28847" lon="5.77659">
        <ele>1480</ele>
        <time>2016-08-20T07:46:34Z</time>
      </trkpt>
      <trkpt lat="45.28869" lon="5.77652">
        <ele>1476</ele>
        <time>2016-08-20T07:46:42Z</time>
      </trkpt>
      <trkpt lat="45.28875" lon="5.77653">
        <ele>1472</ele>
        <time>2016-08-20T07:46:44Z</time>
      </trkpt>
      <trkpt lat="45.28887" lon="5.77657">
        <ele>1468</ele>
        <time>2016-08-20T07:46:48Z</time>
      </trkpt>
      <trkpt lat="45.28907" lon="5.77655">
        <ele>1465</ele>
        <time>2016-08-20T07:46:54Z</time>
      </trkpt>
      <trkpt lat="45.28928" lon="5.77657">
        <ele>1461</ele>
        <time>2016-08-20T07:47:00Z</time>
      </trkpt>
      <trkpt lat="45.28946" lon="5.77651">
        <ele>1458</ele>
        <time>2016-08-20T07:47:07Z</time>
      </trkpt>
      <trkpt lat="45.28953" lon="5.77648">
        <ele>1457</ele>
        <time>2016-08-20T07:47:10Z</time>
      </trkpt>
      <trkpt lat="45.28967" lon="5.77646">
        <ele>1453</ele>
        <time>2016-08-20T07:47:14Z</time>
      </trkpt>
      <trkpt lat="45.28989" lon="5.77643">
        <ele>1451</ele>
        <time>2016-08-20T07:47:21Z</time>
      </trkpt>
      <trkpt lat="45.29011" lon="5.77654">
        <ele>1448</ele>
        <time>2016-08-20T07:47:28Z</time>
      </trkpt>
      <trkpt lat="45.2903" lon="5.77662">
        <ele>1444</ele>
        <time>2016-08-20T07:47:34Z</time>
      </trkpt>
      <trkpt lat="45.2905" lon="5.77668">
        <ele>1441</ele>
        <time>2016-08-20T07:47:40Z</time>
      </trkpt>
      <trkpt lat="45.29065" lon="5.77671">
        <ele>1438</ele>
        <time>2016-08-20T07:47:45Z</time>
      </trkpt>
      <trkpt lat="45.29072" lon="5.77672">
        <ele>1435</ele>
        <time>2016-08-20T07:47:48Z</time>
      </trkpt>
      <trkpt lat="45.29074" lon="5.77671">
        <ele>1434</ele>
        <time>2016-08-20T07:47:49Z</time>
      </trkpt>
      <trkpt lat="45.29093" lon="5.77668">
        <ele>1432</ele>
        <time>2016-08-20T07:47:57Z</time>
      </trkpt>
      <trkpt lat="45.29104" lon="5.77669">
        <ele>1429</ele>
        <time>2016-08-20T07:48:01Z</time>
      </trkpt>
      <trkpt lat="45.2911" lon="5.77668">
        <ele>1428</ele>
        <time>2016-08-20T07:48:03Z</time>
      </trkpt>
      <trkpt lat="45.29118" lon="5.77668">
        <ele>1426</ele>
        <time>2016-08-20T07:48:06Z</time>
      </trkpt>
      <trkpt lat="45.29125" lon="5.77664">
        <ele>1423</ele>
        <time>2016-08-20T07:48:09Z</time>
      </trkpt>
      <trkpt lat="45.29125" lon="5.77662">
        <ele>1423</ele>
        <time>2016-08-20T07:48:10Z</time>
      </trkpt>
      <trkpt lat="45.29124" lon="5.77659">
        <ele>1422</ele>
        <time>2016-08-20T07:48:11Z</time>
      </trkpt>
      <trkpt lat="45.29123" lon="5.77657">
        <ele>1421</ele>
        <time>2016-08-20T07:48:12Z</time>
      </trkpt>
      <trkpt lat="45.29122" lon="5.77655">
        <ele>1421</ele>
        <time>2016-08-20T07:48:13Z</time>
      </trkpt>
      <trkpt lat="45.2912" lon="5.77653">
        <ele>1421</ele>
        <time>2016-08-20T07:48:14Z</time>
      </trkpt>
      <trkpt lat="45.29118" lon="5.77652">
        <ele>1421</ele>
        <time>2016-08-20T07:48:15Z</time>
      </trkpt>
      <trkpt lat="45.29117" lon="5.7765">
        <ele>1420</ele>
        <time>2016-08-20T07:48:16Z</time>
      </trkpt>
      <trkpt lat="45.29113" lon="5.77647">
        <ele>1419</ele>
        <time>2016-08-20T07:48:18Z</time>
      </trkpt>
      <trkpt lat="45.29099" lon="5.77628">
        <ele>1417</ele>
        <time>2016-08-20T07:48:25Z</time>
      </trkpt>
      <trkpt lat="45.29086" lon="5.77606">
        <ele>1413</ele>
        <time>2016-08-20T07:48:31Z</time>
      </trkpt>
      <trkpt lat="45.29081" lon="5.77598">
        <ele>1412</ele>
        <time>2016-08-20T07:48:34Z</time>
      </trkpt>
      <trkpt lat="45.29074" lon="5.77574">
        <ele>1408</ele>
        <time>2016-08-20T07:48:42Z</time>
      </trkpt>
      <trkpt lat="45.29071" lon="5.77569">
        <ele>1408</ele>
        <time>2016-08-20T07:48:44Z</time>
      </trkpt>
      <trkpt lat="45.29065" lon="5.77554">
        <ele>1404</ele>
        <time>2016-08-20T07:48:50Z</time>
      </trkpt>
      <trkpt lat="45.29061" lon="5.77541">
        <ele>1401</ele>
        <time>2016-08-20T07:48:54Z</time>
      </trkpt>
      <trkpt lat="45.29053" lon="5.77518">
        <ele>1397</ele>
        <time>2016-08-20T07:49:02Z</time>
      </trkpt>
      <trkpt lat="45.29051" lon="5.77507">
        <ele>1394</ele>
        <time>2016-08-20T07:49:06Z</time>
      </trkpt>
      <trkpt lat="45.29043" lon="5.77482">
        <ele>1391</ele>
        <time>2016-08-20T07:49:14Z</time>
      </trkpt>
      <trkpt lat="45.29041" lon="5.77472">
        <ele>1387</ele>
        <time>2016-08-20T07:49:17Z</time>
      </trkpt>
      <trkpt lat="45.29032" lon="5.77449">
        <ele>1383</ele>
        <time>2016-08-20T07:49:23Z</time>
      </trkpt>
      <trkpt lat="45.2902" lon="5.77435">
        <ele>1380</ele>
        <time>2016-08-20T07:49:29Z</time>
      </trkpt>
      <trkpt lat="45.2901" lon="5.77419">
        <ele>1377</ele>
        <time>2016-08-20T07:49:34Z</time>
      </trkpt>
      <trkpt lat="45.28998" lon="5.77404">
        <ele>1374</ele>
        <time>2016-08-20T07:49:39Z</time>
      </trkpt>
      <trkpt lat="45.28993" lon="5.77398">
        <ele>1372</ele>
        <time>2016-08-20T07:49:41Z</time>
      </trkpt>
      <trkpt lat="45.28985" lon="5.77388">
        <ele>1369</ele>
        <time>2016-08-20T07:49:45Z</time>
      </trkpt>
      <trkpt lat="45.28975" lon="5.77383">
        <ele>1366</ele>
        <time>2016-08-20T07:49:49Z</time>
      </trkpt>
      <trkpt lat="45.28969" lon="5.77379">
        <ele>1364</ele>
        <time>2016-08-20T07:49:51Z</time>
      </trkpt>
      <trkpt lat="45.28962" lon="5.77372">
        <ele>1361</ele>
        <time>2016-08-20T07:49:54Z</time>
      </trkpt>
      <trkpt lat="45.28947" lon="5.77361">
        <ele>1358</ele>
        <time>2016-08-20T07:50:00Z</time>
      </trkpt>
      <trkpt lat="45.28936" lon="5.77353">
        <ele>1355</ele>
        <time>2016-08-20T07:50:05Z</time>
      </trkpt>
      <trkpt lat="45.28931" lon="5.77348">
        <ele>1353</ele>
        <time>2016-08-20T07:50:08Z</time>
      </trkpt>
      <trkpt lat="45.28925" lon="5.77342">
        <ele>1350</ele>
        <time>2016-08-20T07:50:13Z</time>
      </trkpt>
      <trkpt lat="45.28909" lon="5.77329">
        <ele>1347</ele>
        <time>2016-08-20T07:50:19Z</time>
      </trkpt>
      <trkpt lat="45.28897" lon="5.77322">
        <ele>1344</ele>
        <time>2016-08-20T07:50:24Z</time>
      </trkpt>
      <trkpt lat="45.2889" lon="5.77318">
        <ele>1341</ele>
        <time>2016-08-20T07:50:28Z</time>
      </trkpt>
      <trkpt lat="45.28874" lon="5.77304">
        <ele>1338</ele>
        <time>2016-08-20T07:50:36Z</time>
      </trkpt>
      <trkpt lat="45.28872" lon="5.77302">
        <ele>1338</ele>
        <time>2016-08-20T07:50:37Z</time>
      </trkpt>
      <trkpt lat="45.28851" lon="5.77278">
        <ele>1335</ele>
        <time>2016-08-20T07:50:46Z</time>
      </trkpt>
      <trkpt lat="45.28832" lon="5.77258">
        <ele>1333</ele>
        <time>2016-08-20T07:50:55Z</time>
      </trkpt>
      <trkpt lat="45.28831" lon="5.77253">
        <ele>1331</ele>
        <time>2016-08-20T07:50:57Z</time>
      </trkpt>
      <trkpt lat="45.2883" lon="5.7725">
        <ele>1330</ele>
        <time>2016-08-20T07:50:58Z</time>
      </trkpt>
      <trkpt lat="45.2883" lon="5.77247">
        <ele>1329</ele>
        <time>2016-08-20T07:50:59Z</time>
      </trkpt>
      <trkpt lat="45.28828" lon="5.77241">
        <ele>1328</ele>
        <time>2016-08-20T07:51:02Z</time>
      </trkpt>
      <trkpt lat="45.28821" lon="5.77212">
        <ele>1324</ele>
        <time>2016-08-20T07:51:12Z</time>
      </trkpt>
      <trkpt lat="45.28819" lon="5.77204">
        <ele>1323</ele>
        <time>2016-08-20T07:51:14Z</time>
      </trkpt>
      <trkpt lat="45.28815" lon="5.77179">
        <ele>1320</ele>
        <time>2016-08-20T07:51:20Z</time>
      </trkpt>
      <trkpt lat="45.28812" lon="5.77158">
        <ele>1318</ele>
        <time>2016-08-20T07:51:25Z</time>
      </trkpt>
      <trkpt lat="45.28813" lon="5.77125">
        <ele>1315</ele>
        <time>2016-08-20T07:51:32Z</time>
      </trkpt>
      <trkpt lat="45.28813" lon="5.77121">
        <ele>1315</ele>
        <time>2016-08-20T07:51:33Z</time>
      </trkpt>
      <trkpt lat="45.28811" lon="5.77087">
        <ele>1313</ele>
        <time>2016-08-20T07:51:41Z</time>
      </trkpt>
      <trkpt lat="45.28811" lon="5.77076">
        <ele>1311</ele>
        <time>2016-08-20T07:51:44Z</time>
      </trkpt>
      <trkpt lat="45.28811" lon="5.77052">
        <ele>1308</ele>
        <time>2016-08-20T07:51:50Z</time>
      </trkpt>
      <trkpt lat="45.2881" lon="5.77031">
        <ele>1305</ele>
        <time>2016-08-20T07:51:56Z</time>
      </trkpt>
      <trkpt lat="45.28806" lon="5.77">
        <ele>1302</ele>
        <time>2016-08-20T07:52:04Z</time>
      </trkpt>
      <trkpt lat="45.288" lon="5.76976">
        <ele>1299</ele>
        <time>2016-08-20T07:52:11Z</time>
      </trkpt>
      <trkpt lat="45.28799" lon="5.76973">
        <ele>1299</ele>
        <time>2016-08-20T07:52:12Z</time>
      </trkpt>
      <trkpt lat="45.28781" lon="5.76941">
        <ele>1299</ele>
        <time>2016-08-20T07:52:20Z</time>
      </trkpt>
      <trkpt lat="45.28762" lon="5.76922">
        <ele>1296</ele>
        <time>2016-08-20T07:52:28Z</time>
      </trkpt>
      <trkpt lat="45.28741" lon="5.7691">
        <ele>1295</ele>
        <time>2016-08-20T07:52:37Z</time>
      </trkpt>
      <trkpt lat="45.28729" lon="5.76908">
        <ele>1294</ele>
        <time>2016-08-20T07:52:42Z</time>
      </trkpt>
      <trkpt lat="45.28708" lon="5.76906">
        <ele>1295</ele>
        <time>2016-08-20T07:52:51Z</time>
      </trkpt>
      <trkpt lat="45.28687" lon="5.76905">
        <ele>1294</ele>
        <time>2016-08-20T07:52:59Z</time>
      </trkpt>
      <trkpt lat="45.28666" lon="5.7691">
        <ele>1293</ele>
        <time>2016-08-20T07:53:09Z</time>
      </trkpt>
      <trkpt lat="45.28649" lon="5.76916">
        <ele>1293</ele>
        <time>2016-08-20T07:53:16Z</time>
      </trkpt>
      <trkpt lat="45.28647" lon="5.76915">
        <ele>1292</ele>
        <time>2016-08-20T07:53:17Z</time>
      </trkpt>
      <trkpt lat="45.28642" lon="5.76913">
        <ele>1292</ele>
        <time>2016-08-20T07:53:20Z</time>
      </trkpt>
      <trkpt lat="45.28641" lon="5.76911">
        <ele>1291</ele>
        <time>2016-08-20T07:53:21Z</time>
      </trkpt>
      <trkpt lat="45.28638" lon="5.7691">
        <ele>1291</ele>
        <time>2016-08-20T07:53:22Z</time>
      </trkpt>
      <trkpt lat="45.28636" lon="5.7691">
        <ele>1292</ele>
        <time>2016-08-20T07:53:23Z</time>
      </trkpt>
      <trkpt lat="45.28634" lon="5.7691">
        <ele>1291</ele>
        <time>2016-08-20T07:53:24Z</time>
      </trkpt>
      <trkpt lat="45.28632" lon="5.7691">
        <ele>1291</ele>
        <time>2016-08-20T07:53:25Z</time>
      </trkpt>
      <trkpt lat="45.28613" lon="5.76929">
        <ele>1291</ele>
        <time>2016-08-20T07:53:35Z</time>
      </trkpt>
      <trkpt lat="45.28592" lon="5.76949">
        <ele>1288</ele>
        <time>2016-08-20T07:53:47Z</time>
      </trkpt>
      <trkpt lat="45.28579" lon="5.76955">
        <ele>1285</ele>
        <time>2016-08-20T07:53:54Z</time>
      </trkpt>
      <trkpt lat="45.28555" lon="5.76956">
        <ele>1283</ele>
        <time>2016-08-20T07:54:02Z</time>
      </trkpt>
      <trkpt lat="45.28544" lon="5.76952">
        <ele>1281</ele>
        <time>2016-08-20T07:54:08Z</time>
      </trkpt>
      <trkpt lat="45.28523" lon="5.76941">
        <ele>1278</ele>
        <time>2016-08-20T07:54:19Z</time>
      </trkpt>
      <trkpt lat="45.28509" lon="5.76943">
        <ele>1275</ele>
        <time>2016-08-20T07:54:31Z</time>
      </trkpt>
      <trkpt lat="45.28507" lon="5.76943">
        <ele>1275</ele>
        <time>2016-08-20T07:54:32Z</time>
      </trkpt>
      <trkpt lat="45.28488" lon="5.76942">
        <ele>1273</ele>
        <time>2016-08-20T07:54:44Z</time>
      </trkpt>
      <trkpt lat="45.28467" lon="5.76934">
        <ele>1271</ele>
        <time>2016-08-20T07:54:54Z</time>
      </trkpt>
      <trkpt lat="45.28435" lon="5.76919">
        <ele>1270</ele>
        <time>2016-08-20T07:55:03Z</time>
      </trkpt>
      <trkpt lat="45.28413" lon="5.769">
        <ele>1266</ele>
        <time>2016-08-20T07:55:12Z</time>
      </trkpt>
      <trkpt lat="45.28394" lon="5.76883">
        <ele>1265</ele>
        <time>2016-08-20T07:55:21Z</time>
      </trkpt>
      <trkpt lat="45.28387" lon="5.76883">
        <ele>1265</ele>
        <time>2016-08-20T07:55:28Z</time>
      </trkpt>
      <trkpt lat="45.28386" lon="5.76882">
        <ele>1265</ele>
        <time>2016-08-20T07:55:29Z</time>
      </trkpt>
      <trkpt lat="45.28384" lon="5.76882">
        <ele>1264</ele>
        <time>2016-08-20T07:55:30Z</time>
      </trkpt>
      <trkpt lat="45.28359" lon="5.76883">
        <ele>1264</ele>
        <time>2016-08-20T07:55:40Z</time>
      </trkpt>
      <trkpt lat="45.28334" lon="5.76879">
        <ele>1264</ele>
        <time>2016-08-20T07:55:49Z</time>
      </trkpt>
      <trkpt lat="45.28303" lon="5.76882">
        <ele>1263</ele>
        <time>2016-08-20T07:56:01Z</time>
      </trkpt>
      <trkpt lat="45.28282" lon="5.76892">
        <ele>1262</ele>
        <time>2016-08-20T07:56:10Z</time>
      </trkpt>
      <trkpt lat="45.28258" lon="5.76903">
        <ele>1263</ele>
        <time>2016-08-20T07:56:20Z</time>
      </trkpt>
      <trkpt lat="45.28236" lon="5.76907">
        <ele>1264</ele>
        <time>2016-08-20T07:56:31Z</time>
      </trkpt>
      <trkpt lat="45.28213" lon="5.76906">
        <ele>1265</ele>
        <time>2016-08-20T07:56:42Z</time>
      </trkpt>
      <trkpt lat="45.28191" lon="5.76908">
        <ele>1266</ele>
        <time>2016-08-20T07:56:53Z</time>
      </trkpt>
      <trkpt lat="45.28167" lon="5.76912">
        <ele>1266</ele>
        <time>2016-08-20T07:57:04Z</time>
      </trkpt>
      <trkpt lat="45.28145" lon="5.76921">
        <ele>1267</ele>
        <time>2016-08-20T07:57:14Z</time>
      </trkpt>
      <trkpt lat="45.28118" lon="5.76928">
        <ele>1268</ele>
        <time>2016-08-20T07:57:27Z</time>
      </trkpt>
      <trkpt lat="45.28094" lon="5.76927">
        <ele>1269</ele>
        <time>2016-08-20T07:57:39Z</time>
      </trkpt>
      <trkpt lat="45.28076" lon="5.76939">
        <ele>1270</ele>
        <time>2016-08-20T07:57:53Z</time>
      </trkpt>
      <trkpt lat="45.28061" lon="5.7695">
        <ele>1272</ele>
        <time>2016-08-20T07:58:06Z</time>
      </trkpt>
      <trkpt lat="45.28059" lon="5.76952">
        <ele>1273</ele>
        <time>2016-08-20T07:58:07Z</time>
      </trkpt>
      <trkpt lat="45.28058" lon="5.76953">
        <ele>1273</ele>
        <time>2016-08-20T07:58:08Z</time>
      </trkpt>
      <trkpt lat="45.28056" lon="5.76957">
        <ele>1273</ele>
        <time>2016-08-20T07:58:11Z</time>
      </trkpt>
      <trkpt lat="45.28055" lon="5.76957">
        <ele>1274</ele>
        <time>2016-08-20T07:58:12Z</time>
      </trkpt>
      <trkpt lat="45.28053" lon="5.76958">
        <ele>1274</ele>
        <time>2016-08-20T07:58:13Z</time>
      </trkpt>
      <trkpt lat="45.28051" lon="5.76958">
        <ele>1274</ele>
        <time>2016-08-20T07:58:14Z</time>
      </trkpt>
      <trkpt lat="45.2805" lon="5.76958">
        <ele>1273</ele>
        <time>2016-08-20T07:58:15Z</time>
      </trkpt>
      <trkpt lat="45.28049" lon="5.76959">
        <ele>1273</ele>
        <time>2016-08-20T07:58:16Z</time>
      </trkpt>
      <trkpt lat="45.28048" lon="5.7696">
        <ele>1274</ele>
        <time>2016-08-20T07:58:17Z</time>
      </trkpt>
      <trkpt lat="45.28046" lon="5.7696">
        <ele>1274</ele>
        <time>2016-08-20T07:58:18Z</time>
      </trkpt>
      <trkpt lat="45.28029" lon="5.76975">
        <ele>1276</ele>
        <time>2016-08-20T07:58:31Z</time>
      </trkpt>
      <trkpt lat="45.28026" lon="5.76978">
        <ele>1277</ele>
        <time>2016-08-20T07:58:35Z</time>
      </trkpt>
      <trkpt lat="45.28023" lon="5.76978">
        <ele>1277</ele>
        <time>2016-08-20T07:58:36Z</time>
      </trkpt>
      <trkpt lat="45.28023" lon="5.7698">
        <ele>1277</ele>
        <time>2016-08-20T07:58:37Z</time>
      </trkpt>
      <trkpt lat="45.28021" lon="5.76981">
        <ele>1277</ele>
        <time>2016-08-20T07:58:39Z</time>
      </trkpt>
      <trkpt lat="45.28019" lon="5.76982">
        <ele>1278</ele>
        <time>2016-08-20T07:58:40Z</time>
      </trkpt>
      <trkpt lat="45.28018" lon="5.76983">
        <ele>1278</ele>
        <time>2016-08-20T07:58:41Z</time>
      </trkpt>
      <trkpt lat="45.28016" lon="5.76984">
        <ele>1278</ele>
        <time>2016-08-20T07:58:42Z</time>
      </trkpt>
      <trkpt lat="45.28015" lon="5.76985">
        <ele>1278</ele>
        <time>2016-08-20T07:58:43Z</time>
      </trkpt>
      <trkpt lat="45.27989" lon="5.76995">
        <ele>1278</ele>
        <time>2016-08-20T07:58:57Z</time>
      </trkpt>
      <trkpt lat="45.27968" lon="5.76993">
        <ele>1278</ele>
        <time>2016-08-20T07:59:08Z</time>
      </trkpt>
      <trkpt lat="45.27936" lon="5.77007">
        <ele>1278</ele>
        <time>2016-08-20T07:59:24Z</time>
      </trkpt>
      <trkpt lat="45.27916" lon="5.77005">
        <ele>1277</ele>
        <time>2016-08-20T07:59:33Z</time>
      </trkpt>
      <trkpt lat="45.27885" lon="5.76996">
        <ele>1275</ele>
        <time>2016-08-20T07:59:46Z</time>
      </trkpt>
      <trkpt lat="45.27861" lon="5.76995">
        <ele>1275</ele>
        <time>2016-08-20T07:59:57Z</time>
      </trkpt>
      <trkpt lat="45.27838" lon="5.76994">
        <ele>1274</ele>
        <time>2016-08-20T08:00:07Z</time>
      </trkpt>
      <trkpt lat="45.27821" lon="5.76994">
        <ele>1273</ele>
        <time>2016-08-20T08:00:14Z</time>
      </trkpt>
      <trkpt lat="45.27819" lon="5.76993">
        <ele>1273</ele>
        <time>2016-08-20T08:00:15Z</time>
      </trkpt>
      <trkpt lat="45.27795" lon="5.76995">
        <ele>1272</ele>
        <time>2016-08-20T08:00:24Z</time>
      </trkpt>
      <trkpt lat="45.27775" lon="5.76999">
        <ele>1271</ele>
        <time>2016-08-20T08:00:35Z</time>
      </trkpt>
      <trkpt lat="45.27763" lon="5.77012">
        <ele>1268</ele>
        <time>2016-08-20T08:00:44Z</time>
      </trkpt>
      <trkpt lat="45.27762" lon="5.77047">
        <ele>1266</ele>
        <time>2016-08-20T08:00:54Z</time>
      </trkpt>
      <trkpt lat="45.27752" lon="5.77068">
        <ele>1263</ele>
        <time>2016-08-20T08:01:04Z</time>
      </trkpt>
      <trkpt lat="45.27742" lon="5.77075">
        <ele>1261</ele>
        <time>2016-08-20T08:01:10Z</time>
      </trkpt>
      <trkpt lat="45.27725" lon="5.77092">
        <ele>1257</ele>
        <time>2016-08-20T08:01:20Z</time>
      </trkpt>
      <trkpt lat="45.27723" lon="5.77118">
        <ele>1255</ele>
        <time>2016-08-20T08:01:36Z</time>
      </trkpt>
      <trkpt lat="45.27713" lon="5.77125">
        <ele>1251</ele>
        <time>2016-08-20T08:01:54Z</time>
      </trkpt>
      <trkpt lat="45.2771" lon="5.77126">
        <ele>1251</ele>
        <time>2016-08-20T08:01:55Z</time>
      </trkpt>
      <trkpt lat="45.27692" lon="5.77146">
        <ele>1251</ele>
        <time>2016-08-20T08:02:06Z</time>
      </trkpt>
      <trkpt lat="45.27683" lon="5.77159">
        <ele>1250</ele>
        <time>2016-08-20T08:02:15Z</time>
      </trkpt>
      <trkpt lat="45.27682" lon="5.7716">
        <ele>1250</ele>
        <time>2016-08-20T08:02:16Z</time>
      </trkpt>
      <trkpt lat="45.27681" lon="5.77163">
        <ele>1250</ele>
        <time>2016-08-20T08:02:17Z</time>
      </trkpt>
      <trkpt lat="45.2768" lon="5.77164">
        <ele>1250</ele>
        <time>2016-08-20T08:02:18Z</time>
      </trkpt>
      <trkpt lat="45.27679" lon="5.77166">
        <ele>1250</ele>
        <time>2016-08-20T08:02:19Z</time>
      </trkpt>
      <trkpt lat="45.27668" lon="5.77191">
        <ele>1249</ele>
        <time>2016-08-20T08:02:29Z</time>
      </trkpt>
      <trkpt lat="45.27661" lon="5.77209">
        <ele>1246</ele>
        <time>2016-08-20T08:02:37Z</time>
      </trkpt>
      <trkpt lat="45.2766" lon="5.77211">
        <ele>1246</ele>
        <time>2016-08-20T08:02:38Z</time>
      </trkpt>
      <trkpt lat="45.27642" lon="5.7721">
        <ele>1242</ele>
        <time>2016-08-20T08:02:46Z</time>
      </trkpt>
      <trkpt lat="45.27627" lon="5.77191">
        <ele>1240</ele>
        <time>2016-08-20T08:02:54Z</time>
      </trkpt>
      <trkpt lat="45.27614" lon="5.77169">
        <ele>1236</ele>
        <time>2016-08-20T08:03:02Z</time>
      </trkpt>
      <trkpt lat="45.27607" lon="5.7716">
        <ele>1235</ele>
        <time>2016-08-20T08:03:06Z</time>
      </trkpt>
      <trkpt lat="45.27584" lon="5.77142">
        <ele>1232</ele>
        <time>2016-08-20T08:03:14Z</time>
      </trkpt>
      <trkpt lat="45.27561" lon="5.77127">
        <ele>1231</ele>
        <time>2016-08-20T08:03:21Z</time>
      </trkpt>
      <trkpt lat="45.27541" lon="5.77111">
        <ele>1229</ele>
        <time>2016-08-20T08:03:28Z</time>
      </trkpt>
      <trkpt lat="45.27522" lon="5.77095">
        <ele>1226</ele>
        <time>2016-08-20T08:03:35Z</time>
      </trkpt>
      <trkpt lat="45.2751" lon="5.77088">
        <ele>1223</ele>
        <time>2016-08-20T08:03:40Z</time>
      </trkpt>
      <trkpt lat="45.27497" lon="5.77081">
        <ele>1220</ele>
        <time>2016-08-20T08:03:47Z</time>
      </trkpt>
      <trkpt lat="45.27489" lon="5.77078">
        <ele>1216</ele>
        <time>2016-08-20T08:03:52Z</time>
      </trkpt>
      <trkpt lat="45.27484" lon="5.77074">
        <ele>1215</ele>
        <time>2016-08-20T08:03:54Z</time>
      </trkpt>
      <trkpt lat="45.27462" lon="5.77059">
        <ele>1213</ele>
        <time>2016-08-20T08:04:02Z</time>
      </trkpt>
      <trkpt lat="45.2745" lon="5.77052">
        <ele>1210</ele>
        <time>2016-08-20T08:04:06Z</time>
      </trkpt>
      <trkpt lat="45.27441" lon="5.77045">
        <ele>1207</ele>
        <time>2016-08-20T08:04:10Z</time>
      </trkpt>
      <trkpt lat="45.27431" lon="5.77038">
        <ele>1205</ele>
        <time>2016-08-20T08:04:15Z</time>
      </trkpt>
      <trkpt lat="45.27419" lon="5.77032">
        <ele>1202</ele>
        <time>2016-08-20T08:04:20Z</time>
      </trkpt>
      <trkpt lat="45.27406" lon="5.77022">
        <ele>1200</ele>
        <time>2016-08-20T08:04:26Z</time>
      </trkpt>
      <trkpt lat="45.2739" lon="5.77015">
        <ele>1196</ele>
        <time>2016-08-20T08:04:33Z</time>
      </trkpt>
      <trkpt lat="45.27385" lon="5.77012">
        <ele>1195</ele>
        <time>2016-08-20T08:04:35Z</time>
      </trkpt>
      <trkpt lat="45.27378" lon="5.77009">
        <ele>1193</ele>
        <time>2016-08-20T08:04:38Z</time>
      </trkpt>
      <trkpt lat="45.27361" lon="5.77003">
        <ele>1190</ele>
        <time>2016-08-20T08:04:46Z</time>
      </trkpt>
      <trkpt lat="45.27347" lon="5.77006">
        <ele>1186</ele>
        <time>2016-08-20T08:04:55Z</time>
      </trkpt>
      <trkpt lat="45.27338" lon="5.77004">
        <ele>1183</ele>
        <time>2016-08-20T08:04:59Z</time>
      </trkpt>
      <trkpt lat="45.27329" lon="5.77002">
        <ele>1179</ele>
        <time>2016-08-20T08:05:04Z</time>
      </trkpt>
      <trkpt lat="45.27321" lon="5.77003">
        <ele>1176</ele>
        <time>2016-08-20T08:05:10Z</time>
      </trkpt>
      <trkpt lat="45.27315" lon="5.77006">
        <ele>1172</ele>
        <time>2016-08-20T08:05:15Z</time>
      </trkpt>
      <trkpt lat="45.27313" lon="5.7701">
        <ele>1171</ele>
        <time>2016-08-20T08:05:17Z</time>
      </trkpt>
      <trkpt lat="45.27303" lon="5.77011">
        <ele>1167</ele>
        <time>2016-08-20T08:05:22Z</time>
      </trkpt>
      <trkpt lat="45.27295" lon="5.77009">
        <ele>1164</ele>
        <time>2016-08-20T08:05:26Z</time>
      </trkpt>
      <trkpt lat="45.27286" lon="5.77008">
        <ele>1160</ele>
        <time>2016-08-20T08:05:30Z</time>
      </trkpt>
      <trkpt lat="45.27279" lon="5.77006">
        <ele>1157</ele>
        <time>2016-08-20T08:05:33Z</time>
      </trkpt>
      <trkpt lat="45.27263" lon="5.76999">
        <ele>1151</ele>
        <time>2016-08-20T08:05:39Z</time>
      </trkpt>
      <trkpt lat="45.27257" lon="5.77">
        <ele>1148</ele>
        <time>2016-08-20T08:05:41Z</time>
      </trkpt>
      <trkpt lat="45.27241" lon="5.77004">
        <ele>1144</ele>
        <time>2016-08-20T08:05:48Z</time>
      </trkpt>
      <trkpt lat="45.27232" lon="5.77011">
        <ele>1140</ele>
        <time>2016-08-20T08:05:52Z</time>
      </trkpt>
      <trkpt lat="45.2723" lon="5.77014">
        <ele>1141</ele>
        <time>2016-08-20T08:05:53Z</time>
      </trkpt>
      <trkpt lat="45.27228" lon="5.77018">
        <ele>1141</ele>
        <time>2016-08-20T08:05:54Z</time>
      </trkpt>
      <trkpt lat="45.27227" lon="5.77023">
        <ele>1141</ele>
        <time>2016-08-20T08:05:55Z</time>
      </trkpt>
      <trkpt lat="45.27226" lon="5.77027">
        <ele>1140</ele>
        <time>2016-08-20T08:05:56Z</time>
      </trkpt>
      <trkpt lat="45.27225" lon="5.77031">
        <ele>1141</ele>
        <time>2016-08-20T08:05:57Z</time>
      </trkpt>
      <trkpt lat="45.27223" lon="5.77035">
        <ele>1141</ele>
        <time>2016-08-20T08:05:58Z</time>
      </trkpt>
      <trkpt lat="45.27217" lon="5.77044">
        <ele>1139</ele>
        <time>2016-08-20T08:06:01Z</time>
      </trkpt>
      <trkpt lat="45.272" lon="5.77057">
        <ele>1135</ele>
        <time>2016-08-20T08:06:10Z</time>
      </trkpt>
      <trkpt lat="45.27184" lon="5.77064">
        <ele>1132</ele>
        <time>2016-08-20T08:06:17Z</time>
      </trkpt>
      <trkpt lat="45.27178" lon="5.77064">
        <ele>1131</ele>
        <time>2016-08-20T08:06:19Z</time>
      </trkpt>
      <trkpt lat="45.27161" lon="5.7706">
        <ele>1127</ele>
        <time>2016-08-20T08:06:24Z</time>
      </trkpt>
      <trkpt lat="45.27145" lon="5.77071">
        <ele>1126</ele>
        <time>2016-08-20T08:06:33Z</time>
      </trkpt>
      <trkpt lat="45.27145" lon="5.77091">
        <ele>1128</ele>
        <time>2016-08-20T08:06:45Z</time>
      </trkpt>
      <trkpt lat="45.27145" lon="5.77093">
        <ele>1128</ele>
        <time>2016-08-20T08:06:47Z</time>
      </trkpt>
      <trkpt lat="45.27145" lon="5.77095">
        <ele>1129</ele>
        <time>2016-08-20T08:06:48Z</time>
      </trkpt>
      <trkpt lat="45.27146" lon="5.77098">
        <ele>1129</ele>
        <time>2016-08-20T08:06:49Z</time>
      </trkpt>
      <trkpt lat="45.27145" lon="5.771">
        <ele>1129</ele>
        <time>2016-08-20T08:06:50Z</time>
      </trkpt>
      <trkpt lat="45.27146" lon="5.77103">
        <ele>1129</ele>
        <time>2016-08-20T08:06:51Z</time>
      </trkpt>
      <trkpt lat="45.27145" lon="5.77104">
        <ele>1129</ele>
        <time>2016-08-20T08:06:52Z</time>
      </trkpt>
      <trkpt lat="45.27145" lon="5.77105">
        <ele>1129</ele>
        <time>2016-08-20T08:06:53Z</time>
      </trkpt>
      <trkpt lat="45.27145" lon="5.77108">
        <ele>1130</ele>
        <time>2016-08-20T08:06:54Z</time>
      </trkpt>
      <trkpt lat="45.27145" lon="5.7711">
        <ele>1130</ele>
        <time>2016-08-20T08:06:55Z</time>
      </trkpt>
      <trkpt lat="45.27143" lon="5.77142">
        <ele>1131</ele>
        <time>2016-08-20T08:07:13Z</time>
      </trkpt>
      <trkpt lat="45.27135" lon="5.77159">
        <ele>1134</ele>
        <time>2016-08-20T08:07:26Z</time>
      </trkpt>
      <trkpt lat="45.27128" lon="5.77187">
        <ele>1137</ele>
        <time>2016-08-20T08:07:41Z</time>
      </trkpt>
      <trkpt lat="45.27127" lon="5.77194">
        <ele>1138</ele>
        <time>2016-08-20T08:07:47Z</time>
      </trkpt>
      <trkpt lat="45.27127" lon="5.77196">
        <ele>1138</ele>
        <time>2016-08-20T08:07:48Z</time>
      </trkpt>
      <trkpt lat="45.27127" lon="5.77197">
        <ele>1139</ele>
        <time>2016-08-20T08:07:49Z</time>
      </trkpt>
      <trkpt lat="45.27125" lon="5.77201">
        <ele>1141</ele>
        <time>2016-08-20T08:07:52Z</time>
      </trkpt>
      <trkpt lat="45.27122" lon="5.77212">
        <ele>1142</ele>
        <time>2016-08-20T08:07:59Z</time>
      </trkpt>
      <trkpt lat="45.27121" lon="5.77214">
        <ele>1142</ele>
        <time>2016-08-20T08:08:00Z</time>
      </trkpt>
      <trkpt lat="45.27104" lon="5.77238">
        <ele>1144</ele>
        <time>2016-08-20T08:08:19Z</time>
      </trkpt>
      <trkpt lat="45.27096" lon="5.77241">
        <ele>1145</ele>
        <time>2016-08-20T08:08:24Z</time>
      </trkpt>
      <trkpt lat="45.27094" lon="5.77247">
        <ele>1145</ele>
        <time>2016-08-20T08:08:30Z</time>
      </trkpt>
      <trkpt lat="45.27094" lon="5.77249">
        <ele>1146</ele>
        <time>2016-08-20T08:08:31Z</time>
      </trkpt>
      <trkpt lat="45.27094" lon="5.77252">
        <ele>1146</ele>
        <time>2016-08-20T08:08:32Z</time>
      </trkpt>
      <trkpt lat="45.27086" lon="5.77273">
        <ele>1149</ele>
        <time>2016-08-20T08:08:46Z</time>
      </trkpt>
      <trkpt lat="45.27086" lon="5.77275">
        <ele>1149</ele>
        <time>2016-08-20T08:08:47Z</time>
      </trkpt>
      <trkpt lat="45.27084" lon="5.77282">
        <ele>1151</ele>
        <time>2016-08-20T08:08:53Z</time>
      </trkpt>
      <trkpt lat="45.27075" lon="5.77295">
        <ele>1153</ele>
        <time>2016-08-20T08:09:04Z</time>
      </trkpt>
      <trkpt lat="45.27075" lon="5.77296">
        <ele>1153</ele>
        <time>2016-08-20T08:09:05Z</time>
      </trkpt>
      <trkpt lat="45.27071" lon="5.77305">
        <ele>1155</ele>
        <time>2016-08-20T08:09:14Z</time>
      </trkpt>
      <trkpt lat="45.27069" lon="5.77306">
        <ele>1155</ele>
        <time>2016-08-20T08:09:15Z</time>
      </trkpt>
      <trkpt lat="45.27069" lon="5.77308">
        <ele>1155</ele>
        <time>2016-08-20T08:09:16Z</time>
      </trkpt>
      <trkpt lat="45.27068" lon="5.77309">
        <ele>1155</ele>
        <time>2016-08-20T08:09:17Z</time>
      </trkpt>
      <trkpt lat="45.27068" lon="5.7731">
        <ele>1156</ele>
        <time>2016-08-20T08:09:18Z</time>
      </trkpt>
      <trkpt lat="45.27067" lon="5.77311">
        <ele>1156</ele>
        <time>2016-08-20T08:09:19Z</time>
      </trkpt>
      <trkpt lat="45.27061" lon="5.77319">
        <ele>1158</ele>
        <time>2016-08-20T08:09:29Z</time>
      </trkpt>
      <trkpt lat="45.2706" lon="5.77319">
        <ele>1158</ele>
        <time>2016-08-20T08:09:30Z</time>
      </trkpt>
      <trkpt lat="45.27059" lon="5.77319">
        <ele>1158</ele>
        <time>2016-08-20T08:09:31Z</time>
      </trkpt>
      <trkpt lat="45.27051" lon="5.77328">
        <ele>1161</ele>
        <time>2016-08-20T08:09:46Z</time>
      </trkpt>
      <trkpt lat="45.2705" lon="5.77328">
        <ele>1162</ele>
        <time>2016-08-20T08:09:47Z</time>
      </trkpt>
      <trkpt lat="45.27049" lon="5.77329">
        <ele>1162</ele>
        <time>2016-08-20T08:09:48Z</time>
      </trkpt>
      <trkpt lat="45.27048" lon="5.7733">
        <ele>1162</ele>
        <time>2016-08-20T08:09:49Z</time>
      </trkpt>
      <trkpt lat="45.27047" lon="5.7733">
        <ele>1162</ele>
        <time>2016-08-20T08:09:50Z</time>
      </trkpt>
      <trkpt lat="45.27044" lon="5.7733">
        <ele>1162</ele>
        <time>2016-08-20T08:09:52Z</time>
      </trkpt>
      <trkpt lat="45.27043" lon="5.77331">
        <ele>1163</ele>
        <time>2016-08-20T08:09:53Z</time>
      </trkpt>
      <trkpt lat="45.2704" lon="5.77332">
        <ele>1163</ele>
        <time>2016-08-20T08:09:55Z</time>
      </trkpt>
      <trkpt lat="45.27039" lon="5.77333">
        <ele>1163</ele>
        <time>2016-08-20T08:09:56Z</time>
      </trkpt>
      <trkpt lat="45.27037" lon="5.77334">
        <ele>1164</ele>
        <time>2016-08-20T08:09:57Z</time>
      </trkpt>
      <trkpt lat="45.27036" lon="5.77335">
        <ele>1164</ele>
        <time>2016-08-20T08:09:58Z</time>
      </trkpt>
      <trkpt lat="45.27035" lon="5.77336">
        <ele>1164</ele>
        <time>2016-08-20T08:09:59Z</time>
      </trkpt>
      <trkpt lat="45.27023" lon="5.77343">
        <ele>1166</ele>
        <time>2016-08-20T08:10:08Z</time>
      </trkpt>
      <trkpt lat="45.27021" lon="5.77344">
        <ele>1166</ele>
        <time>2016-08-20T08:10:09Z</time>
      </trkpt>
      <trkpt lat="45.2702" lon="5.77345">
        <ele>1166</ele>
        <time>2016-08-20T08:10:10Z</time>
      </trkpt>
      <trkpt lat="45.27018" lon="5.77347">
        <ele>1167</ele>
        <time>2016-08-20T08:10:11Z</time>
      </trkpt>
      <trkpt lat="45.27018" lon="5.77349">
        <ele>1167</ele>
        <time>2016-08-20T08:10:12Z</time>
      </trkpt>
      <trkpt lat="45.27017" lon="5.7735">
        <ele>1167</ele>
        <time>2016-08-20T08:10:13Z</time>
      </trkpt>
      <trkpt lat="45.27016" lon="5.77351">
        <ele>1167</ele>
        <time>2016-08-20T08:10:14Z</time>
      </trkpt>
      <trkpt lat="45.27014" lon="5.77352">
        <ele>1167</ele>
        <time>2016-08-20T08:10:15Z</time>
      </trkpt>
      <trkpt lat="45.27014" lon="5.77354">
        <ele>1167</ele>
        <time>2016-08-20T08:10:16Z</time>
      </trkpt>
      <trkpt lat="45.27007" lon="5.77382">
        <ele>1169</ele>
        <time>2016-08-20T08:10:28Z</time>
      </trkpt>
      <trkpt lat="45.27008" lon="5.7739">
        <ele>1169</ele>
        <time>2016-08-20T08:10:32Z</time>
      </trkpt>
      <trkpt lat="45.27011" lon="5.7742">
        <ele>1169</ele>
        <time>2016-08-20T08:10:44Z</time>
      </trkpt>
      <trkpt lat="45.27009" lon="5.77449">
        <ele>1169</ele>
        <time>2016-08-20T08:10:53Z</time>
      </trkpt>
      <trkpt lat="45.27006" lon="5.77476">
        <ele>1170</ele>
        <time>2016-08-20T08:11:00Z</time>
      </trkpt>
      <trkpt lat="45.26999" lon="5.775">
        <ele>1169</ele>
        <time>2016-08-20T08:11:07Z</time>
      </trkpt>
      <trkpt lat="45.26989" lon="5.77524">
        <ele>1169</ele>
        <time>2016-08-20T08:11:17Z</time>
      </trkpt>
      <trkpt lat="45.2698" lon="5.77543">
        <ele>1166</ele>
        <time>2016-08-20T08:11:29Z</time>
      </trkpt>
      <trkpt lat="45.26979" lon="5.77545">
        <ele>1166</ele>
        <time>2016-08-20T08:11:30Z</time>
      </trkpt>
      <trkpt lat="45.26977" lon="5.77552">
        <ele>1164</ele>
        <time>2016-08-20T08:11:33Z</time>
      </trkpt>
      <trkpt lat="45.26975" lon="5.7759">
        <ele>1163</ele>
        <time>2016-08-20T08:11:41Z</time>
      </trkpt>
      <trkpt lat="45.26967" lon="5.77621">
        <ele>1162</ele>
        <time>2016-08-20T08:11:48Z</time>
      </trkpt>
      <trkpt lat="45.26958" lon="5.77651">
        <ele>1161</ele>
        <time>2016-08-20T08:11:55Z</time>
      </trkpt>
      <trkpt lat="45.26955" lon="5.77656">
        <ele>1160</ele>
        <time>2016-08-20T08:11:57Z</time>
      </trkpt>
      <trkpt lat="45.26952" lon="5.77657">
        <ele>1160</ele>
        <time>2016-08-20T08:11:58Z</time>
      </trkpt>
      <trkpt lat="45.26941" lon="5.77666">
        <ele>1159</ele>
        <time>2016-08-20T08:12:04Z</time>
      </trkpt>
      <trkpt lat="45.26932" lon="5.77672">
        <ele>1159</ele>
        <time>2016-08-20T08:12:09Z</time>
      </trkpt>
      <trkpt lat="45.26912" lon="5.77685">
        <ele>1157</ele>
        <time>2016-08-20T08:12:18Z</time>
      </trkpt>
      <trkpt lat="45.26891" lon="5.77707">
        <ele>1157</ele>
        <time>2016-08-20T08:12:29Z</time>
      </trkpt>
      <trkpt lat="45.2688" lon="5.77717">
        <ele>1157</ele>
        <time>2016-08-20T08:12:35Z</time>
      </trkpt>
      <trkpt lat="45.26864" lon="5.77743">
        <ele>1158</ele>
        <time>2016-08-20T08:12:47Z</time>
      </trkpt>
      <trkpt lat="45.26843" lon="5.77767">
        <ele>1157</ele>
        <time>2016-08-20T08:12:57Z</time>
      </trkpt>
      <trkpt lat="45.2683" lon="5.77801">
        <ele>1156</ele>
        <time>2016-08-20T08:13:05Z</time>
      </trkpt>
      <trkpt lat="45.26824" lon="5.77823">
        <ele>1154</ele>
        <time>2016-08-20T08:13:10Z</time>
      </trkpt>
      <trkpt lat="45.26813" lon="5.7785">
        <ele>1151</ele>
        <time>2016-08-20T08:13:19Z</time>
      </trkpt>
      <trkpt lat="45.2681" lon="5.77879">
        <ele>1148</ele>
        <time>2016-08-20T08:13:28Z</time>
      </trkpt>
      <trkpt lat="45.26805" lon="5.77905">
        <ele>1145</ele>
        <time>2016-08-20T08:13:37Z</time>
      </trkpt>
      <trkpt lat="45.26806" lon="5.77918">
        <ele>1142</ele>
        <time>2016-08-20T08:13:42Z</time>
      </trkpt>
      <trkpt lat="45.26813" lon="5.77934">
        <ele>1138</ele>
        <time>2016-08-20T08:13:49Z</time>
      </trkpt>
      <trkpt lat="45.26824" lon="5.77958">
        <ele>1135</ele>
        <time>2016-08-20T08:13:56Z</time>
      </trkpt>
      <trkpt lat="45.26837" lon="5.77986">
        <ele>1132</ele>
        <time>2016-08-20T08:14:02Z</time>
      </trkpt>
      <trkpt lat="45.26849" lon="5.78004">
        <ele>1130</ele>
        <time>2016-08-20T08:14:08Z</time>
      </trkpt>
      <trkpt lat="45.26858" lon="5.78009">
        <ele>1129</ele>
        <time>2016-08-20T08:14:13Z</time>
      </trkpt>
      <trkpt lat="45.26863" lon="5.78015">
        <ele>1126</ele>
        <time>2016-08-20T08:14:16Z</time>
      </trkpt>
      <trkpt lat="45.26879" lon="5.78024">
        <ele>1122</ele>
        <time>2016-08-20T08:14:25Z</time>
      </trkpt>
      <trkpt lat="45.26881" lon="5.78026">
        <ele>1120</ele>
        <time>2016-08-20T08:14:27Z</time>
      </trkpt>
      <trkpt lat="45.26882" lon="5.78028">
        <ele>1119</ele>
        <time>2016-08-20T08:14:28Z</time>
      </trkpt>
      <trkpt lat="45.26884" lon="5.78029">
        <ele>1119</ele>
        <time>2016-08-20T08:14:29Z</time>
      </trkpt>
      <trkpt lat="45.26889" lon="5.78035">
        <ele>1116</ele>
        <time>2016-08-20T08:14:34Z</time>
      </trkpt>
      <trkpt lat="45.2689" lon="5.78037">
        <ele>1116</ele>
        <time>2016-08-20T08:14:35Z</time>
      </trkpt>
      <trkpt lat="45.26889" lon="5.78038">
        <ele>1116</ele>
        <time>2016-08-20T08:14:36Z</time>
      </trkpt>
      <trkpt lat="45.26889" lon="5.78044">
        <ele>1113</ele>
        <time>2016-08-20T08:14:40Z</time>
      </trkpt>
      <trkpt lat="45.26887" lon="5.78064">
        <ele>1111</ele>
        <time>2016-08-20T08:14:48Z</time>
      </trkpt>
      <trkpt lat="45.26887" lon="5.78067">
        <ele>1111</ele>
        <time>2016-08-20T08:14:49Z</time>
      </trkpt>
      <trkpt lat="45.26886" lon="5.7807">
        <ele>1110</ele>
        <time>2016-08-20T08:14:50Z</time>
      </trkpt>
      <trkpt lat="45.26884" lon="5.78072">
        <ele>1110</ele>
        <time>2016-08-20T08:14:51Z</time>
      </trkpt>
      <trkpt lat="45.26884" lon="5.78075">
        <ele>1109</ele>
        <time>2016-08-20T08:14:52Z</time>
      </trkpt>
      <trkpt lat="45.26882" lon="5.78076">
        <ele>1108</ele>
        <time>2016-08-20T08:14:53Z</time>
      </trkpt>
      <trkpt lat="45.26881" lon="5.78077">
        <ele>1108</ele>
        <time>2016-08-20T08:14:54Z</time>
      </trkpt>
      <trkpt lat="45.2688" lon="5.78078">
        <ele>1108</ele>
        <time>2016-08-20T08:14:55Z</time>
      </trkpt>
      <trkpt lat="45.26876" lon="5.78086">
        <ele>1106</ele>
        <time>2016-08-20T08:14:59Z</time>
      </trkpt>
      <trkpt lat="45.26876" lon="5.78091">
        <ele>1106</ele>
        <time>2016-08-20T08:15:00Z</time>
      </trkpt>
      <trkpt lat="45.26874" lon="5.78107">
        <ele>1103</ele>
        <time>2016-08-20T08:15:05Z</time>
      </trkpt>
      <trkpt lat="45.26872" lon="5.78119">
        <ele>1100</ele>
        <time>2016-08-20T08:15:09Z</time>
      </trkpt>
      <trkpt lat="45.26872" lon="5.78125">
        <ele>1099</ele>
        <time>2016-08-20T08:15:11Z</time>
      </trkpt>
      <trkpt lat="45.26869" lon="5.78129">
        <ele>1099</ele>
        <time>2016-08-20T08:15:13Z</time>
      </trkpt>
      <trkpt lat="45.26866" lon="5.7813">
        <ele>1099</ele>
        <time>2016-08-20T08:15:14Z</time>
      </trkpt>
      <trkpt lat="45.26863" lon="5.78131">
        <ele>1099</ele>
        <time>2016-08-20T08:15:15Z</time>
      </trkpt>
      <trkpt lat="45.26859" lon="5.78131">
        <ele>1098</ele>
        <time>2016-08-20T08:15:16Z</time>
      </trkpt>
      <trkpt lat="45.26856" lon="5.78131">
        <ele>1097</ele>
        <time>2016-08-20T08:15:17Z</time>
      </trkpt>
      <trkpt lat="45.2685" lon="5.78132">
        <ele>1096</ele>
        <time>2016-08-20T08:15:19Z</time>
      </trkpt>
      <trkpt lat="45.26833" lon="5.78139">
        <ele>1093</ele>
        <time>2016-08-20T08:15:25Z</time>
      </trkpt>
      <trkpt lat="45.2683" lon="5.7814">
        <ele>1093</ele>
        <time>2016-08-20T08:15:26Z</time>
      </trkpt>
      <trkpt lat="45.26819" lon="5.78147">
        <ele>1090</ele>
        <time>2016-08-20T08:15:30Z</time>
      </trkpt>
      <trkpt lat="45.26805" lon="5.78156">
        <ele>1088</ele>
        <time>2016-08-20T08:15:35Z</time>
      </trkpt>
      <trkpt lat="45.26793" lon="5.78159">
        <ele>1086</ele>
        <time>2016-08-20T08:15:39Z</time>
      </trkpt>
      <trkpt lat="45.2678" lon="5.78157">
        <ele>1084</ele>
        <time>2016-08-20T08:15:44Z</time>
      </trkpt>
      <trkpt lat="45.2677" lon="5.78156">
        <ele>1083</ele>
        <time>2016-08-20T08:15:48Z</time>
      </trkpt>
      <trkpt lat="45.26761" lon="5.78167">
        <ele>1080</ele>
        <time>2016-08-20T08:15:54Z</time>
      </trkpt>
      <trkpt lat="45.26761" lon="5.78171">
        <ele>1080</ele>
        <time>2016-08-20T08:15:55Z</time>
      </trkpt>
      <trkpt lat="45.26761" lon="5.78175">
        <ele>1081</ele>
        <time>2016-08-20T08:15:56Z</time>
      </trkpt>
      <trkpt lat="45.26762" lon="5.78178">
        <ele>1081</ele>
        <time>2016-08-20T08:15:57Z</time>
      </trkpt>
      <trkpt lat="45.26764" lon="5.78181">
        <ele>1080</ele>
        <time>2016-08-20T08:15:58Z</time>
      </trkpt>
      <trkpt lat="45.26766" lon="5.78184">
        <ele>1080</ele>
        <time>2016-08-20T08:15:59Z</time>
      </trkpt>
      <trkpt lat="45.26781" lon="5.78217">
        <ele>1081</ele>
        <time>2016-08-20T08:16:09Z</time>
      </trkpt>
      <trkpt lat="45.26794" lon="5.78242">
        <ele>1082</ele>
        <time>2016-08-20T08:16:16Z</time>
      </trkpt>
      <trkpt lat="45.26807" lon="5.78258">
        <ele>1082</ele>
        <time>2016-08-20T08:16:26Z</time>
      </trkpt>
      <trkpt lat="45.26815" lon="5.78284">
        <ele>1085</ele>
        <time>2016-08-20T08:16:42Z</time>
      </trkpt>
      <trkpt lat="45.26825" lon="5.78307">
        <ele>1088</ele>
        <time>2016-08-20T08:16:55Z</time>
      </trkpt>
      <trkpt lat="45.26835" lon="5.78327">
        <ele>1089</ele>
        <time>2016-08-20T08:17:08Z</time>
      </trkpt>
      <trkpt lat="45.26846" lon="5.78349">
        <ele>1091</ele>
        <time>2016-08-20T08:17:20Z</time>
      </trkpt>
      <trkpt lat="45.26855" lon="5.7836">
        <ele>1092</ele>
        <time>2016-08-20T08:17:26Z</time>
      </trkpt>
      <trkpt lat="45.26871" lon="5.78381">
        <ele>1094</ele>
        <time>2016-08-20T08:17:37Z</time>
      </trkpt>
      <trkpt lat="45.26886" lon="5.784">
        <ele>1095</ele>
        <time>2016-08-20T08:17:50Z</time>
      </trkpt>
      <trkpt lat="45.26899" lon="5.78416">
        <ele>1096</ele>
        <time>2016-08-20T08:18:02Z</time>
      </trkpt>
      <trkpt lat="45.26911" lon="5.78437">
        <ele>1099</ele>
        <time>2016-08-20T08:18:14Z</time>
      </trkpt>
      <trkpt lat="45.2692" lon="5.78461">
        <ele>1101</ele>
        <time>2016-08-20T08:18:28Z</time>
      </trkpt>
      <trkpt lat="45.26927" lon="5.78479">
        <ele>1103</ele>
        <time>2016-08-20T08:18:39Z</time>
      </trkpt>
      <trkpt lat="45.26934" lon="5.78489">
        <ele>1104</ele>
        <time>2016-08-20T08:18:47Z</time>
      </trkpt>
      <trkpt lat="45.2694" lon="5.78511">
        <ele>1106</ele>
        <time>2016-08-20T08:19:01Z</time>
      </trkpt>
      <trkpt lat="45.26953" lon="5.78531">
        <ele>1108</ele>
        <time>2016-08-20T08:19:13Z</time>
      </trkpt>
      <trkpt lat="45.26967" lon="5.78545">
        <ele>1110</ele>
        <time>2016-08-20T08:19:24Z</time>
      </trkpt>
      <trkpt lat="45.26981" lon="5.78555">
        <ele>1112</ele>
        <time>2016-08-20T08:19:39Z</time>
      </trkpt>
      <trkpt lat="45.26982" lon="5.78556">
        <ele>1112</ele>
        <time>2016-08-20T08:19:40Z</time>
      </trkpt>
      <trkpt lat="45.26986" lon="5.78563">
        <ele>1113</ele>
        <time>2016-08-20T08:19:48Z</time>
      </trkpt>
      <trkpt lat="45.26986" lon="5.78565">
        <ele>1113</ele>
        <time>2016-08-20T08:19:49Z</time>
      </trkpt>
      <trkpt lat="45.26988" lon="5.78566">
        <ele>1113</ele>
        <time>2016-08-20T08:19:50Z</time>
      </trkpt>
      <trkpt lat="45.26991" lon="5.78572">
        <ele>1115</ele>
        <time>2016-08-20T08:19:56Z</time>
      </trkpt>
      <trkpt lat="45.26992" lon="5.78573">
        <ele>1115</ele>
        <time>2016-08-20T08:19:57Z</time>
      </trkpt>
      <trkpt lat="45.26991" lon="5.78584">
        <ele>1117</ele>
        <time>2016-08-20T08:20:08Z</time>
      </trkpt>
      <trkpt lat="45.2699" lon="5.78586">
        <ele>1117</ele>
        <time>2016-08-20T08:20:09Z</time>
      </trkpt>
      <trkpt lat="45.26989" lon="5.78587">
        <ele>1117</ele>
        <time>2016-08-20T08:20:10Z</time>
      </trkpt>
      <trkpt lat="45.26989" lon="5.78588">
        <ele>1117</ele>
        <time>2016-08-20T08:20:11Z</time>
      </trkpt>
      <trkpt lat="45.26988" lon="5.7859">
        <ele>1117</ele>
        <time>2016-08-20T08:20:12Z</time>
      </trkpt>
      <trkpt lat="45.26987" lon="5.78592">
        <ele>1118</ele>
        <time>2016-08-20T08:20:13Z</time>
      </trkpt>
      <trkpt lat="45.26968" lon="5.78613">
        <ele>1120</ele>
        <time>2016-08-20T08:20:35Z</time>
      </trkpt>
      <trkpt lat="45.26967" lon="5.78612">
        <ele>1121</ele>
        <time>2016-08-20T08:20:36Z</time>
      </trkpt>
      <trkpt lat="45.26947" lon="5.78627">
        <ele>1123</ele>
        <time>2016-08-20T08:20:53Z</time>
      </trkpt>
      <trkpt lat="45.26934" lon="5.7863">
        <ele>1125</ele>
        <time>2016-08-20T08:21:05Z</time>
      </trkpt>
      <trkpt lat="45.26931" lon="5.78631">
        <ele>1125</ele>
        <time>2016-08-20T08:21:06Z</time>
      </trkpt>
      <trkpt lat="45.2693" lon="5.78632">
        <ele>1125</ele>
        <time>2016-08-20T08:21:07Z</time>
      </trkpt>
      <trkpt lat="45.26918" lon="5.78639">
        <ele>1128</ele>
        <time>2016-08-20T08:21:21Z</time>
      </trkpt>
      <trkpt lat="45.26901" lon="5.78646">
        <ele>1131</ele>
        <time>2016-08-20T08:21:35Z</time>
      </trkpt>
      <trkpt lat="45.2689" lon="5.7866">
        <ele>1134</ele>
        <time>2016-08-20T08:21:48Z</time>
      </trkpt>
      <trkpt lat="45.26872" lon="5.78663">
        <ele>1137</ele>
        <time>2016-08-20T08:22:02Z</time>
      </trkpt>
      <trkpt lat="45.2686" lon="5.78675">
        <ele>1141</ele>
        <time>2016-08-20T08:22:17Z</time>
      </trkpt>
      <trkpt lat="45.26851" lon="5.7868">
        <ele>1142</ele>
        <time>2016-08-20T08:22:25Z</time>
      </trkpt>
      <trkpt lat="45.26849" lon="5.7868">
        <ele>1142</ele>
        <time>2016-08-20T08:22:26Z</time>
      </trkpt>
      <trkpt lat="45.26847" lon="5.7868">
        <ele>1142</ele>
        <time>2016-08-20T08:22:27Z</time>
      </trkpt>
      <trkpt lat="45.26844" lon="5.78681">
        <ele>1143</ele>
        <time>2016-08-20T08:22:30Z</time>
      </trkpt>
      <trkpt lat="45.26839" lon="5.78687">
        <ele>1145</ele>
        <time>2016-08-20T08:22:40Z</time>
      </trkpt>
      <trkpt lat="45.26838" lon="5.78689">
        <ele>1145</ele>
        <time>2016-08-20T08:22:42Z</time>
      </trkpt>
      <trkpt lat="45.26832" lon="5.78702">
        <ele>1147</ele>
        <time>2016-08-20T08:22:51Z</time>
      </trkpt>
      <trkpt lat="45.26831" lon="5.78703">
        <ele>1147</ele>
        <time>2016-08-20T08:22:52Z</time>
      </trkpt>
      <trkpt lat="45.2683" lon="5.78705">
        <ele>1148</ele>
        <time>2016-08-20T08:22:53Z</time>
      </trkpt>
      <trkpt lat="45.26828" lon="5.78705">
        <ele>1148</ele>
        <time>2016-08-20T08:22:54Z</time>
      </trkpt>
      <trkpt lat="45.26826" lon="5.78705">
        <ele>1148</ele>
        <time>2016-08-20T08:22:55Z</time>
      </trkpt>
      <trkpt lat="45.26824" lon="5.78704">
        <ele>1148</ele>
        <time>2016-08-20T08:22:56Z</time>
      </trkpt>
      <trkpt lat="45.26818" lon="5.78702">
        <ele>1148</ele>
        <time>2016-08-20T08:23:03Z</time>
      </trkpt>
      <trkpt lat="45.26816" lon="5.78701">
        <ele>1147</ele>
        <time>2016-08-20T08:23:04Z</time>
      </trkpt>
      <trkpt lat="45.26799" lon="5.78686">
        <ele>1144</ele>
        <time>2016-08-20T08:23:13Z</time>
      </trkpt>
      <trkpt lat="45.2678" lon="5.78668">
        <ele>1141</ele>
        <time>2016-08-20T08:23:22Z</time>
      </trkpt>
      <trkpt lat="45.26767" lon="5.78659">
        <ele>1138</ele>
        <time>2016-08-20T08:23:29Z</time>
      </trkpt>
      <trkpt lat="45.2675" lon="5.78646">
        <ele>1135</ele>
        <time>2016-08-20T08:23:40Z</time>
      </trkpt>
      <trkpt lat="45.26733" lon="5.78636">
        <ele>1132</ele>
        <time>2016-08-20T08:23:48Z</time>
      </trkpt>
      <trkpt lat="45.26714" lon="5.78622">
        <ele>1128</ele>
        <time>2016-08-20T08:23:57Z</time>
      </trkpt>
      <trkpt lat="45.26712" lon="5.78622">
        <ele>1128</ele>
        <time>2016-08-20T08:23:58Z</time>
      </trkpt>
      <trkpt lat="45.26692" lon="5.78608">
        <ele>1125</ele>
        <time>2016-08-20T08:24:08Z</time>
      </trkpt>
      <trkpt lat="45.26674" lon="5.78592">
        <ele>1122</ele>
        <time>2016-08-20T08:24:15Z</time>
      </trkpt>
      <trkpt lat="45.26658" lon="5.78576">
        <ele>1119</ele>
        <time>2016-08-20T08:24:23Z</time>
      </trkpt>
      <trkpt lat="45.26649" lon="5.78562">
        <ele>1116</ele>
        <time>2016-08-20T08:24:30Z</time>
      </trkpt>
      <trkpt lat="45.26627" lon="5.78544">
        <ele>1113</ele>
        <time>2016-08-20T08:24:39Z</time>
      </trkpt>
      <trkpt lat="45.2661" lon="5.78527">
        <ele>1110</ele>
        <time>2016-08-20T08:24:48Z</time>
      </trkpt>
      <trkpt lat="45.266" lon="5.78511">
        <ele>1106</ele>
        <time>2016-08-20T08:24:56Z</time>
      </trkpt>
      <trkpt lat="45.26578" lon="5.78489">
        <ele>1103</ele>
        <time>2016-08-20T08:25:04Z</time>
      </trkpt>
      <trkpt lat="45.26565" lon="5.78476">
        <ele>1100</ele>
        <time>2016-08-20T08:25:10Z</time>
      </trkpt>
      <trkpt lat="45.26544" lon="5.78466">
        <ele>1098</ele>
        <time>2016-08-20T08:25:19Z</time>
      </trkpt>
      <trkpt lat="45.26524" lon="5.78457">
        <ele>1096</ele>
        <time>2016-08-20T08:25:29Z</time>
      </trkpt>
      <trkpt lat="45.26518" lon="5.78453">
        <ele>1094</ele>
        <time>2016-08-20T08:25:32Z</time>
      </trkpt>
      <trkpt lat="45.26507" lon="5.78439">
        <ele>1091</ele>
        <time>2016-08-20T08:25:38Z</time>
      </trkpt>
      <trkpt lat="45.26494" lon="5.78415">
        <ele>1088</ele>
        <time>2016-08-20T08:25:48Z</time>
      </trkpt>
      <trkpt lat="45.26478" lon="5.78392">
        <ele>1085</ele>
        <time>2016-08-20T08:25:56Z</time>
      </trkpt>
      <trkpt lat="45.26474" lon="5.78384">
        <ele>1083</ele>
        <time>2016-08-20T08:25:59Z</time>
      </trkpt>
      <trkpt lat="45.26461" lon="5.78364">
        <ele>1080</ele>
        <time>2016-08-20T08:26:07Z</time>
      </trkpt>
      <trkpt lat="45.2646" lon="5.78362">
        <ele>1080</ele>
        <time>2016-08-20T08:26:08Z</time>
      </trkpt>
      <trkpt lat="45.26443" lon="5.78338">
        <ele>1077</ele>
        <time>2016-08-20T08:26:16Z</time>
      </trkpt>
      <trkpt lat="45.26422" lon="5.78326">
        <ele>1074</ele>
        <time>2016-08-20T08:26:25Z</time>
      </trkpt>
      <trkpt lat="45.26406" lon="5.78313">
        <ele>1070</ele>
        <time>2016-08-20T08:26:31Z</time>
      </trkpt>
      <trkpt lat="45.26404" lon="5.78311">
        <ele>1070</ele>
        <time>2016-08-20T08:26:32Z</time>
      </trkpt>
      <trkpt lat="45.2639" lon="5.78293">
        <ele>1067</ele>
        <time>2016-08-20T08:26:39Z</time>
      </trkpt>
      <trkpt lat="45.26387" lon="5.78291">
        <ele>1066</ele>
        <time>2016-08-20T08:26:40Z</time>
      </trkpt>
      <trkpt lat="45.26365" lon="5.78279">
        <ele>1064</ele>
        <time>2016-08-20T08:26:47Z</time>
      </trkpt>
      <trkpt lat="45.26354" lon="5.78272">
        <ele>1061</ele>
        <time>2016-08-20T08:26:51Z</time>
      </trkpt>
      <trkpt lat="45.26349" lon="5.78268">
        <ele>1061</ele>
        <time>2016-08-20T08:26:53Z</time>
      </trkpt>
      <trkpt lat="45.26328" lon="5.78256">
        <ele>1057</ele>
        <time>2016-08-20T08:27:00Z</time>
      </trkpt>
      <trkpt lat="45.26325" lon="5.78254">
        <ele>1057</ele>
        <time>2016-08-20T08:27:01Z</time>
      </trkpt>
      <trkpt lat="45.26316" lon="5.78248">
        <ele>1055</ele>
        <time>2016-08-20T08:27:04Z</time>
      </trkpt>
      <trkpt lat="45.26298" lon="5.78235">
        <ele>1052</ele>
        <time>2016-08-20T08:27:11Z</time>
      </trkpt>
      <trkpt lat="45.26278" lon="5.78223">
        <ele>1049</ele>
        <time>2016-08-20T08:27:18Z</time>
      </trkpt>
      <trkpt lat="45.2626" lon="5.78207">
        <ele>1046</ele>
        <time>2016-08-20T08:27:25Z</time>
      </trkpt>
      <trkpt lat="45.26257" lon="5.78205">
        <ele>1046</ele>
        <time>2016-08-20T08:27:26Z</time>
      </trkpt>
      <trkpt lat="45.26243" lon="5.78199">
        <ele>1044</ele>
        <time>2016-08-20T08:27:32Z</time>
      </trkpt>
      <trkpt lat="45.26221" lon="5.78191">
        <ele>1040</ele>
        <time>2016-08-20T08:27:40Z</time>
      </trkpt>
      <trkpt lat="45.26204" lon="5.7818">
        <ele>1038</ele>
        <time>2016-08-20T08:27:47Z</time>
      </trkpt>
      <trkpt lat="45.26187" lon="5.78166">
        <ele>1036</ele>
        <time>2016-08-20T08:27:55Z</time>
      </trkpt>
      <trkpt lat="45.26172" lon="5.78149">
        <ele>1034</ele>
        <time>2016-08-20T08:28:02Z</time>
      </trkpt>
      <trkpt lat="45.26155" lon="5.78135">
        <ele>1031</ele>
        <time>2016-08-20T08:28:09Z</time>
      </trkpt>
      <trkpt lat="45.26137" lon="5.78124">
        <ele>1028</ele>
        <time>2016-08-20T08:28:16Z</time>
      </trkpt>
      <trkpt lat="45.26122" lon="5.78111">
        <ele>1027</ele>
        <time>2016-08-20T08:28:22Z</time>
      </trkpt>
      <trkpt lat="45.26112" lon="5.78088">
        <ele>1023</ele>
        <time>2016-08-20T08:28:30Z</time>
      </trkpt>
      <trkpt lat="45.26106" lon="5.78074">
        <ele>1021</ele>
        <time>2016-08-20T08:28:34Z</time>
      </trkpt>
      <trkpt lat="45.26095" lon="5.78051">
        <ele>1018</ele>
        <time>2016-08-20T08:28:41Z</time>
      </trkpt>
      <trkpt lat="45.26084" lon="5.78032">
        <ele>1015</ele>
        <time>2016-08-20T08:28:48Z</time>
      </trkpt>
      <trkpt lat="45.26072" lon="5.78015">
        <ele>1012</ele>
        <time>2016-08-20T08:28:57Z</time>
      </trkpt>
      <trkpt lat="45.26063" lon="5.78002">
        <ele>1011</ele>
        <time>2016-08-20T08:29:03Z</time>
      </trkpt>
      <trkpt lat="45.26053" lon="5.77995">
        <ele>1007</ele>
        <time>2016-08-20T08:29:09Z</time>
      </trkpt>
      <trkpt lat="45.26045" lon="5.77988">
        <ele>1006</ele>
        <time>2016-08-20T08:29:13Z</time>
      </trkpt>
      <trkpt lat="45.26032" lon="5.77977">
        <ele>1003</ele>
        <time>2016-08-20T08:29:19Z</time>
      </trkpt>
      <trkpt lat="45.26026" lon="5.77973">
        <ele>1002</ele>
        <time>2016-08-20T08:29:22Z</time>
      </trkpt>
      <trkpt lat="45.26019" lon="5.77967">
        <ele>1001</ele>
        <time>2016-08-20T08:29:25Z</time>
      </trkpt>
      <trkpt lat="45.26001" lon="5.77946">
        <ele>997</ele>
        <time>2016-08-20T08:29:33Z</time>
      </trkpt>
      <trkpt lat="45.25996" lon="5.77941">
        <ele>996</ele>
        <time>2016-08-20T08:29:35Z</time>
      </trkpt>
      <trkpt lat="45.2598" lon="5.77922">
        <ele>993</ele>
        <time>2016-08-20T08:29:42Z</time>
      </trkpt>
      <trkpt lat="45.25977" lon="5.77917">
        <ele>993</ele>
        <time>2016-08-20T08:29:43Z</time>
      </trkpt>
      <trkpt lat="45.25963" lon="5.77894">
        <ele>990</ele>
        <time>2016-08-20T08:29:50Z</time>
      </trkpt>
      <trkpt lat="45.25957" lon="5.77885">
        <ele>987</ele>
        <time>2016-08-20T08:29:53Z</time>
      </trkpt>
      <trkpt lat="45.25947" lon="5.77866">
        <ele>985</ele>
        <time>2016-08-20T08:29:58Z</time>
      </trkpt>
      <trkpt lat="45.25938" lon="5.77849">
        <ele>982</ele>
        <time>2016-08-20T08:30:04Z</time>
      </trkpt>
      <trkpt lat="45.25933" lon="5.77847">
        <ele>981</ele>
        <time>2016-08-20T08:30:07Z</time>
      </trkpt>
      <trkpt lat="45.25932" lon="5.77849">
        <ele>981</ele>
        <time>2016-08-20T08:30:08Z</time>
      </trkpt>
      <trkpt lat="45.2593" lon="5.7785">
        <ele>982</ele>
        <time>2016-08-20T08:30:09Z</time>
      </trkpt>
      <trkpt lat="45.25927" lon="5.77853">
        <ele>983</ele>
        <time>2016-08-20T08:30:11Z</time>
      </trkpt>
      <trkpt lat="45.25924" lon="5.77855">
        <ele>981</ele>
        <time>2016-08-20T08:30:13Z</time>
      </trkpt>
      <trkpt lat="45.25922" lon="5.77857">
        <ele>980</ele>
        <time>2016-08-20T08:30:14Z</time>
      </trkpt>
      <trkpt lat="45.2592" lon="5.77858">
        <ele>980</ele>
        <time>2016-08-20T08:30:15Z</time>
      </trkpt>
      <trkpt lat="45.25918" lon="5.77859">
        <ele>979</ele>
        <time>2016-08-20T08:30:16Z</time>
      </trkpt>
      <trkpt lat="45.25916" lon="5.77861">
        <ele>979</ele>
        <time>2016-08-20T08:30:17Z</time>
      </trkpt>
      <trkpt lat="45.25908" lon="5.77869">
        <ele>981</ele>
        <time>2016-08-20T08:30:21Z</time>
      </trkpt>
      <trkpt lat="45.25904" lon="5.77869">
        <ele>980</ele>
        <time>2016-08-20T08:30:22Z</time>
      </trkpt>
      <trkpt lat="45.25902" lon="5.77868">
        <ele>979</ele>
        <time>2016-08-20T08:30:23Z</time>
      </trkpt>
      <trkpt lat="45.259" lon="5.77866">
        <ele>979</ele>
        <time>2016-08-20T08:30:24Z</time>
      </trkpt>
      <trkpt lat="45.25898" lon="5.77863">
        <ele>979</ele>
        <time>2016-08-20T08:30:25Z</time>
      </trkpt>
      <trkpt lat="45.25896" lon="5.7786">
        <ele>980</ele>
        <time>2016-08-20T08:30:26Z</time>
      </trkpt>
      <trkpt lat="45.2588" lon="5.77841">
        <ele>978</ele>
        <time>2016-08-20T08:30:34Z</time>
      </trkpt>
      <trkpt lat="45.25876" lon="5.77846">
        <ele>978</ele>
        <time>2016-08-20T08:30:43Z</time>
      </trkpt>
      <trkpt lat="45.25875" lon="5.77847">
        <ele>978</ele>
        <time>2016-08-20T08:30:44Z</time>
      </trkpt>
      <trkpt lat="45.25868" lon="5.77849">
        <ele>977</ele>
        <time>2016-08-20T08:30:52Z</time>
      </trkpt>
      <trkpt lat="45.2587" lon="5.77844">
        <ele>976</ele>
        <time>2016-08-20T08:30:59Z</time>
      </trkpt>
      <trkpt lat="45.25871" lon="5.77843">
        <ele>976</ele>
        <time>2016-08-20T08:31:00Z</time>
      </trkpt>
      <trkpt lat="45.2587" lon="5.77836">
        <ele>976</ele>
        <time>2016-08-20T08:31:07Z</time>
      </trkpt>
      <trkpt lat="45.25874" lon="5.77823">
        <ele>976</ele>
        <time>2016-08-20T08:31:12Z</time>
      </trkpt>
      <trkpt lat="45.25875" lon="5.77819">
        <ele>975</ele>
        <time>2016-08-20T08:31:13Z</time>
      </trkpt>
      <trkpt lat="45.25874" lon="5.77818">
        <ele>975</ele>
        <time>2016-08-20T08:31:14Z</time>
      </trkpt>
      <trkpt lat="45.25872" lon="5.77811">
        <ele>975</ele>
        <time>2016-08-20T08:31:24Z</time>
      </trkpt>
      <trkpt lat="45.25874" lon="5.77811">
        <ele>974</ele>
        <time>2016-08-20T08:31:38Z</time>
      </trkpt>
      <trkpt lat="45.2587" lon="5.77826">
        <ele>974</ele>
        <time>2016-08-20T08:31:42Z</time>
      </trkpt>
      <trkpt lat="45.25867" lon="5.77824">
        <ele>974</ele>
        <time>2016-08-20T08:31:48Z</time>
      </trkpt>
      <trkpt lat="45.25872" lon="5.77813">
        <ele>973</ele>
        <time>2016-08-20T08:32:06Z</time>
      </trkpt>
      <trkpt lat="45.25873" lon="5.77815">
        <ele>973</ele>
        <time>2016-08-20T08:32:07Z</time>
      </trkpt>
      <trkpt lat="45.25877" lon="5.77808">
        <ele>973</ele>
        <time>2016-08-20T08:32:21Z</time>
      </trkpt>
      <trkpt lat="45.25877" lon="5.77807">
        <ele>972</ele>
        <time>2016-08-20T08:32:24Z</time>
      </trkpt>
      <trkpt lat="45.25877" lon="5.77805">
        <ele>972</ele>
        <time>2016-08-20T08:32:26Z</time>
      </trkpt>
      <trkpt lat="45.25876" lon="5.77806">
        <ele>972</ele>
        <time>2016-08-20T08:32:27Z</time>
      </trkpt>
      <trkpt lat="45.25876" lon="5.77808">
        <ele>973</ele>
        <time>2016-08-20T08:32:33Z</time>
      </trkpt>
      <trkpt lat="45.25877" lon="5.77808">
        <ele>972</ele>
        <time>2016-08-20T08:32:43Z</time>
      </trkpt>
      <trkpt lat="45.25871" lon="5.77817">
        <ele>972</ele>
        <time>2016-08-20T08:32:53Z</time>
      </trkpt>
      <trkpt lat="45.25865" lon="5.77834">
        <ele>971</ele>
        <time>2016-08-20T08:33:11Z</time>
      </trkpt>
      <trkpt lat="45.2587" lon="5.77831">
        <ele>971</ele>
        <time>2016-08-20T08:33:14Z</time>
      </trkpt>
      <trkpt lat="45.25867" lon="5.77837">
        <ele>971</ele>
        <time>2016-08-20T08:33:18Z</time>
      </trkpt>
      <trkpt lat="45.25865" lon="5.77875">
        <ele>969</ele>
        <time>2016-08-20T08:33:35Z</time>
      </trkpt>
      <trkpt lat="45.25868" lon="5.77908">
        <ele>972</ele>
        <time>2016-08-20T08:33:43Z</time>
      </trkpt>
      <trkpt lat="45.25866" lon="5.77915">
        <ele>972</ele>
        <time>2016-08-20T08:33:45Z</time>
      </trkpt>
      <trkpt lat="45.25865" lon="5.77918">
        <ele>971</ele>
        <time>2016-08-20T08:33:46Z</time>
      </trkpt>
      <trkpt lat="45.25863" lon="5.7792">
        <ele>971</ele>
        <time>2016-08-20T08:33:47Z</time>
      </trkpt>
      <trkpt lat="45.25853" lon="5.77927">
        <ele>974</ele>
        <time>2016-08-20T08:33:52Z</time>
      </trkpt>
      <trkpt lat="45.25851" lon="5.77927">
        <ele>974</ele>
        <time>2016-08-20T08:33:53Z</time>
      </trkpt>
      <trkpt lat="45.25841" lon="5.77929">
        <ele>975</ele>
        <time>2016-08-20T08:33:58Z</time>
      </trkpt>
      <trkpt lat="45.2582" lon="5.77933">
        <ele>975</ele>
        <time>2016-08-20T08:34:08Z</time>
      </trkpt>
      <trkpt lat="45.25806" lon="5.7795">
        <ele>973</ele>
        <time>2016-08-20T08:34:18Z</time>
      </trkpt>
      <trkpt lat="45.25796" lon="5.77979">
        <ele>970</ele>
        <time>2016-08-20T08:34:27Z</time>
      </trkpt>
      <trkpt lat="45.25795" lon="5.77982">
        <ele>970</ele>
        <time>2016-08-20T08:34:28Z</time>
      </trkpt>
      <trkpt lat="45.25786" lon="5.78008">
        <ele>968</ele>
        <time>2016-08-20T08:34:36Z</time>
      </trkpt>
      <trkpt lat="45.25776" lon="5.78034">
        <ele>966</ele>
        <time>2016-08-20T08:34:45Z</time>
      </trkpt>
      <trkpt lat="45.25767" lon="5.78057">
        <ele>963</ele>
        <time>2016-08-20T08:34:56Z</time>
      </trkpt>
      <trkpt lat="45.25755" lon="5.78074">
        <ele>960</ele>
        <time>2016-08-20T08:35:05Z</time>
      </trkpt>
      <trkpt lat="45.25756" lon="5.7808">
        <ele>961</ele>
        <time>2016-08-20T08:35:06Z</time>
      </trkpt>
      <trkpt lat="45.25756" lon="5.78084">
        <ele>961</ele>
        <time>2016-08-20T08:35:07Z</time>
      </trkpt>
      <trkpt lat="45.25756" lon="5.78088">
        <ele>961</ele>
        <time>2016-08-20T08:35:08Z</time>
      </trkpt>
      <trkpt lat="45.2575" lon="5.78106">
        <ele>962</ele>
        <time>2016-08-20T08:35:17Z</time>
      </trkpt>
      <trkpt lat="45.25748" lon="5.78108">
        <ele>961</ele>
        <time>2016-08-20T08:35:18Z</time>
      </trkpt>
      <trkpt lat="45.25737" lon="5.78113">
        <ele>963</ele>
        <time>2016-08-20T08:35:26Z</time>
      </trkpt>
      <trkpt lat="45.25728" lon="5.78125">
        <ele>965</ele>
        <time>2016-08-20T08:35:36Z</time>
      </trkpt>
      <trkpt lat="45.25727" lon="5.78126">
        <ele>965</ele>
        <time>2016-08-20T08:35:37Z</time>
      </trkpt>
      <trkpt lat="45.25722" lon="5.78135">
        <ele>967</ele>
        <time>2016-08-20T08:35:48Z</time>
      </trkpt>
      <trkpt lat="45.25719" lon="5.78138">
        <ele>968</ele>
        <time>2016-08-20T08:35:53Z</time>
      </trkpt>
      <trkpt lat="45.25718" lon="5.78141">
        <ele>968</ele>
        <time>2016-08-20T08:35:55Z</time>
      </trkpt>
      <trkpt lat="45.25716" lon="5.78145">
        <ele>969</ele>
        <time>2016-08-20T08:35:58Z</time>
      </trkpt>
      <trkpt lat="45.25715" lon="5.78146">
        <ele>969</ele>
        <time>2016-08-20T08:35:59Z</time>
      </trkpt>
      <trkpt lat="45.25708" lon="5.78147">
        <ele>972</ele>
        <time>2016-08-20T08:36:07Z</time>
      </trkpt>
      <trkpt lat="45.25707" lon="5.78146">
        <ele>972</ele>
        <time>2016-08-20T08:36:08Z</time>
      </trkpt>
      <trkpt lat="45.25707" lon="5.78145">
        <ele>972</ele>
        <time>2016-08-20T08:36:09Z</time>
      </trkpt>
      <trkpt lat="45.25705" lon="5.78144">
        <ele>972</ele>
        <time>2016-08-20T08:36:10Z</time>
      </trkpt>
      <trkpt lat="45.25694" lon="5.78144">
        <ele>975</ele>
        <time>2016-08-20T08:36:22Z</time>
      </trkpt>
      <trkpt lat="45.25672" lon="5.78132">
        <ele>975</ele>
        <time>2016-08-20T08:36:42Z</time>
      </trkpt>
      <trkpt lat="45.25659" lon="5.78131">
        <ele>976</ele>
        <time>2016-08-20T08:36:50Z</time>
      </trkpt>
      <trkpt lat="45.25658" lon="5.78132">
        <ele>976</ele>
        <time>2016-08-20T08:36:51Z</time>
      </trkpt>
      <trkpt lat="45.25656" lon="5.78131">
        <ele>977</ele>
        <time>2016-08-20T08:36:52Z</time>
      </trkpt>
      <trkpt lat="45.25656" lon="5.7813">
        <ele>977</ele>
        <time>2016-08-20T08:36:53Z</time>
      </trkpt>
      <trkpt lat="45.25655" lon="5.7813">
        <ele>977</ele>
        <time>2016-08-20T08:36:54Z</time>
      </trkpt>
      <trkpt lat="45.25635" lon="5.78128">
        <ele>978</ele>
        <time>2016-08-20T08:37:06Z</time>
      </trkpt>
      <trkpt lat="45.25629" lon="5.78125">
        <ele>978</ele>
        <time>2016-08-20T08:37:11Z</time>
      </trkpt>
      <trkpt lat="45.25628" lon="5.78122">
        <ele>978</ele>
        <time>2016-08-20T08:37:12Z</time>
      </trkpt>
      <trkpt lat="45.25625" lon="5.78121">
        <ele>978</ele>
        <time>2016-08-20T08:37:13Z</time>
      </trkpt>
      <trkpt lat="45.25623" lon="5.7812">
        <ele>978</ele>
        <time>2016-08-20T08:37:14Z</time>
      </trkpt>
      <trkpt lat="45.25621" lon="5.78119">
        <ele>978</ele>
        <time>2016-08-20T08:37:15Z</time>
      </trkpt>
      <trkpt lat="45.25612" lon="5.78118">
        <ele>979</ele>
        <time>2016-08-20T08:37:20Z</time>
      </trkpt>
      <trkpt lat="45.25607" lon="5.78116">
        <ele>978</ele>
        <time>2016-08-20T08:37:24Z</time>
      </trkpt>
      <trkpt lat="45.25605" lon="5.78116">
        <ele>979</ele>
        <time>2016-08-20T08:37:25Z</time>
      </trkpt>
      <trkpt lat="45.25596" lon="5.7811">
        <ele>981</ele>
        <time>2016-08-20T08:37:36Z</time>
      </trkpt>
      <trkpt lat="45.25596" lon="5.78109">
        <ele>981</ele>
        <time>2016-08-20T08:37:37Z</time>
      </trkpt>
      <trkpt lat="45.25595" lon="5.78109">
        <ele>982</ele>
        <time>2016-08-20T08:37:38Z</time>
      </trkpt>
      <trkpt lat="45.25584" lon="5.78097">
        <ele>983</ele>
        <time>2016-08-20T08:37:50Z</time>
      </trkpt>
      <trkpt lat="45.25579" lon="5.78094">
        <ele>984</ele>
        <time>2016-08-20T08:37:56Z</time>
      </trkpt>
      <trkpt lat="45.25579" lon="5.78094">
        <ele>984</ele>
        <time>2016-08-20T08:37:57Z</time>
      </trkpt>
      <trkpt lat="45.25577" lon="5.78092">
        <ele>986</ele>
        <time>2016-08-20T08:38:01Z</time>
      </trkpt>
      <trkpt lat="45.25571" lon="5.7808">
        <ele>987</ele>
        <time>2016-08-20T08:38:11Z</time>
      </trkpt>
      <trkpt lat="45.25568" lon="5.78076">
        <ele>988</ele>
        <time>2016-08-20T08:38:14Z</time>
      </trkpt>
      <trkpt lat="45.25563" lon="5.78073">
        <ele>989</ele>
        <time>2016-08-20T08:38:19Z</time>
      </trkpt>
      <trkpt lat="45.25562" lon="5.78072">
        <ele>989</ele>
        <time>2016-08-20T08:38:20Z</time>
      </trkpt>
      <trkpt lat="45.25561" lon="5.78071">
        <ele>989</ele>
        <time>2016-08-20T08:38:21Z</time>
      </trkpt>
      <trkpt lat="45.25561" lon="5.78071">
        <ele>989</ele>
        <time>2016-08-20T08:38:22Z</time>
      </trkpt>
      <trkpt lat="45.2556" lon="5.7807">
        <ele>989</ele>
        <time>2016-08-20T08:38:23Z</time>
      </trkpt>
      <trkpt lat="45.25557" lon="5.78066">
        <ele>990</ele>
        <time>2016-08-20T08:38:28Z</time>
      </trkpt>
      <trkpt lat="45.25556" lon="5.78065">
        <ele>990</ele>
        <time>2016-08-20T08:38:29Z</time>
      </trkpt>
      <trkpt lat="45.25555" lon="5.78065">
        <ele>990</ele>
        <time>2016-08-20T08:38:30Z</time>
      </trkpt>
      <trkpt lat="45.25554" lon="5.78064">
        <ele>990</ele>
        <time>2016-08-20T08:38:31Z</time>
      </trkpt>
      <trkpt lat="45.25553" lon="5.78063">
        <ele>991</ele>
        <time>2016-08-20T08:38:32Z</time>
      </trkpt>
      <trkpt lat="45.25552" lon="5.78062">
        <ele>991</ele>
        <time>2016-08-20T08:38:33Z</time>
      </trkpt>
      <trkpt lat="45.25551" lon="5.78061">
        <ele>991</ele>
        <time>2016-08-20T08:38:34Z</time>
      </trkpt>
      <trkpt lat="45.25547" lon="5.78058">
        <ele>991</ele>
        <time>2016-08-20T08:38:39Z</time>
      </trkpt>
      <trkpt lat="45.25546" lon="5.78056">
        <ele>991</ele>
        <time>2016-08-20T08:38:40Z</time>
      </trkpt>
      <trkpt lat="45.25544" lon="5.78054">
        <ele>991</ele>
        <time>2016-08-20T08:38:41Z</time>
      </trkpt>
      <trkpt lat="45.25538" lon="5.78046">
        <ele>992</ele>
        <time>2016-08-20T08:38:46Z</time>
      </trkpt>
      <trkpt lat="45.25536" lon="5.78045">
        <ele>992</ele>
        <time>2016-08-20T08:38:47Z</time>
      </trkpt>
      <trkpt lat="45.25535" lon="5.78043">
        <ele>992</ele>
        <time>2016-08-20T08:38:48Z</time>
      </trkpt>
      <trkpt lat="45.25531" lon="5.78037">
        <ele>993</ele>
        <time>2016-08-20T08:38:55Z</time>
      </trkpt>
      <trkpt lat="45.2553" lon="5.78036">
        <ele>993</ele>
        <time>2016-08-20T08:38:56Z</time>
      </trkpt>
      <trkpt lat="45.25526" lon="5.78035">
        <ele>993</ele>
        <time>2016-08-20T08:39:00Z</time>
      </trkpt>
      <trkpt lat="45.25525" lon="5.78036">
        <ele>993</ele>
        <time>2016-08-20T08:39:01Z</time>
      </trkpt>
      <trkpt lat="45.25523" lon="5.78038">
        <ele>993</ele>
        <time>2016-08-20T08:39:02Z</time>
      </trkpt>
      <trkpt lat="45.25519" lon="5.78039">
        <ele>995</ele>
        <time>2016-08-20T08:39:07Z</time>
      </trkpt>
      <trkpt lat="45.25516" lon="5.7804">
        <ele>995</ele>
        <time>2016-08-20T08:39:08Z</time>
      </trkpt>
      <trkpt lat="45.25511" lon="5.78045">
        <ele>996</ele>
        <time>2016-08-20T08:39:13Z</time>
      </trkpt>
      <trkpt lat="45.2551" lon="5.78046">
        <ele>996</ele>
        <time>2016-08-20T08:39:14Z</time>
      </trkpt>
      <trkpt lat="45.2551" lon="5.78048">
        <ele>996</ele>
        <time>2016-08-20T08:39:15Z</time>
      </trkpt>
      <trkpt lat="45.2551" lon="5.78048">
        <ele>997</ele>
        <time>2016-08-20T08:39:16Z</time>
      </trkpt>
      <trkpt lat="45.25509" lon="5.7805">
        <ele>997</ele>
        <time>2016-08-20T08:39:17Z</time>
      </trkpt>
      <trkpt lat="45.25508" lon="5.7805">
        <ele>997</ele>
        <time>2016-08-20T08:39:18Z</time>
      </trkpt>
      <trkpt lat="45.25503" lon="5.78049">
        <ele>1000</ele>
        <time>2016-08-20T08:39:31Z</time>
      </trkpt>
      <trkpt lat="45.25501" lon="5.78049">
        <ele>1001</ele>
        <time>2016-08-20T08:39:32Z</time>
      </trkpt>
      <trkpt lat="45.25484" lon="5.78043">
        <ele>1004</ele>
        <time>2016-08-20T08:39:47Z</time>
      </trkpt>
      <trkpt lat="45.25473" lon="5.78038">
        <ele>1005</ele>
        <time>2016-08-20T08:39:52Z</time>
      </trkpt>
      <trkpt lat="45.25453" lon="5.78031">
        <ele>1006</ele>
        <time>2016-08-20T08:40:01Z</time>
      </trkpt>
      <trkpt lat="45.25452" lon="5.78031">
        <ele>1006</ele>
        <time>2016-08-20T08:40:02Z</time>
      </trkpt>
      <trkpt lat="45.2545" lon="5.78031">
        <ele>1006</ele>
        <time>2016-08-20T08:40:03Z</time>
      </trkpt>
      <trkpt lat="45.25449" lon="5.78031">
        <ele>1006</ele>
        <time>2016-08-20T08:40:04Z</time>
      </trkpt>
      <trkpt lat="45.25447" lon="5.78032">
        <ele>1006</ele>
        <time>2016-08-20T08:40:05Z</time>
      </trkpt>
      <trkpt lat="45.25446" lon="5.78032">
        <ele>1006</ele>
        <time>2016-08-20T08:40:06Z</time>
      </trkpt>
      <trkpt lat="45.25442" lon="5.78032">
        <ele>1007</ele>
        <time>2016-08-20T08:40:09Z</time>
      </trkpt>
      <trkpt lat="45.25441" lon="5.78032">
        <ele>1007</ele>
        <time>2016-08-20T08:40:10Z</time>
      </trkpt>
      <trkpt lat="45.25439" lon="5.78032">
        <ele>1007</ele>
        <time>2016-08-20T08:40:11Z</time>
      </trkpt>
      <trkpt lat="45.25438" lon="5.78031">
        <ele>1007</ele>
        <time>2016-08-20T08:40:12Z</time>
      </trkpt>
      <trkpt lat="45.25436" lon="5.78031">
        <ele>1007</ele>
        <time>2016-08-20T08:40:13Z</time>
      </trkpt>
      <trkpt lat="45.25428" lon="5.7803">
        <ele>1009</ele>
        <time>2016-08-20T08:40:21Z</time>
      </trkpt>
      <trkpt lat="45.25426" lon="5.7803">
        <ele>1009</ele>
        <time>2016-08-20T08:40:22Z</time>
      </trkpt>
      <trkpt lat="45.25424" lon="5.78031">
        <ele>1009</ele>
        <time>2016-08-20T08:40:23Z</time>
      </trkpt>
      <trkpt lat="45.25423" lon="5.78032">
        <ele>1009</ele>
        <time>2016-08-20T08:40:24Z</time>
      </trkpt>
      <trkpt lat="45.25422" lon="5.78033">
        <ele>1009</ele>
        <time>2016-08-20T08:40:25Z</time>
      </trkpt>
      <trkpt lat="45.25403" lon="5.78031">
        <ele>1012</ele>
        <time>2016-08-20T08:40:42Z</time>
      </trkpt>
      <trkpt lat="45.25402" lon="5.78031">
        <ele>1012</ele>
        <time>2016-08-20T08:40:43Z</time>
      </trkpt>
      <trkpt lat="45.25391" lon="5.78031">
        <ele>1014</ele>
        <time>2016-08-20T08:40:53Z</time>
      </trkpt>
      <trkpt lat="45.25389" lon="5.78031">
        <ele>1014</ele>
        <time>2016-08-20T08:40:54Z</time>
      </trkpt>
      <trkpt lat="45.25388" lon="5.78032">
        <ele>1014</ele>
        <time>2016-08-20T08:40:55Z</time>
      </trkpt>
      <trkpt lat="45.25386" lon="5.78033">
        <ele>1014</ele>
        <time>2016-08-20T08:40:56Z</time>
      </trkpt>
      <trkpt lat="45.2537" lon="5.78032">
        <ele>1017</ele>
        <time>2016-08-20T08:41:09Z</time>
      </trkpt>
      <trkpt lat="45.25367" lon="5.78034">
        <ele>1018</ele>
        <time>2016-08-20T08:41:12Z</time>
      </trkpt>
      <trkpt lat="45.25364" lon="5.78035">
        <ele>1018</ele>
        <time>2016-08-20T08:41:14Z</time>
      </trkpt>
      <trkpt lat="45.25363" lon="5.78035">
        <ele>1018</ele>
        <time>2016-08-20T08:41:15Z</time>
      </trkpt>
      <trkpt lat="45.25358" lon="5.78035">
        <ele>1019</ele>
        <time>2016-08-20T08:41:20Z</time>
      </trkpt>
      <trkpt lat="45.25357" lon="5.78034">
        <ele>1019</ele>
        <time>2016-08-20T08:41:21Z</time>
      </trkpt>
      <trkpt lat="45.25355" lon="5.78034">
        <ele>1020</ele>
        <time>2016-08-20T08:41:22Z</time>
      </trkpt>
      <trkpt lat="45.25354" lon="5.78033">
        <ele>1020</ele>
        <time>2016-08-20T08:41:23Z</time>
      </trkpt>
      <trkpt lat="45.25352" lon="5.78033">
        <ele>1020</ele>
        <time>2016-08-20T08:41:24Z</time>
      </trkpt>
      <trkpt lat="45.25351" lon="5.78033">
        <ele>1020</ele>
        <time>2016-08-20T08:41:25Z</time>
      </trkpt>
      <trkpt lat="45.25336" lon="5.78027">
        <ele>1023</ele>
        <time>2016-08-20T08:41:38Z</time>
      </trkpt>
      <trkpt lat="45.25331" lon="5.78026">
        <ele>1024</ele>
        <time>2016-08-20T08:41:45Z</time>
      </trkpt>
      <trkpt lat="45.25329" lon="5.78026">
        <ele>1025</ele>
        <time>2016-08-20T08:41:46Z</time>
      </trkpt>
      <trkpt lat="45.25328" lon="5.78025">
        <ele>1025</ele>
        <time>2016-08-20T08:41:47Z</time>
      </trkpt>
      <trkpt lat="45.25324" lon="5.7802">
        <ele>1027</ele>
        <time>2016-08-20T08:41:57Z</time>
      </trkpt>
      <trkpt lat="45.25319" lon="5.78018">
        <ele>1028</ele>
        <time>2016-08-20T08:42:09Z</time>
      </trkpt>
      <trkpt lat="45.25318" lon="5.78018">
        <ele>1029</ele>
        <time>2016-08-20T08:42:11Z</time>
      </trkpt>
      <trkpt lat="45.25317" lon="5.78017">
        <ele>1029</ele>
        <time>2016-08-20T08:42:12Z</time>
      </trkpt>
      <trkpt lat="45.25316" lon="5.78014">
        <ele>1030</ele>
        <time>2016-08-20T08:42:16Z</time>
      </trkpt>
      <trkpt lat="45.25317" lon="5.78011">
        <ele>1031</ele>
        <time>2016-08-20T08:42:18Z</time>
      </trkpt>
      <trkpt lat="45.25318" lon="5.78012">
        <ele>1031</ele>
        <time>2016-08-20T08:42:19Z</time>
      </trkpt>
      <trkpt lat="45.25319" lon="5.78011">
        <ele>1030</ele>
        <time>2016-08-20T08:42:20Z</time>
      </trkpt>
      <trkpt lat="45.25325" lon="5.77992">
        <ele>1030</ele>
        <time>2016-08-20T08:42:30Z</time>
      </trkpt>
      <trkpt lat="45.25326" lon="5.77992">
        <ele>1030</ele>
        <time>2016-08-20T08:42:31Z</time>
      </trkpt>
      <trkpt lat="45.25327" lon="5.77982">
        <ele>1031</ele>
        <time>2016-08-20T08:42:39Z</time>
      </trkpt>
      <trkpt lat="45.25327" lon="5.7798">
        <ele>1030</ele>
        <time>2016-08-20T08:42:40Z</time>
      </trkpt>
      <trkpt lat="45.25327" lon="5.77978">
        <ele>1031</ele>
        <time>2016-08-20T08:42:41Z</time>
      </trkpt>
      <trkpt lat="45.25326" lon="5.77976">
        <ele>1031</ele>
        <time>2016-08-20T08:42:42Z</time>
      </trkpt>
      <trkpt lat="45.25327" lon="5.77975">
        <ele>1032</ele>
        <time>2016-08-20T08:42:43Z</time>
      </trkpt>
      <trkpt lat="45.25327" lon="5.77973">
        <ele>1032</ele>
        <time>2016-08-20T08:42:44Z</time>
      </trkpt>
      <trkpt lat="45.25326" lon="5.7797">
        <ele>1031</ele>
        <time>2016-08-20T08:42:46Z</time>
      </trkpt>
      <trkpt lat="45.25326" lon="5.77968">
        <ele>1031</ele>
        <time>2016-08-20T08:42:47Z</time>
      </trkpt>
      <trkpt lat="45.25315" lon="5.7794">
        <ele>1033</ele>
        <time>2016-08-20T08:43:01Z</time>
      </trkpt>
      <trkpt lat="45.25304" lon="5.7791">
        <ele>1034</ele>
        <time>2016-08-20T08:43:13Z</time>
      </trkpt>
      <trkpt lat="45.25296" lon="5.77879">
        <ele>1035</ele>
        <time>2016-08-20T08:43:24Z</time>
      </trkpt>
      <trkpt lat="45.25295" lon="5.77845">
        <ele>1032</ele>
        <time>2016-08-20T08:43:37Z</time>
      </trkpt>
      <trkpt lat="45.25298" lon="5.77822">
        <ele>1029</ele>
        <time>2016-08-20T08:43:45Z</time>
      </trkpt>
      <trkpt lat="45.25299" lon="5.77819">
        <ele>1028</ele>
        <time>2016-08-20T08:43:46Z</time>
      </trkpt>
      <trkpt lat="45.25297" lon="5.77798">
        <ele>1025</ele>
        <time>2016-08-20T08:43:58Z</time>
      </trkpt>
      <trkpt lat="45.25297" lon="5.77796">
        <ele>1025</ele>
        <time>2016-08-20T08:43:59Z</time>
      </trkpt>
      <trkpt lat="45.25296" lon="5.77794">
        <ele>1025</ele>
        <time>2016-08-20T08:44:00Z</time>
      </trkpt>
      <trkpt lat="45.25295" lon="5.77791">
        <ele>1025</ele>
        <time>2016-08-20T08:44:01Z</time>
      </trkpt>
      <trkpt lat="45.25295" lon="5.77788">
        <ele>1024</ele>
        <time>2016-08-20T08:44:02Z</time>
      </trkpt>
      <trkpt lat="45.25295" lon="5.77784">
        <ele>1024</ele>
        <time>2016-08-20T08:44:03Z</time>
      </trkpt>
      <trkpt lat="45.25294" lon="5.77778">
        <ele>1024</ele>
        <time>2016-08-20T08:44:04Z</time>
      </trkpt>
      <trkpt lat="45.25293" lon="5.77773">
        <ele>1024</ele>
        <time>2016-08-20T08:44:05Z</time>
      </trkpt>
      <trkpt lat="45.25292" lon="5.77768">
        <ele>1024</ele>
        <time>2016-08-20T08:44:06Z</time>
      </trkpt>
      <trkpt lat="45.25287" lon="5.77737">
        <ele>1024</ele>
        <time>2016-08-20T08:44:15Z</time>
      </trkpt>
      <trkpt lat="45.25276" lon="5.77714">
        <ele>1023</ele>
        <time>2016-08-20T08:44:24Z</time>
      </trkpt>
      <trkpt lat="45.25272" lon="5.7771">
        <ele>1022</ele>
        <time>2016-08-20T08:44:31Z</time>
      </trkpt>
      <trkpt lat="45.25271" lon="5.77709">
        <ele>1022</ele>
        <time>2016-08-20T08:44:32Z</time>
      </trkpt>
      <trkpt lat="45.2527" lon="5.77707">
        <ele>1022</ele>
        <time>2016-08-20T08:44:33Z</time>
      </trkpt>
      <trkpt lat="45.25269" lon="5.77705">
        <ele>1022</ele>
        <time>2016-08-20T08:44:34Z</time>
      </trkpt>
      <trkpt lat="45.25267" lon="5.77702">
        <ele>1022</ele>
        <time>2016-08-20T08:44:35Z</time>
      </trkpt>
      <trkpt lat="45.25253" lon="5.77686">
        <ele>1021</ele>
        <time>2016-08-20T08:44:45Z</time>
      </trkpt>
      <trkpt lat="45.25245" lon="5.77677">
        <ele>1019</ele>
        <time>2016-08-20T08:44:51Z</time>
      </trkpt>
      <trkpt lat="45.25237" lon="5.77672">
        <ele>1017</ele>
        <time>2016-08-20T08:44:56Z</time>
      </trkpt>
      <trkpt lat="45.25232" lon="5.77667">
        <ele>1014</ele>
        <time>2016-08-20T08:45:00Z</time>
      </trkpt>
      <trkpt lat="45.25228" lon="5.77662">
        <ele>1012</ele>
        <time>2016-08-20T08:45:03Z</time>
      </trkpt>
      <trkpt lat="45.25223" lon="5.77649">
        <ele>1009</ele>
        <time>2016-08-20T08:45:10Z</time>
      </trkpt>
      <trkpt lat="45.25219" lon="5.77641">
        <ele>1006</ele>
        <time>2016-08-20T08:45:15Z</time>
      </trkpt>
      <trkpt lat="45.25209" lon="5.77627">
        <ele>1003</ele>
        <time>2016-08-20T08:45:23Z</time>
      </trkpt>
      <trkpt lat="45.25199" lon="5.77602">
        <ele>1003</ele>
        <time>2016-08-20T08:45:33Z</time>
      </trkpt>
      <trkpt lat="45.25198" lon="5.77595">
        <ele>998</ele>
        <time>2016-08-20T08:45:36Z</time>
      </trkpt>
      <trkpt lat="45.25197" lon="5.77586">
        <ele>994</ele>
        <time>2016-08-20T08:45:40Z</time>
      </trkpt>
      <trkpt lat="45.25196" lon="5.77582">
        <ele>994</ele>
        <time>2016-08-20T08:45:42Z</time>
      </trkpt>
      <trkpt lat="45.25198" lon="5.77554">
        <ele>990</ele>
        <time>2016-08-20T08:45:53Z</time>
      </trkpt>
      <trkpt lat="45.25197" lon="5.77543">
        <ele>987</ele>
        <time>2016-08-20T08:45:57Z</time>
      </trkpt>
      <trkpt lat="45.25188" lon="5.77514">
        <ele>984</ele>
        <time>2016-08-20T08:46:05Z</time>
      </trkpt>
      <trkpt lat="45.25179" lon="5.77489">
        <ele>982</ele>
        <time>2016-08-20T08:46:12Z</time>
      </trkpt>
      <trkpt lat="45.25169" lon="5.77466">
        <ele>980</ele>
        <time>2016-08-20T08:46:19Z</time>
      </trkpt>
      <trkpt lat="45.25159" lon="5.77442">
        <ele>980</ele>
        <time>2016-08-20T08:46:26Z</time>
      </trkpt>
      <trkpt lat="45.25153" lon="5.77417">
        <ele>978</ele>
        <time>2016-08-20T08:46:33Z</time>
      </trkpt>
      <trkpt lat="45.2515" lon="5.77388">
        <ele>976</ele>
        <time>2016-08-20T08:46:41Z</time>
      </trkpt>
      <trkpt lat="45.25149" lon="5.7736">
        <ele>975</ele>
        <time>2016-08-20T08:46:49Z</time>
      </trkpt>
      <trkpt lat="45.25149" lon="5.77333">
        <ele>975</ele>
        <time>2016-08-20T08:46:57Z</time>
      </trkpt>
      <trkpt lat="45.25147" lon="5.77309">
        <ele>975</ele>
        <time>2016-08-20T08:47:05Z</time>
      </trkpt>
      <trkpt lat="45.25146" lon="5.773">
        <ele>974</ele>
        <time>2016-08-20T08:47:08Z</time>
      </trkpt>
      <trkpt lat="45.25145" lon="5.77285">
        <ele>974</ele>
        <time>2016-08-20T08:47:13Z</time>
      </trkpt>
      <trkpt lat="45.25137" lon="5.77257">
        <ele>973</ele>
        <time>2016-08-20T08:47:21Z</time>
      </trkpt>
      <trkpt lat="45.25125" lon="5.77234">
        <ele>973</ele>
        <time>2016-08-20T08:47:29Z</time>
      </trkpt>
      <trkpt lat="45.2511" lon="5.77214">
        <ele>972</ele>
        <time>2016-08-20T08:47:37Z</time>
      </trkpt>
      <trkpt lat="45.25096" lon="5.77197">
        <ele>972</ele>
        <time>2016-08-20T08:47:44Z</time>
      </trkpt>
      <trkpt lat="45.2509" lon="5.77191">
        <ele>974</ele>
        <time>2016-08-20T08:47:47Z</time>
      </trkpt>
      <trkpt lat="45.25084" lon="5.77183">
        <ele>972</ele>
        <time>2016-08-20T08:47:50Z</time>
      </trkpt>
      <trkpt lat="45.2507" lon="5.77162">
        <ele>973</ele>
        <time>2016-08-20T08:47:58Z</time>
      </trkpt>
      <trkpt lat="45.25054" lon="5.77144">
        <ele>973</ele>
        <time>2016-08-20T08:48:05Z</time>
      </trkpt>
      <trkpt lat="45.25037" lon="5.77129">
        <ele>972</ele>
        <time>2016-08-20T08:48:13Z</time>
      </trkpt>
      <trkpt lat="45.25024" lon="5.77106">
        <ele>973</ele>
        <time>2016-08-20T08:48:21Z</time>
      </trkpt>
      <trkpt lat="45.25015" lon="5.77079">
        <ele>973</ele>
        <time>2016-08-20T08:48:29Z</time>
      </trkpt>
      <trkpt lat="45.25005" lon="5.77054">
        <ele>972</ele>
        <time>2016-08-20T08:48:36Z</time>
      </trkpt>
      <trkpt lat="45.24995" lon="5.77031">
        <ele>972</ele>
        <time>2016-08-20T08:48:43Z</time>
      </trkpt>
      <trkpt lat="45.24986" lon="5.77003">
        <ele>971</ele>
        <time>2016-08-20T08:48:51Z</time>
      </trkpt>
      <trkpt lat="45.24975" lon="5.76983">
        <ele>970</ele>
        <time>2016-08-20T08:48:58Z</time>
      </trkpt>
      <trkpt lat="45.24961" lon="5.76961">
        <ele>971</ele>
        <time>2016-08-20T08:49:06Z</time>
      </trkpt>
      <trkpt lat="45.24958" lon="5.76955">
        <ele>971</ele>
        <time>2016-08-20T08:49:08Z</time>
      </trkpt>
      <trkpt lat="45.24955" lon="5.7695">
        <ele>970</ele>
        <time>2016-08-20T08:49:10Z</time>
      </trkpt>
      <trkpt lat="45.24954" lon="5.76945">
        <ele>970</ele>
        <time>2016-08-20T08:49:14Z</time>
      </trkpt>
      <trkpt lat="45.24953" lon="5.76945">
        <ele>970</ele>
        <time>2016-08-20T08:49:15Z</time>
      </trkpt>
      <trkpt lat="45.24953" lon="5.76945">
        <ele>971</ele>
        <time>2016-08-20T08:49:16Z</time>
      </trkpt>
      <trkpt lat="45.24952" lon="5.76946">
        <ele>971</ele>
        <time>2016-08-20T08:49:17Z</time>
      </trkpt>
      <trkpt lat="45.24952" lon="5.76946">
        <ele>971</ele>
        <time>2016-08-20T08:49:18Z</time>
      </trkpt>
      <trkpt lat="45.24951" lon="5.76947">
        <ele>971</ele>
        <time>2016-08-20T08:49:19Z</time>
      </trkpt>
      <trkpt lat="45.2495" lon="5.76948">
        <ele>971</ele>
        <time>2016-08-20T08:49:20Z</time>
      </trkpt>
      <trkpt lat="45.24949" lon="5.76948">
        <ele>971</ele>
        <time>2016-08-20T08:49:21Z</time>
      </trkpt>
      <trkpt lat="45.24949" lon="5.76949">
        <ele>971</ele>
        <time>2016-08-20T08:49:22Z</time>
      </trkpt>
      <trkpt lat="45.24946" lon="5.76952">
        <ele>972</ele>
        <time>2016-08-20T08:49:26Z</time>
      </trkpt>
      <trkpt lat="45.24945" lon="5.76953">
        <ele>972</ele>
        <time>2016-08-20T08:49:27Z</time>
      </trkpt>
      <trkpt lat="45.24944" lon="5.76953">
        <ele>972</ele>
        <time>2016-08-20T08:49:28Z</time>
      </trkpt>
      <trkpt lat="45.24942" lon="5.76954">
        <ele>972</ele>
        <time>2016-08-20T08:49:31Z</time>
      </trkpt>
      <trkpt lat="45.24937" lon="5.76957">
        <ele>973</ele>
        <time>2016-08-20T08:49:35Z</time>
      </trkpt>
      <trkpt lat="45.24935" lon="5.76957">
        <ele>973</ele>
        <time>2016-08-20T08:49:36Z</time>
      </trkpt>
      <trkpt lat="45.24934" lon="5.76956">
        <ele>973</ele>
        <time>2016-08-20T08:49:37Z</time>
      </trkpt>
      <trkpt lat="45.24933" lon="5.76954">
        <ele>973</ele>
        <time>2016-08-20T08:49:38Z</time>
      </trkpt>
      <trkpt lat="45.24932" lon="5.76954">
        <ele>973</ele>
        <time>2016-08-20T08:49:39Z</time>
      </trkpt>
      <trkpt lat="45.2493" lon="5.76949">
        <ele>973</ele>
        <time>2016-08-20T08:49:43Z</time>
      </trkpt>
      <trkpt lat="45.2493" lon="5.76948">
        <ele>973</ele>
        <time>2016-08-20T08:49:44Z</time>
      </trkpt>
      <trkpt lat="45.2493" lon="5.76947">
        <ele>973</ele>
        <time>2016-08-20T08:49:45Z</time>
      </trkpt>
      <trkpt lat="45.24929" lon="5.76945">
        <ele>973</ele>
        <time>2016-08-20T08:49:46Z</time>
      </trkpt>
      <trkpt lat="45.24929" lon="5.76944">
        <ele>973</ele>
        <time>2016-08-20T08:49:47Z</time>
      </trkpt>
      <trkpt lat="45.24928" lon="5.76943">
        <ele>973</ele>
        <time>2016-08-20T08:49:48Z</time>
      </trkpt>
      <trkpt lat="45.24923" lon="5.76924">
        <ele>974</ele>
        <time>2016-08-20T08:50:00Z</time>
      </trkpt>
      <trkpt lat="45.24923" lon="5.76922">
        <ele>974</ele>
        <time>2016-08-20T08:50:01Z</time>
      </trkpt>
      <trkpt lat="45.24922" lon="5.76921">
        <ele>974</ele>
        <time>2016-08-20T08:50:02Z</time>
      </trkpt>
      <trkpt lat="45.24921" lon="5.7692">
        <ele>974</ele>
        <time>2016-08-20T08:50:03Z</time>
      </trkpt>
      <trkpt lat="45.2492" lon="5.76918">
        <ele>974</ele>
        <time>2016-08-20T08:50:04Z</time>
      </trkpt>
      <trkpt lat="45.2492" lon="5.76917">
        <ele>974</ele>
        <time>2016-08-20T08:50:05Z</time>
      </trkpt>
      <trkpt lat="45.24919" lon="5.76916">
        <ele>974</ele>
        <time>2016-08-20T08:50:06Z</time>
      </trkpt>
      <trkpt lat="45.24918" lon="5.76915">
        <ele>974</ele>
        <time>2016-08-20T08:50:07Z</time>
      </trkpt>
      <trkpt lat="45.24917" lon="5.76912">
        <ele>974</ele>
        <time>2016-08-20T08:50:09Z</time>
      </trkpt>
      <trkpt lat="45.24904" lon="5.76895">
        <ele>977</ele>
        <time>2016-08-20T08:50:25Z</time>
      </trkpt>
      <trkpt lat="45.24889" lon="5.76894">
        <ele>980</ele>
        <time>2016-08-20T08:50:43Z</time>
      </trkpt>
      <trkpt lat="45.24867" lon="5.76898">
        <ele>983</ele>
        <time>2016-08-20T08:51:08Z</time>
      </trkpt>
      <trkpt lat="45.24865" lon="5.76898">
        <ele>984</ele>
        <time>2016-08-20T08:51:09Z</time>
      </trkpt>
      <trkpt lat="45.24861" lon="5.76898">
        <ele>985</ele>
        <time>2016-08-20T08:51:13Z</time>
      </trkpt>
      <trkpt lat="45.2486" lon="5.76898">
        <ele>985</ele>
        <time>2016-08-20T08:51:14Z</time>
      </trkpt>
      <trkpt lat="45.24859" lon="5.76898">
        <ele>985</ele>
        <time>2016-08-20T08:51:15Z</time>
      </trkpt>
      <trkpt lat="45.24858" lon="5.76899">
        <ele>985</ele>
        <time>2016-08-20T08:51:16Z</time>
      </trkpt>
      <trkpt lat="45.24851" lon="5.76905">
        <ele>987</ele>
        <time>2016-08-20T08:51:26Z</time>
      </trkpt>
      <trkpt lat="45.24834" lon="5.76919">
        <ele>990</ele>
        <time>2016-08-20T08:51:50Z</time>
      </trkpt>
      <trkpt lat="45.24833" lon="5.76921">
        <ele>990</ele>
        <time>2016-08-20T08:51:52Z</time>
      </trkpt>
      <trkpt lat="45.24832" lon="5.76921">
        <ele>990</ele>
        <time>2016-08-20T08:51:53Z</time>
      </trkpt>
      <trkpt lat="45.24831" lon="5.76921">
        <ele>991</ele>
        <time>2016-08-20T08:51:54Z</time>
      </trkpt>
      <trkpt lat="45.2483" lon="5.76922">
        <ele>991</ele>
        <time>2016-08-20T08:51:55Z</time>
      </trkpt>
      <trkpt lat="45.24829" lon="5.76922">
        <ele>991</ele>
        <time>2016-08-20T08:51:56Z</time>
      </trkpt>
      <trkpt lat="45.24812" lon="5.7695">
        <ele>993</ele>
        <time>2016-08-20T08:52:11Z</time>
      </trkpt>
      <trkpt lat="45.24809" lon="5.76955">
        <ele>993</ele>
        <time>2016-08-20T08:52:15Z</time>
      </trkpt>
      <trkpt lat="45.24807" lon="5.76956">
        <ele>993</ele>
        <time>2016-08-20T08:52:16Z</time>
      </trkpt>
      <trkpt lat="45.24805" lon="5.76957">
        <ele>993</ele>
        <time>2016-08-20T08:52:17Z</time>
      </trkpt>
      <trkpt lat="45.24803" lon="5.76959">
        <ele>994</ele>
        <time>2016-08-20T08:52:18Z</time>
      </trkpt>
      <trkpt lat="45.24802" lon="5.76959">
        <ele>994</ele>
        <time>2016-08-20T08:52:19Z</time>
      </trkpt>
      <trkpt lat="45.248" lon="5.7696">
        <ele>994</ele>
        <time>2016-08-20T08:52:20Z</time>
      </trkpt>
      <trkpt lat="45.24799" lon="5.76961">
        <ele>994</ele>
        <time>2016-08-20T08:52:21Z</time>
      </trkpt>
      <trkpt lat="45.24791" lon="5.76968">
        <ele>995</ele>
        <time>2016-08-20T08:52:27Z</time>
      </trkpt>
      <trkpt lat="45.2479" lon="5.76969">
        <ele>995</ele>
        <time>2016-08-20T08:52:28Z</time>
      </trkpt>
      <trkpt lat="45.24788" lon="5.76969">
        <ele>995</ele>
        <time>2016-08-20T08:52:29Z</time>
      </trkpt>
      <trkpt lat="45.24787" lon="5.7697">
        <ele>995</ele>
        <time>2016-08-20T08:52:30Z</time>
      </trkpt>
      <trkpt lat="45.24786" lon="5.76972">
        <ele>995</ele>
        <time>2016-08-20T08:52:31Z</time>
      </trkpt>
      <trkpt lat="45.24777" lon="5.76979">
        <ele>992</ele>
        <time>2016-08-20T08:52:39Z</time>
      </trkpt>
      <trkpt lat="45.24773" lon="5.76982">
        <ele>993</ele>
        <time>2016-08-20T08:52:43Z</time>
      </trkpt>
      <trkpt lat="45.24771" lon="5.76983">
        <ele>993</ele>
        <time>2016-08-20T08:52:44Z</time>
      </trkpt>
      <trkpt lat="45.2477" lon="5.76983">
        <ele>993</ele>
        <time>2016-08-20T08:52:45Z</time>
      </trkpt>
      <trkpt lat="45.24768" lon="5.76985">
        <ele>993</ele>
        <time>2016-08-20T08:52:46Z</time>
      </trkpt>
      <trkpt lat="45.24766" lon="5.76986">
        <ele>994</ele>
        <time>2016-08-20T08:52:47Z</time>
      </trkpt>
      <trkpt lat="45.24754" lon="5.76991">
        <ele>995</ele>
        <time>2016-08-20T08:52:56Z</time>
      </trkpt>
      <trkpt lat="45.24751" lon="5.76995">
        <ele>995</ele>
        <time>2016-08-20T08:52:59Z</time>
      </trkpt>
      <trkpt lat="45.2475" lon="5.76996">
        <ele>995</ele>
        <time>2016-08-20T08:53:00Z</time>
      </trkpt>
      <trkpt lat="45.24749" lon="5.76998">
        <ele>995</ele>
        <time>2016-08-20T08:53:01Z</time>
      </trkpt>
      <trkpt lat="45.24748" lon="5.76999">
        <ele>996</ele>
        <time>2016-08-20T08:53:02Z</time>
      </trkpt>
      <trkpt lat="45.24744" lon="5.77005">
        <ele>997</ele>
        <time>2016-08-20T08:53:08Z</time>
      </trkpt>
      <trkpt lat="45.2474" lon="5.77011">
        <ele>998</ele>
        <time>2016-08-20T08:53:13Z</time>
      </trkpt>
      <trkpt lat="45.24712" lon="5.7703">
        <ele>1001</ele>
        <time>2016-08-20T08:53:33Z</time>
      </trkpt>
      <trkpt lat="45.24693" lon="5.77034">
        <ele>1003</ele>
        <time>2016-08-20T08:53:49Z</time>
      </trkpt>
      <trkpt lat="45.24691" lon="5.77036">
        <ele>1003</ele>
        <time>2016-08-20T08:53:51Z</time>
      </trkpt>
      <trkpt lat="45.2469" lon="5.77037">
        <ele>1003</ele>
        <time>2016-08-20T08:53:52Z</time>
      </trkpt>
      <trkpt lat="45.24689" lon="5.77038">
        <ele>1003</ele>
        <time>2016-08-20T08:53:53Z</time>
      </trkpt>
      <trkpt lat="45.24672" lon="5.77048">
        <ele>1006</ele>
        <time>2016-08-20T08:54:12Z</time>
      </trkpt>
      <trkpt lat="45.24665" lon="5.77049">
        <ele>1007</ele>
        <time>2016-08-20T08:54:16Z</time>
      </trkpt>
      <trkpt lat="45.24662" lon="5.77051">
        <ele>1007</ele>
        <time>2016-08-20T08:54:17Z</time>
      </trkpt>
      <trkpt lat="45.24661" lon="5.77052">
        <ele>1007</ele>
        <time>2016-08-20T08:54:18Z</time>
      </trkpt>
      <trkpt lat="45.24651" lon="5.77065">
        <ele>1008</ele>
        <time>2016-08-20T08:54:24Z</time>
      </trkpt>
      <trkpt lat="45.24649" lon="5.77066">
        <ele>1008</ele>
        <time>2016-08-20T08:54:25Z</time>
      </trkpt>
      <trkpt lat="45.24647" lon="5.77068">
        <ele>1008</ele>
        <time>2016-08-20T08:54:26Z</time>
      </trkpt>
      <trkpt lat="45.24646" lon="5.7707">
        <ele>1008</ele>
        <time>2016-08-20T08:54:27Z</time>
      </trkpt>
      <trkpt lat="45.24645" lon="5.77072">
        <ele>1008</ele>
        <time>2016-08-20T08:54:28Z</time>
      </trkpt>
      <trkpt lat="45.24644" lon="5.77074">
        <ele>1009</ele>
        <time>2016-08-20T08:54:29Z</time>
      </trkpt>
      <trkpt lat="45.24631" lon="5.77084">
        <ele>1011</ele>
        <time>2016-08-20T08:54:40Z</time>
      </trkpt>
      <trkpt lat="45.24625" lon="5.77086">
        <ele>1012</ele>
        <time>2016-08-20T08:54:45Z</time>
      </trkpt>
      <trkpt lat="45.24605" lon="5.77092">
        <ele>1015</ele>
        <time>2016-08-20T08:55:05Z</time>
      </trkpt>
      <trkpt lat="45.24602" lon="5.77094">
        <ele>1016</ele>
        <time>2016-08-20T08:55:07Z</time>
      </trkpt>
      <trkpt lat="45.246" lon="5.77094">
        <ele>1016</ele>
        <time>2016-08-20T08:55:08Z</time>
      </trkpt>
      <trkpt lat="45.246" lon="5.77095">
        <ele>1016</ele>
        <time>2016-08-20T08:55:09Z</time>
      </trkpt>
      <trkpt lat="45.2459" lon="5.77103">
        <ele>1020</ele>
        <time>2016-08-20T08:55:22Z</time>
      </trkpt>
      <trkpt lat="45.24581" lon="5.77111">
        <ele>1021</ele>
        <time>2016-08-20T08:55:32Z</time>
      </trkpt>
      <trkpt lat="45.24563" lon="5.77118">
        <ele>1025</ele>
        <time>2016-08-20T08:55:45Z</time>
      </trkpt>
      <trkpt lat="45.24555" lon="5.77118">
        <ele>1026</ele>
        <time>2016-08-20T08:55:50Z</time>
      </trkpt>
      <trkpt lat="45.24554" lon="5.77117">
        <ele>1026</ele>
        <time>2016-08-20T08:55:51Z</time>
      </trkpt>
      <trkpt lat="45.24542" lon="5.77119">
        <ele>1029</ele>
        <time>2016-08-20T08:56:11Z</time>
      </trkpt>
      <trkpt lat="45.24539" lon="5.77122">
        <ele>1030</ele>
        <time>2016-08-20T08:56:14Z</time>
      </trkpt>
      <trkpt lat="45.24538" lon="5.77124">
        <ele>1031</ele>
        <time>2016-08-20T08:56:16Z</time>
      </trkpt>
      <trkpt lat="45.24537" lon="5.77125">
        <ele>1031</ele>
        <time>2016-08-20T08:56:17Z</time>
      </trkpt>
      <trkpt lat="45.24526" lon="5.77138">
        <ele>1033</ele>
        <time>2016-08-20T08:56:30Z</time>
      </trkpt>
      <trkpt lat="45.2452" lon="5.77145">
        <ele>1034</ele>
        <time>2016-08-20T08:56:38Z</time>
      </trkpt>
      <trkpt lat="45.24513" lon="5.77148">
        <ele>1036</ele>
        <time>2016-08-20T08:56:45Z</time>
      </trkpt>
      <trkpt lat="45.24511" lon="5.77149">
        <ele>1036</ele>
        <time>2016-08-20T08:56:46Z</time>
      </trkpt>
      <trkpt lat="45.24486" lon="5.77156">
        <ele>1039</ele>
        <time>2016-08-20T08:57:03Z</time>
      </trkpt>
      <trkpt lat="45.24485" lon="5.77158">
        <ele>1039</ele>
        <time>2016-08-20T08:57:05Z</time>
      </trkpt>
      <trkpt lat="45.24479" lon="5.77161">
        <ele>1040</ele>
        <time>2016-08-20T08:57:10Z</time>
      </trkpt>
      <trkpt lat="45.24478" lon="5.77161">
        <ele>1040</ele>
        <time>2016-08-20T08:57:11Z</time>
      </trkpt>
      <trkpt lat="45.24476" lon="5.77161">
        <ele>1041</ele>
        <time>2016-08-20T08:57:12Z</time>
      </trkpt>
      <trkpt lat="45.24475" lon="5.77161">
        <ele>1041</ele>
        <time>2016-08-20T08:57:13Z</time>
      </trkpt>
      <trkpt lat="45.24473" lon="5.77161">
        <ele>1042</ele>
        <time>2016-08-20T08:57:14Z</time>
      </trkpt>
      <trkpt lat="45.24472" lon="5.77161">
        <ele>1042</ele>
        <time>2016-08-20T08:57:15Z</time>
      </trkpt>
      <trkpt lat="45.24471" lon="5.77161">
        <ele>1042</ele>
        <time>2016-08-20T08:57:16Z</time>
      </trkpt>
      <trkpt lat="45.24469" lon="5.77161">
        <ele>1042</ele>
        <time>2016-08-20T08:57:17Z</time>
      </trkpt>
      <trkpt lat="45.24468" lon="5.77162">
        <ele>1042</ele>
        <time>2016-08-20T08:57:18Z</time>
      </trkpt>
      <trkpt lat="45.24466" lon="5.77162">
        <ele>1042</ele>
        <time>2016-08-20T08:57:19Z</time>
      </trkpt>
      <trkpt lat="45.24464" lon="5.77162">
        <ele>1043</ele>
        <time>2016-08-20T08:57:20Z</time>
      </trkpt>
      <trkpt lat="45.24463" lon="5.77162">
        <ele>1043</ele>
        <time>2016-08-20T08:57:21Z</time>
      </trkpt>
      <trkpt lat="45.24443" lon="5.77157">
        <ele>1046</ele>
        <time>2016-08-20T08:57:37Z</time>
      </trkpt>
      <trkpt lat="45.24441" lon="5.77155">
        <ele>1047</ele>
        <time>2016-08-20T08:57:40Z</time>
      </trkpt>
      <trkpt lat="45.24438" lon="5.77153">
        <ele>1048</ele>
        <time>2016-08-20T08:57:44Z</time>
      </trkpt>
      <trkpt lat="45.24437" lon="5.77153">
        <ele>1048</ele>
        <time>2016-08-20T08:57:45Z</time>
      </trkpt>
      <trkpt lat="45.24426" lon="5.77142">
        <ele>1051</ele>
        <time>2016-08-20T08:57:57Z</time>
      </trkpt>
      <trkpt lat="45.2441" lon="5.77129">
        <ele>1053</ele>
        <time>2016-08-20T08:58:16Z</time>
      </trkpt>
      <trkpt lat="45.24398" lon="5.77126">
        <ele>1056</ele>
        <time>2016-08-20T08:58:34Z</time>
      </trkpt>
      <trkpt lat="45.24396" lon="5.77125">
        <ele>1057</ele>
        <time>2016-08-20T08:58:37Z</time>
      </trkpt>
      <trkpt lat="45.24394" lon="5.77125">
        <ele>1057</ele>
        <time>2016-08-20T08:58:38Z</time>
      </trkpt>
      <trkpt lat="45.24393" lon="5.77125">
        <ele>1057</ele>
        <time>2016-08-20T08:58:39Z</time>
      </trkpt>
      <trkpt lat="45.24389" lon="5.77125">
        <ele>1058</ele>
        <time>2016-08-20T08:58:42Z</time>
      </trkpt>
      <trkpt lat="45.24388" lon="5.77125">
        <ele>1058</ele>
        <time>2016-08-20T08:58:43Z</time>
      </trkpt>
      <trkpt lat="45.24386" lon="5.77122">
        <ele>1059</ele>
        <time>2016-08-20T08:58:45Z</time>
      </trkpt>
      <trkpt lat="45.24385" lon="5.77122">
        <ele>1060</ele>
        <time>2016-08-20T08:58:46Z</time>
      </trkpt>
      <trkpt lat="45.24379" lon="5.77118">
        <ele>1061</ele>
        <time>2016-08-20T08:58:51Z</time>
      </trkpt>
      <trkpt lat="45.24373" lon="5.77116">
        <ele>1062</ele>
        <time>2016-08-20T08:58:58Z</time>
      </trkpt>
      <trkpt lat="45.24372" lon="5.77115">
        <ele>1062</ele>
        <time>2016-08-20T08:58:59Z</time>
      </trkpt>
      <trkpt lat="45.24371" lon="5.77114">
        <ele>1062</ele>
        <time>2016-08-20T08:59:00Z</time>
      </trkpt>
      <trkpt lat="45.24368" lon="5.77114">
        <ele>1064</ele>
        <time>2016-08-20T08:59:04Z</time>
      </trkpt>
      <trkpt lat="45.24365" lon="5.77109">
        <ele>1064</ele>
        <time>2016-08-20T08:59:09Z</time>
      </trkpt>
      <trkpt lat="45.24364" lon="5.77108">
        <ele>1065</ele>
        <time>2016-08-20T08:59:11Z</time>
      </trkpt>
      <trkpt lat="45.24363" lon="5.77107">
        <ele>1065</ele>
        <time>2016-08-20T08:59:12Z</time>
      </trkpt>
      <trkpt lat="45.24362" lon="5.77107">
        <ele>1065</ele>
        <time>2016-08-20T08:59:13Z</time>
      </trkpt>
      <trkpt lat="45.24355" lon="5.77112">
        <ele>1067</ele>
        <time>2016-08-20T08:59:21Z</time>
      </trkpt>
      <trkpt lat="45.24353" lon="5.77111">
        <ele>1068</ele>
        <time>2016-08-20T08:59:23Z</time>
      </trkpt>
      <trkpt lat="45.24352" lon="5.77111">
        <ele>1068</ele>
        <time>2016-08-20T08:59:24Z</time>
      </trkpt>
      <trkpt lat="45.24329" lon="5.77102">
        <ele>1071</ele>
        <time>2016-08-20T08:59:41Z</time>
      </trkpt>
      <trkpt lat="45.24311" lon="5.77094">
        <ele>1073</ele>
        <time>2016-08-20T08:59:56Z</time>
      </trkpt>
      <trkpt lat="45.2431" lon="5.77092">
        <ele>1073</ele>
        <time>2016-08-20T08:59:58Z</time>
      </trkpt>
      <trkpt lat="45.24309" lon="5.77091">
        <ele>1073</ele>
        <time>2016-08-20T08:59:59Z</time>
      </trkpt>
      <trkpt lat="45.24308" lon="5.7709">
        <ele>1073</ele>
        <time>2016-08-20T09:00:00Z</time>
      </trkpt>
      <trkpt lat="45.24307" lon="5.77089">
        <ele>1074</ele>
        <time>2016-08-20T09:00:01Z</time>
      </trkpt>
      <trkpt lat="45.24306" lon="5.77088">
        <ele>1074</ele>
        <time>2016-08-20T09:00:02Z</time>
      </trkpt>
      <trkpt lat="45.24303" lon="5.77084">
        <ele>1075</ele>
        <time>2016-08-20T09:00:07Z</time>
      </trkpt>
      <trkpt lat="45.24302" lon="5.77084">
        <ele>1075</ele>
        <time>2016-08-20T09:00:08Z</time>
      </trkpt>
      <trkpt lat="45.24301" lon="5.77084">
        <ele>1075</ele>
        <time>2016-08-20T09:00:09Z</time>
      </trkpt>
      <trkpt lat="45.24301" lon="5.77083">
        <ele>1075</ele>
        <time>2016-08-20T09:00:10Z</time>
      </trkpt>
      <trkpt lat="45.243" lon="5.77083">
        <ele>1075</ele>
        <time>2016-08-20T09:00:11Z</time>
      </trkpt>
      <trkpt lat="45.24299" lon="5.7708">
        <ele>1076</ele>
        <time>2016-08-20T09:00:12Z</time>
      </trkpt>
      <trkpt lat="45.24298" lon="5.77078">
        <ele>1076</ele>
        <time>2016-08-20T09:00:13Z</time>
      </trkpt>
      <trkpt lat="45.24297" lon="5.77067">
        <ele>1077</ele>
        <time>2016-08-20T09:00:19Z</time>
      </trkpt>
      <trkpt lat="45.24294" lon="5.77064">
        <ele>1077</ele>
        <time>2016-08-20T09:00:23Z</time>
      </trkpt>
      <trkpt lat="45.24293" lon="5.77064">
        <ele>1077</ele>
        <time>2016-08-20T09:00:24Z</time>
      </trkpt>
      <trkpt lat="45.24292" lon="5.77063">
        <ele>1078</ele>
        <time>2016-08-20T09:00:25Z</time>
      </trkpt>
      <trkpt lat="45.24291" lon="5.77063">
        <ele>1078</ele>
        <time>2016-08-20T09:00:26Z</time>
      </trkpt>
      <trkpt lat="45.24289" lon="5.77063">
        <ele>1078</ele>
        <time>2016-08-20T09:00:27Z</time>
      </trkpt>
      <trkpt lat="45.24288" lon="5.77063">
        <ele>1078</ele>
        <time>2016-08-20T09:00:28Z</time>
      </trkpt>
      <trkpt lat="45.24283" lon="5.77063">
        <ele>1079</ele>
        <time>2016-08-20T09:00:33Z</time>
      </trkpt>
      <trkpt lat="45.24283" lon="5.77062">
        <ele>1079</ele>
        <time>2016-08-20T09:00:34Z</time>
      </trkpt>
      <trkpt lat="45.2428" lon="5.77059">
        <ele>1080</ele>
        <time>2016-08-20T09:00:38Z</time>
      </trkpt>
      <trkpt lat="45.24279" lon="5.77059">
        <ele>1081</ele>
        <time>2016-08-20T09:00:39Z</time>
      </trkpt>
      <trkpt lat="45.24271" lon="5.77056">
        <ele>1083</ele>
        <time>2016-08-20T09:00:52Z</time>
      </trkpt>
      <trkpt lat="45.24263" lon="5.77051">
        <ele>1085</ele>
        <time>2016-08-20T09:01:01Z</time>
      </trkpt>
      <trkpt lat="45.24262" lon="5.77051">
        <ele>1086</ele>
        <time>2016-08-20T09:01:02Z</time>
      </trkpt>
      <trkpt lat="45.24255" lon="5.77043">
        <ele>1088</ele>
        <time>2016-08-20T09:01:13Z</time>
      </trkpt>
      <trkpt lat="45.24254" lon="5.77042">
        <ele>1088</ele>
        <time>2016-08-20T09:01:14Z</time>
      </trkpt>
      <trkpt lat="45.24252" lon="5.77041">
        <ele>1089</ele>
        <time>2016-08-20T09:01:17Z</time>
      </trkpt>
      <trkpt lat="45.24249" lon="5.77041">
        <ele>1089</ele>
        <time>2016-08-20T09:01:19Z</time>
      </trkpt>
      <trkpt lat="45.24248" lon="5.7704">
        <ele>1089</ele>
        <time>2016-08-20T09:01:20Z</time>
      </trkpt>
      <trkpt lat="45.24243" lon="5.77035">
        <ele>1090</ele>
        <time>2016-08-20T09:01:25Z</time>
      </trkpt>
      <trkpt lat="45.24243" lon="5.77034">
        <ele>1090</ele>
        <time>2016-08-20T09:01:26Z</time>
      </trkpt>
      <trkpt lat="45.24241" lon="5.77033">
        <ele>1090</ele>
        <time>2016-08-20T09:01:30Z</time>
      </trkpt>
      <trkpt lat="45.2424" lon="5.77032">
        <ele>1091</ele>
        <time>2016-08-20T09:01:31Z</time>
      </trkpt>
      <trkpt lat="45.24238" lon="5.77032">
        <ele>1091</ele>
        <time>2016-08-20T09:01:32Z</time>
      </trkpt>
      <trkpt lat="45.24236" lon="5.77032">
        <ele>1091</ele>
        <time>2016-08-20T09:01:33Z</time>
      </trkpt>
      <trkpt lat="45.24234" lon="5.77033">
        <ele>1091</ele>
        <time>2016-08-20T09:01:34Z</time>
      </trkpt>
      <trkpt lat="45.24233" lon="5.77033">
        <ele>1092</ele>
        <time>2016-08-20T09:01:35Z</time>
      </trkpt>
      <trkpt lat="45.24231" lon="5.77034">
        <ele>1092</ele>
        <time>2016-08-20T09:01:36Z</time>
      </trkpt>
      <trkpt lat="45.24215" lon="5.7703">
        <ele>1094</ele>
        <time>2016-08-20T09:01:48Z</time>
      </trkpt>
      <trkpt lat="45.24214" lon="5.77029">
        <ele>1094</ele>
        <time>2016-08-20T09:01:49Z</time>
      </trkpt>
      <trkpt lat="45.24201" lon="5.77021">
        <ele>1097</ele>
        <time>2016-08-20T09:02:02Z</time>
      </trkpt>
      <trkpt lat="45.242" lon="5.77018">
        <ele>1097</ele>
        <time>2016-08-20T09:02:04Z</time>
      </trkpt>
      <trkpt lat="45.24191" lon="5.76999">
        <ele>1098</ele>
        <time>2016-08-20T09:02:17Z</time>
      </trkpt>
      <trkpt lat="45.24184" lon="5.76998">
        <ele>1100</ele>
        <time>2016-08-20T09:02:23Z</time>
      </trkpt>
      <trkpt lat="45.24183" lon="5.76998">
        <ele>1100</ele>
        <time>2016-08-20T09:02:24Z</time>
      </trkpt>
      <trkpt lat="45.24183" lon="5.76996">
        <ele>1100</ele>
        <time>2016-08-20T09:02:25Z</time>
      </trkpt>
      <trkpt lat="45.24182" lon="5.76995">
        <ele>1100</ele>
        <time>2016-08-20T09:02:26Z</time>
      </trkpt>
      <trkpt lat="45.24179" lon="5.76996">
        <ele>1101</ele>
        <time>2016-08-20T09:02:30Z</time>
      </trkpt>
      <trkpt lat="45.24177" lon="5.76996">
        <ele>1101</ele>
        <time>2016-08-20T09:02:31Z</time>
      </trkpt>
      <trkpt lat="45.24177" lon="5.76995">
        <ele>1101</ele>
        <time>2016-08-20T09:02:32Z</time>
      </trkpt>
      <trkpt lat="45.24176" lon="5.76994">
        <ele>1102</ele>
        <time>2016-08-20T09:02:33Z</time>
      </trkpt>
      <trkpt lat="45.24172" lon="5.76992">
        <ele>1103</ele>
        <time>2016-08-20T09:02:37Z</time>
      </trkpt>
      <trkpt lat="45.24171" lon="5.7699">
        <ele>1103</ele>
        <time>2016-08-20T09:02:38Z</time>
      </trkpt>
      <trkpt lat="45.24166" lon="5.7699">
        <ele>1103</ele>
        <time>2016-08-20T09:02:41Z</time>
      </trkpt>
      <trkpt lat="45.24146" lon="5.76972">
        <ele>1105</ele>
        <time>2016-08-20T09:02:59Z</time>
      </trkpt>
      <trkpt lat="45.24125" lon="5.76967">
        <ele>1108</ele>
        <time>2016-08-20T09:03:15Z</time>
      </trkpt>
      <trkpt lat="45.24107" lon="5.76962">
        <ele>1110</ele>
        <time>2016-08-20T09:03:28Z</time>
      </trkpt>
      <trkpt lat="45.24092" lon="5.76954">
        <ele>1113</ele>
        <time>2016-08-20T09:03:41Z</time>
      </trkpt>
      <trkpt lat="45.2408" lon="5.76951">
        <ele>1116</ele>
        <time>2016-08-20T09:03:56Z</time>
      </trkpt>
      <trkpt lat="45.24066" lon="5.76946">
        <ele>1119</ele>
        <time>2016-08-20T09:04:07Z</time>
      </trkpt>
      <trkpt lat="45.24051" lon="5.76932">
        <ele>1122</ele>
        <time>2016-08-20T09:04:23Z</time>
      </trkpt>
      <trkpt lat="45.2405" lon="5.7692">
        <ele>1122</ele>
        <time>2016-08-20T09:04:30Z</time>
      </trkpt>
      <trkpt lat="45.24049" lon="5.76918">
        <ele>1122</ele>
        <time>2016-08-20T09:04:31Z</time>
      </trkpt>
      <trkpt lat="45.24049" lon="5.76917">
        <ele>1122</ele>
        <time>2016-08-20T09:04:32Z</time>
      </trkpt>
      <trkpt lat="45.24048" lon="5.76915">
        <ele>1122</ele>
        <time>2016-08-20T09:04:33Z</time>
      </trkpt>
      <trkpt lat="45.24047" lon="5.76914">
        <ele>1122</ele>
        <time>2016-08-20T09:04:34Z</time>
      </trkpt>
      <trkpt lat="45.24047" lon="5.76913">
        <ele>1122</ele>
        <time>2016-08-20T09:04:35Z</time>
      </trkpt>
      <trkpt lat="45.24046" lon="5.76912">
        <ele>1123</ele>
        <time>2016-08-20T09:04:36Z</time>
      </trkpt>
      <trkpt lat="45.24046" lon="5.76911">
        <ele>1123</ele>
        <time>2016-08-20T09:04:37Z</time>
      </trkpt>
      <trkpt lat="45.24028" lon="5.76904">
        <ele>1125</ele>
        <time>2016-08-20T09:04:53Z</time>
      </trkpt>
      <trkpt lat="45.24024" lon="5.76904">
        <ele>1126</ele>
        <time>2016-08-20T09:04:56Z</time>
      </trkpt>
      <trkpt lat="45.24023" lon="5.76904">
        <ele>1127</ele>
        <time>2016-08-20T09:04:57Z</time>
      </trkpt>
      <trkpt lat="45.24022" lon="5.76904">
        <ele>1127</ele>
        <time>2016-08-20T09:04:58Z</time>
      </trkpt>
      <trkpt lat="45.24021" lon="5.76905">
        <ele>1127</ele>
        <time>2016-08-20T09:04:59Z</time>
      </trkpt>
      <trkpt lat="45.24016" lon="5.76905">
        <ele>1128</ele>
        <time>2016-08-20T09:05:03Z</time>
      </trkpt>
      <trkpt lat="45.24015" lon="5.76902">
        <ele>1129</ele>
        <time>2016-08-20T09:05:05Z</time>
      </trkpt>
      <trkpt lat="45.24014" lon="5.76902">
        <ele>1129</ele>
        <time>2016-08-20T09:05:06Z</time>
      </trkpt>
      <trkpt lat="45.24013" lon="5.76898">
        <ele>1130</ele>
        <time>2016-08-20T09:05:09Z</time>
      </trkpt>
      <trkpt lat="45.24011" lon="5.76895">
        <ele>1130</ele>
        <time>2016-08-20T09:05:13Z</time>
      </trkpt>
      <trkpt lat="45.2401" lon="5.76894">
        <ele>1131</ele>
        <time>2016-08-20T09:05:14Z</time>
      </trkpt>
      <trkpt lat="45.24004" lon="5.76894">
        <ele>1132</ele>
        <time>2016-08-20T09:05:22Z</time>
      </trkpt>
      <trkpt lat="45.24002" lon="5.76894">
        <ele>1133</ele>
        <time>2016-08-20T09:05:23Z</time>
      </trkpt>
      <trkpt lat="45.23995" lon="5.76888">
        <ele>1134</ele>
        <time>2016-08-20T09:05:29Z</time>
      </trkpt>
      <trkpt lat="45.23983" lon="5.76878">
        <ele>1137</ele>
        <time>2016-08-20T09:05:44Z</time>
      </trkpt>
      <trkpt lat="45.23981" lon="5.76878">
        <ele>1137</ele>
        <time>2016-08-20T09:05:46Z</time>
      </trkpt>
      <trkpt lat="45.23974" lon="5.76875">
        <ele>1138</ele>
        <time>2016-08-20T09:05:57Z</time>
      </trkpt>
      <trkpt lat="45.23973" lon="5.76875">
        <ele>1138</ele>
        <time>2016-08-20T09:05:58Z</time>
      </trkpt>
      <trkpt lat="45.2397" lon="5.76875">
        <ele>1141</ele>
        <time>2016-08-20T09:06:02Z</time>
      </trkpt>
      <trkpt lat="45.23969" lon="5.76876">
        <ele>1142</ele>
        <time>2016-08-20T09:06:03Z</time>
      </trkpt>
      <trkpt lat="45.23962" lon="5.76879">
        <ele>1145</ele>
        <time>2016-08-20T09:06:11Z</time>
      </trkpt>
      <trkpt lat="45.23959" lon="5.76877">
        <ele>1146</ele>
        <time>2016-08-20T09:06:20Z</time>
      </trkpt>
      <trkpt lat="45.23958" lon="5.76875">
        <ele>1147</ele>
        <time>2016-08-20T09:06:21Z</time>
      </trkpt>
      <trkpt lat="45.23944" lon="5.76873">
        <ele>1150</ele>
        <time>2016-08-20T09:06:34Z</time>
      </trkpt>
      <trkpt lat="45.23942" lon="5.76873">
        <ele>1150</ele>
        <time>2016-08-20T09:06:37Z</time>
      </trkpt>
      <trkpt lat="45.23932" lon="5.76852">
        <ele>1153</ele>
        <time>2016-08-20T09:07:02Z</time>
      </trkpt>
      <trkpt lat="45.23927" lon="5.76848">
        <ele>1156</ele>
        <time>2016-08-20T09:07:13Z</time>
      </trkpt>
      <trkpt lat="45.23916" lon="5.76846">
        <ele>1159</ele>
        <time>2016-08-20T09:07:24Z</time>
      </trkpt>
      <trkpt lat="45.23911" lon="5.7684">
        <ele>1161</ele>
        <time>2016-08-20T09:07:31Z</time>
      </trkpt>
      <trkpt lat="45.23893" lon="5.76841">
        <ele>1163</ele>
        <time>2016-08-20T09:07:55Z</time>
      </trkpt>
      <trkpt lat="45.23882" lon="5.76834">
        <ele>1167</ele>
        <time>2016-08-20T09:08:09Z</time>
      </trkpt>
      <trkpt lat="45.23879" lon="5.76832">
        <ele>1168</ele>
        <time>2016-08-20T09:08:12Z</time>
      </trkpt>
      <trkpt lat="45.23867" lon="5.76824">
        <ele>1170</ele>
        <time>2016-08-20T09:08:22Z</time>
      </trkpt>
      <trkpt lat="45.2386" lon="5.76809">
        <ele>1173</ele>
        <time>2016-08-20T09:08:37Z</time>
      </trkpt>
      <trkpt lat="45.23849" lon="5.76799">
        <ele>1176</ele>
        <time>2016-08-20T09:08:49Z</time>
      </trkpt>
      <trkpt lat="45.23841" lon="5.7679">
        <ele>1179</ele>
        <time>2016-08-20T09:09:02Z</time>
      </trkpt>
      <trkpt lat="45.23837" lon="5.7679">
        <ele>1183</ele>
        <time>2016-08-20T09:09:15Z</time>
      </trkpt>
      <trkpt lat="45.23829" lon="5.7679">
        <ele>1184</ele>
        <time>2016-08-20T09:09:21Z</time>
      </trkpt>
      <trkpt lat="45.23819" lon="5.76795">
        <ele>1187</ele>
        <time>2016-08-20T09:09:33Z</time>
      </trkpt>
      <trkpt lat="45.23809" lon="5.7679">
        <ele>1190</ele>
        <time>2016-08-20T09:09:43Z</time>
      </trkpt>
      <trkpt lat="45.23797" lon="5.76783">
        <ele>1193</ele>
        <time>2016-08-20T09:09:56Z</time>
      </trkpt>
      <trkpt lat="45.23796" lon="5.76781">
        <ele>1194</ele>
        <time>2016-08-20T09:09:58Z</time>
      </trkpt>
      <trkpt lat="45.23793" lon="5.7678">
        <ele>1195</ele>
        <time>2016-08-20T09:10:01Z</time>
      </trkpt>
      <trkpt lat="45.23792" lon="5.76778">
        <ele>1195</ele>
        <time>2016-08-20T09:10:04Z</time>
      </trkpt>
      <trkpt lat="45.23787" lon="5.76775">
        <ele>1198</ele>
        <time>2016-08-20T09:10:19Z</time>
      </trkpt>
      <trkpt lat="45.23785" lon="5.76772">
        <ele>1201</ele>
        <time>2016-08-20T09:10:28Z</time>
      </trkpt>
      <trkpt lat="45.23785" lon="5.7677">
        <ele>1201</ele>
        <time>2016-08-20T09:10:30Z</time>
      </trkpt>
      <trkpt lat="45.23778" lon="5.76768">
        <ele>1203</ele>
        <time>2016-08-20T09:10:38Z</time>
      </trkpt>
      <trkpt lat="45.23777" lon="5.76767">
        <ele>1203</ele>
        <time>2016-08-20T09:10:39Z</time>
      </trkpt>
      <trkpt lat="45.23776" lon="5.76766">
        <ele>1204</ele>
        <time>2016-08-20T09:10:40Z</time>
      </trkpt>
      <trkpt lat="45.23769" lon="5.76762">
        <ele>1205</ele>
        <time>2016-08-20T09:10:45Z</time>
      </trkpt>
      <trkpt lat="45.23766" lon="5.76765">
        <ele>1206</ele>
        <time>2016-08-20T09:10:50Z</time>
      </trkpt>
      <trkpt lat="45.23763" lon="5.76772">
        <ele>1207</ele>
        <time>2016-08-20T09:10:53Z</time>
      </trkpt>
      <trkpt lat="45.23762" lon="5.76771">
        <ele>1207</ele>
        <time>2016-08-20T09:10:56Z</time>
      </trkpt>
      <trkpt lat="45.23758" lon="5.7677">
        <ele>1210</ele>
        <time>2016-08-20T09:11:08Z</time>
      </trkpt>
      <trkpt lat="45.23759" lon="5.76767">
        <ele>1211</ele>
        <time>2016-08-20T09:11:12Z</time>
      </trkpt>
      <trkpt lat="45.23751" lon="5.76756">
        <ele>1214</ele>
        <time>2016-08-20T09:11:25Z</time>
      </trkpt>
      <trkpt lat="45.23749" lon="5.76752">
        <ele>1215</ele>
        <time>2016-08-20T09:11:30Z</time>
      </trkpt>
      <trkpt lat="45.23744" lon="5.76749">
        <ele>1216</ele>
        <time>2016-08-20T09:11:36Z</time>
      </trkpt>
      <trkpt lat="45.23743" lon="5.76747">
        <ele>1217</ele>
        <time>2016-08-20T09:11:38Z</time>
      </trkpt>
      <trkpt lat="45.23735" lon="5.76746">
        <ele>1217</ele>
        <time>2016-08-20T09:11:43Z</time>
      </trkpt>
      <trkpt lat="45.23733" lon="5.76745">
        <ele>1218</ele>
        <time>2016-08-20T09:11:44Z</time>
      </trkpt>
      <trkpt lat="45.23726" lon="5.76747">
        <ele>1219</ele>
        <time>2016-08-20T09:11:48Z</time>
      </trkpt>
      <trkpt lat="45.23724" lon="5.76747">
        <ele>1219</ele>
        <time>2016-08-20T09:11:50Z</time>
      </trkpt>
      <trkpt lat="45.23722" lon="5.76747">
        <ele>1219</ele>
        <time>2016-08-20T09:11:51Z</time>
      </trkpt>
      <trkpt lat="45.23716" lon="5.7675">
        <ele>1221</ele>
        <time>2016-08-20T09:11:56Z</time>
      </trkpt>
      <trkpt lat="45.23713" lon="5.7675">
        <ele>1221</ele>
        <time>2016-08-20T09:11:58Z</time>
      </trkpt>
      <trkpt lat="45.23712" lon="5.7675">
        <ele>1221</ele>
        <time>2016-08-20T09:11:59Z</time>
      </trkpt>
      <trkpt lat="45.23711" lon="5.76747">
        <ele>1222</ele>
        <time>2016-08-20T09:12:01Z</time>
      </trkpt>
      <trkpt lat="45.2371" lon="5.76746">
        <ele>1222</ele>
        <time>2016-08-20T09:12:02Z</time>
      </trkpt>
      <trkpt lat="45.23703" lon="5.76745">
        <ele>1223</ele>
        <time>2016-08-20T09:12:09Z</time>
      </trkpt>
      <trkpt lat="45.23698" lon="5.76747">
        <ele>1225</ele>
        <time>2016-08-20T09:12:14Z</time>
      </trkpt>
      <trkpt lat="45.23696" lon="5.76747">
        <ele>1225</ele>
        <time>2016-08-20T09:12:15Z</time>
      </trkpt>
      <trkpt lat="45.23695" lon="5.76746">
        <ele>1225</ele>
        <time>2016-08-20T09:12:16Z</time>
      </trkpt>
      <trkpt lat="45.23692" lon="5.76748">
        <ele>1225</ele>
        <time>2016-08-20T09:12:17Z</time>
      </trkpt>
      <trkpt lat="45.23691" lon="5.76747">
        <ele>1226</ele>
        <time>2016-08-20T09:12:18Z</time>
      </trkpt>
      <trkpt lat="45.2369" lon="5.76747">
        <ele>1226</ele>
        <time>2016-08-20T09:12:19Z</time>
      </trkpt>
      <trkpt lat="45.23684" lon="5.76739">
        <ele>1229</ele>
        <time>2016-08-20T09:12:33Z</time>
      </trkpt>
      <trkpt lat="45.23679" lon="5.76732">
        <ele>1231</ele>
        <time>2016-08-20T09:12:44Z</time>
      </trkpt>
      <trkpt lat="45.23675" lon="5.7673">
        <ele>1232</ele>
        <time>2016-08-20T09:12:47Z</time>
      </trkpt>
      <trkpt lat="45.23674" lon="5.76729">
        <ele>1232</ele>
        <time>2016-08-20T09:12:48Z</time>
      </trkpt>
      <trkpt lat="45.23667" lon="5.76726">
        <ele>1234</ele>
        <time>2016-08-20T09:12:55Z</time>
      </trkpt>
      <trkpt lat="45.23666" lon="5.76726">
        <ele>1234</ele>
        <time>2016-08-20T09:12:56Z</time>
      </trkpt>
      <trkpt lat="45.23664" lon="5.76727">
        <ele>1234</ele>
        <time>2016-08-20T09:12:57Z</time>
      </trkpt>
      <trkpt lat="45.23656" lon="5.76722">
        <ele>1237</ele>
        <time>2016-08-20T09:13:09Z</time>
      </trkpt>
      <trkpt lat="45.23657" lon="5.76721">
        <ele>1237</ele>
        <time>2016-08-20T09:13:10Z</time>
      </trkpt>
      <trkpt lat="45.23652" lon="5.76715">
        <ele>1240</ele>
        <time>2016-08-20T09:13:22Z</time>
      </trkpt>
      <trkpt lat="45.23651" lon="5.76715">
        <ele>1240</ele>
        <time>2016-08-20T09:13:23Z</time>
      </trkpt>
      <trkpt lat="45.23649" lon="5.76712">
        <ele>1242</ele>
        <time>2016-08-20T09:13:35Z</time>
      </trkpt>
      <trkpt lat="45.2365" lon="5.76716">
        <ele>1242</ele>
        <time>2016-08-20T09:13:45Z</time>
      </trkpt>
      <trkpt lat="45.23643" lon="5.76725">
        <ele>1241</ele>
        <time>2016-08-20T09:13:55Z</time>
      </trkpt>
      <trkpt lat="45.23642" lon="5.76723">
        <ele>1241</ele>
        <time>2016-08-20T09:13:56Z</time>
      </trkpt>
      <trkpt lat="45.23641" lon="5.76718">
        <ele>1243</ele>
        <time>2016-08-20T09:14:01Z</time>
      </trkpt>
      <trkpt lat="45.2364" lon="5.76716">
        <ele>1243</ele>
        <time>2016-08-20T09:14:02Z</time>
      </trkpt>
      <trkpt lat="45.23642" lon="5.76712">
        <ele>1243</ele>
        <time>2016-08-20T09:14:05Z</time>
      </trkpt>
      <trkpt lat="45.23644" lon="5.76711">
        <ele>1244</ele>
        <time>2016-08-20T09:14:08Z</time>
      </trkpt>
      <trkpt lat="45.23645" lon="5.76711">
        <ele>1244</ele>
        <time>2016-08-20T09:14:10Z</time>
      </trkpt>
      <trkpt lat="45.23644" lon="5.76713">
        <ele>1246</ele>
        <time>2016-08-20T09:14:16Z</time>
      </trkpt>
      <trkpt lat="45.23643" lon="5.76714">
        <ele>1247</ele>
        <time>2016-08-20T09:14:19Z</time>
      </trkpt>
      <trkpt lat="45.23643" lon="5.76714">
        <ele>1248</ele>
        <time>2016-08-20T09:14:20Z</time>
      </trkpt>
      <trkpt lat="45.23642" lon="5.76714">
        <ele>1248</ele>
        <time>2016-08-20T09:14:21Z</time>
      </trkpt>
      <trkpt lat="45.23642" lon="5.76713">
        <ele>1248</ele>
        <time>2016-08-20T09:14:22Z</time>
      </trkpt>
      <trkpt lat="45.23641" lon="5.76713">
        <ele>1249</ele>
        <time>2016-08-20T09:14:23Z</time>
      </trkpt>
      <trkpt lat="45.23637" lon="5.76704">
        <ele>1252</ele>
        <time>2016-08-20T09:14:35Z</time>
      </trkpt>
      <trkpt lat="45.23635" lon="5.76704">
        <ele>1253</ele>
        <time>2016-08-20T09:14:37Z</time>
      </trkpt>
      <trkpt lat="45.23632" lon="5.76697">
        <ele>1255</ele>
        <time>2016-08-20T09:14:46Z</time>
      </trkpt>
      <trkpt lat="45.23624" lon="5.76691">
        <ele>1257</ele>
        <time>2016-08-20T09:14:50Z</time>
      </trkpt>
      <trkpt lat="45.23623" lon="5.76689">
        <ele>1257</ele>
        <time>2016-08-20T09:14:52Z</time>
      </trkpt>
      <trkpt lat="45.23622" lon="5.76688">
        <ele>1257</ele>
        <time>2016-08-20T09:14:53Z</time>
      </trkpt>
      <trkpt lat="45.23614" lon="5.76676">
        <ele>1260</ele>
        <time>2016-08-20T09:15:07Z</time>
      </trkpt>
      <trkpt lat="45.23604" lon="5.7666">
        <ele>1263</ele>
        <time>2016-08-20T09:15:22Z</time>
      </trkpt>
      <trkpt lat="45.23601" lon="5.76659">
        <ele>1265</ele>
        <time>2016-08-20T09:15:28Z</time>
      </trkpt>
      <trkpt lat="45.23594" lon="5.76658">
        <ele>1265</ele>
        <time>2016-08-20T09:15:35Z</time>
      </trkpt>
      <trkpt lat="45.23594" lon="5.76659">
        <ele>1265</ele>
        <time>2016-08-20T09:15:36Z</time>
      </trkpt>
      <trkpt lat="45.23593" lon="5.7666">
        <ele>1265</ele>
        <time>2016-08-20T09:15:37Z</time>
      </trkpt>
      <trkpt lat="45.23592" lon="5.76657">
        <ele>1266</ele>
        <time>2016-08-20T09:15:40Z</time>
      </trkpt>
      <trkpt lat="45.23591" lon="5.76655">
        <ele>1266</ele>
        <time>2016-08-20T09:15:42Z</time>
      </trkpt>
      <trkpt lat="45.2358" lon="5.76631">
        <ele>1267</ele>
        <time>2016-08-20T09:15:52Z</time>
      </trkpt>
      <trkpt lat="45.23573" lon="5.76623">
        <ele>1266</ele>
        <time>2016-08-20T09:15:57Z</time>
      </trkpt>
      <trkpt lat="45.23573" lon="5.76623">
        <ele>1266</ele>
        <time>2016-08-20T09:15:58Z</time>
      </trkpt>
      <trkpt lat="45.23572" lon="5.76621">
        <ele>1266</ele>
        <time>2016-08-20T09:15:59Z</time>
      </trkpt>
      <trkpt lat="45.2357" lon="5.76619">
        <ele>1267</ele>
        <time>2016-08-20T09:16:00Z</time>
      </trkpt>
      <trkpt lat="45.23567" lon="5.76617">
        <ele>1267</ele>
        <time>2016-08-20T09:16:01Z</time>
      </trkpt>
      <trkpt lat="45.23552" lon="5.76593">
        <ele>1267</ele>
        <time>2016-08-20T09:16:11Z</time>
      </trkpt>
      <trkpt lat="45.23556" lon="5.76567">
        <ele>1269</ele>
        <time>2016-08-20T09:16:23Z</time>
      </trkpt>
      <trkpt lat="45.23557" lon="5.76558">
        <ele>1270</ele>
        <time>2016-08-20T09:16:27Z</time>
      </trkpt>
      <trkpt lat="45.23561" lon="5.76529">
        <ele>1273</ele>
        <time>2016-08-20T09:16:37Z</time>
      </trkpt>
      <trkpt lat="45.2356" lon="5.76527">
        <ele>1273</ele>
        <time>2016-08-20T09:16:38Z</time>
      </trkpt>
      <trkpt lat="45.23559" lon="5.76527">
        <ele>1273</ele>
        <time>2016-08-20T09:16:41Z</time>
      </trkpt>
      <trkpt lat="45.23558" lon="5.7653">
        <ele>1273</ele>
        <time>2016-08-20T09:16:42Z</time>
      </trkpt>
      <trkpt lat="45.23558" lon="5.76533">
        <ele>1274</ele>
        <time>2016-08-20T09:16:43Z</time>
      </trkpt>
      <trkpt lat="45.23557" lon="5.76536">
        <ele>1273</ele>
        <time>2016-08-20T09:16:44Z</time>
      </trkpt>
      <trkpt lat="45.23556" lon="5.76539">
        <ele>1274</ele>
        <time>2016-08-20T09:16:45Z</time>
      </trkpt>
      <trkpt lat="45.23554" lon="5.76551">
        <ele>1275</ele>
        <time>2016-08-20T09:16:52Z</time>
      </trkpt>
      <trkpt lat="45.23552" lon="5.7655">
        <ele>1275</ele>
        <time>2016-08-20T09:16:53Z</time>
      </trkpt>
      <trkpt lat="45.23548" lon="5.76548">
        <ele>1275</ele>
        <time>2016-08-20T09:16:54Z</time>
      </trkpt>
      <trkpt lat="45.23547" lon="5.76546">
        <ele>1275</ele>
        <time>2016-08-20T09:16:55Z</time>
      </trkpt>
      <trkpt lat="45.23546" lon="5.76543">
        <ele>1275</ele>
        <time>2016-08-20T09:16:56Z</time>
      </trkpt>
      <trkpt lat="45.23545" lon="5.7654">
        <ele>1275</ele>
        <time>2016-08-20T09:16:57Z</time>
      </trkpt>
      <trkpt lat="45.23539" lon="5.76512">
        <ele>1278</ele>
        <time>2016-08-20T09:17:08Z</time>
      </trkpt>
      <trkpt lat="45.23536" lon="5.76487">
        <ele>1279</ele>
        <time>2016-08-20T09:17:22Z</time>
      </trkpt>
      <trkpt lat="45.23526" lon="5.76464">
        <ele>1281</ele>
        <time>2016-08-20T09:17:38Z</time>
      </trkpt>
      <trkpt lat="45.23513" lon="5.76445">
        <ele>1281</ele>
        <time>2016-08-20T09:17:51Z</time>
      </trkpt>
      <trkpt lat="45.23505" lon="5.7642">
        <ele>1282</ele>
        <time>2016-08-20T09:18:04Z</time>
      </trkpt>
      <trkpt lat="45.23501" lon="5.76399">
        <ele>1283</ele>
        <time>2016-08-20T09:18:18Z</time>
      </trkpt>
      <trkpt lat="45.23502" lon="5.76397">
        <ele>1282</ele>
        <time>2016-08-20T09:18:19Z</time>
      </trkpt>
      <trkpt lat="45.23503" lon="5.76397">
        <ele>1282</ele>
        <time>2016-08-20T09:18:20Z</time>
      </trkpt>
      <trkpt lat="45.23503" lon="5.76396">
        <ele>1281</ele>
        <time>2016-08-20T09:18:21Z</time>
      </trkpt>
      <trkpt lat="45.23505" lon="5.76396">
        <ele>1282</ele>
        <time>2016-08-20T09:18:25Z</time>
      </trkpt>
      <trkpt lat="45.23506" lon="5.76396">
        <ele>1283</ele>
        <time>2016-08-20T09:18:26Z</time>
      </trkpt>
      <trkpt lat="45.23507" lon="5.76397">
        <ele>1283</ele>
        <time>2016-08-20T09:18:27Z</time>
      </trkpt>
      <trkpt lat="45.23514" lon="5.76402">
        <ele>1282</ele>
        <time>2016-08-20T09:18:33Z</time>
      </trkpt>
      <trkpt lat="45.23516" lon="5.76401">
        <ele>1282</ele>
        <time>2016-08-20T09:18:34Z</time>
      </trkpt>
      <trkpt lat="45.23517" lon="5.764">
        <ele>1282</ele>
        <time>2016-08-20T09:18:35Z</time>
      </trkpt>
      <trkpt lat="45.23517" lon="5.76397">
        <ele>1283</ele>
        <time>2016-08-20T09:18:36Z</time>
      </trkpt>
      <trkpt lat="45.23517" lon="5.76394">
        <ele>1283</ele>
        <time>2016-08-20T09:18:37Z</time>
      </trkpt>
      <trkpt lat="45.23517" lon="5.7639">
        <ele>1281</ele>
        <time>2016-08-20T09:18:38Z</time>
      </trkpt>
      <trkpt lat="45.23518" lon="5.76387">
        <ele>1278</ele>
        <time>2016-08-20T09:18:40Z</time>
      </trkpt>
      <trkpt lat="45.23519" lon="5.76386">
        <ele>1278</ele>
        <time>2016-08-20T09:18:41Z</time>
      </trkpt>
      <trkpt lat="45.23527" lon="5.7638">
        <ele>1277</ele>
        <time>2016-08-20T09:18:46Z</time>
      </trkpt>
      <trkpt lat="45.23529" lon="5.7638">
        <ele>1277</ele>
        <time>2016-08-20T09:18:47Z</time>
      </trkpt>
      <trkpt lat="45.23531" lon="5.76378">
        <ele>1276</ele>
        <time>2016-08-20T09:18:48Z</time>
      </trkpt>
      <trkpt lat="45.23533" lon="5.76376">
        <ele>1276</ele>
        <time>2016-08-20T09:18:49Z</time>
      </trkpt>
      <trkpt lat="45.23535" lon="5.76374">
        <ele>1276</ele>
        <time>2016-08-20T09:18:50Z</time>
      </trkpt>
      <trkpt lat="45.23536" lon="5.76371">
        <ele>1275</ele>
        <time>2016-08-20T09:18:51Z</time>
      </trkpt>
      <trkpt lat="45.23537" lon="5.76368">
        <ele>1275</ele>
        <time>2016-08-20T09:18:52Z</time>
      </trkpt>
      <trkpt lat="45.23538" lon="5.76365">
        <ele>1275</ele>
        <time>2016-08-20T09:18:53Z</time>
      </trkpt>
      <trkpt lat="45.23537" lon="5.76362">
        <ele>1274</ele>
        <time>2016-08-20T09:18:54Z</time>
      </trkpt>
      <trkpt lat="45.23538" lon="5.76359">
        <ele>1274</ele>
        <time>2016-08-20T09:18:55Z</time>
      </trkpt>
      <trkpt lat="45.23537" lon="5.76355">
        <ele>1275</ele>
        <time>2016-08-20T09:18:56Z</time>
      </trkpt>
      <trkpt lat="45.23537" lon="5.76352">
        <ele>1274</ele>
        <time>2016-08-20T09:18:57Z</time>
      </trkpt>
      <trkpt lat="45.23537" lon="5.76349">
        <ele>1274</ele>
        <time>2016-08-20T09:18:58Z</time>
      </trkpt>
      <trkpt lat="45.23542" lon="5.76335">
        <ele>1275</ele>
        <time>2016-08-20T09:19:06Z</time>
      </trkpt>
      <trkpt lat="45.23541" lon="5.7633">
        <ele>1275</ele>
        <time>2016-08-20T09:19:10Z</time>
      </trkpt>
      <trkpt lat="45.23542" lon="5.76323">
        <ele>1272</ele>
        <time>2016-08-20T09:19:16Z</time>
      </trkpt>
      <trkpt lat="45.23543" lon="5.76321">
        <ele>1272</ele>
        <time>2016-08-20T09:19:17Z</time>
      </trkpt>
      <trkpt lat="45.23544" lon="5.76319">
        <ele>1272</ele>
        <time>2016-08-20T09:19:18Z</time>
      </trkpt>
      <trkpt lat="45.23552" lon="5.76303">
        <ele>1269</ele>
        <time>2016-08-20T09:19:26Z</time>
      </trkpt>
      <trkpt lat="45.23554" lon="5.76294">
        <ele>1266</ele>
        <time>2016-08-20T09:19:30Z</time>
      </trkpt>
      <trkpt lat="45.23555" lon="5.76292">
        <ele>1266</ele>
        <time>2016-08-20T09:19:32Z</time>
      </trkpt>
      <trkpt lat="45.23555" lon="5.76291">
        <ele>1266</ele>
        <time>2016-08-20T09:19:33Z</time>
      </trkpt>
      <trkpt lat="45.23556" lon="5.76289">
        <ele>1266</ele>
        <time>2016-08-20T09:19:35Z</time>
      </trkpt>
      <trkpt lat="45.23557" lon="5.76266">
        <ele>1268</ele>
        <time>2016-08-20T09:19:53Z</time>
      </trkpt>
      <trkpt lat="45.23558" lon="5.76264">
        <ele>1269</ele>
        <time>2016-08-20T09:19:54Z</time>
      </trkpt>
      <trkpt lat="45.23558" lon="5.76263">
        <ele>1269</ele>
        <time>2016-08-20T09:19:55Z</time>
      </trkpt>
      <trkpt lat="45.23568" lon="5.76243">
        <ele>1272</ele>
        <time>2016-08-20T09:20:21Z</time>
      </trkpt>
      <trkpt lat="45.23568" lon="5.76236">
        <ele>1273</ele>
        <time>2016-08-20T09:20:28Z</time>
      </trkpt>
      <trkpt lat="45.23568" lon="5.76235">
        <ele>1273</ele>
        <time>2016-08-20T09:20:29Z</time>
      </trkpt>
      <trkpt lat="45.23566" lon="5.76233">
        <ele>1273</ele>
        <time>2016-08-20T09:20:30Z</time>
      </trkpt>
      <trkpt lat="45.23563" lon="5.76231">
        <ele>1274</ele>
        <time>2016-08-20T09:20:31Z</time>
      </trkpt>
      <trkpt lat="45.23563" lon="5.76228">
        <ele>1273</ele>
        <time>2016-08-20T09:20:32Z</time>
      </trkpt>
      <trkpt lat="45.23564" lon="5.76226">
        <ele>1274</ele>
        <time>2016-08-20T09:20:33Z</time>
      </trkpt>
      <trkpt lat="45.23566" lon="5.76224">
        <ele>1273</ele>
        <time>2016-08-20T09:20:34Z</time>
      </trkpt>
      <trkpt lat="45.23568" lon="5.76221">
        <ele>1273</ele>
        <time>2016-08-20T09:20:35Z</time>
      </trkpt>
      <trkpt lat="45.23571" lon="5.7622">
        <ele>1273</ele>
        <time>2016-08-20T09:20:36Z</time>
      </trkpt>
      <trkpt lat="45.23574" lon="5.76218">
        <ele>1273</ele>
        <time>2016-08-20T09:20:37Z</time>
      </trkpt>
      <trkpt lat="45.23575" lon="5.76215">
        <ele>1273</ele>
        <time>2016-08-20T09:20:38Z</time>
      </trkpt>
      <trkpt lat="45.23578" lon="5.76207">
        <ele>1274</ele>
        <time>2016-08-20T09:20:42Z</time>
      </trkpt>
      <trkpt lat="45.23579" lon="5.76206">
        <ele>1275</ele>
        <time>2016-08-20T09:20:43Z</time>
      </trkpt>
      <trkpt lat="45.23579" lon="5.76205">
        <ele>1275</ele>
        <time>2016-08-20T09:20:44Z</time>
      </trkpt>
      <trkpt lat="45.23578" lon="5.76198">
        <ele>1277</ele>
        <time>2016-08-20T09:20:52Z</time>
      </trkpt>
      <trkpt lat="45.23578" lon="5.76197">
        <ele>1277</ele>
        <time>2016-08-20T09:20:53Z</time>
      </trkpt>
      <trkpt lat="45.23578" lon="5.76193">
        <ele>1276</ele>
        <time>2016-08-20T09:20:56Z</time>
      </trkpt>
      <trkpt lat="45.23577" lon="5.76186">
        <ele>1278</ele>
        <time>2016-08-20T09:21:03Z</time>
      </trkpt>
      <trkpt lat="45.23575" lon="5.76184">
        <ele>1279</ele>
        <time>2016-08-20T09:21:06Z</time>
      </trkpt>
      <trkpt lat="45.23575" lon="5.76184">
        <ele>1279</ele>
        <time>2016-08-20T09:21:07Z</time>
      </trkpt>
      <trkpt lat="45.23573" lon="5.76182">
        <ele>1279</ele>
        <time>2016-08-20T09:21:09Z</time>
      </trkpt>
      <trkpt lat="45.23569" lon="5.76179">
        <ele>1280</ele>
        <time>2016-08-20T09:21:14Z</time>
      </trkpt>
      <trkpt lat="45.23569" lon="5.76178">
        <ele>1281</ele>
        <time>2016-08-20T09:21:15Z</time>
      </trkpt>
      <trkpt lat="45.23567" lon="5.76176">
        <ele>1282</ele>
        <time>2016-08-20T09:21:20Z</time>
      </trkpt>
      <trkpt lat="45.23566" lon="5.76176">
        <ele>1282</ele>
        <time>2016-08-20T09:21:21Z</time>
      </trkpt>
      <trkpt lat="45.23562" lon="5.76173">
        <ele>1286</ele>
        <time>2016-08-20T09:21:32Z</time>
      </trkpt>
      <trkpt lat="45.23557" lon="5.76162">
        <ele>1289</ele>
        <time>2016-08-20T09:21:49Z</time>
      </trkpt>
      <trkpt lat="45.23554" lon="5.7616">
        <ele>1292</ele>
        <time>2016-08-20T09:21:58Z</time>
      </trkpt>
      <trkpt lat="45.23548" lon="5.76153">
        <ele>1294</ele>
        <time>2016-08-20T09:22:12Z</time>
      </trkpt>
      <trkpt lat="45.23548" lon="5.76152">
        <ele>1294</ele>
        <time>2016-08-20T09:22:13Z</time>
      </trkpt>
      <trkpt lat="45.23548" lon="5.7615">
        <ele>1295</ele>
        <time>2016-08-20T09:22:14Z</time>
      </trkpt>
      <trkpt lat="45.23549" lon="5.76149">
        <ele>1295</ele>
        <time>2016-08-20T09:22:15Z</time>
      </trkpt>
      <trkpt lat="45.2355" lon="5.76147">
        <ele>1294</ele>
        <time>2016-08-20T09:22:16Z</time>
      </trkpt>
      <trkpt lat="45.2355" lon="5.76146">
        <ele>1295</ele>
        <time>2016-08-20T09:22:17Z</time>
      </trkpt>
      <trkpt lat="45.23555" lon="5.76139">
        <ele>1294</ele>
        <time>2016-08-20T09:22:26Z</time>
      </trkpt>
      <trkpt lat="45.23557" lon="5.76136">
        <ele>1292</ele>
        <time>2016-08-20T09:22:30Z</time>
      </trkpt>
      <trkpt lat="45.23556" lon="5.76134">
        <ele>1291</ele>
        <time>2016-08-20T09:22:34Z</time>
      </trkpt>
      <trkpt lat="45.23555" lon="5.76134">
        <ele>1291</ele>
        <time>2016-08-20T09:22:35Z</time>
      </trkpt>
      <trkpt lat="45.23554" lon="5.76133">
        <ele>1291</ele>
        <time>2016-08-20T09:22:37Z</time>
      </trkpt>
      <trkpt lat="45.23549" lon="5.76131">
        <ele>1290</ele>
        <time>2016-08-20T09:22:40Z</time>
      </trkpt>
      <trkpt lat="45.23541" lon="5.76128">
        <ele>1287</ele>
        <time>2016-08-20T09:22:46Z</time>
      </trkpt>
      <trkpt lat="45.2354" lon="5.76122">
        <ele>1286</ele>
        <time>2016-08-20T09:22:53Z</time>
      </trkpt>
      <trkpt lat="45.2354" lon="5.76121">
        <ele>1285</ele>
        <time>2016-08-20T09:22:54Z</time>
      </trkpt>
      <trkpt lat="45.23541" lon="5.7612">
        <ele>1285</ele>
        <time>2016-08-20T09:22:55Z</time>
      </trkpt>
      <trkpt lat="45.23546" lon="5.76113">
        <ele>1283</ele>
        <time>2016-08-20T09:22:59Z</time>
      </trkpt>
      <trkpt lat="45.23547" lon="5.76112">
        <ele>1283</ele>
        <time>2016-08-20T09:23:00Z</time>
      </trkpt>
      <trkpt lat="45.23564" lon="5.76097">
        <ele>1280</ele>
        <time>2016-08-20T09:23:10Z</time>
      </trkpt>
      <trkpt lat="45.23568" lon="5.76093">
        <ele>1279</ele>
        <time>2016-08-20T09:23:13Z</time>
      </trkpt>
      <trkpt lat="45.23569" lon="5.76092">
        <ele>1278</ele>
        <time>2016-08-20T09:23:14Z</time>
      </trkpt>
      <trkpt lat="45.2357" lon="5.76091">
        <ele>1277</ele>
        <time>2016-08-20T09:23:15Z</time>
      </trkpt>
      <trkpt lat="45.23576" lon="5.76084">
        <ele>1277</ele>
        <time>2016-08-20T09:23:19Z</time>
      </trkpt>
      <trkpt lat="45.23576" lon="5.76082">
        <ele>1277</ele>
        <time>2016-08-20T09:23:20Z</time>
      </trkpt>
      <trkpt lat="45.23573" lon="5.76084">
        <ele>1276</ele>
        <time>2016-08-20T09:23:21Z</time>
      </trkpt>
      <trkpt lat="45.23571" lon="5.76086">
        <ele>1276</ele>
        <time>2016-08-20T09:23:22Z</time>
      </trkpt>
      <trkpt lat="45.23568" lon="5.76088">
        <ele>1275</ele>
        <time>2016-08-20T09:23:23Z</time>
      </trkpt>
      <trkpt lat="45.23566" lon="5.76089">
        <ele>1274</ele>
        <time>2016-08-20T09:23:24Z</time>
      </trkpt>
      <trkpt lat="45.23564" lon="5.7609">
        <ele>1274</ele>
        <time>2016-08-20T09:23:25Z</time>
      </trkpt>
      <trkpt lat="45.2356" lon="5.76092">
        <ele>1273</ele>
        <time>2016-08-20T09:23:27Z</time>
      </trkpt>
      <trkpt lat="45.2354" lon="5.76104">
        <ele>1270</ele>
        <time>2016-08-20T09:23:37Z</time>
      </trkpt>
      <trkpt lat="45.23538" lon="5.76102">
        <ele>1269</ele>
        <time>2016-08-20T09:23:38Z</time>
      </trkpt>
      <trkpt lat="45.23538" lon="5.761">
        <ele>1269</ele>
        <time>2016-08-20T09:23:39Z</time>
      </trkpt>
      <trkpt lat="45.2354" lon="5.76098">
        <ele>1269</ele>
        <time>2016-08-20T09:23:40Z</time>
      </trkpt>
      <trkpt lat="45.23542" lon="5.76096">
        <ele>1269</ele>
        <time>2016-08-20T09:23:41Z</time>
      </trkpt>
      <trkpt lat="45.23544" lon="5.76094">
        <ele>1269</ele>
        <time>2016-08-20T09:23:42Z</time>
      </trkpt>
      <trkpt lat="45.23546" lon="5.76091">
        <ele>1268</ele>
        <time>2016-08-20T09:23:43Z</time>
      </trkpt>
      <trkpt lat="45.23547" lon="5.76089">
        <ele>1268</ele>
        <time>2016-08-20T09:23:44Z</time>
      </trkpt>
      <trkpt lat="45.23549" lon="5.76087">
        <ele>1267</ele>
        <time>2016-08-20T09:23:45Z</time>
      </trkpt>
      <trkpt lat="45.23551" lon="5.76085">
        <ele>1267</ele>
        <time>2016-08-20T09:23:46Z</time>
      </trkpt>
      <trkpt lat="45.23552" lon="5.76083">
        <ele>1266</ele>
        <time>2016-08-20T09:23:47Z</time>
      </trkpt>
      <trkpt lat="45.23554" lon="5.7608">
        <ele>1266</ele>
        <time>2016-08-20T09:23:48Z</time>
      </trkpt>
      <trkpt lat="45.23556" lon="5.76078">
        <ele>1265</ele>
        <time>2016-08-20T09:23:49Z</time>
      </trkpt>
      <trkpt lat="45.23558" lon="5.76076">
        <ele>1265</ele>
        <time>2016-08-20T09:23:50Z</time>
      </trkpt>
      <trkpt lat="45.23559" lon="5.76074">
        <ele>1265</ele>
        <time>2016-08-20T09:23:51Z</time>
      </trkpt>
      <trkpt lat="45.2356" lon="5.76072">
        <ele>1264</ele>
        <time>2016-08-20T09:23:52Z</time>
      </trkpt>
      <trkpt lat="45.23574" lon="5.76059">
        <ele>1262</ele>
        <time>2016-08-20T09:24:02Z</time>
      </trkpt>
      <trkpt lat="45.23575" lon="5.76057">
        <ele>1262</ele>
        <time>2016-08-20T09:24:03Z</time>
      </trkpt>
      <trkpt lat="45.23577" lon="5.76056">
        <ele>1261</ele>
        <time>2016-08-20T09:24:04Z</time>
      </trkpt>
      <trkpt lat="45.23578" lon="5.76055">
        <ele>1260</ele>
        <time>2016-08-20T09:24:05Z</time>
      </trkpt>
      <trkpt lat="45.23578" lon="5.76054">
        <ele>1259</ele>
        <time>2016-08-20T09:24:06Z</time>
      </trkpt>
      <trkpt lat="45.23574" lon="5.76054">
        <ele>1258</ele>
        <time>2016-08-20T09:24:11Z</time>
      </trkpt>
      <trkpt lat="45.23571" lon="5.76055">
        <ele>1257</ele>
        <time>2016-08-20T09:24:12Z</time>
      </trkpt>
      <trkpt lat="45.23568" lon="5.76056">
        <ele>1256</ele>
        <time>2016-08-20T09:24:13Z</time>
      </trkpt>
      <trkpt lat="45.23561" lon="5.76058">
        <ele>1255</ele>
        <time>2016-08-20T09:24:16Z</time>
      </trkpt>
      <trkpt lat="45.23559" lon="5.76061">
        <ele>1255</ele>
        <time>2016-08-20T09:24:19Z</time>
      </trkpt>
      <trkpt lat="45.23558" lon="5.7606">
        <ele>1255</ele>
        <time>2016-08-20T09:24:20Z</time>
      </trkpt>
      <trkpt lat="45.23558" lon="5.76059">
        <ele>1254</ele>
        <time>2016-08-20T09:24:21Z</time>
      </trkpt>
      <trkpt lat="45.23557" lon="5.76059">
        <ele>1254</ele>
        <time>2016-08-20T09:24:22Z</time>
      </trkpt>
      <trkpt lat="45.23552" lon="5.76059">
        <ele>1251</ele>
        <time>2016-08-20T09:24:29Z</time>
      </trkpt>
      <trkpt lat="45.23555" lon="5.76056">
        <ele>1249</ele>
        <time>2016-08-20T09:24:31Z</time>
      </trkpt>
      <trkpt lat="45.23557" lon="5.76055">
        <ele>1248</ele>
        <time>2016-08-20T09:24:32Z</time>
      </trkpt>
      <trkpt lat="45.23558" lon="5.76055">
        <ele>1248</ele>
        <time>2016-08-20T09:24:33Z</time>
      </trkpt>
      <trkpt lat="45.2356" lon="5.76053">
        <ele>1248</ele>
        <time>2016-08-20T09:24:35Z</time>
      </trkpt>
      <trkpt lat="45.2356" lon="5.76052">
        <ele>1247</ele>
        <time>2016-08-20T09:24:36Z</time>
      </trkpt>
      <trkpt lat="45.23561" lon="5.76052">
        <ele>1247</ele>
        <time>2016-08-20T09:24:37Z</time>
      </trkpt>
      <trkpt lat="45.23567" lon="5.76041">
        <ele>1243</ele>
        <time>2016-08-20T09:24:44Z</time>
      </trkpt>
      <trkpt lat="45.23571" lon="5.76038">
        <ele>1243</ele>
        <time>2016-08-20T09:24:46Z</time>
      </trkpt>
      <trkpt lat="45.23578" lon="5.76032">
        <ele>1240</ele>
        <time>2016-08-20T09:24:50Z</time>
      </trkpt>
      <trkpt lat="45.23582" lon="5.7603">
        <ele>1239</ele>
        <time>2016-08-20T09:24:53Z</time>
      </trkpt>
      <trkpt lat="45.23583" lon="5.76029">
        <ele>1239</ele>
        <time>2016-08-20T09:24:54Z</time>
      </trkpt>
      <trkpt lat="45.23584" lon="5.76028">
        <ele>1238</ele>
        <time>2016-08-20T09:24:55Z</time>
      </trkpt>
      <trkpt lat="45.23585" lon="5.76026">
        <ele>1238</ele>
        <time>2016-08-20T09:24:56Z</time>
      </trkpt>
      <trkpt lat="45.23587" lon="5.76024">
        <ele>1238</ele>
        <time>2016-08-20T09:24:57Z</time>
      </trkpt>
      <trkpt lat="45.23587" lon="5.76023">
        <ele>1237</ele>
        <time>2016-08-20T09:24:58Z</time>
      </trkpt>
      <trkpt lat="45.23588" lon="5.76022">
        <ele>1236</ele>
        <time>2016-08-20T09:24:59Z</time>
      </trkpt>
      <trkpt lat="45.23588" lon="5.7602">
        <ele>1236</ele>
        <time>2016-08-20T09:25:00Z</time>
      </trkpt>
      <trkpt lat="45.2359" lon="5.76009">
        <ele>1233</ele>
        <time>2016-08-20T09:25:06Z</time>
      </trkpt>
      <trkpt lat="45.2359" lon="5.76007">
        <ele>1233</ele>
        <time>2016-08-20T09:25:07Z</time>
      </trkpt>
      <trkpt lat="45.23591" lon="5.76006">
        <ele>1232</ele>
        <time>2016-08-20T09:25:08Z</time>
      </trkpt>
      <trkpt lat="45.23592" lon="5.76004">
        <ele>1232</ele>
        <time>2016-08-20T09:25:09Z</time>
      </trkpt>
      <trkpt lat="45.23593" lon="5.76001">
        <ele>1232</ele>
        <time>2016-08-20T09:25:10Z</time>
      </trkpt>
      <trkpt lat="45.23595" lon="5.75999">
        <ele>1232</ele>
        <time>2016-08-20T09:25:11Z</time>
      </trkpt>
      <trkpt lat="45.23595" lon="5.75997">
        <ele>1231</ele>
        <time>2016-08-20T09:25:12Z</time>
      </trkpt>
      <trkpt lat="45.23598" lon="5.75995">
        <ele>1230</ele>
        <time>2016-08-20T09:25:13Z</time>
      </trkpt>
      <trkpt lat="45.23599" lon="5.75993">
        <ele>1230</ele>
        <time>2016-08-20T09:25:14Z</time>
      </trkpt>
      <trkpt lat="45.23612" lon="5.75978">
        <ele>1226</ele>
        <time>2016-08-20T09:25:22Z</time>
      </trkpt>
      <trkpt lat="45.23612" lon="5.75977">
        <ele>1226</ele>
        <time>2016-08-20T09:25:23Z</time>
      </trkpt>
      <trkpt lat="45.2362" lon="5.75956">
        <ele>1223</ele>
        <time>2016-08-20T09:25:34Z</time>
      </trkpt>
      <trkpt lat="45.23622" lon="5.75954">
        <ele>1223</ele>
        <time>2016-08-20T09:25:35Z</time>
      </trkpt>
      <trkpt lat="45.23623" lon="5.75952">
        <ele>1222</ele>
        <time>2016-08-20T09:25:36Z</time>
      </trkpt>
      <trkpt lat="45.23624" lon="5.7595">
        <ele>1221</ele>
        <time>2016-08-20T09:25:37Z</time>
      </trkpt>
      <trkpt lat="45.23624" lon="5.75948">
        <ele>1221</ele>
        <time>2016-08-20T09:25:38Z</time>
      </trkpt>
      <trkpt lat="45.23623" lon="5.75946">
        <ele>1220</ele>
        <time>2016-08-20T09:25:39Z</time>
      </trkpt>
      <trkpt lat="45.2362" lon="5.75944">
        <ele>1218</ele>
        <time>2016-08-20T09:25:45Z</time>
      </trkpt>
      <trkpt lat="45.23619" lon="5.75944">
        <ele>1217</ele>
        <time>2016-08-20T09:25:46Z</time>
      </trkpt>
      <trkpt lat="45.23609" lon="5.75942">
        <ele>1215</ele>
        <time>2016-08-20T09:25:53Z</time>
      </trkpt>
      <trkpt lat="45.23605" lon="5.75944">
        <ele>1213</ele>
        <time>2016-08-20T09:25:56Z</time>
      </trkpt>
      <trkpt lat="45.23586" lon="5.75953">
        <ele>1209</ele>
        <time>2016-08-20T09:26:05Z</time>
      </trkpt>
      <trkpt lat="45.23574" lon="5.7596">
        <ele>1206</ele>
        <time>2016-08-20T09:26:12Z</time>
      </trkpt>
      <trkpt lat="45.23571" lon="5.75961">
        <ele>1205</ele>
        <time>2016-08-20T09:26:14Z</time>
      </trkpt>
      <trkpt lat="45.23566" lon="5.75965">
        <ele>1206</ele>
        <time>2016-08-20T09:26:16Z</time>
      </trkpt>
      <trkpt lat="45.23564" lon="5.75966">
        <ele>1204</ele>
        <time>2016-08-20T09:26:17Z</time>
      </trkpt>
      <trkpt lat="45.23561" lon="5.75969">
        <ele>1204</ele>
        <time>2016-08-20T09:26:18Z</time>
      </trkpt>
      <trkpt lat="45.23558" lon="5.75971">
        <ele>1204</ele>
        <time>2016-08-20T09:26:19Z</time>
      </trkpt>
      <trkpt lat="45.23556" lon="5.75972">
        <ele>1203</ele>
        <time>2016-08-20T09:26:20Z</time>
      </trkpt>
      <trkpt lat="45.23553" lon="5.75974">
        <ele>1203</ele>
        <time>2016-08-20T09:26:21Z</time>
      </trkpt>
      <trkpt lat="45.23551" lon="5.75975">
        <ele>1202</ele>
        <time>2016-08-20T09:26:22Z</time>
      </trkpt>
      <trkpt lat="45.23531" lon="5.75984">
        <ele>1199</ele>
        <time>2016-08-20T09:26:30Z</time>
      </trkpt>
      <trkpt lat="45.23515" lon="5.75993">
        <ele>1195</ele>
        <time>2016-08-20T09:26:37Z</time>
      </trkpt>
      <trkpt lat="45.23507" lon="5.75995">
        <ele>1193</ele>
        <time>2016-08-20T09:26:42Z</time>
      </trkpt>
      <trkpt lat="45.23506" lon="5.75994">
        <ele>1193</ele>
        <time>2016-08-20T09:26:43Z</time>
      </trkpt>
      <trkpt lat="45.23506" lon="5.75993">
        <ele>1193</ele>
        <time>2016-08-20T09:26:44Z</time>
      </trkpt>
      <trkpt lat="45.23507" lon="5.75994">
        <ele>1192</ele>
        <time>2016-08-20T09:26:45Z</time>
      </trkpt>
      <trkpt lat="45.23508" lon="5.75994">
        <ele>1192</ele>
        <time>2016-08-20T09:26:46Z</time>
      </trkpt>
      <trkpt lat="45.23509" lon="5.75992">
        <ele>1191</ele>
        <time>2016-08-20T09:26:47Z</time>
      </trkpt>
      <trkpt lat="45.23511" lon="5.75992">
        <ele>1190</ele>
        <time>2016-08-20T09:26:48Z</time>
      </trkpt>
      <trkpt lat="45.23513" lon="5.75991">
        <ele>1190</ele>
        <time>2016-08-20T09:26:49Z</time>
      </trkpt>
      <trkpt lat="45.23514" lon="5.75989">
        <ele>1190</ele>
        <time>2016-08-20T09:26:50Z</time>
      </trkpt>
      <trkpt lat="45.23516" lon="5.75988">
        <ele>1190</ele>
        <time>2016-08-20T09:26:51Z</time>
      </trkpt>
      <trkpt lat="45.23516" lon="5.75987">
        <ele>1190</ele>
        <time>2016-08-20T09:26:52Z</time>
      </trkpt>
      <trkpt lat="45.23517" lon="5.75986">
        <ele>1189</ele>
        <time>2016-08-20T09:26:53Z</time>
      </trkpt>
      <trkpt lat="45.23518" lon="5.75984">
        <ele>1188</ele>
        <time>2016-08-20T09:26:54Z</time>
      </trkpt>
      <trkpt lat="45.23519" lon="5.75982">
        <ele>1188</ele>
        <time>2016-08-20T09:26:55Z</time>
      </trkpt>
      <trkpt lat="45.23527" lon="5.75969">
        <ele>1185</ele>
        <time>2016-08-20T09:27:02Z</time>
      </trkpt>
      <trkpt lat="45.23535" lon="5.7595">
        <ele>1182</ele>
        <time>2016-08-20T09:27:10Z</time>
      </trkpt>
      <trkpt lat="45.23535" lon="5.75948">
        <ele>1182</ele>
        <time>2016-08-20T09:27:11Z</time>
      </trkpt>
      <trkpt lat="45.23537" lon="5.75932">
        <ele>1179</ele>
        <time>2016-08-20T09:27:17Z</time>
      </trkpt>
      <trkpt lat="45.23543" lon="5.75917">
        <ele>1177</ele>
        <time>2016-08-20T09:27:23Z</time>
      </trkpt>
      <trkpt lat="45.23548" lon="5.75908">
        <ele>1176</ele>
        <time>2016-08-20T09:27:26Z</time>
      </trkpt>
      <trkpt lat="45.23554" lon="5.75897">
        <ele>1174</ele>
        <time>2016-08-20T09:27:30Z</time>
      </trkpt>
      <trkpt lat="45.23556" lon="5.75894">
        <ele>1173</ele>
        <time>2016-08-20T09:27:31Z</time>
      </trkpt>
      <trkpt lat="45.23558" lon="5.75891">
        <ele>1172</ele>
        <time>2016-08-20T09:27:32Z</time>
      </trkpt>
      <trkpt lat="45.23559" lon="5.75888">
        <ele>1172</ele>
        <time>2016-08-20T09:27:33Z</time>
      </trkpt>
      <trkpt lat="45.2356" lon="5.75885">
        <ele>1172</ele>
        <time>2016-08-20T09:27:34Z</time>
      </trkpt>
      <trkpt lat="45.23562" lon="5.75882">
        <ele>1171</ele>
        <time>2016-08-20T09:27:35Z</time>
      </trkpt>
      <trkpt lat="45.23563" lon="5.75879">
        <ele>1170</ele>
        <time>2016-08-20T09:27:36Z</time>
      </trkpt>
      <trkpt lat="45.23564" lon="5.75876">
        <ele>1170</ele>
        <time>2016-08-20T09:27:37Z</time>
      </trkpt>
      <trkpt lat="45.23569" lon="5.75863">
        <ele>1168</ele>
        <time>2016-08-20T09:27:41Z</time>
      </trkpt>
      <trkpt lat="45.23572" lon="5.75855">
        <ele>1166</ele>
        <time>2016-08-20T09:27:44Z</time>
      </trkpt>
      <trkpt lat="45.23573" lon="5.75853">
        <ele>1166</ele>
        <time>2016-08-20T09:27:45Z</time>
      </trkpt>
      <trkpt lat="45.23573" lon="5.75849">
        <ele>1166</ele>
        <time>2016-08-20T09:27:46Z</time>
      </trkpt>
      <trkpt lat="45.23574" lon="5.75846">
        <ele>1165</ele>
        <time>2016-08-20T09:27:47Z</time>
      </trkpt>
      <trkpt lat="45.23576" lon="5.75843">
        <ele>1165</ele>
        <time>2016-08-20T09:27:48Z</time>
      </trkpt>
      <trkpt lat="45.23577" lon="5.7584">
        <ele>1165</ele>
        <time>2016-08-20T09:27:49Z</time>
      </trkpt>
      <trkpt lat="45.23578" lon="5.75838">
        <ele>1163</ele>
        <time>2016-08-20T09:27:50Z</time>
      </trkpt>
      <trkpt lat="45.23579" lon="5.75836">
        <ele>1162</ele>
        <time>2016-08-20T09:27:51Z</time>
      </trkpt>
      <trkpt lat="45.23581" lon="5.75834">
        <ele>1162</ele>
        <time>2016-08-20T09:27:52Z</time>
      </trkpt>
      <trkpt lat="45.23583" lon="5.75831">
        <ele>1162</ele>
        <time>2016-08-20T09:27:53Z</time>
      </trkpt>
      <trkpt lat="45.23586" lon="5.75828">
        <ele>1162</ele>
        <time>2016-08-20T09:27:54Z</time>
      </trkpt>
      <trkpt lat="45.23589" lon="5.75826">
        <ele>1161</ele>
        <time>2016-08-20T09:27:55Z</time>
      </trkpt>
      <trkpt lat="45.2359" lon="5.75824">
        <ele>1161</ele>
        <time>2016-08-20T09:27:56Z</time>
      </trkpt>
      <trkpt lat="45.23593" lon="5.7582">
        <ele>1160</ele>
        <time>2016-08-20T09:27:58Z</time>
      </trkpt>
      <trkpt lat="45.23592" lon="5.75812">
        <ele>1157</ele>
        <time>2016-08-20T09:28:05Z</time>
      </trkpt>
      <trkpt lat="45.2359" lon="5.75813">
        <ele>1156</ele>
        <time>2016-08-20T09:28:06Z</time>
      </trkpt>
      <trkpt lat="45.23588" lon="5.75813">
        <ele>1156</ele>
        <time>2016-08-20T09:28:07Z</time>
      </trkpt>
      <trkpt lat="45.23587" lon="5.75813">
        <ele>1155</ele>
        <time>2016-08-20T09:28:08Z</time>
      </trkpt>
      <trkpt lat="45.23586" lon="5.75813">
        <ele>1154</ele>
        <time>2016-08-20T09:28:09Z</time>
      </trkpt>
      <trkpt lat="45.23584" lon="5.75812">
        <ele>1154</ele>
        <time>2016-08-20T09:28:10Z</time>
      </trkpt>
      <trkpt lat="45.23574" lon="5.75811">
        <ele>1151</ele>
        <time>2016-08-20T09:28:16Z</time>
      </trkpt>
      <trkpt lat="45.23571" lon="5.75812">
        <ele>1151</ele>
        <time>2016-08-20T09:28:17Z</time>
      </trkpt>
      <trkpt lat="45.23558" lon="5.75816">
        <ele>1147</ele>
        <time>2016-08-20T09:28:24Z</time>
      </trkpt>
      <trkpt lat="45.23542" lon="5.75816">
        <ele>1143</ele>
        <time>2016-08-20T09:28:33Z</time>
      </trkpt>
      <trkpt lat="45.23535" lon="5.75821">
        <ele>1140</ele>
        <time>2016-08-20T09:28:36Z</time>
      </trkpt>
      <trkpt lat="45.23534" lon="5.75823">
        <ele>1140</ele>
        <time>2016-08-20T09:28:37Z</time>
      </trkpt>
      <trkpt lat="45.23524" lon="5.7583">
        <ele>1137</ele>
        <time>2016-08-20T09:28:41Z</time>
      </trkpt>
      <trkpt lat="45.23506" lon="5.75838">
        <ele>1132</ele>
        <time>2016-08-20T09:28:48Z</time>
      </trkpt>
      <trkpt lat="45.235" lon="5.75844">
        <ele>1130</ele>
        <time>2016-08-20T09:28:52Z</time>
      </trkpt>
      <trkpt lat="45.23489" lon="5.75852">
        <ele>1127</ele>
        <time>2016-08-20T09:28:59Z</time>
      </trkpt>
      <trkpt lat="45.23481" lon="5.75858">
        <ele>1124</ele>
        <time>2016-08-20T09:29:03Z</time>
      </trkpt>
      <trkpt lat="45.23473" lon="5.75862">
        <ele>1120</ele>
        <time>2016-08-20T09:29:07Z</time>
      </trkpt>
      <trkpt lat="45.23459" lon="5.75868">
        <ele>1117</ele>
        <time>2016-08-20T09:29:12Z</time>
      </trkpt>
      <trkpt lat="45.23448" lon="5.75873">
        <ele>1115</ele>
        <time>2016-08-20T09:29:16Z</time>
      </trkpt>
      <trkpt lat="45.23434" lon="5.7588">
        <ele>1112</ele>
        <time>2016-08-20T09:29:21Z</time>
      </trkpt>
      <trkpt lat="45.2342" lon="5.75889">
        <ele>1109</ele>
        <time>2016-08-20T09:29:26Z</time>
      </trkpt>
      <trkpt lat="45.23407" lon="5.75888">
        <ele>1107</ele>
        <time>2016-08-20T09:29:29Z</time>
      </trkpt>
      <trkpt lat="45.23394" lon="5.75894">
        <ele>1104</ele>
        <time>2016-08-20T09:29:33Z</time>
      </trkpt>
      <trkpt lat="45.23386" lon="5.75904">
        <ele>1101</ele>
        <time>2016-08-20T09:29:38Z</time>
      </trkpt>
      <trkpt lat="45.23385" lon="5.75913">
        <ele>1099</ele>
        <time>2016-08-20T09:29:41Z</time>
      </trkpt>
      <trkpt lat="45.23381" lon="5.75933">
        <ele>1095</ele>
        <time>2016-08-20T09:29:48Z</time>
      </trkpt>
      <trkpt lat="45.23379" lon="5.75934">
        <ele>1095</ele>
        <time>2016-08-20T09:29:49Z</time>
      </trkpt>
      <trkpt lat="45.23379" lon="5.75932">
        <ele>1095</ele>
        <time>2016-08-20T09:29:50Z</time>
      </trkpt>
      <trkpt lat="45.23377" lon="5.7593">
        <ele>1094</ele>
        <time>2016-08-20T09:29:51Z</time>
      </trkpt>
      <trkpt lat="45.23369" lon="5.75914">
        <ele>1091</ele>
        <time>2016-08-20T09:29:57Z</time>
      </trkpt>
      <trkpt lat="45.23361" lon="5.75897">
        <ele>1088</ele>
        <time>2016-08-20T09:30:04Z</time>
      </trkpt>
      <trkpt lat="45.2336" lon="5.75894">
        <ele>1088</ele>
        <time>2016-08-20T09:30:05Z</time>
      </trkpt>
      <trkpt lat="45.23353" lon="5.75873">
        <ele>1084</ele>
        <time>2016-08-20T09:30:12Z</time>
      </trkpt>
      <trkpt lat="45.23357" lon="5.75862">
        <ele>1082</ele>
        <time>2016-08-20T09:30:16Z</time>
      </trkpt>
      <trkpt lat="45.23366" lon="5.75847">
        <ele>1079</ele>
        <time>2016-08-20T09:30:22Z</time>
      </trkpt>
      <trkpt lat="45.23384" lon="5.75838">
        <ele>1076</ele>
        <time>2016-08-20T09:30:31Z</time>
      </trkpt>
      <trkpt lat="45.23394" lon="5.75832">
        <ele>1072</ele>
        <time>2016-08-20T09:30:35Z</time>
      </trkpt>
      <trkpt lat="45.23402" lon="5.75822">
        <ele>1069</ele>
        <time>2016-08-20T09:30:39Z</time>
      </trkpt>
      <trkpt lat="45.23403" lon="5.75804">
        <ele>1066</ele>
        <time>2016-08-20T09:30:45Z</time>
      </trkpt>
      <trkpt lat="45.23404" lon="5.75798">
        <ele>1064</ele>
        <time>2016-08-20T09:30:47Z</time>
      </trkpt>
      <trkpt lat="45.23408" lon="5.75786">
        <ele>1062</ele>
        <time>2016-08-20T09:30:52Z</time>
      </trkpt>
      <trkpt lat="45.23409" lon="5.75783">
        <ele>1063</ele>
        <time>2016-08-20T09:30:53Z</time>
      </trkpt>
      <trkpt lat="45.2341" lon="5.75781">
        <ele>1063</ele>
        <time>2016-08-20T09:30:54Z</time>
      </trkpt>
      <trkpt lat="45.23413" lon="5.75778">
        <ele>1061</ele>
        <time>2016-08-20T09:30:55Z</time>
      </trkpt>
      <trkpt lat="45.23415" lon="5.75775">
        <ele>1060</ele>
        <time>2016-08-20T09:30:56Z</time>
      </trkpt>
      <trkpt lat="45.23416" lon="5.75772">
        <ele>1059</ele>
        <time>2016-08-20T09:30:57Z</time>
      </trkpt>
      <trkpt lat="45.23418" lon="5.75769">
        <ele>1058</ele>
        <time>2016-08-20T09:30:58Z</time>
      </trkpt>
      <trkpt lat="45.23419" lon="5.75766">
        <ele>1058</ele>
        <time>2016-08-20T09:30:59Z</time>
      </trkpt>
      <trkpt lat="45.23425" lon="5.75745">
        <ele>1055</ele>
        <time>2016-08-20T09:31:05Z</time>
      </trkpt>
      <trkpt lat="45.23428" lon="5.7574">
        <ele>1054</ele>
        <time>2016-08-20T09:31:07Z</time>
      </trkpt>
      <trkpt lat="45.23429" lon="5.75737">
        <ele>1053</ele>
        <time>2016-08-20T09:31:08Z</time>
      </trkpt>
      <trkpt lat="45.23429" lon="5.75734">
        <ele>1052</ele>
        <time>2016-08-20T09:31:09Z</time>
      </trkpt>
      <trkpt lat="45.2343" lon="5.75731">
        <ele>1052</ele>
        <time>2016-08-20T09:31:10Z</time>
      </trkpt>
      <trkpt lat="45.23429" lon="5.75729">
        <ele>1052</ele>
        <time>2016-08-20T09:31:11Z</time>
      </trkpt>
      <trkpt lat="45.2343" lon="5.75726">
        <ele>1051</ele>
        <time>2016-08-20T09:31:12Z</time>
      </trkpt>
      <trkpt lat="45.23431" lon="5.75723">
        <ele>1051</ele>
        <time>2016-08-20T09:31:13Z</time>
      </trkpt>
      <trkpt lat="45.23432" lon="5.7572">
        <ele>1051</ele>
        <time>2016-08-20T09:31:14Z</time>
      </trkpt>
      <trkpt lat="45.23438" lon="5.75705">
        <ele>1048</ele>
        <time>2016-08-20T09:31:19Z</time>
      </trkpt>
      <trkpt lat="45.23434" lon="5.75703">
        <ele>1047</ele>
        <time>2016-08-20T09:31:22Z</time>
      </trkpt>
      <trkpt lat="45.23432" lon="5.75703">
        <ele>1047</ele>
        <time>2016-08-20T09:31:23Z</time>
      </trkpt>
      <trkpt lat="45.23421" lon="5.75705">
        <ele>1043</ele>
        <time>2016-08-20T09:31:29Z</time>
      </trkpt>
      <trkpt lat="45.23412" lon="5.75715">
        <ele>1040</ele>
        <time>2016-08-20T09:31:35Z</time>
      </trkpt>
      <trkpt lat="45.23405" lon="5.7572">
        <ele>1038</ele>
        <time>2016-08-20T09:31:38Z</time>
      </trkpt>
      <trkpt lat="45.23403" lon="5.75721">
        <ele>1038</ele>
        <time>2016-08-20T09:31:39Z</time>
      </trkpt>
      <trkpt lat="45.23404" lon="5.75718">
        <ele>1038</ele>
        <time>2016-08-20T09:31:40Z</time>
      </trkpt>
      <trkpt lat="45.23405" lon="5.75716">
        <ele>1037</ele>
        <time>2016-08-20T09:31:41Z</time>
      </trkpt>
      <trkpt lat="45.23407" lon="5.75714">
        <ele>1037</ele>
        <time>2016-08-20T09:31:42Z</time>
      </trkpt>
      <trkpt lat="45.23409" lon="5.75712">
        <ele>1036</ele>
        <time>2016-08-20T09:31:43Z</time>
      </trkpt>
      <trkpt lat="45.23416" lon="5.75699">
        <ele>1035</ele>
        <time>2016-08-20T09:31:48Z</time>
      </trkpt>
      <trkpt lat="45.2342" lon="5.75688">
        <ele>1032</ele>
        <time>2016-08-20T09:31:53Z</time>
      </trkpt>
      <trkpt lat="45.23422" lon="5.75685">
        <ele>1031</ele>
        <time>2016-08-20T09:31:54Z</time>
      </trkpt>
      <trkpt lat="45.23422" lon="5.75678">
        <ele>1029</ele>
        <time>2016-08-20T09:31:57Z</time>
      </trkpt>
      <trkpt lat="45.23427" lon="5.75657">
        <ele>1026</ele>
        <time>2016-08-20T09:32:05Z</time>
      </trkpt>
      <trkpt lat="45.2343" lon="5.75654">
        <ele>1025</ele>
        <time>2016-08-20T09:32:07Z</time>
      </trkpt>
      <trkpt lat="45.23433" lon="5.75653">
        <ele>1024</ele>
        <time>2016-08-20T09:32:08Z</time>
      </trkpt>
      <trkpt lat="45.23435" lon="5.75652">
        <ele>1023</ele>
        <time>2016-08-20T09:32:09Z</time>
      </trkpt>
      <trkpt lat="45.23436" lon="5.7565">
        <ele>1023</ele>
        <time>2016-08-20T09:32:10Z</time>
      </trkpt>
      <trkpt lat="45.23451" lon="5.75642">
        <ele>1019</ele>
        <time>2016-08-20T09:32:16Z</time>
      </trkpt>
      <trkpt lat="45.23472" lon="5.7563">
        <ele>1016</ele>
        <time>2016-08-20T09:32:22Z</time>
      </trkpt>
      <trkpt lat="45.2349" lon="5.75626">
        <ele>1011</ele>
        <time>2016-08-20T09:32:28Z</time>
      </trkpt>
      <trkpt lat="45.235" lon="5.7562">
        <ele>1010</ele>
        <time>2016-08-20T09:32:31Z</time>
      </trkpt>
      <trkpt lat="45.23511" lon="5.75618">
        <ele>1006</ele>
        <time>2016-08-20T09:32:36Z</time>
      </trkpt>
      <trkpt lat="45.23529" lon="5.75613">
        <ele>1005</ele>
        <time>2016-08-20T09:32:43Z</time>
      </trkpt>
      <trkpt lat="45.23539" lon="5.75605">
        <ele>1001</ele>
        <time>2016-08-20T09:32:48Z</time>
      </trkpt>
      <trkpt lat="45.23538" lon="5.75603">
        <ele>999</ele>
        <time>2016-08-20T09:32:50Z</time>
      </trkpt>
      <trkpt lat="45.23538" lon="5.75602">
        <ele>999</ele>
        <time>2016-08-20T09:32:51Z</time>
      </trkpt>
      <trkpt lat="45.23536" lon="5.75602">
        <ele>998</ele>
        <time>2016-08-20T09:32:52Z</time>
      </trkpt>
      <trkpt lat="45.23532" lon="5.756">
        <ele>997</ele>
        <time>2016-08-20T09:32:53Z</time>
      </trkpt>
      <trkpt lat="45.23531" lon="5.75599">
        <ele>998</ele>
        <time>2016-08-20T09:32:54Z</time>
      </trkpt>
      <trkpt lat="45.23514" lon="5.75591">
        <ele>994</ele>
        <time>2016-08-20T09:32:58Z</time>
      </trkpt>
      <trkpt lat="45.23508" lon="5.75588">
        <ele>993</ele>
        <time>2016-08-20T09:33:00Z</time>
      </trkpt>
      <trkpt lat="45.23487" lon="5.75583">
        <ele>991</ele>
        <time>2016-08-20T09:33:06Z</time>
      </trkpt>
      <trkpt lat="45.23476" lon="5.75578">
        <ele>987</ele>
        <time>2016-08-20T09:33:10Z</time>
      </trkpt>
      <trkpt lat="45.23456" lon="5.7558">
        <ele>983</ele>
        <time>2016-08-20T09:33:16Z</time>
      </trkpt>
      <trkpt lat="45.23444" lon="5.75581">
        <ele>980</ele>
        <time>2016-08-20T09:33:20Z</time>
      </trkpt>
      <trkpt lat="45.23422" lon="5.75577">
        <ele>976</ele>
        <time>2016-08-20T09:33:29Z</time>
      </trkpt>
      <trkpt lat="45.2341" lon="5.75571">
        <ele>973</ele>
        <time>2016-08-20T09:33:35Z</time>
      </trkpt>
      <trkpt lat="45.23396" lon="5.75569">
        <ele>970</ele>
        <time>2016-08-20T09:33:41Z</time>
      </trkpt>
      <trkpt lat="45.23382" lon="5.75568">
        <ele>966</ele>
        <time>2016-08-20T09:33:46Z</time>
      </trkpt>
      <trkpt lat="45.23357" lon="5.7559">
        <ele>963</ele>
        <time>2016-08-20T09:33:55Z</time>
      </trkpt>
      <trkpt lat="45.23346" lon="5.75593">
        <ele>961</ele>
        <time>2016-08-20T09:33:59Z</time>
      </trkpt>
      <trkpt lat="45.23345" lon="5.75591">
        <ele>961</ele>
        <time>2016-08-20T09:34:00Z</time>
      </trkpt>
      <trkpt lat="45.23345" lon="5.75588">
        <ele>961</ele>
        <time>2016-08-20T09:34:01Z</time>
      </trkpt>
      <trkpt lat="45.23345" lon="5.75586">
        <ele>960</ele>
        <time>2016-08-20T09:34:02Z</time>
      </trkpt>
      <trkpt lat="45.23347" lon="5.75583">
        <ele>959</ele>
        <time>2016-08-20T09:34:03Z</time>
      </trkpt>
      <trkpt lat="45.23349" lon="5.75581">
        <ele>959</ele>
        <time>2016-08-20T09:34:04Z</time>
      </trkpt>
      <trkpt lat="45.23351" lon="5.75579">
        <ele>958</ele>
        <time>2016-08-20T09:34:05Z</time>
      </trkpt>
      <trkpt lat="45.23354" lon="5.75575">
        <ele>958</ele>
        <time>2016-08-20T09:34:07Z</time>
      </trkpt>
      <trkpt lat="45.23363" lon="5.75564">
        <ele>954</ele>
        <time>2016-08-20T09:34:13Z</time>
      </trkpt>
      <trkpt lat="45.23375" lon="5.75558">
        <ele>951</ele>
        <time>2016-08-20T09:34:19Z</time>
      </trkpt>
      <trkpt lat="45.23381" lon="5.75547">
        <ele>949</ele>
        <time>2016-08-20T09:34:24Z</time>
      </trkpt>
      <trkpt lat="45.23392" lon="5.75534">
        <ele>946</ele>
        <time>2016-08-20T09:34:29Z</time>
      </trkpt>
      <trkpt lat="45.23406" lon="5.75526">
        <ele>943</ele>
        <time>2016-08-20T09:34:34Z</time>
      </trkpt>
      <trkpt lat="45.23413" lon="5.75524">
        <ele>942</ele>
        <time>2016-08-20T09:34:36Z</time>
      </trkpt>
      <trkpt lat="45.23436" lon="5.75515">
        <ele>939</ele>
        <time>2016-08-20T09:34:43Z</time>
      </trkpt>
      <trkpt lat="45.23453" lon="5.755">
        <ele>936</ele>
        <time>2016-08-20T09:34:50Z</time>
      </trkpt>
      <trkpt lat="45.2346" lon="5.75497">
        <ele>934</ele>
        <time>2016-08-20T09:34:54Z</time>
      </trkpt>
      <trkpt lat="45.23461" lon="5.75495">
        <ele>934</ele>
        <time>2016-08-20T09:34:55Z</time>
      </trkpt>
      <trkpt lat="45.23463" lon="5.75492">
        <ele>935</ele>
        <time>2016-08-20T09:34:56Z</time>
      </trkpt>
      <trkpt lat="45.23465" lon="5.7549">
        <ele>935</ele>
        <time>2016-08-20T09:34:57Z</time>
      </trkpt>
      <trkpt lat="45.23468" lon="5.75488">
        <ele>935</ele>
        <time>2016-08-20T09:34:58Z</time>
      </trkpt>
      <trkpt lat="45.23472" lon="5.75487">
        <ele>933</ele>
        <time>2016-08-20T09:34:59Z</time>
      </trkpt>
      <trkpt lat="45.23475" lon="5.75486">
        <ele>931</ele>
        <time>2016-08-20T09:35:00Z</time>
      </trkpt>
      <trkpt lat="45.23479" lon="5.75486">
        <ele>930</ele>
        <time>2016-08-20T09:35:01Z</time>
      </trkpt>
      <trkpt lat="45.23483" lon="5.75485">
        <ele>930</ele>
        <time>2016-08-20T09:35:02Z</time>
      </trkpt>
      <trkpt lat="45.23486" lon="5.75484">
        <ele>929</ele>
        <time>2016-08-20T09:35:03Z</time>
      </trkpt>
      <trkpt lat="45.2349" lon="5.75482">
        <ele>929</ele>
        <time>2016-08-20T09:35:04Z</time>
      </trkpt>
      <trkpt lat="45.23489" lon="5.75479">
        <ele>928</ele>
        <time>2016-08-20T09:35:05Z</time>
      </trkpt>
      <trkpt lat="45.23488" lon="5.75474">
        <ele>929</ele>
        <time>2016-08-20T09:35:06Z</time>
      </trkpt>
      <trkpt lat="45.23488" lon="5.7547">
        <ele>928</ele>
        <time>2016-08-20T09:35:07Z</time>
      </trkpt>
      <trkpt lat="45.23485" lon="5.75468">
        <ele>927</ele>
        <time>2016-08-20T09:35:08Z</time>
      </trkpt>
      <trkpt lat="45.23483" lon="5.75467">
        <ele>925</ele>
        <time>2016-08-20T09:35:09Z</time>
      </trkpt>
      <trkpt lat="45.2348" lon="5.75466">
        <ele>925</ele>
        <time>2016-08-20T09:35:10Z</time>
      </trkpt>
      <trkpt lat="45.23478" lon="5.75466">
        <ele>925</ele>
        <time>2016-08-20T09:35:11Z</time>
      </trkpt>
      <trkpt lat="45.23474" lon="5.75467">
        <ele>925</ele>
        <time>2016-08-20T09:35:12Z</time>
      </trkpt>
      <trkpt lat="45.2347" lon="5.75467">
        <ele>925</ele>
        <time>2016-08-20T09:35:13Z</time>
      </trkpt>
      <trkpt lat="45.23468" lon="5.75467">
        <ele>925</ele>
        <time>2016-08-20T09:35:14Z</time>
      </trkpt>
      <trkpt lat="45.23458" lon="5.75471">
        <ele>923</ele>
        <time>2016-08-20T09:35:17Z</time>
      </trkpt>
      <trkpt lat="45.23441" lon="5.75468">
        <ele>919</ele>
        <time>2016-08-20T09:35:24Z</time>
      </trkpt>
      <trkpt lat="45.23425" lon="5.75464">
        <ele>916</ele>
        <time>2016-08-20T09:35:31Z</time>
      </trkpt>
      <trkpt lat="45.23397" lon="5.75457">
        <ele>913</ele>
        <time>2016-08-20T09:35:41Z</time>
      </trkpt>
      <trkpt lat="45.23394" lon="5.75456">
        <ele>913</ele>
        <time>2016-08-20T09:35:42Z</time>
      </trkpt>
      <trkpt lat="45.23383" lon="5.75451">
        <ele>911</ele>
        <time>2016-08-20T09:35:47Z</time>
      </trkpt>
      <trkpt lat="45.23377" lon="5.75448">
        <ele>910</ele>
        <time>2016-08-20T09:35:50Z</time>
      </trkpt>
      <trkpt lat="45.23356" lon="5.75443">
        <ele>908</ele>
        <time>2016-08-20T09:36:00Z</time>
      </trkpt>
      <trkpt lat="45.23322" lon="5.75447">
        <ele>906</ele>
        <time>2016-08-20T09:36:13Z</time>
      </trkpt>
      <trkpt lat="45.23288" lon="5.75477">
        <ele>903</ele>
        <time>2016-08-20T09:36:23Z</time>
      </trkpt>
      <trkpt lat="45.23262" lon="5.75492">
        <ele>902</ele>
        <time>2016-08-20T09:36:32Z</time>
      </trkpt>
      <trkpt lat="45.23262" lon="5.75491">
        <ele>902</ele>
        <time>2016-08-20T09:36:33Z</time>
      </trkpt>
      <trkpt lat="45.23263" lon="5.75488">
        <ele>902</ele>
        <time>2016-08-20T09:36:34Z</time>
      </trkpt>
      <trkpt lat="45.23265" lon="5.75486">
        <ele>900</ele>
        <time>2016-08-20T09:36:35Z</time>
      </trkpt>
      <trkpt lat="45.23267" lon="5.75484">
        <ele>897</ele>
        <time>2016-08-20T09:36:36Z</time>
      </trkpt>
      <trkpt lat="45.23269" lon="5.75482">
        <ele>891</ele>
        <time>2016-08-20T09:36:37Z</time>
      </trkpt>
      <trkpt lat="45.23272" lon="5.75481">
        <ele>887</ele>
        <time>2016-08-20T09:36:38Z</time>
      </trkpt>
      <trkpt lat="45.23274" lon="5.75478">
        <ele>886</ele>
        <time>2016-08-20T09:36:39Z</time>
      </trkpt>
      <trkpt lat="45.23275" lon="5.75475">
        <ele>885</ele>
        <time>2016-08-20T09:36:40Z</time>
      </trkpt>
      <trkpt lat="45.23278" lon="5.75472">
        <ele>883</ele>
        <time>2016-08-20T09:36:41Z</time>
      </trkpt>
      <trkpt lat="45.23279" lon="5.7547">
        <ele>882</ele>
        <time>2016-08-20T09:36:42Z</time>
      </trkpt>
      <trkpt lat="45.23281" lon="5.75467">
        <ele>882</ele>
        <time>2016-08-20T09:36:43Z</time>
      </trkpt>
      <trkpt lat="45.23285" lon="5.75459">
        <ele>879</ele>
        <time>2016-08-20T09:36:46Z</time>
      </trkpt>
      <trkpt lat="45.2329" lon="5.75452">
        <ele>875</ele>
        <time>2016-08-20T09:36:49Z</time>
      </trkpt>
      <trkpt lat="45.23297" lon="5.7544">
        <ele>871</ele>
        <time>2016-08-20T09:36:54Z</time>
      </trkpt>
      <trkpt lat="45.23297" lon="5.75435">
        <ele>870</ele>
        <time>2016-08-20T09:36:56Z</time>
      </trkpt>
      <trkpt lat="45.23299" lon="5.75432">
        <ele>869</ele>
        <time>2016-08-20T09:36:57Z</time>
      </trkpt>
      <trkpt lat="45.23302" lon="5.75422">
        <ele>865</ele>
        <time>2016-08-20T09:37:01Z</time>
      </trkpt>
      <trkpt lat="45.23308" lon="5.75408">
        <ele>862</ele>
        <time>2016-08-20T09:37:06Z</time>
      </trkpt>
      <trkpt lat="45.23323" lon="5.75394">
        <ele>858</ele>
        <time>2016-08-20T09:37:12Z</time>
      </trkpt>
      <trkpt lat="45.23337" lon="5.75385">
        <ele>855</ele>
        <time>2016-08-20T09:37:17Z</time>
      </trkpt>
      <trkpt lat="45.23348" lon="5.75377">
        <ele>852</ele>
        <time>2016-08-20T09:37:21Z</time>
      </trkpt>
      <trkpt lat="45.2335" lon="5.75376">
        <ele>852</ele>
        <time>2016-08-20T09:37:22Z</time>
      </trkpt>
      <trkpt lat="45.23362" lon="5.75366">
        <ele>849</ele>
        <time>2016-08-20T09:37:29Z</time>
      </trkpt>
      <trkpt lat="45.23369" lon="5.75353">
        <ele>845</ele>
        <time>2016-08-20T09:37:33Z</time>
      </trkpt>
      <trkpt lat="45.23378" lon="5.75346">
        <ele>842</ele>
        <time>2016-08-20T09:37:38Z</time>
      </trkpt>
      <trkpt lat="45.2339" lon="5.75339">
        <ele>839</ele>
        <time>2016-08-20T09:37:44Z</time>
      </trkpt>
      <trkpt lat="45.23393" lon="5.75337">
        <ele>838</ele>
        <time>2016-08-20T09:37:46Z</time>
      </trkpt>
      <trkpt lat="45.23399" lon="5.75334">
        <ele>837</ele>
        <time>2016-08-20T09:37:48Z</time>
      </trkpt>
      <trkpt lat="45.23405" lon="5.75325">
        <ele>833</ele>
        <time>2016-08-20T09:37:52Z</time>
      </trkpt>
      <trkpt lat="45.23406" lon="5.75324">
        <ele>826</ele>
        <time>2016-08-20T09:37:53Z</time>
      </trkpt>
      <trkpt lat="45.23407" lon="5.75322">
        <ele>820</ele>
        <time>2016-08-20T09:37:54Z</time>
      </trkpt>
      <trkpt lat="45.23408" lon="5.75319">
        <ele>818</ele>
        <time>2016-08-20T09:37:55Z</time>
      </trkpt>
      <trkpt lat="45.2341" lon="5.75316">
        <ele>816</ele>
        <time>2016-08-20T09:37:56Z</time>
      </trkpt>
      <trkpt lat="45.23412" lon="5.75313">
        <ele>815</ele>
        <time>2016-08-20T09:37:57Z</time>
      </trkpt>
      <trkpt lat="45.23414" lon="5.75309">
        <ele>814</ele>
        <time>2016-08-20T09:37:58Z</time>
      </trkpt>
      <trkpt lat="45.23417" lon="5.75305">
        <ele>813</ele>
        <time>2016-08-20T09:37:59Z</time>
      </trkpt>
      <trkpt lat="45.23418" lon="5.75302">
        <ele>813</ele>
        <time>2016-08-20T09:38:00Z</time>
      </trkpt>
      <trkpt lat="45.23418" lon="5.75299">
        <ele>812</ele>
        <time>2016-08-20T09:38:01Z</time>
      </trkpt>
      <trkpt lat="45.23419" lon="5.75296">
        <ele>811</ele>
        <time>2016-08-20T09:38:02Z</time>
      </trkpt>
      <trkpt lat="45.23441" lon="5.75273">
        <ele>809</ele>
        <time>2016-08-20T09:38:10Z</time>
      </trkpt>
      <trkpt lat="45.23444" lon="5.75264">
        <ele>805</ele>
        <time>2016-08-20T09:38:13Z</time>
      </trkpt>
      <trkpt lat="45.23458" lon="5.75235">
        <ele>805</ele>
        <time>2016-08-20T09:38:21Z</time>
      </trkpt>
      <trkpt lat="45.23463" lon="5.7523">
        <ele>801</ele>
        <time>2016-08-20T09:38:23Z</time>
      </trkpt>
      <trkpt lat="45.2347" lon="5.75222">
        <ele>798</ele>
        <time>2016-08-20T09:38:27Z</time>
      </trkpt>
      <trkpt lat="45.23471" lon="5.75219">
        <ele>797</ele>
        <time>2016-08-20T09:38:29Z</time>
      </trkpt>
      <trkpt lat="45.23476" lon="5.75214">
        <ele>795</ele>
        <time>2016-08-20T09:38:32Z</time>
      </trkpt>
      <trkpt lat="45.23485" lon="5.75207">
        <ele>792</ele>
        <time>2016-08-20T09:38:37Z</time>
      </trkpt>
      <trkpt lat="45.23493" lon="5.75198">
        <ele>790</ele>
        <time>2016-08-20T09:38:41Z</time>
      </trkpt>
      <trkpt lat="45.23501" lon="5.75189">
        <ele>788</ele>
        <time>2016-08-20T09:38:45Z</time>
      </trkpt>
      <trkpt lat="45.23516" lon="5.75179">
        <ele>785</ele>
        <time>2016-08-20T09:38:49Z</time>
      </trkpt>
      <trkpt lat="45.23533" lon="5.75166">
        <ele>782</ele>
        <time>2016-08-20T09:38:55Z</time>
      </trkpt>
      <trkpt lat="45.23553" lon="5.75157">
        <ele>780</ele>
        <time>2016-08-20T09:39:02Z</time>
      </trkpt>
      <trkpt lat="45.23557" lon="5.75154">
        <ele>777</ele>
        <time>2016-08-20T09:39:05Z</time>
      </trkpt>
      <trkpt lat="45.23559" lon="5.75154">
        <ele>776</ele>
        <time>2016-08-20T09:39:06Z</time>
      </trkpt>
      <trkpt lat="45.23566" lon="5.75152">
        <ele>774</ele>
        <time>2016-08-20T09:39:10Z</time>
      </trkpt>
      <trkpt lat="45.23575" lon="5.75152">
        <ele>771</ele>
        <time>2016-08-20T09:39:14Z</time>
      </trkpt>
      <trkpt lat="45.23577" lon="5.7515">
        <ele>771</ele>
        <time>2016-08-20T09:39:15Z</time>
      </trkpt>
      <trkpt lat="45.23579" lon="5.75149">
        <ele>771</ele>
        <time>2016-08-20T09:39:16Z</time>
      </trkpt>
      <trkpt lat="45.23579" lon="5.75147">
        <ele>770</ele>
        <time>2016-08-20T09:39:17Z</time>
      </trkpt>
      <trkpt lat="45.2358" lon="5.75144">
        <ele>770</ele>
        <time>2016-08-20T09:39:18Z</time>
      </trkpt>
      <trkpt lat="45.2358" lon="5.75142">
        <ele>769</ele>
        <time>2016-08-20T09:39:19Z</time>
      </trkpt>
      <trkpt lat="45.23577" lon="5.75141">
        <ele>769</ele>
        <time>2016-08-20T09:39:20Z</time>
      </trkpt>
      <trkpt lat="45.23575" lon="5.75139">
        <ele>769</ele>
        <time>2016-08-20T09:39:21Z</time>
      </trkpt>
      <trkpt lat="45.23572" lon="5.75137">
        <ele>768</ele>
        <time>2016-08-20T09:39:22Z</time>
      </trkpt>
      <trkpt lat="45.23569" lon="5.75136">
        <ele>767</ele>
        <time>2016-08-20T09:39:23Z</time>
      </trkpt>
      <trkpt lat="45.23566" lon="5.75135">
        <ele>767</ele>
        <time>2016-08-20T09:39:24Z</time>
      </trkpt>
      <trkpt lat="45.23561" lon="5.75133">
        <ele>767</ele>
        <time>2016-08-20T09:39:25Z</time>
      </trkpt>
      <trkpt lat="45.23557" lon="5.75133">
        <ele>766</ele>
        <time>2016-08-20T09:39:26Z</time>
      </trkpt>
      <trkpt lat="45.23547" lon="5.75131">
        <ele>765</ele>
        <time>2016-08-20T09:39:28Z</time>
      </trkpt>
      <trkpt lat="45.23532" lon="5.75129">
        <ele>761</ele>
        <time>2016-08-20T09:39:34Z</time>
      </trkpt>
      <trkpt lat="45.23529" lon="5.75129">
        <ele>761</ele>
        <time>2016-08-20T09:39:35Z</time>
      </trkpt>
      <trkpt lat="45.23536" lon="5.75125">
        <ele>761</ele>
        <time>2016-08-20T09:39:38Z</time>
      </trkpt>
      <trkpt lat="45.23538" lon="5.75124">
        <ele>761</ele>
        <time>2016-08-20T09:39:39Z</time>
      </trkpt>
      <trkpt lat="45.2354" lon="5.75124">
        <ele>761</ele>
        <time>2016-08-20T09:39:40Z</time>
      </trkpt>
      <trkpt lat="45.23544" lon="5.75118">
        <ele>762</ele>
        <time>2016-08-20T09:39:41Z</time>
      </trkpt>
      <trkpt lat="45.23547" lon="5.75111">
        <ele>762</ele>
        <time>2016-08-20T09:39:42Z</time>
      </trkpt>
      <trkpt lat="45.23547" lon="5.75109">
        <ele>761</ele>
        <time>2016-08-20T09:39:43Z</time>
      </trkpt>
      <trkpt lat="45.2354" lon="5.75104">
        <ele>761</ele>
        <time>2016-08-20T09:39:48Z</time>
      </trkpt>
      <trkpt lat="45.23537" lon="5.75102">
        <ele>762</ele>
        <time>2016-08-20T09:39:51Z</time>
      </trkpt>
      <trkpt lat="45.23537" lon="5.75099">
        <ele>762</ele>
        <time>2016-08-20T09:39:54Z</time>
      </trkpt>
      <trkpt lat="45.23539" lon="5.75092">
        <ele>762</ele>
        <time>2016-08-20T09:39:58Z</time>
      </trkpt>
      <trkpt lat="45.23539" lon="5.7509">
        <ele>763</ele>
        <time>2016-08-20T09:39:59Z</time>
      </trkpt>
      <trkpt lat="45.23537" lon="5.75064">
        <ele>763</ele>
        <time>2016-08-20T09:40:18Z</time>
      </trkpt>
      <trkpt lat="45.23537" lon="5.75063">
        <ele>763</ele>
        <time>2016-08-20T09:40:19Z</time>
      </trkpt>
      <trkpt lat="45.23538" lon="5.75062">
        <ele>763</ele>
        <time>2016-08-20T09:40:20Z</time>
      </trkpt>
      <trkpt lat="45.23537" lon="5.75061">
        <ele>763</ele>
        <time>2016-08-20T09:40:21Z</time>
      </trkpt>
      <trkpt lat="45.23536" lon="5.7506">
        <ele>763</ele>
        <time>2016-08-20T09:40:22Z</time>
      </trkpt>
      <trkpt lat="45.23535" lon="5.7506">
        <ele>762</ele>
        <time>2016-08-20T09:40:23Z</time>
      </trkpt>
      <trkpt lat="45.23534" lon="5.7506">
        <ele>762</ele>
        <time>2016-08-20T09:40:24Z</time>
      </trkpt>
      <trkpt lat="45.23532" lon="5.75059">
        <ele>762</ele>
        <time>2016-08-20T09:40:25Z</time>
      </trkpt>
      <trkpt lat="45.23518" lon="5.7506">
        <ele>760</ele>
        <time>2016-08-20T09:40:38Z</time>
      </trkpt>
      <trkpt lat="45.23497" lon="5.75076">
        <ele>757</ele>
        <time>2016-08-20T09:40:45Z</time>
      </trkpt>
      <trkpt lat="45.23475" lon="5.7509">
        <ele>755</ele>
        <time>2016-08-20T09:40:51Z</time>
      </trkpt>
      <trkpt lat="45.23456" lon="5.75084">
        <ele>753</ele>
        <time>2016-08-20T09:40:57Z</time>
      </trkpt>
      <trkpt lat="45.23437" lon="5.75089">
        <ele>752</ele>
        <time>2016-08-20T09:41:04Z</time>
      </trkpt>
      <trkpt lat="45.23434" lon="5.75089">
        <ele>752</ele>
        <time>2016-08-20T09:41:06Z</time>
      </trkpt>
      <trkpt lat="45.23432" lon="5.75087">
        <ele>751</ele>
        <time>2016-08-20T09:41:08Z</time>
      </trkpt>
      <trkpt lat="45.23431" lon="5.75086">
        <ele>751</ele>
        <time>2016-08-20T09:41:09Z</time>
      </trkpt>
      <trkpt lat="45.2343" lon="5.75085">
        <ele>751</ele>
        <time>2016-08-20T09:41:10Z</time>
      </trkpt>
      <trkpt lat="45.23428" lon="5.75083">
        <ele>751</ele>
        <time>2016-08-20T09:41:16Z</time>
      </trkpt>
      <trkpt lat="45.23427" lon="5.75084">
        <ele>751</ele>
        <time>2016-08-20T09:41:17Z</time>
      </trkpt>
      <trkpt lat="45.23424" lon="5.75084">
        <ele>748</ele>
        <time>2016-08-20T09:41:37Z</time>
      </trkpt>
      <trkpt lat="45.23421" lon="5.75085">
        <ele>748</ele>
        <time>2016-08-20T09:41:41Z</time>
      </trkpt>
      <trkpt lat="45.23419" lon="5.75086">
        <ele>746</ele>
        <time>2016-08-20T09:42:18Z</time>
      </trkpt>
      <trkpt lat="45.23416" lon="5.75087">
        <ele>746</ele>
        <time>2016-08-20T09:42:23Z</time>
      </trkpt>
      <trkpt lat="45.23413" lon="5.7509">
        <ele>746</ele>
        <time>2016-08-20T09:42:32Z</time>
      </trkpt>
      <trkpt lat="45.23409" lon="5.75088">
        <ele>745</ele>
        <time>2016-08-20T09:42:36Z</time>
      </trkpt>
      <trkpt lat="45.23404" lon="5.75084">
        <ele>747</ele>
        <time>2016-08-20T09:42:41Z</time>
      </trkpt>
      <trkpt lat="45.23384" lon="5.75095">
        <ele>747</ele>
        <time>2016-08-20T09:42:49Z</time>
      </trkpt>
      <trkpt lat="45.23364" lon="5.75104">
        <ele>746</ele>
        <time>2016-08-20T09:42:56Z</time>
      </trkpt>
      <trkpt lat="45.23341" lon="5.75106">
        <ele>747</ele>
        <time>2016-08-20T09:43:02Z</time>
      </trkpt>
      <trkpt lat="45.23317" lon="5.7511">
        <ele>744</ele>
        <time>2016-08-20T09:43:08Z</time>
      </trkpt>
      <trkpt lat="45.23306" lon="5.7511">
        <ele>742</ele>
        <time>2016-08-20T09:43:11Z</time>
      </trkpt>
      <trkpt lat="45.23304" lon="5.75107">
        <ele>742</ele>
        <time>2016-08-20T09:43:17Z</time>
      </trkpt>
      <trkpt lat="45.23307" lon="5.75106">
        <ele>742</ele>
        <time>2016-08-20T09:43:18Z</time>
      </trkpt>
      <trkpt lat="45.2331" lon="5.75103">
        <ele>743</ele>
        <time>2016-08-20T09:43:19Z</time>
      </trkpt>
      <trkpt lat="45.23313" lon="5.75099">
        <ele>744</ele>
        <time>2016-08-20T09:43:20Z</time>
      </trkpt>
      <trkpt lat="45.23315" lon="5.75096">
        <ele>743</ele>
        <time>2016-08-20T09:43:21Z</time>
      </trkpt>
      <trkpt lat="45.23318" lon="5.75093">
        <ele>743</ele>
        <time>2016-08-20T09:43:22Z</time>
      </trkpt>
      <trkpt lat="45.23322" lon="5.75079">
        <ele>743</ele>
        <time>2016-08-20T09:43:26Z</time>
      </trkpt>
      <trkpt lat="45.23322" lon="5.75075">
        <ele>743</ele>
        <time>2016-08-20T09:43:27Z</time>
      </trkpt>
      <trkpt lat="45.23323" lon="5.75072">
        <ele>744</ele>
        <time>2016-08-20T09:43:28Z</time>
      </trkpt>
      <trkpt lat="45.23324" lon="5.75069">
        <ele>744</ele>
        <time>2016-08-20T09:43:29Z</time>
      </trkpt>
      <trkpt lat="45.23323" lon="5.75066">
        <ele>744</ele>
        <time>2016-08-20T09:43:30Z</time>
      </trkpt>
      <trkpt lat="45.23323" lon="5.75057">
        <ele>745</ele>
        <time>2016-08-20T09:43:33Z</time>
      </trkpt>
      <trkpt lat="45.23315" lon="5.75034">
        <ele>747</ele>
        <time>2016-08-20T09:43:47Z</time>
      </trkpt>
      <trkpt lat="45.2331" lon="5.75027">
        <ele>748</ele>
        <time>2016-08-20T09:43:52Z</time>
      </trkpt>
      <trkpt lat="45.23292" lon="5.75006">
        <ele>749</ele>
        <time>2016-08-20T09:44:04Z</time>
      </trkpt>
      <trkpt lat="45.23277" lon="5.74984">
        <ele>751</ele>
        <time>2016-08-20T09:44:13Z</time>
      </trkpt>
      <trkpt lat="45.23271" lon="5.74961">
        <ele>753</ele>
        <time>2016-08-20T09:44:24Z</time>
      </trkpt>
      <trkpt lat="45.23257" lon="5.74945">
        <ele>754</ele>
        <time>2016-08-20T09:44:36Z</time>
      </trkpt>
      <trkpt lat="45.2324" lon="5.74929">
        <ele>756</ele>
        <time>2016-08-20T09:44:48Z</time>
      </trkpt>
      <trkpt lat="45.23234" lon="5.74918">
        <ele>757</ele>
        <time>2016-08-20T09:44:56Z</time>
      </trkpt>
      <trkpt lat="45.23232" lon="5.74917">
        <ele>757</ele>
        <time>2016-08-20T09:44:57Z</time>
      </trkpt>
      <trkpt lat="45.23231" lon="5.74916">
        <ele>757</ele>
        <time>2016-08-20T09:44:58Z</time>
      </trkpt>
      <trkpt lat="45.2323" lon="5.74914">
        <ele>757</ele>
        <time>2016-08-20T09:44:59Z</time>
      </trkpt>
      <trkpt lat="45.23229" lon="5.74914">
        <ele>757</ele>
        <time>2016-08-20T09:45:00Z</time>
      </trkpt>
      <trkpt lat="45.23228" lon="5.74913">
        <ele>757</ele>
        <time>2016-08-20T09:45:01Z</time>
      </trkpt>
      <trkpt lat="45.23224" lon="5.7491">
        <ele>758</ele>
        <time>2016-08-20T09:45:06Z</time>
      </trkpt>
      <trkpt lat="45.23216" lon="5.74884">
        <ele>760</ele>
        <time>2016-08-20T09:45:20Z</time>
      </trkpt>
      <trkpt lat="45.23213" lon="5.74879">
        <ele>761</ele>
        <time>2016-08-20T09:45:24Z</time>
      </trkpt>
      <trkpt lat="45.23212" lon="5.74879">
        <ele>761</ele>
        <time>2016-08-20T09:45:25Z</time>
      </trkpt>
      <trkpt lat="45.23211" lon="5.74878">
        <ele>761</ele>
        <time>2016-08-20T09:45:26Z</time>
      </trkpt>
      <trkpt lat="45.23191" lon="5.74872">
        <ele>763</ele>
        <time>2016-08-20T09:45:39Z</time>
      </trkpt>
      <trkpt lat="45.23191" lon="5.74871">
        <ele>762</ele>
        <time>2016-08-20T09:45:40Z</time>
      </trkpt>
      <trkpt lat="45.23189" lon="5.7487">
        <ele>763</ele>
        <time>2016-08-20T09:45:42Z</time>
      </trkpt>
      <trkpt lat="45.23187" lon="5.74869">
        <ele>763</ele>
        <time>2016-08-20T09:45:43Z</time>
      </trkpt>
      <trkpt lat="45.23186" lon="5.74868">
        <ele>764</ele>
        <time>2016-08-20T09:45:44Z</time>
      </trkpt>
      <trkpt lat="45.2317" lon="5.74848">
        <ele>766</ele>
        <time>2016-08-20T09:45:54Z</time>
      </trkpt>
      <trkpt lat="45.23158" lon="5.74821">
        <ele>769</ele>
        <time>2016-08-20T09:46:05Z</time>
      </trkpt>
      <trkpt lat="45.23144" lon="5.74797">
        <ele>771</ele>
        <time>2016-08-20T09:46:16Z</time>
      </trkpt>
      <trkpt lat="45.23126" lon="5.74783">
        <ele>772</ele>
        <time>2016-08-20T09:46:29Z</time>
      </trkpt>
      <trkpt lat="45.2312" lon="5.74761">
        <ele>773</ele>
        <time>2016-08-20T09:46:45Z</time>
      </trkpt>
      <trkpt lat="45.2312" lon="5.74759">
        <ele>773</ele>
        <time>2016-08-20T09:46:46Z</time>
      </trkpt>
      <trkpt lat="45.23119" lon="5.74758">
        <ele>774</ele>
        <time>2016-08-20T09:46:47Z</time>
      </trkpt>
      <trkpt lat="45.23118" lon="5.74756">
        <ele>774</ele>
        <time>2016-08-20T09:46:48Z</time>
      </trkpt>
      <trkpt lat="45.23117" lon="5.74754">
        <ele>774</ele>
        <time>2016-08-20T09:46:49Z</time>
      </trkpt>
      <trkpt lat="45.23116" lon="5.74752">
        <ele>775</ele>
        <time>2016-08-20T09:46:50Z</time>
      </trkpt>
      <trkpt lat="45.23115" lon="5.7475">
        <ele>775</ele>
        <time>2016-08-20T09:46:51Z</time>
      </trkpt>
      <trkpt lat="45.231" lon="5.74732">
        <ele>778</ele>
        <time>2016-08-20T09:47:02Z</time>
      </trkpt>
      <trkpt lat="45.23096" lon="5.74728">
        <ele>779</ele>
        <time>2016-08-20T09:47:05Z</time>
      </trkpt>
      <trkpt lat="45.23094" lon="5.74728">
        <ele>779</ele>
        <time>2016-08-20T09:47:06Z</time>
      </trkpt>
      <trkpt lat="45.23087" lon="5.74722">
        <ele>780</ele>
        <time>2016-08-20T09:47:14Z</time>
      </trkpt>
      <trkpt lat="45.23086" lon="5.74721">
        <ele>780</ele>
        <time>2016-08-20T09:47:15Z</time>
      </trkpt>
      <trkpt lat="45.23071" lon="5.74703">
        <ele>782</ele>
        <time>2016-08-20T09:47:32Z</time>
      </trkpt>
      <trkpt lat="45.23052" lon="5.74682">
        <ele>784</ele>
        <time>2016-08-20T09:47:50Z</time>
      </trkpt>
      <trkpt lat="45.23036" lon="5.74671">
        <ele>786</ele>
        <time>2016-08-20T09:48:01Z</time>
      </trkpt>
      <trkpt lat="45.23034" lon="5.74671">
        <ele>786</ele>
        <time>2016-08-20T09:48:02Z</time>
      </trkpt>
      <trkpt lat="45.23033" lon="5.74669">
        <ele>786</ele>
        <time>2016-08-20T09:48:03Z</time>
      </trkpt>
      <trkpt lat="45.23032" lon="5.74668">
        <ele>786</ele>
        <time>2016-08-20T09:48:04Z</time>
      </trkpt>
      <trkpt lat="45.2303" lon="5.74668">
        <ele>786</ele>
        <time>2016-08-20T09:48:05Z</time>
      </trkpt>
      <trkpt lat="45.23029" lon="5.74667">
        <ele>786</ele>
        <time>2016-08-20T09:48:06Z</time>
      </trkpt>
      <trkpt lat="45.23028" lon="5.74666">
        <ele>786</ele>
        <time>2016-08-20T09:48:07Z</time>
      </trkpt>
      <trkpt lat="45.23026" lon="5.74664">
        <ele>786</ele>
        <time>2016-08-20T09:48:08Z</time>
      </trkpt>
      <trkpt lat="45.23025" lon="5.74662">
        <ele>786</ele>
        <time>2016-08-20T09:48:09Z</time>
      </trkpt>
      <trkpt lat="45.23023" lon="5.74661">
        <ele>787</ele>
        <time>2016-08-20T09:48:10Z</time>
      </trkpt>
      <trkpt lat="45.23022" lon="5.7466">
        <ele>787</ele>
        <time>2016-08-20T09:48:11Z</time>
      </trkpt>
      <trkpt lat="45.2302" lon="5.74659">
        <ele>787</ele>
        <time>2016-08-20T09:48:12Z</time>
      </trkpt>
      <trkpt lat="45.23019" lon="5.74658">
        <ele>787</ele>
        <time>2016-08-20T09:48:13Z</time>
      </trkpt>
      <trkpt lat="45.23017" lon="5.74656">
        <ele>788</ele>
        <time>2016-08-20T09:48:14Z</time>
      </trkpt>
      <trkpt lat="45.23016" lon="5.74655">
        <ele>788</ele>
        <time>2016-08-20T09:48:15Z</time>
      </trkpt>
      <trkpt lat="45.23" lon="5.74634">
        <ele>791</ele>
        <time>2016-08-20T09:48:29Z</time>
      </trkpt>
      <trkpt lat="45.22982" lon="5.74619">
        <ele>794</ele>
        <time>2016-08-20T09:48:45Z</time>
      </trkpt>
      <trkpt lat="45.2296" lon="5.74607">
        <ele>796</ele>
        <time>2016-08-20T09:49:03Z</time>
      </trkpt>
      <trkpt lat="45.22953" lon="5.746">
        <ele>797</ele>
        <time>2016-08-20T09:49:09Z</time>
      </trkpt>
      <trkpt lat="45.22952" lon="5.74598">
        <ele>797</ele>
        <time>2016-08-20T09:49:10Z</time>
      </trkpt>
      <trkpt lat="45.22951" lon="5.74597">
        <ele>797</ele>
        <time>2016-08-20T09:49:11Z</time>
      </trkpt>
      <trkpt lat="45.22949" lon="5.74595">
        <ele>797</ele>
        <time>2016-08-20T09:49:12Z</time>
      </trkpt>
      <trkpt lat="45.22948" lon="5.74593">
        <ele>797</ele>
        <time>2016-08-20T09:49:13Z</time>
      </trkpt>
      <trkpt lat="45.22943" lon="5.74589">
        <ele>798</ele>
        <time>2016-08-20T09:49:16Z</time>
      </trkpt>
      <trkpt lat="45.22942" lon="5.74587">
        <ele>799</ele>
        <time>2016-08-20T09:49:17Z</time>
      </trkpt>
      <trkpt lat="45.2294" lon="5.74587">
        <ele>799</ele>
        <time>2016-08-20T09:49:18Z</time>
      </trkpt>
      <trkpt lat="45.22939" lon="5.74585">
        <ele>799</ele>
        <time>2016-08-20T09:49:19Z</time>
      </trkpt>
      <trkpt lat="45.22938" lon="5.74582">
        <ele>800</ele>
        <time>2016-08-20T09:49:20Z</time>
      </trkpt>
      <trkpt lat="45.22937" lon="5.74581">
        <ele>799</ele>
        <time>2016-08-20T09:49:21Z</time>
      </trkpt>
      <trkpt lat="45.22917" lon="5.74558">
        <ele>802</ele>
        <time>2016-08-20T09:49:34Z</time>
      </trkpt>
      <trkpt lat="45.22893" lon="5.7454">
        <ele>805</ele>
        <time>2016-08-20T09:49:52Z</time>
      </trkpt>
      <trkpt lat="45.2287" lon="5.74526">
        <ele>807</ele>
        <time>2016-08-20T09:50:07Z</time>
      </trkpt>
      <trkpt lat="45.22848" lon="5.74523">
        <ele>810</ele>
        <time>2016-08-20T09:50:20Z</time>
      </trkpt>
      <trkpt lat="45.22832" lon="5.74515">
        <ele>811</ele>
        <time>2016-08-20T09:50:32Z</time>
      </trkpt>
      <trkpt lat="45.2283" lon="5.74515">
        <ele>811</ele>
        <time>2016-08-20T09:50:33Z</time>
      </trkpt>
      <trkpt lat="45.22828" lon="5.74515">
        <ele>811</ele>
        <time>2016-08-20T09:50:34Z</time>
      </trkpt>
      <trkpt lat="45.22826" lon="5.74515">
        <ele>811</ele>
        <time>2016-08-20T09:50:35Z</time>
      </trkpt>
      <trkpt lat="45.22825" lon="5.74514">
        <ele>811</ele>
        <time>2016-08-20T09:50:36Z</time>
      </trkpt>
      <trkpt lat="45.22823" lon="5.74512">
        <ele>812</ele>
        <time>2016-08-20T09:50:37Z</time>
      </trkpt>
      <trkpt lat="45.22822" lon="5.74511">
        <ele>812</ele>
        <time>2016-08-20T09:50:38Z</time>
      </trkpt>
      <trkpt lat="45.22821" lon="5.7451">
        <ele>812</ele>
        <time>2016-08-20T09:50:39Z</time>
      </trkpt>
      <trkpt lat="45.2282" lon="5.74509">
        <ele>812</ele>
        <time>2016-08-20T09:50:40Z</time>
      </trkpt>
      <trkpt lat="45.22818" lon="5.74509">
        <ele>812</ele>
        <time>2016-08-20T09:50:41Z</time>
      </trkpt>
      <trkpt lat="45.22816" lon="5.74508">
        <ele>812</ele>
        <time>2016-08-20T09:50:42Z</time>
      </trkpt>
      <trkpt lat="45.22796" lon="5.74501">
        <ele>814</ele>
        <time>2016-08-20T09:50:52Z</time>
      </trkpt>
      <trkpt lat="45.22773" lon="5.74498">
        <ele>816</ele>
        <time>2016-08-20T09:51:02Z</time>
      </trkpt>
      <trkpt lat="45.22768" lon="5.74498">
        <ele>816</ele>
        <time>2016-08-20T09:51:07Z</time>
      </trkpt>
      <trkpt lat="45.22766" lon="5.74499">
        <ele>817</ele>
        <time>2016-08-20T09:51:08Z</time>
      </trkpt>
      <trkpt lat="45.22765" lon="5.745">
        <ele>817</ele>
        <time>2016-08-20T09:51:09Z</time>
      </trkpt>
      <trkpt lat="45.22763" lon="5.745">
        <ele>817</ele>
        <time>2016-08-20T09:51:11Z</time>
      </trkpt>
      <trkpt lat="45.22762" lon="5.74499">
        <ele>817</ele>
        <time>2016-08-20T09:51:12Z</time>
      </trkpt>
      <trkpt lat="45.22761" lon="5.74499">
        <ele>817</ele>
        <time>2016-08-20T09:51:13Z</time>
      </trkpt>
      <trkpt lat="45.2276" lon="5.74498">
        <ele>817</ele>
        <time>2016-08-20T09:51:14Z</time>
      </trkpt>
      <trkpt lat="45.22758" lon="5.74496">
        <ele>817</ele>
        <time>2016-08-20T09:51:15Z</time>
      </trkpt>
      <trkpt lat="45.22756" lon="5.74495">
        <ele>817</ele>
        <time>2016-08-20T09:51:16Z</time>
      </trkpt>
      <trkpt lat="45.22755" lon="5.74494">
        <ele>817</ele>
        <time>2016-08-20T09:51:17Z</time>
      </trkpt>
      <trkpt lat="45.22749" lon="5.74493">
        <ele>818</ele>
        <time>2016-08-20T09:51:22Z</time>
      </trkpt>
      <trkpt lat="45.22747" lon="5.74492">
        <ele>818</ele>
        <time>2016-08-20T09:51:23Z</time>
      </trkpt>
      <trkpt lat="45.22746" lon="5.74491">
        <ele>818</ele>
        <time>2016-08-20T09:51:24Z</time>
      </trkpt>
      <trkpt lat="45.22724" lon="5.7448">
        <ele>821</ele>
        <time>2016-08-20T09:51:36Z</time>
      </trkpt>
      <trkpt lat="45.22714" lon="5.74476">
        <ele>822</ele>
        <time>2016-08-20T09:51:42Z</time>
      </trkpt>
      <trkpt lat="45.22712" lon="5.74474">
        <ele>822</ele>
        <time>2016-08-20T09:51:43Z</time>
      </trkpt>
      <trkpt lat="45.22711" lon="5.74472">
        <ele>823</ele>
        <time>2016-08-20T09:51:44Z</time>
      </trkpt>
      <trkpt lat="45.22709" lon="5.7447">
        <ele>823</ele>
        <time>2016-08-20T09:51:45Z</time>
      </trkpt>
      <trkpt lat="45.22707" lon="5.74469">
        <ele>823</ele>
        <time>2016-08-20T09:51:46Z</time>
      </trkpt>
      <trkpt lat="45.22705" lon="5.74467">
        <ele>823</ele>
        <time>2016-08-20T09:51:47Z</time>
      </trkpt>
      <trkpt lat="45.22686" lon="5.74458">
        <ele>825</ele>
        <time>2016-08-20T09:52:01Z</time>
      </trkpt>
      <trkpt lat="45.22665" lon="5.74446">
        <ele>827</ele>
        <time>2016-08-20T09:52:15Z</time>
      </trkpt>
      <trkpt lat="45.22655" lon="5.7444">
        <ele>829</ele>
        <time>2016-08-20T09:52:21Z</time>
      </trkpt>
      <trkpt lat="45.22654" lon="5.7444">
        <ele>829</ele>
        <time>2016-08-20T09:52:22Z</time>
      </trkpt>
      <trkpt lat="45.22652" lon="5.7444">
        <ele>829</ele>
        <time>2016-08-20T09:52:23Z</time>
      </trkpt>
      <trkpt lat="45.2265" lon="5.74441">
        <ele>828</ele>
        <time>2016-08-20T09:52:24Z</time>
      </trkpt>
      <trkpt lat="45.22649" lon="5.74441">
        <ele>828</ele>
        <time>2016-08-20T09:52:25Z</time>
      </trkpt>
      <trkpt lat="45.22647" lon="5.74441">
        <ele>829</ele>
        <time>2016-08-20T09:52:26Z</time>
      </trkpt>
      <trkpt lat="45.22645" lon="5.74442">
        <ele>829</ele>
        <time>2016-08-20T09:52:27Z</time>
      </trkpt>
      <trkpt lat="45.22627" lon="5.74436">
        <ele>831</ele>
        <time>2016-08-20T09:52:41Z</time>
      </trkpt>
      <trkpt lat="45.22613" lon="5.74426">
        <ele>833</ele>
        <time>2016-08-20T09:52:54Z</time>
      </trkpt>
      <trkpt lat="45.22612" lon="5.74424">
        <ele>833</ele>
        <time>2016-08-20T09:52:55Z</time>
      </trkpt>
      <trkpt lat="45.22609" lon="5.74421">
        <ele>833</ele>
        <time>2016-08-20T09:52:59Z</time>
      </trkpt>
      <trkpt lat="45.22607" lon="5.74419">
        <ele>834</ele>
        <time>2016-08-20T09:53:00Z</time>
      </trkpt>
      <trkpt lat="45.22605" lon="5.74418">
        <ele>834</ele>
        <time>2016-08-20T09:53:01Z</time>
      </trkpt>
      <trkpt lat="45.22584" lon="5.74414">
        <ele>836</ele>
        <time>2016-08-20T09:53:13Z</time>
      </trkpt>
      <trkpt lat="45.22558" lon="5.74409">
        <ele>839</ele>
        <time>2016-08-20T09:53:29Z</time>
      </trkpt>
      <trkpt lat="45.22548" lon="5.74409">
        <ele>839</ele>
        <time>2016-08-20T09:53:34Z</time>
      </trkpt>
      <trkpt lat="45.22543" lon="5.74407">
        <ele>839</ele>
        <time>2016-08-20T09:53:38Z</time>
      </trkpt>
      <trkpt lat="45.22544" lon="5.74396">
        <ele>839</ele>
        <time>2016-08-20T09:53:39Z</time>
      </trkpt>
      <trkpt lat="45.22543" lon="5.74336">
        <ele>842</ele>
        <time>2016-08-20T09:53:48Z</time>
      </trkpt>
      <trkpt lat="45.22547" lon="5.74304">
        <ele>844</ele>
        <time>2016-08-20T09:53:58Z</time>
      </trkpt>
      <trkpt lat="45.22548" lon="5.74292">
        <ele>844</ele>
        <time>2016-08-20T09:54:05Z</time>
      </trkpt>
      <trkpt lat="45.22547" lon="5.74294">
        <ele>844</ele>
        <time>2016-08-20T09:54:06Z</time>
      </trkpt>
      <trkpt lat="45.22546" lon="5.74296">
        <ele>844</ele>
        <time>2016-08-20T09:54:07Z</time>
      </trkpt>
      <trkpt lat="45.22543" lon="5.74297">
        <ele>845</ele>
        <time>2016-08-20T09:54:09Z</time>
      </trkpt>
      <trkpt lat="45.22543" lon="5.74297">
        <ele>845</ele>
        <time>2016-08-20T09:54:10Z</time>
      </trkpt>
      <trkpt lat="45.22542" lon="5.74298">
        <ele>845</ele>
        <time>2016-08-20T09:54:11Z</time>
      </trkpt>
      <trkpt lat="45.22521" lon="5.74303">
        <ele>848</ele>
        <time>2016-08-20T09:54:21Z</time>
      </trkpt>
      <trkpt lat="45.22496" lon="5.74311">
        <ele>851</ele>
        <time>2016-08-20T09:54:34Z</time>
      </trkpt>
      <trkpt lat="45.22486" lon="5.74309">
        <ele>852</ele>
        <time>2016-08-20T09:54:41Z</time>
      </trkpt>
      <trkpt lat="45.22485" lon="5.74309">
        <ele>852</ele>
        <time>2016-08-20T09:54:42Z</time>
      </trkpt>
      <trkpt lat="45.2246" lon="5.7429">
        <ele>853</ele>
        <time>2016-08-20T09:54:58Z</time>
      </trkpt>
      <trkpt lat="45.22454" lon="5.74277">
        <ele>853</ele>
        <time>2016-08-20T09:55:02Z</time>
      </trkpt>
      <trkpt lat="45.22453" lon="5.74275">
        <ele>853</ele>
        <time>2016-08-20T09:55:03Z</time>
      </trkpt>
      <trkpt lat="45.22452" lon="5.74272">
        <ele>853</ele>
        <time>2016-08-20T09:55:04Z</time>
      </trkpt>
      <trkpt lat="45.22452" lon="5.7427">
        <ele>853</ele>
        <time>2016-08-20T09:55:05Z</time>
      </trkpt>
      <trkpt lat="45.22437" lon="5.74263">
        <ele>855</ele>
        <time>2016-08-20T09:55:19Z</time>
      </trkpt>
      <trkpt lat="45.22436" lon="5.74264">
        <ele>855</ele>
        <time>2016-08-20T09:55:20Z</time>
      </trkpt>
      <trkpt lat="45.22435" lon="5.74264">
        <ele>856</ele>
        <time>2016-08-20T09:55:21Z</time>
      </trkpt>
      <trkpt lat="45.22434" lon="5.74263">
        <ele>856</ele>
        <time>2016-08-20T09:55:22Z</time>
      </trkpt>
      <trkpt lat="45.22432" lon="5.74263">
        <ele>856</ele>
        <time>2016-08-20T09:55:23Z</time>
      </trkpt>
      <trkpt lat="45.2243" lon="5.74262">
        <ele>856</ele>
        <time>2016-08-20T09:55:24Z</time>
      </trkpt>
      <trkpt lat="45.22429" lon="5.74261">
        <ele>856</ele>
        <time>2016-08-20T09:55:25Z</time>
      </trkpt>
      <trkpt lat="45.22424" lon="5.74256">
        <ele>858</ele>
        <time>2016-08-20T09:55:30Z</time>
      </trkpt>
      <trkpt lat="45.2241" lon="5.74227">
        <ele>861</ele>
        <time>2016-08-20T09:55:41Z</time>
      </trkpt>
      <trkpt lat="45.22401" lon="5.74194">
        <ele>864</ele>
        <time>2016-08-20T09:55:53Z</time>
      </trkpt>
      <trkpt lat="45.22389" lon="5.74181">
        <ele>867</ele>
        <time>2016-08-20T09:56:03Z</time>
      </trkpt>
      <trkpt lat="45.22388" lon="5.74178">
        <ele>867</ele>
        <time>2016-08-20T09:56:04Z</time>
      </trkpt>
      <trkpt lat="45.22386" lon="5.74177">
        <ele>867</ele>
        <time>2016-08-20T09:56:05Z</time>
      </trkpt>
      <trkpt lat="45.22385" lon="5.74177">
        <ele>867</ele>
        <time>2016-08-20T09:56:06Z</time>
      </trkpt>
      <trkpt lat="45.22384" lon="5.74176">
        <ele>867</ele>
        <time>2016-08-20T09:56:07Z</time>
      </trkpt>
      <trkpt lat="45.22383" lon="5.74173">
        <ele>867</ele>
        <time>2016-08-20T09:56:08Z</time>
      </trkpt>
      <trkpt lat="45.22383" lon="5.74169">
        <ele>867</ele>
        <time>2016-08-20T09:56:09Z</time>
      </trkpt>
      <trkpt lat="45.22383" lon="5.74166">
        <ele>867</ele>
        <time>2016-08-20T09:56:10Z</time>
      </trkpt>
      <trkpt lat="45.22377" lon="5.7416">
        <ele>868</ele>
        <time>2016-08-20T09:56:15Z</time>
      </trkpt>
      <trkpt lat="45.22376" lon="5.74159">
        <ele>868</ele>
        <time>2016-08-20T09:56:16Z</time>
      </trkpt>
      <trkpt lat="45.22375" lon="5.74159">
        <ele>868</ele>
        <time>2016-08-20T09:56:17Z</time>
      </trkpt>
      <trkpt lat="45.22374" lon="5.74158">
        <ele>868</ele>
        <time>2016-08-20T09:56:18Z</time>
      </trkpt>
      <trkpt lat="45.22373" lon="5.74158">
        <ele>868</ele>
        <time>2016-08-20T09:56:19Z</time>
      </trkpt>
      <trkpt lat="45.22372" lon="5.74156">
        <ele>868</ele>
        <time>2016-08-20T09:56:20Z</time>
      </trkpt>
      <trkpt lat="45.22371" lon="5.74155">
        <ele>868</ele>
        <time>2016-08-20T09:56:21Z</time>
      </trkpt>
      <trkpt lat="45.22371" lon="5.74153">
        <ele>868</ele>
        <time>2016-08-20T09:56:22Z</time>
      </trkpt>
      <trkpt lat="45.22371" lon="5.74151">
        <ele>868</ele>
        <time>2016-08-20T09:56:23Z</time>
      </trkpt>
      <trkpt lat="45.22371" lon="5.74149">
        <ele>868</ele>
        <time>2016-08-20T09:56:24Z</time>
      </trkpt>
      <trkpt lat="45.22369" lon="5.74147">
        <ele>868</ele>
        <time>2016-08-20T09:56:25Z</time>
      </trkpt>
      <trkpt lat="45.22367" lon="5.74146">
        <ele>869</ele>
        <time>2016-08-20T09:56:26Z</time>
      </trkpt>
      <trkpt lat="45.22366" lon="5.74145">
        <ele>869</ele>
        <time>2016-08-20T09:56:27Z</time>
      </trkpt>
      <trkpt lat="45.22364" lon="5.74141">
        <ele>870</ele>
        <time>2016-08-20T09:56:29Z</time>
      </trkpt>
      <trkpt lat="45.22359" lon="5.74138">
        <ele>871</ele>
        <time>2016-08-20T09:56:31Z</time>
      </trkpt>
      <trkpt lat="45.22359" lon="5.74135">
        <ele>871</ele>
        <time>2016-08-20T09:56:32Z</time>
      </trkpt>
      <trkpt lat="45.22357" lon="5.74133">
        <ele>871</ele>
        <time>2016-08-20T09:56:33Z</time>
      </trkpt>
      <trkpt lat="45.22341" lon="5.74122">
        <ele>874</ele>
        <time>2016-08-20T09:56:46Z</time>
      </trkpt>
      <trkpt lat="45.22326" lon="5.74103">
        <ele>875</ele>
        <time>2016-08-20T09:57:00Z</time>
      </trkpt>
      <trkpt lat="45.22315" lon="5.74076">
        <ele>878</ele>
        <time>2016-08-20T09:57:11Z</time>
      </trkpt>
      <trkpt lat="45.22295" lon="5.74065">
        <ele>879</ele>
        <time>2016-08-20T09:57:21Z</time>
      </trkpt>
      <trkpt lat="45.22274" lon="5.74061">
        <ele>880</ele>
        <time>2016-08-20T09:57:30Z</time>
      </trkpt>
      <trkpt lat="45.22258" lon="5.74054">
        <ele>881</ele>
        <time>2016-08-20T09:57:40Z</time>
      </trkpt>
      <trkpt lat="45.22239" lon="5.74038">
        <ele>883</ele>
        <time>2016-08-20T09:57:50Z</time>
      </trkpt>
      <trkpt lat="45.22221" lon="5.74038">
        <ele>879</ele>
        <time>2016-08-20T09:57:55Z</time>
      </trkpt>
      <trkpt lat="45.22217" lon="5.74038">
        <ele>873</ele>
        <time>2016-08-20T09:57:56Z</time>
      </trkpt>
      <trkpt lat="45.22214" lon="5.74038">
        <ele>870</ele>
        <time>2016-08-20T09:57:57Z</time>
      </trkpt>
      <trkpt lat="45.22206" lon="5.74036">
        <ele>867</ele>
        <time>2016-08-20T09:57:59Z</time>
      </trkpt>
      <trkpt lat="45.22193" lon="5.74028">
        <ele>862</ele>
        <time>2016-08-20T09:58:03Z</time>
      </trkpt>
      <trkpt lat="45.22185" lon="5.74024">
        <ele>859</ele>
        <time>2016-08-20T09:58:06Z</time>
      </trkpt>
      <trkpt lat="45.22161" lon="5.74004">
        <ele>859</ele>
        <time>2016-08-20T09:58:15Z</time>
      </trkpt>
      <trkpt lat="45.22147" lon="5.7398">
        <ele>860</ele>
        <time>2016-08-20T09:58:24Z</time>
      </trkpt>
      <trkpt lat="45.22127" lon="5.73977">
        <ele>860</ele>
        <time>2016-08-20T09:58:34Z</time>
      </trkpt>
      <trkpt lat="45.22107" lon="5.73971">
        <ele>861</ele>
        <time>2016-08-20T09:58:42Z</time>
      </trkpt>
      <trkpt lat="45.22091" lon="5.73964">
        <ele>864</ele>
        <time>2016-08-20T09:58:49Z</time>
      </trkpt>
      <trkpt lat="45.22067" lon="5.73958">
        <ele>865</ele>
        <time>2016-08-20T09:58:58Z</time>
      </trkpt>
      <trkpt lat="45.22044" lon="5.73951">
        <ele>866</ele>
        <time>2016-08-20T09:59:06Z</time>
      </trkpt>
      <trkpt lat="45.22023" lon="5.73953">
        <ele>862</ele>
        <time>2016-08-20T09:59:12Z</time>
      </trkpt>
      <trkpt lat="45.22018" lon="5.73951">
        <ele>856</ele>
        <time>2016-08-20T09:59:13Z</time>
      </trkpt>
      <trkpt lat="45.22015" lon="5.7395">
        <ele>852</ele>
        <time>2016-08-20T09:59:14Z</time>
      </trkpt>
      <trkpt lat="45.22011" lon="5.73947">
        <ele>848</ele>
        <time>2016-08-20T09:59:16Z</time>
      </trkpt>
      <trkpt lat="45.21989" lon="5.73935">
        <ele>846</ele>
        <time>2016-08-20T09:59:25Z</time>
      </trkpt>
      <trkpt lat="45.21963" lon="5.7392">
        <ele>846</ele>
        <time>2016-08-20T09:59:38Z</time>
      </trkpt>
      <trkpt lat="45.21943" lon="5.73911">
        <ele>844</ele>
        <time>2016-08-20T09:59:48Z</time>
      </trkpt>
      <trkpt lat="45.21927" lon="5.73898">
        <ele>846</ele>
        <time>2016-08-20T10:00:01Z</time>
      </trkpt>
      <trkpt lat="45.21921" lon="5.73892">
        <ele>846</ele>
        <time>2016-08-20T10:00:09Z</time>
      </trkpt>
      <trkpt lat="45.2192" lon="5.73893">
        <ele>846</ele>
        <time>2016-08-20T10:00:10Z</time>
      </trkpt>
      <trkpt lat="45.21919" lon="5.73893">
        <ele>846</ele>
        <time>2016-08-20T10:00:11Z</time>
      </trkpt>
      <trkpt lat="45.21918" lon="5.73892">
        <ele>846</ele>
        <time>2016-08-20T10:00:12Z</time>
      </trkpt>
      <trkpt lat="45.21917" lon="5.73892">
        <ele>847</ele>
        <time>2016-08-20T10:00:13Z</time>
      </trkpt>
      <trkpt lat="45.21917" lon="5.7389">
        <ele>847</ele>
        <time>2016-08-20T10:00:14Z</time>
      </trkpt>
      <trkpt lat="45.21916" lon="5.73888">
        <ele>847</ele>
        <time>2016-08-20T10:00:15Z</time>
      </trkpt>
      <trkpt lat="45.21915" lon="5.73887">
        <ele>847</ele>
        <time>2016-08-20T10:00:16Z</time>
      </trkpt>
      <trkpt lat="45.21914" lon="5.73886">
        <ele>847</ele>
        <time>2016-08-20T10:00:17Z</time>
      </trkpt>
      <trkpt lat="45.21913" lon="5.73886">
        <ele>847</ele>
        <time>2016-08-20T10:00:18Z</time>
      </trkpt>
      <trkpt lat="45.21909" lon="5.73882">
        <ele>847</ele>
        <time>2016-08-20T10:00:19Z</time>
      </trkpt>
      <trkpt lat="45.21907" lon="5.73877">
        <ele>848</ele>
        <time>2016-08-20T10:00:20Z</time>
      </trkpt>
      <trkpt lat="45.21904" lon="5.73874">
        <ele>848</ele>
        <time>2016-08-20T10:00:21Z</time>
      </trkpt>
      <trkpt lat="45.21902" lon="5.73872">
        <ele>848</ele>
        <time>2016-08-20T10:00:22Z</time>
      </trkpt>
      <trkpt lat="45.21897" lon="5.73865">
        <ele>844</ele>
        <time>2016-08-20T10:00:25Z</time>
      </trkpt>
      <trkpt lat="45.21891" lon="5.73838">
        <ele>845</ele>
        <time>2016-08-20T10:00:41Z</time>
      </trkpt>
      <trkpt lat="45.21885" lon="5.73814">
        <ele>847</ele>
        <time>2016-08-20T10:00:53Z</time>
      </trkpt>
      <trkpt lat="45.21881" lon="5.73808">
        <ele>848</ele>
        <time>2016-08-20T10:00:59Z</time>
      </trkpt>
      <trkpt lat="45.21878" lon="5.73804">
        <ele>848</ele>
        <time>2016-08-20T10:01:04Z</time>
      </trkpt>
      <trkpt lat="45.21877" lon="5.73803">
        <ele>848</ele>
        <time>2016-08-20T10:01:05Z</time>
      </trkpt>
      <trkpt lat="45.21877" lon="5.73802">
        <ele>849</ele>
        <time>2016-08-20T10:01:06Z</time>
      </trkpt>
      <trkpt lat="45.21874" lon="5.73799">
        <ele>849</ele>
        <time>2016-08-20T10:01:10Z</time>
      </trkpt>
      <trkpt lat="45.21873" lon="5.73799">
        <ele>849</ele>
        <time>2016-08-20T10:01:11Z</time>
      </trkpt>
      <trkpt lat="45.21871" lon="5.73799">
        <ele>850</ele>
        <time>2016-08-20T10:01:12Z</time>
      </trkpt>
      <trkpt lat="45.2187" lon="5.73798">
        <ele>850</ele>
        <time>2016-08-20T10:01:13Z</time>
      </trkpt>
      <trkpt lat="45.21869" lon="5.73798">
        <ele>850</ele>
        <time>2016-08-20T10:01:14Z</time>
      </trkpt>
      <trkpt lat="45.21867" lon="5.73797">
        <ele>850</ele>
        <time>2016-08-20T10:01:15Z</time>
      </trkpt>
      <trkpt lat="45.21867" lon="5.73795">
        <ele>850</ele>
        <time>2016-08-20T10:01:16Z</time>
      </trkpt>
      <trkpt lat="45.21865" lon="5.73794">
        <ele>850</ele>
        <time>2016-08-20T10:01:17Z</time>
      </trkpt>
      <trkpt lat="45.21863" lon="5.73793">
        <ele>851</ele>
        <time>2016-08-20T10:01:18Z</time>
      </trkpt>
      <trkpt lat="45.21862" lon="5.73792">
        <ele>851</ele>
        <time>2016-08-20T10:01:19Z</time>
      </trkpt>
      <trkpt lat="45.21861" lon="5.73792">
        <ele>851</ele>
        <time>2016-08-20T10:01:20Z</time>
      </trkpt>
      <trkpt lat="45.21857" lon="5.73788">
        <ele>852</ele>
        <time>2016-08-20T10:01:25Z</time>
      </trkpt>
      <trkpt lat="45.21856" lon="5.73786">
        <ele>852</ele>
        <time>2016-08-20T10:01:26Z</time>
      </trkpt>
      <trkpt lat="45.21855" lon="5.73785">
        <ele>852</ele>
        <time>2016-08-20T10:01:27Z</time>
      </trkpt>
      <trkpt lat="45.21854" lon="5.73784">
        <ele>853</ele>
        <time>2016-08-20T10:01:28Z</time>
      </trkpt>
      <trkpt lat="45.21853" lon="5.73783">
        <ele>853</ele>
        <time>2016-08-20T10:01:29Z</time>
      </trkpt>
      <trkpt lat="45.21848" lon="5.73778">
        <ele>854</ele>
        <time>2016-08-20T10:01:34Z</time>
      </trkpt>
      <trkpt lat="45.21843" lon="5.73777">
        <ele>855</ele>
        <time>2016-08-20T10:01:39Z</time>
      </trkpt>
      <trkpt lat="45.2184" lon="5.73778">
        <ele>856</ele>
        <time>2016-08-20T10:01:44Z</time>
      </trkpt>
      <trkpt lat="45.21832" lon="5.73772">
        <ele>859</ele>
        <time>2016-08-20T10:01:55Z</time>
      </trkpt>
      <trkpt lat="45.21831" lon="5.73771">
        <ele>859</ele>
        <time>2016-08-20T10:01:56Z</time>
      </trkpt>
      <trkpt lat="45.21802" lon="5.73749">
        <ele>860</ele>
        <time>2016-08-20T10:02:11Z</time>
      </trkpt>
      <trkpt lat="45.21782" lon="5.73728">
        <ele>860</ele>
        <time>2016-08-20T10:02:23Z</time>
      </trkpt>
      <trkpt lat="45.21762" lon="5.73711">
        <ele>860</ele>
        <time>2016-08-20T10:02:32Z</time>
      </trkpt>
      <trkpt lat="45.21759" lon="5.73682">
        <ele>861</ele>
        <time>2016-08-20T10:02:45Z</time>
      </trkpt>
      <trkpt lat="45.21752" lon="5.73665">
        <ele>863</ele>
        <time>2016-08-20T10:03:00Z</time>
      </trkpt>
      <trkpt lat="45.21751" lon="5.73665">
        <ele>863</ele>
        <time>2016-08-20T10:03:01Z</time>
      </trkpt>
      <trkpt lat="45.21738" lon="5.73652">
        <ele>865</ele>
        <time>2016-08-20T10:03:18Z</time>
      </trkpt>
      <trkpt lat="45.21738" lon="5.7365">
        <ele>866</ele>
        <time>2016-08-20T10:03:19Z</time>
      </trkpt>
      <trkpt lat="45.21737" lon="5.73649">
        <ele>866</ele>
        <time>2016-08-20T10:03:20Z</time>
      </trkpt>
      <trkpt lat="45.21736" lon="5.73648">
        <ele>866</ele>
        <time>2016-08-20T10:03:21Z</time>
      </trkpt>
      <trkpt lat="45.21735" lon="5.73646">
        <ele>866</ele>
        <time>2016-08-20T10:03:22Z</time>
      </trkpt>
      <trkpt lat="45.21734" lon="5.73646">
        <ele>867</ele>
        <time>2016-08-20T10:03:23Z</time>
      </trkpt>
      <trkpt lat="45.21733" lon="5.73644">
        <ele>867</ele>
        <time>2016-08-20T10:03:24Z</time>
      </trkpt>
      <trkpt lat="45.21732" lon="5.73643">
        <ele>867</ele>
        <time>2016-08-20T10:03:25Z</time>
      </trkpt>
      <trkpt lat="45.2173" lon="5.73635">
        <ele>868</ele>
        <time>2016-08-20T10:03:30Z</time>
      </trkpt>
      <trkpt lat="45.21728" lon="5.73634">
        <ele>868</ele>
        <time>2016-08-20T10:03:31Z</time>
      </trkpt>
      <trkpt lat="45.21724" lon="5.73611">
        <ele>871</ele>
        <time>2016-08-20T10:03:46Z</time>
      </trkpt>
      <trkpt lat="45.21725" lon="5.73609">
        <ele>871</ele>
        <time>2016-08-20T10:03:47Z</time>
      </trkpt>
      <trkpt lat="45.21724" lon="5.73607">
        <ele>872</ele>
        <time>2016-08-20T10:03:48Z</time>
      </trkpt>
      <trkpt lat="45.21723" lon="5.73605">
        <ele>872</ele>
        <time>2016-08-20T10:03:49Z</time>
      </trkpt>
      <trkpt lat="45.21701" lon="5.73591">
        <ele>875</ele>
        <time>2016-08-20T10:04:06Z</time>
      </trkpt>
      <trkpt lat="45.21678" lon="5.7359">
        <ele>874</ele>
        <time>2016-08-20T10:04:17Z</time>
      </trkpt>
      <trkpt lat="45.21655" lon="5.73584">
        <ele>875</ele>
        <time>2016-08-20T10:04:27Z</time>
      </trkpt>
      <trkpt lat="45.21628" lon="5.73576">
        <ele>874</ele>
        <time>2016-08-20T10:04:35Z</time>
      </trkpt>
      <trkpt lat="45.21607" lon="5.73575">
        <ele>874</ele>
        <time>2016-08-20T10:04:45Z</time>
      </trkpt>
      <trkpt lat="45.21575" lon="5.73549">
        <ele>873</ele>
        <time>2016-08-20T10:04:53Z</time>
      </trkpt>
      <trkpt lat="45.21606" lon="5.73495">
        <ele>871</ele>
        <time>2016-08-20T10:05:02Z</time>
      </trkpt>
      <trkpt lat="45.2161" lon="5.73476">
        <ele>870</ele>
        <time>2016-08-20T10:05:07Z</time>
      </trkpt>
      <trkpt lat="45.21613" lon="5.73445">
        <ele>868</ele>
        <time>2016-08-20T10:05:15Z</time>
      </trkpt>
      <trkpt lat="45.21603" lon="5.73421">
        <ele>867</ele>
        <time>2016-08-20T10:05:24Z</time>
      </trkpt>
      <trkpt lat="45.21586" lon="5.73408">
        <ele>865</ele>
        <time>2016-08-20T10:05:33Z</time>
      </trkpt>
      <trkpt lat="45.21567" lon="5.73397">
        <ele>862</ele>
        <time>2016-08-20T10:05:42Z</time>
      </trkpt>
      <trkpt lat="45.21561" lon="5.73393">
        <ele>861</ele>
        <time>2016-08-20T10:05:45Z</time>
      </trkpt>
      <trkpt lat="45.21555" lon="5.73387">
        <ele>859</ele>
        <time>2016-08-20T10:05:48Z</time>
      </trkpt>
      <trkpt lat="45.2154" lon="5.73367">
        <ele>856</ele>
        <time>2016-08-20T10:05:57Z</time>
      </trkpt>
      <trkpt lat="45.21527" lon="5.7336">
        <ele>854</ele>
        <time>2016-08-20T10:06:02Z</time>
      </trkpt>
      <trkpt lat="45.21507" lon="5.73356">
        <ele>852</ele>
        <time>2016-08-20T10:06:09Z</time>
      </trkpt>
      <trkpt lat="45.21488" lon="5.73351">
        <ele>849</ele>
        <time>2016-08-20T10:06:16Z</time>
      </trkpt>
      <trkpt lat="45.21473" lon="5.73345">
        <ele>846</ele>
        <time>2016-08-20T10:06:24Z</time>
      </trkpt>
      <trkpt lat="45.21473" lon="5.7334">
        <ele>846</ele>
        <time>2016-08-20T10:06:25Z</time>
      </trkpt>
      <trkpt lat="45.21472" lon="5.73332">
        <ele>845</ele>
        <time>2016-08-20T10:06:28Z</time>
      </trkpt>
      <trkpt lat="45.21473" lon="5.73328">
        <ele>845</ele>
        <time>2016-08-20T10:06:29Z</time>
      </trkpt>
      <trkpt lat="45.21472" lon="5.73301">
        <ele>843</ele>
        <time>2016-08-20T10:06:36Z</time>
      </trkpt>
      <trkpt lat="45.21472" lon="5.73297">
        <ele>843</ele>
        <time>2016-08-20T10:06:37Z</time>
      </trkpt>
      <trkpt lat="45.21472" lon="5.73278">
        <ele>844</ele>
        <time>2016-08-20T10:06:43Z</time>
      </trkpt>
      <trkpt lat="45.2147" lon="5.73276">
        <ele>844</ele>
        <time>2016-08-20T10:06:44Z</time>
      </trkpt>
      <trkpt lat="45.21469" lon="5.73273">
        <ele>843</ele>
        <time>2016-08-20T10:06:45Z</time>
      </trkpt>
      <trkpt lat="45.21467" lon="5.73272">
        <ele>843</ele>
        <time>2016-08-20T10:06:46Z</time>
      </trkpt>
      <trkpt lat="45.21465" lon="5.73271">
        <ele>843</ele>
        <time>2016-08-20T10:06:47Z</time>
      </trkpt>
      <trkpt lat="45.21463" lon="5.73269">
        <ele>842</ele>
        <time>2016-08-20T10:06:48Z</time>
      </trkpt>
      <trkpt lat="45.21447" lon="5.73253">
        <ele>839</ele>
        <time>2016-08-20T10:06:56Z</time>
      </trkpt>
      <trkpt lat="45.21445" lon="5.73252">
        <ele>839</ele>
        <time>2016-08-20T10:06:57Z</time>
      </trkpt>
      <trkpt lat="45.2144" lon="5.73246">
        <ele>838</ele>
        <time>2016-08-20T10:07:00Z</time>
      </trkpt>
      <trkpt lat="45.21437" lon="5.73218">
        <ele>836</ele>
        <time>2016-08-20T10:07:09Z</time>
      </trkpt>
      <trkpt lat="45.21432" lon="5.73209">
        <ele>834</ele>
        <time>2016-08-20T10:07:15Z</time>
      </trkpt>
      <trkpt lat="45.2143" lon="5.73209">
        <ele>833</ele>
        <time>2016-08-20T10:07:16Z</time>
      </trkpt>
      <trkpt lat="45.21429" lon="5.73209">
        <ele>833</ele>
        <time>2016-08-20T10:07:17Z</time>
      </trkpt>
      <trkpt lat="45.21427" lon="5.73208">
        <ele>832</ele>
        <time>2016-08-20T10:07:18Z</time>
      </trkpt>
      <trkpt lat="45.21426" lon="5.73205">
        <ele>832</ele>
        <time>2016-08-20T10:07:19Z</time>
      </trkpt>
      <trkpt lat="45.21426" lon="5.73203">
        <ele>831</ele>
        <time>2016-08-20T10:07:20Z</time>
      </trkpt>
      <trkpt lat="45.21424" lon="5.73201">
        <ele>831</ele>
        <time>2016-08-20T10:07:21Z</time>
      </trkpt>
      <trkpt lat="45.21423" lon="5.73198">
        <ele>831</ele>
        <time>2016-08-20T10:07:22Z</time>
      </trkpt>
      <trkpt lat="45.2142" lon="5.73197">
        <ele>830</ele>
        <time>2016-08-20T10:07:23Z</time>
      </trkpt>
      <trkpt lat="45.21418" lon="5.73194">
        <ele>830</ele>
        <time>2016-08-20T10:07:24Z</time>
      </trkpt>
      <trkpt lat="45.21416" lon="5.73193">
        <ele>829</ele>
        <time>2016-08-20T10:07:25Z</time>
      </trkpt>
      <trkpt lat="45.21415" lon="5.73191">
        <ele>829</ele>
        <time>2016-08-20T10:07:26Z</time>
      </trkpt>
      <trkpt lat="45.21412" lon="5.7319">
        <ele>828</ele>
        <time>2016-08-20T10:07:27Z</time>
      </trkpt>
      <trkpt lat="45.21403" lon="5.73188">
        <ele>826</ele>
        <time>2016-08-20T10:07:31Z</time>
      </trkpt>
      <trkpt lat="45.21377" lon="5.73176">
        <ele>823</ele>
        <time>2016-08-20T10:07:41Z</time>
      </trkpt>
      <trkpt lat="45.21375" lon="5.73167">
        <ele>822</ele>
        <time>2016-08-20T10:07:43Z</time>
      </trkpt>
      <trkpt lat="45.21359" lon="5.73145">
        <ele>820</ele>
        <time>2016-08-20T10:07:51Z</time>
      </trkpt>
      <trkpt lat="45.21344" lon="5.73125">
        <ele>818</ele>
        <time>2016-08-20T10:07:59Z</time>
      </trkpt>
      <trkpt lat="45.21329" lon="5.73107">
        <ele>817</ele>
        <time>2016-08-20T10:08:06Z</time>
      </trkpt>
      <trkpt lat="45.21317" lon="5.73079">
        <ele>814</ele>
        <time>2016-08-20T10:08:18Z</time>
      </trkpt>
      <trkpt lat="45.21308" lon="5.73067">
        <ele>810</ele>
        <time>2016-08-20T10:08:25Z</time>
      </trkpt>
      <trkpt lat="45.21304" lon="5.73064">
        <ele>810</ele>
        <time>2016-08-20T10:08:27Z</time>
      </trkpt>
      <trkpt lat="45.21298" lon="5.7305">
        <ele>806</ele>
        <time>2016-08-20T10:08:33Z</time>
      </trkpt>
      <trkpt lat="45.21283" lon="5.73033">
        <ele>803</ele>
        <time>2016-08-20T10:08:40Z</time>
      </trkpt>
      <trkpt lat="45.21271" lon="5.73014">
        <ele>799</ele>
        <time>2016-08-20T10:08:48Z</time>
      </trkpt>
      <trkpt lat="45.2126" lon="5.73001">
        <ele>797</ele>
        <time>2016-08-20T10:08:56Z</time>
      </trkpt>
      <trkpt lat="45.21259" lon="5.72999">
        <ele>796</ele>
        <time>2016-08-20T10:08:57Z</time>
      </trkpt>
      <trkpt lat="45.21246" lon="5.72988">
        <ele>793</ele>
        <time>2016-08-20T10:09:03Z</time>
      </trkpt>
      <trkpt lat="45.21242" lon="5.72986">
        <ele>792</ele>
        <time>2016-08-20T10:09:05Z</time>
      </trkpt>
      <trkpt lat="45.21236" lon="5.72971">
        <ele>790</ele>
        <time>2016-08-20T10:09:11Z</time>
      </trkpt>
      <trkpt lat="45.21225" lon="5.72966">
        <ele>786</ele>
        <time>2016-08-20T10:09:19Z</time>
      </trkpt>
      <trkpt lat="45.21214" lon="5.72956">
        <ele>783</ele>
        <time>2016-08-20T10:09:27Z</time>
      </trkpt>
      <trkpt lat="45.21199" lon="5.72951">
        <ele>780</ele>
        <time>2016-08-20T10:09:34Z</time>
      </trkpt>
      <trkpt lat="45.21196" lon="5.72933">
        <ele>778</ele>
        <time>2016-08-20T10:09:40Z</time>
      </trkpt>
      <trkpt lat="45.21194" lon="5.72933">
        <ele>778</ele>
        <time>2016-08-20T10:09:41Z</time>
      </trkpt>
      <trkpt lat="45.21193" lon="5.72932">
        <ele>777</ele>
        <time>2016-08-20T10:09:42Z</time>
      </trkpt>
      <trkpt lat="45.21192" lon="5.72932">
        <ele>777</ele>
        <time>2016-08-20T10:09:43Z</time>
      </trkpt>
      <trkpt lat="45.2119" lon="5.72932">
        <ele>776</ele>
        <time>2016-08-20T10:09:44Z</time>
      </trkpt>
      <trkpt lat="45.21188" lon="5.72932">
        <ele>776</ele>
        <time>2016-08-20T10:09:45Z</time>
      </trkpt>
      <trkpt lat="45.21185" lon="5.72932">
        <ele>776</ele>
        <time>2016-08-20T10:09:46Z</time>
      </trkpt>
      <trkpt lat="45.21183" lon="5.72932">
        <ele>775</ele>
        <time>2016-08-20T10:09:47Z</time>
      </trkpt>
      <trkpt lat="45.21181" lon="5.72932">
        <ele>775</ele>
        <time>2016-08-20T10:09:48Z</time>
      </trkpt>
      <trkpt lat="45.21179" lon="5.72933">
        <ele>774</ele>
        <time>2016-08-20T10:09:49Z</time>
      </trkpt>
      <trkpt lat="45.21179" lon="5.72934">
        <ele>774</ele>
        <time>2016-08-20T10:09:50Z</time>
      </trkpt>
      <trkpt lat="45.2118" lon="5.72936">
        <ele>773</ele>
        <time>2016-08-20T10:09:51Z</time>
      </trkpt>
      <trkpt lat="45.21181" lon="5.72937">
        <ele>773</ele>
        <time>2016-08-20T10:09:52Z</time>
      </trkpt>
      <trkpt lat="45.21184" lon="5.72938">
        <ele>773</ele>
        <time>2016-08-20T10:09:53Z</time>
      </trkpt>
      <trkpt lat="45.21185" lon="5.72939">
        <ele>772</ele>
        <time>2016-08-20T10:09:54Z</time>
      </trkpt>
      <trkpt lat="45.21186" lon="5.72941">
        <ele>772</ele>
        <time>2016-08-20T10:09:55Z</time>
      </trkpt>
      <trkpt lat="45.21192" lon="5.72947">
        <ele>770</ele>
        <time>2016-08-20T10:09:59Z</time>
      </trkpt>
      <trkpt lat="45.21192" lon="5.72949">
        <ele>769</ele>
        <time>2016-08-20T10:10:00Z</time>
      </trkpt>
      <trkpt lat="45.21189" lon="5.72951">
        <ele>768</ele>
        <time>2016-08-20T10:10:03Z</time>
      </trkpt>
      <trkpt lat="45.21188" lon="5.7295">
        <ele>768</ele>
        <time>2016-08-20T10:10:04Z</time>
      </trkpt>
      <trkpt lat="45.21186" lon="5.72949">
        <ele>768</ele>
        <time>2016-08-20T10:10:05Z</time>
      </trkpt>
      <trkpt lat="45.21184" lon="5.72947">
        <ele>768</ele>
        <time>2016-08-20T10:10:06Z</time>
      </trkpt>
      <trkpt lat="45.21181" lon="5.72946">
        <ele>767</ele>
        <time>2016-08-20T10:10:07Z</time>
      </trkpt>
      <trkpt lat="45.21179" lon="5.72944">
        <ele>767</ele>
        <time>2016-08-20T10:10:08Z</time>
      </trkpt>
      <trkpt lat="45.21166" lon="5.72928">
        <ele>764</ele>
        <time>2016-08-20T10:10:17Z</time>
      </trkpt>
      <trkpt lat="45.2115" lon="5.72919">
        <ele>760</ele>
        <time>2016-08-20T10:10:25Z</time>
      </trkpt>
      <trkpt lat="45.21146" lon="5.72918">
        <ele>759</ele>
        <time>2016-08-20T10:10:27Z</time>
      </trkpt>
      <trkpt lat="45.21137" lon="5.72916">
        <ele>757</ele>
        <time>2016-08-20T10:10:31Z</time>
      </trkpt>
      <trkpt lat="45.21117" lon="5.72912">
        <ele>754</ele>
        <time>2016-08-20T10:10:40Z</time>
      </trkpt>
      <trkpt lat="45.21107" lon="5.72909">
        <ele>752</ele>
        <time>2016-08-20T10:10:44Z</time>
      </trkpt>
      <trkpt lat="45.21091" lon="5.72897">
        <ele>749</ele>
        <time>2016-08-20T10:10:52Z</time>
      </trkpt>
      <trkpt lat="45.21076" lon="5.7288">
        <ele>746</ele>
        <time>2016-08-20T10:11:02Z</time>
      </trkpt>
      <trkpt lat="45.2106" lon="5.72855">
        <ele>742</ele>
        <time>2016-08-20T10:11:14Z</time>
      </trkpt>
      <trkpt lat="45.21049" lon="5.72818">
        <ele>741</ele>
        <time>2016-08-20T10:11:24Z</time>
      </trkpt>
      <trkpt lat="45.21049" lon="5.72779">
        <ele>740</ele>
        <time>2016-08-20T10:11:34Z</time>
      </trkpt>
      <trkpt lat="45.21037" lon="5.72751">
        <ele>737</ele>
        <time>2016-08-20T10:11:48Z</time>
      </trkpt>
      <trkpt lat="45.21022" lon="5.72748">
        <ele>734</ele>
        <time>2016-08-20T10:11:56Z</time>
      </trkpt>
      <trkpt lat="45.21018" lon="5.72747">
        <ele>733</ele>
        <time>2016-08-20T10:11:58Z</time>
      </trkpt>
      <trkpt lat="45.21012" lon="5.7275">
        <ele>732</ele>
        <time>2016-08-20T10:12:02Z</time>
      </trkpt>
      <trkpt lat="45.21001" lon="5.72754">
        <ele>729</ele>
        <time>2016-08-20T10:12:10Z</time>
      </trkpt>
      <trkpt lat="45.20998" lon="5.72754">
        <ele>727</ele>
        <time>2016-08-20T10:12:14Z</time>
      </trkpt>
      <trkpt lat="45.20997" lon="5.72754">
        <ele>727</ele>
        <time>2016-08-20T10:12:15Z</time>
      </trkpt>
      <trkpt lat="45.20996" lon="5.72755">
        <ele>726</ele>
        <time>2016-08-20T10:12:16Z</time>
      </trkpt>
      <trkpt lat="45.20991" lon="5.72756">
        <ele>724</ele>
        <time>2016-08-20T10:12:21Z</time>
      </trkpt>
      <trkpt lat="45.20989" lon="5.72758">
        <ele>723</ele>
        <time>2016-08-20T10:12:24Z</time>
      </trkpt>
      <trkpt lat="45.20985" lon="5.72757">
        <ele>720</ele>
        <time>2016-08-20T10:12:30Z</time>
      </trkpt>
      <trkpt lat="45.20982" lon="5.72758">
        <ele>719</ele>
        <time>2016-08-20T10:12:32Z</time>
      </trkpt>
      <trkpt lat="45.20981" lon="5.72759">
        <ele>719</ele>
        <time>2016-08-20T10:12:33Z</time>
      </trkpt>
      <trkpt lat="45.2098" lon="5.72761">
        <ele>718</ele>
        <time>2016-08-20T10:12:34Z</time>
      </trkpt>
      <trkpt lat="45.20979" lon="5.72763">
        <ele>718</ele>
        <time>2016-08-20T10:12:35Z</time>
      </trkpt>
      <trkpt lat="45.20978" lon="5.72764">
        <ele>718</ele>
        <time>2016-08-20T10:12:36Z</time>
      </trkpt>
      <trkpt lat="45.20978" lon="5.72765">
        <ele>717</ele>
        <time>2016-08-20T10:12:37Z</time>
      </trkpt>
      <trkpt lat="45.20977" lon="5.72766">
        <ele>717</ele>
        <time>2016-08-20T10:12:38Z</time>
      </trkpt>
      <trkpt lat="45.20977" lon="5.72766">
        <ele>717</ele>
        <time>2016-08-20T10:12:39Z</time>
      </trkpt>
      <trkpt lat="45.20973" lon="5.72765">
        <ele>715</ele>
        <time>2016-08-20T10:12:43Z</time>
      </trkpt>
      <trkpt lat="45.20972" lon="5.72765">
        <ele>715</ele>
        <time>2016-08-20T10:12:44Z</time>
      </trkpt>
      <trkpt lat="45.2097" lon="5.72764">
        <ele>714</ele>
        <time>2016-08-20T10:12:45Z</time>
      </trkpt>
      <trkpt lat="45.20961" lon="5.72757">
        <ele>711</ele>
        <time>2016-08-20T10:12:50Z</time>
      </trkpt>
      <trkpt lat="45.2096" lon="5.72752">
        <ele>711</ele>
        <time>2016-08-20T10:12:52Z</time>
      </trkpt>
      <trkpt lat="45.20956" lon="5.72749">
        <ele>709</ele>
        <time>2016-08-20T10:12:55Z</time>
      </trkpt>
      <trkpt lat="45.20954" lon="5.72749">
        <ele>709</ele>
        <time>2016-08-20T10:12:56Z</time>
      </trkpt>
      <trkpt lat="45.20953" lon="5.72747">
        <ele>708</ele>
        <time>2016-08-20T10:12:57Z</time>
      </trkpt>
      <trkpt lat="45.20952" lon="5.72746">
        <ele>708</ele>
        <time>2016-08-20T10:12:58Z</time>
      </trkpt>
      <trkpt lat="45.20951" lon="5.72744">
        <ele>708</ele>
        <time>2016-08-20T10:12:59Z</time>
      </trkpt>
      <trkpt lat="45.2095" lon="5.72743">
        <ele>707</ele>
        <time>2016-08-20T10:13:00Z</time>
      </trkpt>
      <trkpt lat="45.20942" lon="5.72734">
        <ele>704</ele>
        <time>2016-08-20T10:13:07Z</time>
      </trkpt>
      <trkpt lat="45.20933" lon="5.72731">
        <ele>700</ele>
        <time>2016-08-20T10:13:12Z</time>
      </trkpt>
      <trkpt lat="45.20929" lon="5.7273">
        <ele>700</ele>
        <time>2016-08-20T10:13:14Z</time>
      </trkpt>
      <trkpt lat="45.20916" lon="5.72724">
        <ele>697</ele>
        <time>2016-08-20T10:13:20Z</time>
      </trkpt>
      <trkpt lat="45.20914" lon="5.72723">
        <ele>697</ele>
        <time>2016-08-20T10:13:21Z</time>
      </trkpt>
      <trkpt lat="45.20909" lon="5.72706">
        <ele>693</ele>
        <time>2016-08-20T10:13:28Z</time>
      </trkpt>
      <trkpt lat="45.20903" lon="5.72692">
        <ele>690</ele>
        <time>2016-08-20T10:13:37Z</time>
      </trkpt>
      <trkpt lat="45.20901" lon="5.72692">
        <ele>690</ele>
        <time>2016-08-20T10:13:38Z</time>
      </trkpt>
      <trkpt lat="45.209" lon="5.72692">
        <ele>690</ele>
        <time>2016-08-20T10:13:39Z</time>
      </trkpt>
      <trkpt lat="45.20889" lon="5.72691">
        <ele>687</ele>
        <time>2016-08-20T10:13:46Z</time>
      </trkpt>
      <trkpt lat="45.20888" lon="5.7269">
        <ele>687</ele>
        <time>2016-08-20T10:13:47Z</time>
      </trkpt>
      <trkpt lat="45.20887" lon="5.72691">
        <ele>687</ele>
        <time>2016-08-20T10:13:48Z</time>
      </trkpt>
      <trkpt lat="45.20885" lon="5.72691">
        <ele>687</ele>
        <time>2016-08-20T10:13:49Z</time>
      </trkpt>
      <trkpt lat="45.20884" lon="5.72692">
        <ele>686</ele>
        <time>2016-08-20T10:13:50Z</time>
      </trkpt>
      <trkpt lat="45.20874" lon="5.72693">
        <ele>683</ele>
        <time>2016-08-20T10:13:56Z</time>
      </trkpt>
      <trkpt lat="45.20854" lon="5.727">
        <ele>679</ele>
        <time>2016-08-20T10:14:05Z</time>
      </trkpt>
      <trkpt lat="45.20837" lon="5.72704">
        <ele>676</ele>
        <time>2016-08-20T10:14:15Z</time>
      </trkpt>
      <trkpt lat="45.20828" lon="5.72698">
        <ele>673</ele>
        <time>2016-08-20T10:14:25Z</time>
      </trkpt>
      <trkpt lat="45.20823" lon="5.72695">
        <ele>672</ele>
        <time>2016-08-20T10:14:30Z</time>
      </trkpt>
      <trkpt lat="45.20823" lon="5.72692">
        <ele>672</ele>
        <time>2016-08-20T10:14:31Z</time>
      </trkpt>
      <trkpt lat="45.20822" lon="5.7269">
        <ele>671</ele>
        <time>2016-08-20T10:14:32Z</time>
      </trkpt>
      <trkpt lat="45.20822" lon="5.72688">
        <ele>671</ele>
        <time>2016-08-20T10:14:33Z</time>
      </trkpt>
      <trkpt lat="45.20821" lon="5.72686">
        <ele>670</ele>
        <time>2016-08-20T10:14:34Z</time>
      </trkpt>
      <trkpt lat="45.20819" lon="5.72681">
        <ele>669</ele>
        <time>2016-08-20T10:14:37Z</time>
      </trkpt>
      <trkpt lat="45.20817" lon="5.72669">
        <ele>666</ele>
        <time>2016-08-20T10:14:44Z</time>
      </trkpt>
      <trkpt lat="45.20816" lon="5.72664">
        <ele>664</ele>
        <time>2016-08-20T10:14:47Z</time>
      </trkpt>
      <trkpt lat="45.20809" lon="5.72665">
        <ele>661</ele>
        <time>2016-08-20T10:14:57Z</time>
      </trkpt>
      <trkpt lat="45.20802" lon="5.72667">
        <ele>659</ele>
        <time>2016-08-20T10:15:01Z</time>
      </trkpt>
      <trkpt lat="45.208" lon="5.72668">
        <ele>659</ele>
        <time>2016-08-20T10:15:02Z</time>
      </trkpt>
      <trkpt lat="45.20799" lon="5.72667">
        <ele>659</ele>
        <time>2016-08-20T10:15:03Z</time>
      </trkpt>
      <trkpt lat="45.20797" lon="5.72664">
        <ele>659</ele>
        <time>2016-08-20T10:15:04Z</time>
      </trkpt>
      <trkpt lat="45.20796" lon="5.72663">
        <ele>658</ele>
        <time>2016-08-20T10:15:05Z</time>
      </trkpt>
      <trkpt lat="45.20794" lon="5.72662">
        <ele>658</ele>
        <time>2016-08-20T10:15:06Z</time>
      </trkpt>
      <trkpt lat="45.20793" lon="5.7266">
        <ele>657</ele>
        <time>2016-08-20T10:15:07Z</time>
      </trkpt>
      <trkpt lat="45.20792" lon="5.72658">
        <ele>657</ele>
        <time>2016-08-20T10:15:08Z</time>
      </trkpt>
      <trkpt lat="45.20792" lon="5.72656">
        <ele>656</ele>
        <time>2016-08-20T10:15:09Z</time>
      </trkpt>
      <trkpt lat="45.20791" lon="5.72655">
        <ele>656</ele>
        <time>2016-08-20T10:15:10Z</time>
      </trkpt>
      <trkpt lat="45.20786" lon="5.72645">
        <ele>653</ele>
        <time>2016-08-20T10:15:18Z</time>
      </trkpt>
      <trkpt lat="45.20781" lon="5.72635">
        <ele>650</ele>
        <time>2016-08-20T10:15:24Z</time>
      </trkpt>
      <trkpt lat="45.20781" lon="5.72633">
        <ele>650</ele>
        <time>2016-08-20T10:15:25Z</time>
      </trkpt>
      <trkpt lat="45.20778" lon="5.72634">
        <ele>648</ele>
        <time>2016-08-20T10:15:32Z</time>
      </trkpt>
      <trkpt lat="45.20778" lon="5.72636">
        <ele>647</ele>
        <time>2016-08-20T10:15:33Z</time>
      </trkpt>
      <trkpt lat="45.20778" lon="5.72639">
        <ele>647</ele>
        <time>2016-08-20T10:15:34Z</time>
      </trkpt>
      <trkpt lat="45.20767" lon="5.72651">
        <ele>644</ele>
        <time>2016-08-20T10:15:43Z</time>
      </trkpt>
      <trkpt lat="45.20765" lon="5.72652">
        <ele>643</ele>
        <time>2016-08-20T10:15:45Z</time>
      </trkpt>
      <trkpt lat="45.2076" lon="5.72652">
        <ele>642</ele>
        <time>2016-08-20T10:15:48Z</time>
      </trkpt>
      <trkpt lat="45.20759" lon="5.72651">
        <ele>641</ele>
        <time>2016-08-20T10:15:49Z</time>
      </trkpt>
      <trkpt lat="45.20758" lon="5.72649">
        <ele>640</ele>
        <time>2016-08-20T10:15:50Z</time>
      </trkpt>
      <trkpt lat="45.20758" lon="5.72647">
        <ele>640</ele>
        <time>2016-08-20T10:15:51Z</time>
      </trkpt>
      <trkpt lat="45.20757" lon="5.72645">
        <ele>639</ele>
        <time>2016-08-20T10:15:52Z</time>
      </trkpt>
      <trkpt lat="45.20757" lon="5.72643">
        <ele>639</ele>
        <time>2016-08-20T10:15:53Z</time>
      </trkpt>
      <trkpt lat="45.20757" lon="5.72641">
        <ele>639</ele>
        <time>2016-08-20T10:15:54Z</time>
      </trkpt>
      <trkpt lat="45.20757" lon="5.72638">
        <ele>638</ele>
        <time>2016-08-20T10:15:55Z</time>
      </trkpt>
      <trkpt lat="45.20756" lon="5.72637">
        <ele>638</ele>
        <time>2016-08-20T10:15:56Z</time>
      </trkpt>
      <trkpt lat="45.20756" lon="5.72636">
        <ele>637</ele>
        <time>2016-08-20T10:15:57Z</time>
      </trkpt>
      <trkpt lat="45.20753" lon="5.72623">
        <ele>634</ele>
        <time>2016-08-20T10:16:04Z</time>
      </trkpt>
      <trkpt lat="45.20752" lon="5.72622">
        <ele>634</ele>
        <time>2016-08-20T10:16:05Z</time>
      </trkpt>
      <trkpt lat="45.20751" lon="5.72622">
        <ele>633</ele>
        <time>2016-08-20T10:16:06Z</time>
      </trkpt>
      <trkpt lat="45.2075" lon="5.72622">
        <ele>633</ele>
        <time>2016-08-20T10:16:07Z</time>
      </trkpt>
      <trkpt lat="45.20739" lon="5.72624">
        <ele>630</ele>
        <time>2016-08-20T10:16:14Z</time>
      </trkpt>
      <trkpt lat="45.20734" lon="5.72625">
        <ele>628</ele>
        <time>2016-08-20T10:16:18Z</time>
      </trkpt>
      <trkpt lat="45.20732" lon="5.72624">
        <ele>628</ele>
        <time>2016-08-20T10:16:19Z</time>
      </trkpt>
      <trkpt lat="45.20731" lon="5.72622">
        <ele>627</ele>
        <time>2016-08-20T10:16:20Z</time>
      </trkpt>
      <trkpt lat="45.2073" lon="5.7262">
        <ele>627</ele>
        <time>2016-08-20T10:16:21Z</time>
      </trkpt>
      <trkpt lat="45.20729" lon="5.72619">
        <ele>627</ele>
        <time>2016-08-20T10:16:22Z</time>
      </trkpt>
      <trkpt lat="45.20727" lon="5.72618">
        <ele>626</ele>
        <time>2016-08-20T10:16:23Z</time>
      </trkpt>
      <trkpt lat="45.20726" lon="5.72616">
        <ele>625</ele>
        <time>2016-08-20T10:16:24Z</time>
      </trkpt>
      <trkpt lat="45.20725" lon="5.72613">
        <ele>625</ele>
        <time>2016-08-20T10:16:25Z</time>
      </trkpt>
      <trkpt lat="45.20725" lon="5.7261">
        <ele>625</ele>
        <time>2016-08-20T10:16:26Z</time>
      </trkpt>
      <trkpt lat="45.20724" lon="5.72608">
        <ele>624</ele>
        <time>2016-08-20T10:16:27Z</time>
      </trkpt>
      <trkpt lat="45.20721" lon="5.72603">
        <ele>623</ele>
        <time>2016-08-20T10:16:30Z</time>
      </trkpt>
      <trkpt lat="45.20719" lon="5.726">
        <ele>622</ele>
        <time>2016-08-20T10:16:32Z</time>
      </trkpt>
      <trkpt lat="45.20717" lon="5.726">
        <ele>622</ele>
        <time>2016-08-20T10:16:33Z</time>
      </trkpt>
      <trkpt lat="45.20715" lon="5.726">
        <ele>622</ele>
        <time>2016-08-20T10:16:34Z</time>
      </trkpt>
      <trkpt lat="45.20702" lon="5.72596">
        <ele>619</ele>
        <time>2016-08-20T10:16:40Z</time>
      </trkpt>
      <trkpt lat="45.2069" lon="5.72587">
        <ele>616</ele>
        <time>2016-08-20T10:16:48Z</time>
      </trkpt>
      <trkpt lat="45.20679" lon="5.72577">
        <ele>612</ele>
        <time>2016-08-20T10:16:55Z</time>
      </trkpt>
      <trkpt lat="45.20665" lon="5.72577">
        <ele>609</ele>
        <time>2016-08-20T10:17:03Z</time>
      </trkpt>
      <trkpt lat="45.20653" lon="5.72589">
        <ele>606</ele>
        <time>2016-08-20T10:17:13Z</time>
      </trkpt>
      <trkpt lat="45.20628" lon="5.72606">
        <ele>604</ele>
        <time>2016-08-20T10:17:28Z</time>
      </trkpt>
      <trkpt lat="45.20596" lon="5.72598">
        <ele>601</ele>
        <time>2016-08-20T10:17:39Z</time>
      </trkpt>
      <trkpt lat="45.20571" lon="5.72585">
        <ele>600</ele>
        <time>2016-08-20T10:17:48Z</time>
      </trkpt>
      <trkpt lat="45.20549" lon="5.72577">
        <ele>597</ele>
        <time>2016-08-20T10:17:58Z</time>
      </trkpt>
      <trkpt lat="45.20524" lon="5.72572">
        <ele>596</ele>
        <time>2016-08-20T10:18:08Z</time>
      </trkpt>
      <trkpt lat="45.20502" lon="5.72582">
        <ele>593</ele>
        <time>2016-08-20T10:18:20Z</time>
      </trkpt>
      <trkpt lat="45.20474" lon="5.72582">
        <ele>592</ele>
        <time>2016-08-20T10:18:30Z</time>
      </trkpt>
      <trkpt lat="45.20454" lon="5.72568">
        <ele>590</ele>
        <time>2016-08-20T10:18:39Z</time>
      </trkpt>
      <trkpt lat="45.20437" lon="5.72554">
        <ele>588</ele>
        <time>2016-08-20T10:18:47Z</time>
      </trkpt>
      <trkpt lat="45.20422" lon="5.72535">
        <ele>586</ele>
        <time>2016-08-20T10:18:55Z</time>
      </trkpt>
      <trkpt lat="45.20415" lon="5.7253">
        <ele>585</ele>
        <time>2016-08-20T10:18:59Z</time>
      </trkpt>
      <trkpt lat="45.20413" lon="5.72531">
        <ele>585</ele>
        <time>2016-08-20T10:19:00Z</time>
      </trkpt>
      <trkpt lat="45.20411" lon="5.72533">
        <ele>585</ele>
        <time>2016-08-20T10:19:01Z</time>
      </trkpt>
      <trkpt lat="45.2041" lon="5.72535">
        <ele>584</ele>
        <time>2016-08-20T10:19:02Z</time>
      </trkpt>
      <trkpt lat="45.20409" lon="5.72537">
        <ele>584</ele>
        <time>2016-08-20T10:19:03Z</time>
      </trkpt>
      <trkpt lat="45.20408" lon="5.7254">
        <ele>583</ele>
        <time>2016-08-20T10:19:04Z</time>
      </trkpt>
      <trkpt lat="45.20407" lon="5.72542">
        <ele>583</ele>
        <time>2016-08-20T10:19:05Z</time>
      </trkpt>
      <trkpt lat="45.20407" lon="5.72544">
        <ele>583</ele>
        <time>2016-08-20T10:19:06Z</time>
      </trkpt>
      <trkpt lat="45.20408" lon="5.72545">
        <ele>583</ele>
        <time>2016-08-20T10:19:07Z</time>
      </trkpt>
      <trkpt lat="45.20408" lon="5.72547">
        <ele>583</ele>
        <time>2016-08-20T10:19:08Z</time>
      </trkpt>
      <trkpt lat="45.20411" lon="5.72551">
        <ele>582</ele>
        <time>2016-08-20T10:19:10Z</time>
      </trkpt>
      <trkpt lat="45.20411" lon="5.72554">
        <ele>582</ele>
        <time>2016-08-20T10:19:11Z</time>
      </trkpt>
      <trkpt lat="45.20429" lon="5.7258">
        <ele>579</ele>
        <time>2016-08-20T10:19:23Z</time>
      </trkpt>
      <trkpt lat="45.20442" lon="5.72607">
        <ele>576</ele>
        <time>2016-08-20T10:19:32Z</time>
      </trkpt>
      <trkpt lat="45.20444" lon="5.72609">
        <ele>576</ele>
        <time>2016-08-20T10:19:33Z</time>
      </trkpt>
      <trkpt lat="45.20452" lon="5.72615">
        <ele>574</ele>
        <time>2016-08-20T10:19:37Z</time>
      </trkpt>
      <trkpt lat="45.2048" lon="5.72618">
        <ele>572</ele>
        <time>2016-08-20T10:19:45Z</time>
      </trkpt>
      <trkpt lat="45.20492" lon="5.72646">
        <ele>569</ele>
        <time>2016-08-20T10:19:54Z</time>
      </trkpt>
      <trkpt lat="45.20505" lon="5.72673">
        <ele>566</ele>
        <time>2016-08-20T10:20:05Z</time>
      </trkpt>
      <trkpt lat="45.20517" lon="5.72699">
        <ele>565</ele>
        <time>2016-08-20T10:20:16Z</time>
      </trkpt>
      <trkpt lat="45.20517" lon="5.72704">
        <ele>565</ele>
        <time>2016-08-20T10:20:17Z</time>
      </trkpt>
      <trkpt lat="45.20515" lon="5.72708">
        <ele>564</ele>
        <time>2016-08-20T10:20:18Z</time>
      </trkpt>
      <trkpt lat="45.20512" lon="5.7271">
        <ele>564</ele>
        <time>2016-08-20T10:20:19Z</time>
      </trkpt>
      <trkpt lat="45.2051" lon="5.72712">
        <ele>564</ele>
        <time>2016-08-20T10:20:20Z</time>
      </trkpt>
      <trkpt lat="45.20507" lon="5.72712">
        <ele>564</ele>
        <time>2016-08-20T10:20:21Z</time>
      </trkpt>
      <trkpt lat="45.20504" lon="5.72713">
        <ele>563</ele>
        <time>2016-08-20T10:20:22Z</time>
      </trkpt>
      <trkpt lat="45.20483" lon="5.72706">
        <ele>561</ele>
        <time>2016-08-20T10:20:30Z</time>
      </trkpt>
      <trkpt lat="45.20465" lon="5.72697">
        <ele>558</ele>
        <time>2016-08-20T10:20:37Z</time>
      </trkpt>
      <trkpt lat="45.20444" lon="5.72691">
        <ele>555</ele>
        <time>2016-08-20T10:20:45Z</time>
      </trkpt>
      <trkpt lat="45.20442" lon="5.72691">
        <ele>555</ele>
        <time>2016-08-20T10:20:46Z</time>
      </trkpt>
      <trkpt lat="45.20419" lon="5.72686">
        <ele>553</ele>
        <time>2016-08-20T10:20:54Z</time>
      </trkpt>
      <trkpt lat="45.20396" lon="5.72682">
        <ele>550</ele>
        <time>2016-08-20T10:21:03Z</time>
      </trkpt>
      <trkpt lat="45.20393" lon="5.72682">
        <ele>549</ele>
        <time>2016-08-20T10:21:04Z</time>
      </trkpt>
      <trkpt lat="45.20363" lon="5.72678">
        <ele>546</ele>
        <time>2016-08-20T10:21:14Z</time>
      </trkpt>
      <trkpt lat="45.2034" lon="5.72656">
        <ele>546</ele>
        <time>2016-08-20T10:21:20Z</time>
      </trkpt>
      <trkpt lat="45.20333" lon="5.72651">
        <ele>544</ele>
        <time>2016-08-20T10:21:23Z</time>
      </trkpt>
      <trkpt lat="45.20331" lon="5.72653">
        <ele>544</ele>
        <time>2016-08-20T10:21:24Z</time>
      </trkpt>
      <trkpt lat="45.20329" lon="5.72654">
        <ele>544</ele>
        <time>2016-08-20T10:21:25Z</time>
      </trkpt>
      <trkpt lat="45.20328" lon="5.72658">
        <ele>543</ele>
        <time>2016-08-20T10:21:26Z</time>
      </trkpt>
      <trkpt lat="45.20327" lon="5.72661">
        <ele>543</ele>
        <time>2016-08-20T10:21:27Z</time>
      </trkpt>
      <trkpt lat="45.20328" lon="5.72671">
        <ele>542</ele>
        <time>2016-08-20T10:21:31Z</time>
      </trkpt>
      <trkpt lat="45.20329" lon="5.72673">
        <ele>542</ele>
        <time>2016-08-20T10:21:32Z</time>
      </trkpt>
      <trkpt lat="45.2033" lon="5.72675">
        <ele>541</ele>
        <time>2016-08-20T10:21:33Z</time>
      </trkpt>
      <trkpt lat="45.20332" lon="5.72678">
        <ele>541</ele>
        <time>2016-08-20T10:21:34Z</time>
      </trkpt>
      <trkpt lat="45.20334" lon="5.72681">
        <ele>541</ele>
        <time>2016-08-20T10:21:35Z</time>
      </trkpt>
      <trkpt lat="45.20336" lon="5.72682">
        <ele>541</ele>
        <time>2016-08-20T10:21:36Z</time>
      </trkpt>
      <trkpt lat="45.20337" lon="5.72685">
        <ele>540</ele>
        <time>2016-08-20T10:21:37Z</time>
      </trkpt>
      <trkpt lat="45.20339" lon="5.72687">
        <ele>540</ele>
        <time>2016-08-20T10:21:38Z</time>
      </trkpt>
      <trkpt lat="45.20354" lon="5.72696">
        <ele>533</ele>
        <time>2016-08-20T10:21:44Z</time>
      </trkpt>
      <trkpt lat="45.20359" lon="5.727">
        <ele>529</ele>
        <time>2016-08-20T10:21:46Z</time>
      </trkpt>
      <trkpt lat="45.20371" lon="5.72706">
        <ele>526</ele>
        <time>2016-08-20T10:21:51Z</time>
      </trkpt>
      <trkpt lat="45.20388" lon="5.72717">
        <ele>524</ele>
        <time>2016-08-20T10:22:00Z</time>
      </trkpt>
      <trkpt lat="45.20393" lon="5.72727">
        <ele>522</ele>
        <time>2016-08-20T10:22:05Z</time>
      </trkpt>
      <trkpt lat="45.20394" lon="5.72732">
        <ele>521</ele>
        <time>2016-08-20T10:22:06Z</time>
      </trkpt>
      <trkpt lat="45.20404" lon="5.72748">
        <ele>519</ele>
        <time>2016-08-20T10:22:12Z</time>
      </trkpt>
      <trkpt lat="45.20404" lon="5.72763">
        <ele>518</ele>
        <time>2016-08-20T10:22:17Z</time>
      </trkpt>
      <trkpt lat="45.20401" lon="5.72763">
        <ele>517</ele>
        <time>2016-08-20T10:22:18Z</time>
      </trkpt>
      <trkpt lat="45.20398" lon="5.72762">
        <ele>517</ele>
        <time>2016-08-20T10:22:19Z</time>
      </trkpt>
      <trkpt lat="45.20396" lon="5.72759">
        <ele>517</ele>
        <time>2016-08-20T10:22:20Z</time>
      </trkpt>
      <trkpt lat="45.20393" lon="5.72757">
        <ele>517</ele>
        <time>2016-08-20T10:22:21Z</time>
      </trkpt>
      <trkpt lat="45.20372" lon="5.72747">
        <ele>516</ele>
        <time>2016-08-20T10:22:29Z</time>
      </trkpt>
      <trkpt lat="45.20354" lon="5.72744">
        <ele>513</ele>
        <time>2016-08-20T10:22:40Z</time>
      </trkpt>
      <trkpt lat="45.20332" lon="5.72741">
        <ele>510</ele>
        <time>2016-08-20T10:22:49Z</time>
      </trkpt>
      <trkpt lat="45.20307" lon="5.72728">
        <ele>507</ele>
        <time>2016-08-20T10:22:57Z</time>
      </trkpt>
      <trkpt lat="45.20287" lon="5.72713">
        <ele>503</ele>
        <time>2016-08-20T10:23:04Z</time>
      </trkpt>
      <trkpt lat="45.20276" lon="5.727">
        <ele>500</ele>
        <time>2016-08-20T10:23:11Z</time>
      </trkpt>
      <trkpt lat="45.20269" lon="5.72691">
        <ele>498</ele>
        <time>2016-08-20T10:23:16Z</time>
      </trkpt>
      <trkpt lat="45.20251" lon="5.72672">
        <ele>495</ele>
        <time>2016-08-20T10:23:27Z</time>
      </trkpt>
      <trkpt lat="45.20237" lon="5.72661">
        <ele>492</ele>
        <time>2016-08-20T10:23:34Z</time>
      </trkpt>
      <trkpt lat="45.20214" lon="5.72645">
        <ele>489</ele>
        <time>2016-08-20T10:23:43Z</time>
      </trkpt>
      <trkpt lat="45.20194" lon="5.7264">
        <ele>486</ele>
        <time>2016-08-20T10:23:51Z</time>
      </trkpt>
      <trkpt lat="45.20173" lon="5.72639">
        <ele>482</ele>
        <time>2016-08-20T10:24:00Z</time>
      </trkpt>
      <trkpt lat="45.20158" lon="5.7264">
        <ele>479</ele>
        <time>2016-08-20T10:24:09Z</time>
      </trkpt>
      <trkpt lat="45.20148" lon="5.72638">
        <ele>477</ele>
        <time>2016-08-20T10:24:14Z</time>
      </trkpt>
      <trkpt lat="45.20133" lon="5.72635">
        <ele>474</ele>
        <time>2016-08-20T10:24:21Z</time>
      </trkpt>
      <trkpt lat="45.20131" lon="5.72632">
        <ele>474</ele>
        <time>2016-08-20T10:24:22Z</time>
      </trkpt>
      <trkpt lat="45.2012" lon="5.72624">
        <ele>472</ele>
        <time>2016-08-20T10:24:28Z</time>
      </trkpt>
      <trkpt lat="45.20102" lon="5.72613">
        <ele>469</ele>
        <time>2016-08-20T10:24:37Z</time>
      </trkpt>
      <trkpt lat="45.20082" lon="5.72601">
        <ele>465</ele>
        <time>2016-08-20T10:24:45Z</time>
      </trkpt>
      <trkpt lat="45.20074" lon="5.72599">
        <ele>463</ele>
        <time>2016-08-20T10:24:48Z</time>
      </trkpt>
      <trkpt lat="45.20059" lon="5.72594">
        <ele>462</ele>
        <time>2016-08-20T10:24:54Z</time>
      </trkpt>
      <trkpt lat="45.20058" lon="5.72594">
        <ele>462</ele>
        <time>2016-08-20T10:24:55Z</time>
      </trkpt>
      <trkpt lat="45.20048" lon="5.72588">
        <ele>458</ele>
        <time>2016-08-20T10:25:01Z</time>
      </trkpt>
      <trkpt lat="45.20091" lon="5.7257">
        <ele>455</ele>
        <time>2016-08-20T10:25:03Z</time>
      </trkpt>
      <trkpt lat="45.20091" lon="5.72567">
        <ele>455</ele>
        <time>2016-08-20T10:25:04Z</time>
      </trkpt>
      <trkpt lat="45.20076" lon="5.72559">
        <ele>455</ele>
        <time>2016-08-20T10:25:14Z</time>
      </trkpt>
      <trkpt lat="45.20057" lon="5.72562">
        <ele>454</ele>
        <time>2016-08-20T10:25:22Z</time>
      </trkpt>
      <trkpt lat="45.20041" lon="5.72543">
        <ele>453</ele>
        <time>2016-08-20T10:25:30Z</time>
      </trkpt>
      <trkpt lat="45.20042" lon="5.7251">
        <ele>453</ele>
        <time>2016-08-20T10:25:38Z</time>
      </trkpt>
      <trkpt lat="45.20048" lon="5.72481">
        <ele>450</ele>
        <time>2016-08-20T10:25:45Z</time>
      </trkpt>
      <trkpt lat="45.20048" lon="5.72452">
        <ele>450</ele>
        <time>2016-08-20T10:25:52Z</time>
      </trkpt>
      <trkpt lat="45.20029" lon="5.72434">
        <ele>449</ele>
        <time>2016-08-20T10:26:00Z</time>
      </trkpt>
      <trkpt lat="45.20005" lon="5.72434">
        <ele>449</ele>
        <time>2016-08-20T10:26:09Z</time>
      </trkpt>
      <trkpt lat="45.19983" lon="5.72431">
        <ele>447</ele>
        <time>2016-08-20T10:26:16Z</time>
      </trkpt>
      <trkpt lat="45.19962" lon="5.72425">
        <ele>445</ele>
        <time>2016-08-20T10:26:23Z</time>
      </trkpt>
      <trkpt lat="45.19943" lon="5.72421">
        <ele>444</ele>
        <time>2016-08-20T10:26:30Z</time>
      </trkpt>
      <trkpt lat="45.1992" lon="5.72423">
        <ele>442</ele>
        <time>2016-08-20T10:26:37Z</time>
      </trkpt>
      <trkpt lat="45.199" lon="5.72432">
        <ele>443</ele>
        <time>2016-08-20T10:26:47Z</time>
      </trkpt>
      <trkpt lat="45.19885" lon="5.72445">
        <ele>445</ele>
        <time>2016-08-20T10:26:57Z</time>
      </trkpt>
      <trkpt lat="45.19883" lon="5.72447">
        <ele>445</ele>
        <time>2016-08-20T10:26:58Z</time>
      </trkpt>
      <trkpt lat="45.19882" lon="5.72448">
        <ele>445</ele>
        <time>2016-08-20T10:26:59Z</time>
      </trkpt>
      <trkpt lat="45.19881" lon="5.7245">
        <ele>445</ele>
        <time>2016-08-20T10:27:00Z</time>
      </trkpt>
      <trkpt lat="45.1988" lon="5.72452">
        <ele>446</ele>
        <time>2016-08-20T10:27:01Z</time>
      </trkpt>
      <trkpt lat="45.19878" lon="5.72456">
        <ele>446</ele>
        <time>2016-08-20T10:27:03Z</time>
      </trkpt>
      <trkpt lat="45.19877" lon="5.7246">
        <ele>446</ele>
        <time>2016-08-20T10:27:04Z</time>
      </trkpt>
      <trkpt lat="45.19872" lon="5.72478">
        <ele>447</ele>
        <time>2016-08-20T10:27:12Z</time>
      </trkpt>
      <trkpt lat="45.19872" lon="5.7248">
        <ele>447</ele>
        <time>2016-08-20T10:27:13Z</time>
      </trkpt>
      <trkpt lat="45.19869" lon="5.72486">
        <ele>447</ele>
        <time>2016-08-20T10:27:18Z</time>
      </trkpt>
      <trkpt lat="45.19868" lon="5.72488">
        <ele>447</ele>
        <time>2016-08-20T10:27:19Z</time>
      </trkpt>
      <trkpt lat="45.19865" lon="5.72509">
        <ele>447</ele>
        <time>2016-08-20T10:27:32Z</time>
      </trkpt>
      <trkpt lat="45.19869" lon="5.72541">
        <ele>446</ele>
        <time>2016-08-20T10:27:41Z</time>
      </trkpt>
      <trkpt lat="45.19863" lon="5.72571">
        <ele>444</ele>
        <time>2016-08-20T10:27:50Z</time>
      </trkpt>
      <trkpt lat="45.1986" lon="5.72601">
        <ele>443</ele>
        <time>2016-08-20T10:28:00Z</time>
      </trkpt>
      <trkpt lat="45.19869" lon="5.7262">
        <ele>440</ele>
        <time>2016-08-20T10:28:13Z</time>
      </trkpt>
      <trkpt lat="45.19867" lon="5.72622">
        <ele>438</ele>
        <time>2016-08-20T10:28:16Z</time>
      </trkpt>
      <trkpt lat="45.19854" lon="5.72637">
        <ele>436</ele>
        <time>2016-08-20T10:28:29Z</time>
      </trkpt>
      <trkpt lat="45.19853" lon="5.72636">
        <ele>435</ele>
        <time>2016-08-20T10:28:30Z</time>
      </trkpt>
      <trkpt lat="45.19848" lon="5.72636">
        <ele>432</ele>
        <time>2016-08-20T10:28:33Z</time>
      </trkpt>
      <trkpt lat="45.1984" lon="5.72636">
        <ele>431</ele>
        <time>2016-08-20T10:28:37Z</time>
      </trkpt>
      <trkpt lat="45.19838" lon="5.72637">
        <ele>431</ele>
        <time>2016-08-20T10:28:38Z</time>
      </trkpt>
      <trkpt lat="45.19828" lon="5.72637">
        <ele>429</ele>
        <time>2016-08-20T10:28:42Z</time>
      </trkpt>
      <trkpt lat="45.19817" lon="5.72631">
        <ele>426</ele>
        <time>2016-08-20T10:28:47Z</time>
      </trkpt>
      <trkpt lat="45.19811" lon="5.72626">
        <ele>425</ele>
        <time>2016-08-20T10:28:51Z</time>
      </trkpt>
      <trkpt lat="45.1981" lon="5.72627">
        <ele>425</ele>
        <time>2016-08-20T10:28:52Z</time>
      </trkpt>
      <trkpt lat="45.19809" lon="5.72628">
        <ele>424</ele>
        <time>2016-08-20T10:28:53Z</time>
      </trkpt>
      <trkpt lat="45.1981" lon="5.72632">
        <ele>424</ele>
        <time>2016-08-20T10:28:54Z</time>
      </trkpt>
      <trkpt lat="45.1981" lon="5.72635">
        <ele>424</ele>
        <time>2016-08-20T10:28:55Z</time>
      </trkpt>
      <trkpt lat="45.19812" lon="5.72638">
        <ele>425</ele>
        <time>2016-08-20T10:28:56Z</time>
      </trkpt>
      <trkpt lat="45.19812" lon="5.72641">
        <ele>424</ele>
        <time>2016-08-20T10:28:57Z</time>
      </trkpt>
      <trkpt lat="45.1982" lon="5.72655">
        <ele>423</ele>
        <time>2016-08-20T10:29:02Z</time>
      </trkpt>
      <trkpt lat="45.1983" lon="5.72674">
        <ele>421</ele>
        <time>2016-08-20T10:29:12Z</time>
      </trkpt>
      <trkpt lat="45.19832" lon="5.72686">
        <ele>418</ele>
        <time>2016-08-20T10:29:18Z</time>
      </trkpt>
      <trkpt lat="45.19829" lon="5.72686">
        <ele>418</ele>
        <time>2016-08-20T10:29:20Z</time>
      </trkpt>
      <trkpt lat="45.19827" lon="5.72685">
        <ele>419</ele>
        <time>2016-08-20T10:29:21Z</time>
      </trkpt>
      <trkpt lat="45.19824" lon="5.72684">
        <ele>418</ele>
        <time>2016-08-20T10:29:22Z</time>
      </trkpt>
      <trkpt lat="45.19806" lon="5.72669">
        <ele>416</ele>
        <time>2016-08-20T10:29:30Z</time>
      </trkpt>
      <trkpt lat="45.19797" lon="5.7266">
        <ele>415</ele>
        <time>2016-08-20T10:29:34Z</time>
      </trkpt>
      <trkpt lat="45.19778" lon="5.72644">
        <ele>413</ele>
        <time>2016-08-20T10:29:42Z</time>
      </trkpt>
      <trkpt lat="45.19765" lon="5.72621">
        <ele>410</ele>
        <time>2016-08-20T10:29:50Z</time>
      </trkpt>
      <trkpt lat="45.19761" lon="5.72593">
        <ele>408</ele>
        <time>2016-08-20T10:29:57Z</time>
      </trkpt>
      <trkpt lat="45.19763" lon="5.72564">
        <ele>407</ele>
        <time>2016-08-20T10:30:04Z</time>
      </trkpt>
      <trkpt lat="45.19763" lon="5.72557">
        <ele>405</ele>
        <time>2016-08-20T10:30:06Z</time>
      </trkpt>
      <trkpt lat="45.19767" lon="5.72539">
        <ele>404</ele>
        <time>2016-08-20T10:30:10Z</time>
      </trkpt>
      <trkpt lat="45.19764" lon="5.72528">
        <ele>405</ele>
        <time>2016-08-20T10:30:14Z</time>
      </trkpt>
      <trkpt lat="45.19764" lon="5.72527">
        <ele>404</ele>
        <time>2016-08-20T10:30:15Z</time>
      </trkpt>
      <trkpt lat="45.19762" lon="5.72531">
        <ele>403</ele>
        <time>2016-08-20T10:30:16Z</time>
      </trkpt>
      <trkpt lat="45.19761" lon="5.72534">
        <ele>403</ele>
        <time>2016-08-20T10:30:17Z</time>
      </trkpt>
      <trkpt lat="45.1976" lon="5.72537">
        <ele>402</ele>
        <time>2016-08-20T10:30:18Z</time>
      </trkpt>
      <trkpt lat="45.19754" lon="5.72565">
        <ele>400</ele>
        <time>2016-08-20T10:30:26Z</time>
      </trkpt>
      <trkpt lat="45.19748" lon="5.72583">
        <ele>397</ele>
        <time>2016-08-20T10:30:32Z</time>
      </trkpt>
      <trkpt lat="45.19746" lon="5.72584">
        <ele>397</ele>
        <time>2016-08-20T10:30:33Z</time>
      </trkpt>
      <trkpt lat="45.19746" lon="5.72583">
        <ele>396</ele>
        <time>2016-08-20T10:30:34Z</time>
      </trkpt>
      <trkpt lat="45.19745" lon="5.72581">
        <ele>396</ele>
        <time>2016-08-20T10:30:35Z</time>
      </trkpt>
      <trkpt lat="45.19746" lon="5.72576">
        <ele>395</ele>
        <time>2016-08-20T10:30:36Z</time>
      </trkpt>
      <trkpt lat="45.19746" lon="5.72573">
        <ele>395</ele>
        <time>2016-08-20T10:30:37Z</time>
      </trkpt>
      <trkpt lat="45.19742" lon="5.72543">
        <ele>393</ele>
        <time>2016-08-20T10:30:46Z</time>
      </trkpt>
      <trkpt lat="45.19747" lon="5.72526">
        <ele>393</ele>
        <time>2016-08-20T10:30:51Z</time>
      </trkpt>
      <trkpt lat="45.19749" lon="5.72512">
        <ele>390</ele>
        <time>2016-08-20T10:30:58Z</time>
      </trkpt>
      <trkpt lat="45.19747" lon="5.72514">
        <ele>389</ele>
        <time>2016-08-20T10:31:00Z</time>
      </trkpt>
      <trkpt lat="45.19746" lon="5.72516">
        <ele>389</ele>
        <time>2016-08-20T10:31:01Z</time>
      </trkpt>
      <trkpt lat="45.19742" lon="5.72523">
        <ele>388</ele>
        <time>2016-08-20T10:31:04Z</time>
      </trkpt>
      <trkpt lat="45.19735" lon="5.72545">
        <ele>389</ele>
        <time>2016-08-20T10:31:12Z</time>
      </trkpt>
      <trkpt lat="45.19733" lon="5.72555">
        <ele>386</ele>
        <time>2016-08-20T10:31:15Z</time>
      </trkpt>
      <trkpt lat="45.19735" lon="5.7256">
        <ele>389</ele>
        <time>2016-08-20T10:31:17Z</time>
      </trkpt>
      <trkpt lat="45.19736" lon="5.72563">
        <ele>387</ele>
        <time>2016-08-20T10:31:18Z</time>
      </trkpt>
      <trkpt lat="45.19737" lon="5.7257">
        <ele>387</ele>
        <time>2016-08-20T10:31:20Z</time>
      </trkpt>
      <trkpt lat="45.19738" lon="5.72576">
        <ele>388</ele>
        <time>2016-08-20T10:31:22Z</time>
      </trkpt>
      <trkpt lat="45.19751" lon="5.72602">
        <ele>388</ele>
        <time>2016-08-20T10:31:31Z</time>
      </trkpt>
      <trkpt lat="45.19757" lon="5.72629">
        <ele>387</ele>
        <time>2016-08-20T10:31:39Z</time>
      </trkpt>
      <trkpt lat="45.19758" lon="5.72643">
        <ele>387</ele>
        <time>2016-08-20T10:31:45Z</time>
      </trkpt>
      <trkpt lat="45.19776" lon="5.7267">
        <ele>387</ele>
        <time>2016-08-20T10:31:55Z</time>
      </trkpt>
      <trkpt lat="45.1978" lon="5.72676">
        <ele>388</ele>
        <time>2016-08-20T10:31:57Z</time>
      </trkpt>
      <trkpt lat="45.19792" lon="5.72686">
        <ele>389</ele>
        <time>2016-08-20T10:32:02Z</time>
      </trkpt>
      <trkpt lat="45.19796" lon="5.7269">
        <ele>387</ele>
        <time>2016-08-20T10:32:04Z</time>
      </trkpt>
      <trkpt lat="45.19809" lon="5.72696">
        <ele>390</ele>
        <time>2016-08-20T10:32:11Z</time>
      </trkpt>
      <trkpt lat="45.19819" lon="5.7272">
        <ele>388</ele>
        <time>2016-08-20T10:32:23Z</time>
      </trkpt>
      <trkpt lat="45.19824" lon="5.72737">
        <ele>389</ele>
        <time>2016-08-20T10:32:31Z</time>
      </trkpt>
      <trkpt lat="45.19831" lon="5.72738">
        <ele>386</ele>
        <time>2016-08-20T10:32:41Z</time>
      </trkpt>
      <trkpt lat="45.19793" lon="5.72794">
        <ele>319</ele>
        <time>2016-08-20T10:36:35Z</time>
      </trkpt>
      <trkpt lat="45.19792" lon="5.72792">
        <ele>319</ele>
        <time>2016-08-20T10:36:36Z</time>
      </trkpt>
      <trkpt lat="45.19789" lon="5.7279">
        <ele>318</ele>
        <time>2016-08-20T10:36:45Z</time>
      </trkpt>
      <trkpt lat="45.1979" lon="5.72792">
        <ele>317</ele>
        <time>2016-08-20T10:36:46Z</time>
      </trkpt>
      <trkpt lat="45.19806" lon="5.72806">
        <ele>316</ele>
        <time>2016-08-20T10:36:55Z</time>
      </trkpt>
      <trkpt lat="45.19808" lon="5.72809">
        <ele>316</ele>
        <time>2016-08-20T10:36:57Z</time>
      </trkpt>
      <trkpt lat="45.19807" lon="5.72812">
        <ele>316</ele>
        <time>2016-08-20T10:36:58Z</time>
      </trkpt>
      <trkpt lat="45.19812" lon="5.72815">
        <ele>316</ele>
        <time>2016-08-20T10:36:59Z</time>
      </trkpt>
      <trkpt lat="45.1981" lon="5.72814">
        <ele>315</ele>
        <time>2016-08-20T10:37:01Z</time>
      </trkpt>
      <trkpt lat="45.1979" lon="5.72808">
        <ele>313</ele>
        <time>2016-08-20T10:37:11Z</time>
      </trkpt>
      <trkpt lat="45.19785" lon="5.72804">
        <ele>312</ele>
        <time>2016-08-20T10:37:13Z</time>
      </trkpt>
      <trkpt lat="45.19768" lon="5.72797">
        <ele>308</ele>
        <time>2016-08-20T10:37:21Z</time>
      </trkpt>
      <trkpt lat="45.19767" lon="5.72796">
        <ele>308</ele>
        <time>2016-08-20T10:37:22Z</time>
      </trkpt>
      <trkpt lat="45.19752" lon="5.72789">
        <ele>307</ele>
        <time>2016-08-20T10:37:29Z</time>
      </trkpt>
      <trkpt lat="45.19751" lon="5.7279">
        <ele>307</ele>
        <time>2016-08-20T10:37:30Z</time>
      </trkpt>
      <trkpt lat="45.19751" lon="5.7279">
        <ele>307</ele>
        <time>2016-08-20T10:37:31Z</time>
      </trkpt>
      <trkpt lat="45.19752" lon="5.72791">
        <ele>307</ele>
        <time>2016-08-20T10:37:32Z</time>
      </trkpt>
      <trkpt lat="45.19753" lon="5.72792">
        <ele>307</ele>
        <time>2016-08-20T10:37:33Z</time>
      </trkpt>
      <trkpt lat="45.19755" lon="5.72793">
        <ele>306</ele>
        <time>2016-08-20T10:37:34Z</time>
      </trkpt>
      <trkpt lat="45.19756" lon="5.72794">
        <ele>306</ele>
        <time>2016-08-20T10:37:35Z</time>
      </trkpt>
      <trkpt lat="45.19759" lon="5.72794">
        <ele>306</ele>
        <time>2016-08-20T10:37:36Z</time>
      </trkpt>
      <trkpt lat="45.19761" lon="5.72796">
        <ele>306</ele>
        <time>2016-08-20T10:37:37Z</time>
      </trkpt>
      <trkpt lat="45.19762" lon="5.72797">
        <ele>306</ele>
        <time>2016-08-20T10:37:38Z</time>
      </trkpt>
      <trkpt lat="45.19764" lon="5.72798">
        <ele>306</ele>
        <time>2016-08-20T10:37:39Z</time>
      </trkpt>
      <trkpt lat="45.19766" lon="5.72799">
        <ele>305</ele>
        <time>2016-08-20T10:37:40Z</time>
      </trkpt>
      <trkpt lat="45.19767" lon="5.728">
        <ele>305</ele>
        <time>2016-08-20T10:37:41Z</time>
      </trkpt>
      <trkpt lat="45.19768" lon="5.72802">
        <ele>305</ele>
        <time>2016-08-20T10:37:42Z</time>
      </trkpt>
      <trkpt lat="45.1977" lon="5.72803">
        <ele>304</ele>
        <time>2016-08-20T10:37:43Z</time>
      </trkpt>
      <trkpt lat="45.19779" lon="5.72816">
        <ele>301</ele>
        <time>2016-08-20T10:37:53Z</time>
      </trkpt>
      <trkpt lat="45.1978" lon="5.72818">
        <ele>301</ele>
        <time>2016-08-20T10:37:54Z</time>
      </trkpt>
      <trkpt lat="45.19781" lon="5.72821">
        <ele>301</ele>
        <time>2016-08-20T10:37:55Z</time>
      </trkpt>
      <trkpt lat="45.19781" lon="5.72823">
        <ele>300</ele>
        <time>2016-08-20T10:37:56Z</time>
      </trkpt>
      <trkpt lat="45.19782" lon="5.72824">
        <ele>300</ele>
        <time>2016-08-20T10:37:57Z</time>
      </trkpt>
      <trkpt lat="45.19783" lon="5.72826">
        <ele>300</ele>
        <time>2016-08-20T10:37:58Z</time>
      </trkpt>
      <trkpt lat="45.19782" lon="5.72841">
        <ele>298</ele>
        <time>2016-08-20T10:38:06Z</time>
      </trkpt>
      <trkpt lat="45.19779" lon="5.72841">
        <ele>298</ele>
        <time>2016-08-20T10:38:07Z</time>
      </trkpt>
      <trkpt lat="45.19774" lon="5.72839">
        <ele>297</ele>
        <time>2016-08-20T10:38:10Z</time>
      </trkpt>
      <trkpt lat="45.19753" lon="5.72831">
        <ele>294</ele>
        <time>2016-08-20T10:38:20Z</time>
      </trkpt>
      <trkpt lat="45.19749" lon="5.72829">
        <ele>293</ele>
        <time>2016-08-20T10:38:22Z</time>
      </trkpt>
      <trkpt lat="45.19731" lon="5.72818">
        <ele>291</ele>
        <time>2016-08-20T10:38:32Z</time>
      </trkpt>
      <trkpt lat="45.19728" lon="5.72817">
        <ele>289</ele>
        <time>2016-08-20T10:38:34Z</time>
      </trkpt>
      <trkpt lat="45.19727" lon="5.72818">
        <ele>289</ele>
        <time>2016-08-20T10:38:35Z</time>
      </trkpt>
      <trkpt lat="45.19726" lon="5.72819">
        <ele>288</ele>
        <time>2016-08-20T10:38:36Z</time>
      </trkpt>
      <trkpt lat="45.19726" lon="5.72821">
        <ele>288</ele>
        <time>2016-08-20T10:38:37Z</time>
      </trkpt>
      <trkpt lat="45.19726" lon="5.72823">
        <ele>287</ele>
        <time>2016-08-20T10:38:38Z</time>
      </trkpt>
      <trkpt lat="45.19726" lon="5.72826">
        <ele>287</ele>
        <time>2016-08-20T10:38:39Z</time>
      </trkpt>
      <trkpt lat="45.19727" lon="5.72828">
        <ele>288</ele>
        <time>2016-08-20T10:38:40Z</time>
      </trkpt>
      <trkpt lat="45.19727" lon="5.7283">
        <ele>288</ele>
        <time>2016-08-20T10:38:41Z</time>
      </trkpt>
      <trkpt lat="45.19728" lon="5.72832">
        <ele>287</ele>
        <time>2016-08-20T10:38:42Z</time>
      </trkpt>
      <trkpt lat="45.1973" lon="5.72835">
        <ele>287</ele>
        <time>2016-08-20T10:38:43Z</time>
      </trkpt>
      <trkpt lat="45.19731" lon="5.72836">
        <ele>288</ele>
        <time>2016-08-20T10:38:44Z</time>
      </trkpt>
      <trkpt lat="45.19733" lon="5.72837">
        <ele>287</ele>
        <time>2016-08-20T10:38:45Z</time>
      </trkpt>
      <trkpt lat="45.19734" lon="5.72838">
        <ele>286</ele>
        <time>2016-08-20T10:38:46Z</time>
      </trkpt>
      <trkpt lat="45.19741" lon="5.7284">
        <ele>285</ele>
        <time>2016-08-20T10:38:50Z</time>
      </trkpt>
      <trkpt lat="45.19746" lon="5.72843">
        <ele>284</ele>
        <time>2016-08-20T10:38:54Z</time>
      </trkpt>
      <trkpt lat="45.19751" lon="5.72851">
        <ele>282</ele>
        <time>2016-08-20T10:39:00Z</time>
      </trkpt>
      <trkpt lat="45.19756" lon="5.72855">
        <ele>281</ele>
        <time>2016-08-20T10:39:04Z</time>
      </trkpt>
      <trkpt lat="45.19762" lon="5.72861">
        <ele>279</ele>
        <time>2016-08-20T10:39:08Z</time>
      </trkpt>
      <trkpt lat="45.1976" lon="5.72863">
        <ele>278</ele>
        <time>2016-08-20T10:39:09Z</time>
      </trkpt>
      <trkpt lat="45.19755" lon="5.72862">
        <ele>278</ele>
        <time>2016-08-20T10:39:12Z</time>
      </trkpt>
      <trkpt lat="45.19754" lon="5.72862">
        <ele>278</ele>
        <time>2016-08-20T10:39:13Z</time>
      </trkpt>
      <trkpt lat="45.19751" lon="5.72861">
        <ele>277</ele>
        <time>2016-08-20T10:39:14Z</time>
      </trkpt>
      <trkpt lat="45.19741" lon="5.72863">
        <ele>276</ele>
        <time>2016-08-20T10:39:18Z</time>
      </trkpt>
      <trkpt lat="45.19723" lon="5.72855">
        <ele>274</ele>
        <time>2016-08-20T10:39:27Z</time>
      </trkpt>
      <trkpt lat="45.19721" lon="5.72854">
        <ele>274</ele>
        <time>2016-08-20T10:39:28Z</time>
      </trkpt>
      <trkpt lat="45.19707" lon="5.7285">
        <ele>271</ele>
        <time>2016-08-20T10:39:35Z</time>
      </trkpt>
      <trkpt lat="45.19691" lon="5.72837">
        <ele>268</ele>
        <time>2016-08-20T10:39:44Z</time>
      </trkpt>
      <trkpt lat="45.19676" lon="5.7282">
        <ele>266</ele>
        <time>2016-08-20T10:39:53Z</time>
      </trkpt>
      <trkpt lat="45.19673" lon="5.72817">
        <ele>265</ele>
        <time>2016-08-20T10:39:55Z</time>
      </trkpt>
      <trkpt lat="45.19671" lon="5.72818">
        <ele>264</ele>
        <time>2016-08-20T10:39:56Z</time>
      </trkpt>
      <trkpt lat="45.19671" lon="5.72819">
        <ele>264</ele>
        <time>2016-08-20T10:39:57Z</time>
      </trkpt>
      <trkpt lat="45.19672" lon="5.72821">
        <ele>265</ele>
        <time>2016-08-20T10:39:58Z</time>
      </trkpt>
      <trkpt lat="45.19674" lon="5.72825">
        <ele>264</ele>
        <time>2016-08-20T10:40:02Z</time>
      </trkpt>
      <trkpt lat="45.19675" lon="5.72827">
        <ele>263</ele>
        <time>2016-08-20T10:40:03Z</time>
      </trkpt>
      <trkpt lat="45.19687" lon="5.72838">
        <ele>261</ele>
        <time>2016-08-20T10:40:11Z</time>
      </trkpt>
      <trkpt lat="45.19694" lon="5.72849">
        <ele>260</ele>
        <time>2016-08-20T10:40:17Z</time>
      </trkpt>
      <trkpt lat="45.19699" lon="5.72864">
        <ele>258</ele>
        <time>2016-08-20T10:40:24Z</time>
      </trkpt>
      <trkpt lat="45.1971" lon="5.72891">
        <ele>255</ele>
        <time>2016-08-20T10:40:34Z</time>
      </trkpt>
      <trkpt lat="45.19711" lon="5.72893">
        <ele>255</ele>
        <time>2016-08-20T10:40:35Z</time>
      </trkpt>
      <trkpt lat="45.19719" lon="5.72913">
        <ele>253</ele>
        <time>2016-08-20T10:40:43Z</time>
      </trkpt>
      <trkpt lat="45.19729" lon="5.72929">
        <ele>249</ele>
        <time>2016-08-20T10:40:51Z</time>
      </trkpt>
      <trkpt lat="45.19739" lon="5.72934">
        <ele>248</ele>
        <time>2016-08-20T10:40:57Z</time>
      </trkpt>
      <trkpt lat="45.19742" lon="5.72944">
        <ele>247</ele>
        <time>2016-08-20T10:41:01Z</time>
      </trkpt>
      <trkpt lat="45.19741" lon="5.72948">
        <ele>247</ele>
        <time>2016-08-20T10:41:02Z</time>
      </trkpt>
      <trkpt lat="45.19739" lon="5.7295">
        <ele>247</ele>
        <time>2016-08-20T10:41:03Z</time>
      </trkpt>
      <trkpt lat="45.19737" lon="5.72951">
        <ele>247</ele>
        <time>2016-08-20T10:41:04Z</time>
      </trkpt>
      <trkpt lat="45.19735" lon="5.72952">
        <ele>247</ele>
        <time>2016-08-20T10:41:05Z</time>
      </trkpt>
      <trkpt lat="45.19732" lon="5.72952">
        <ele>247</ele>
        <time>2016-08-20T10:41:06Z</time>
      </trkpt>
      <trkpt lat="45.1973" lon="5.72952">
        <ele>245</ele>
        <time>2016-08-20T10:41:07Z</time>
      </trkpt>
      <trkpt lat="45.19727" lon="5.72952">
        <ele>245</ele>
        <time>2016-08-20T10:41:08Z</time>
      </trkpt>
      <trkpt lat="45.19705" lon="5.72951">
        <ele>244</ele>
        <time>2016-08-20T10:41:17Z</time>
      </trkpt>
      <trkpt lat="45.19698" lon="5.72952">
        <ele>243</ele>
        <time>2016-08-20T10:41:21Z</time>
      </trkpt>
      <trkpt lat="45.19698" lon="5.72954">
        <ele>243</ele>
        <time>2016-08-20T10:41:22Z</time>
      </trkpt>
      <trkpt lat="45.19697" lon="5.72956">
        <ele>242</ele>
        <time>2016-08-20T10:41:23Z</time>
      </trkpt>
      <trkpt lat="45.19698" lon="5.72957">
        <ele>242</ele>
        <time>2016-08-20T10:41:24Z</time>
      </trkpt>
      <trkpt lat="45.19699" lon="5.72959">
        <ele>243</ele>
        <time>2016-08-20T10:41:25Z</time>
      </trkpt>
      <trkpt lat="45.19702" lon="5.7296">
        <ele>241</ele>
        <time>2016-08-20T10:41:27Z</time>
      </trkpt>
      <trkpt lat="45.19703" lon="5.7296">
        <ele>241</ele>
        <time>2016-08-20T10:41:28Z</time>
      </trkpt>
      <trkpt lat="45.19705" lon="5.7296">
        <ele>242</ele>
        <time>2016-08-20T10:41:29Z</time>
      </trkpt>
      <trkpt lat="45.19707" lon="5.72959">
        <ele>241</ele>
        <time>2016-08-20T10:41:30Z</time>
      </trkpt>
      <trkpt lat="45.19708" lon="5.7296">
        <ele>240</ele>
        <time>2016-08-20T10:41:31Z</time>
      </trkpt>
      <trkpt lat="45.19711" lon="5.72961">
        <ele>241</ele>
        <time>2016-08-20T10:41:32Z</time>
      </trkpt>
      <trkpt lat="45.19717" lon="5.72964">
        <ele>240</ele>
        <time>2016-08-20T10:41:35Z</time>
      </trkpt>
      <trkpt lat="45.19723" lon="5.72977">
        <ele>238</ele>
        <time>2016-08-20T10:41:42Z</time>
      </trkpt>
      <trkpt lat="45.19722" lon="5.72979">
        <ele>236</ele>
        <time>2016-08-20T10:41:43Z</time>
      </trkpt>
      <trkpt lat="45.1972" lon="5.72979">
        <ele>235</ele>
        <time>2016-08-20T10:41:44Z</time>
      </trkpt>
      <trkpt lat="45.19718" lon="5.72979">
        <ele>234</ele>
        <time>2016-08-20T10:41:45Z</time>
      </trkpt>
      <trkpt lat="45.19715" lon="5.7298">
        <ele>234</ele>
        <time>2016-08-20T10:41:46Z</time>
      </trkpt>
      <trkpt lat="45.19713" lon="5.7298">
        <ele>235</ele>
        <time>2016-08-20T10:41:47Z</time>
      </trkpt>
      <trkpt lat="45.19691" lon="5.72978">
        <ele>233</ele>
        <time>2016-08-20T10:41:56Z</time>
      </trkpt>
      <trkpt lat="45.19674" lon="5.7298">
        <ele>232</ele>
        <time>2016-08-20T10:42:04Z</time>
      </trkpt>
      <trkpt lat="45.1968" lon="5.72986">
        <ele>231</ele>
        <time>2016-08-20T10:42:10Z</time>
      </trkpt>
      <trkpt lat="45.19696" lon="5.72999">
        <ele>228</ele>
        <time>2016-08-20T10:42:21Z</time>
      </trkpt>
      <trkpt lat="45.19702" lon="5.73004">
        <ele>227</ele>
        <time>2016-08-20T10:42:25Z</time>
      </trkpt>
      <trkpt lat="45.197" lon="5.73006">
        <ele>227</ele>
        <time>2016-08-20T10:42:26Z</time>
      </trkpt>
      <trkpt lat="45.19699" lon="5.73006">
        <ele>227</ele>
        <time>2016-08-20T10:42:27Z</time>
      </trkpt>
      <trkpt lat="45.19698" lon="5.73007">
        <ele>227</ele>
        <time>2016-08-20T10:42:28Z</time>
      </trkpt>
      <trkpt lat="45.19697" lon="5.73007">
        <ele>226</ele>
        <time>2016-08-20T10:42:29Z</time>
      </trkpt>
      <trkpt lat="45.19694" lon="5.73008">
        <ele>226</ele>
        <time>2016-08-20T10:42:30Z</time>
      </trkpt>
      <trkpt lat="45.19692" lon="5.73008">
        <ele>226</ele>
        <time>2016-08-20T10:42:31Z</time>
      </trkpt>
      <trkpt lat="45.19674" lon="5.73007">
        <ele>224</ele>
        <time>2016-08-20T10:42:40Z</time>
      </trkpt>
      <trkpt lat="45.19667" lon="5.73018">
        <ele>222</ele>
        <time>2016-08-20T10:42:49Z</time>
      </trkpt>
      <trkpt lat="45.19672" lon="5.7302">
        <ele>221</ele>
        <time>2016-08-20T10:42:52Z</time>
      </trkpt>
      <trkpt lat="45.19674" lon="5.7302">
        <ele>220</ele>
        <time>2016-08-20T10:42:53Z</time>
      </trkpt>
      <trkpt lat="45.19692" lon="5.73027">
        <ele>217</ele>
        <time>2016-08-20T10:43:03Z</time>
      </trkpt>
      <trkpt lat="45.19699" lon="5.73028">
        <ele>216</ele>
        <time>2016-08-20T10:43:07Z</time>
      </trkpt>
      <trkpt lat="45.19701" lon="5.73032">
        <ele>216</ele>
        <time>2016-08-20T10:43:10Z</time>
      </trkpt>
      <trkpt lat="45.19701" lon="5.73034">
        <ele>217</ele>
        <time>2016-08-20T10:43:11Z</time>
      </trkpt>
      <trkpt lat="45.19699" lon="5.73034">
        <ele>217</ele>
        <time>2016-08-20T10:43:12Z</time>
      </trkpt>
      <trkpt lat="45.19698" lon="5.73034">
        <ele>216</ele>
        <time>2016-08-20T10:43:13Z</time>
      </trkpt>
      <trkpt lat="45.19696" lon="5.73033">
        <ele>216</ele>
        <time>2016-08-20T10:43:14Z</time>
      </trkpt>
      <trkpt lat="45.19692" lon="5.73032">
        <ele>214</ele>
        <time>2016-08-20T10:43:17Z</time>
      </trkpt>
      <trkpt lat="45.19674" lon="5.73035">
        <ele>212</ele>
        <time>2016-08-20T10:43:26Z</time>
      </trkpt>
      <trkpt lat="45.19672" lon="5.73036">
        <ele>212</ele>
        <time>2016-08-20T10:43:27Z</time>
      </trkpt>
      <trkpt lat="45.19668" lon="5.73044">
        <ele>213</ele>
        <time>2016-08-20T10:43:32Z</time>
      </trkpt>
      <trkpt lat="45.1967" lon="5.73048">
        <ele>209</ele>
        <time>2016-08-20T10:43:36Z</time>
      </trkpt>
      <trkpt lat="45.19675" lon="5.73047">
        <ele>208</ele>
        <time>2016-08-20T10:43:40Z</time>
      </trkpt>
      <trkpt lat="45.19682" lon="5.73062">
        <ele>208</ele>
        <time>2016-08-20T10:43:47Z</time>
      </trkpt>
      <trkpt lat="45.19685" lon="5.73057">
        <ele>206</ele>
        <time>2016-08-20T10:43:49Z</time>
      </trkpt>
      <trkpt lat="45.19687" lon="5.73055">
        <ele>207</ele>
        <time>2016-08-20T10:43:50Z</time>
      </trkpt>
      <trkpt lat="45.19688" lon="5.73058">
        <ele>206</ele>
        <time>2016-08-20T10:43:53Z</time>
      </trkpt>
      <trkpt lat="45.19688" lon="5.73065">
        <ele>206</ele>
        <time>2016-08-20T10:43:55Z</time>
      </trkpt>
      <trkpt lat="45.19687" lon="5.73066">
        <ele>207</ele>
        <time>2016-08-20T10:43:56Z</time>
      </trkpt>
      <trkpt lat="45.19686" lon="5.73067">
        <ele>206</ele>
        <time>2016-08-20T10:43:57Z</time>
      </trkpt>
      <trkpt lat="45.19684" lon="5.73069">
        <ele>206</ele>
        <time>2016-08-20T10:43:58Z</time>
      </trkpt>
      <trkpt lat="45.19683" lon="5.73072">
        <ele>206</ele>
        <time>2016-08-20T10:43:59Z</time>
      </trkpt>
      <trkpt lat="45.19682" lon="5.73075">
        <ele>206</ele>
        <time>2016-08-20T10:44:00Z</time>
      </trkpt>
      <trkpt lat="45.1968" lon="5.73079">
        <ele>205</ele>
        <time>2016-08-20T10:44:01Z</time>
      </trkpt>
      <trkpt lat="45.19679" lon="5.73084">
        <ele>205</ele>
        <time>2016-08-20T10:44:02Z</time>
      </trkpt>
      <trkpt lat="45.19674" lon="5.73111">
        <ele>202</ele>
        <time>2016-08-20T10:44:09Z</time>
      </trkpt>
      <trkpt lat="45.19677" lon="5.73132">
        <ele>199</ele>
        <time>2016-08-20T10:44:15Z</time>
      </trkpt>
      <trkpt lat="45.19421" lon="5.72918">
        <ele>198</ele>
        <time>2016-08-20T10:46:56Z</time>
      </trkpt>
      <trkpt lat="45.19421" lon="5.72915">
        <ele>197</ele>
        <time>2016-08-20T10:46:57Z</time>
      </trkpt>
      <trkpt lat="45.19418" lon="5.72912">
        <ele>197</ele>
        <time>2016-08-20T10:46:58Z</time>
      </trkpt>
      <trkpt lat="45.19414" lon="5.7291">
        <ele>197</ele>
        <time>2016-08-20T10:46:59Z</time>
      </trkpt>
      <trkpt lat="45.19421" lon="5.72906">
        <ele>197</ele>
        <time>2016-08-20T10:47:00Z</time>
      </trkpt>
      <trkpt lat="45.19406" lon="5.72916">
        <ele>197</ele>
        <time>2016-08-20T10:47:12Z</time>
      </trkpt>
      <trkpt lat="45.19395" lon="5.72932">
        <ele>199</ele>
        <time>2016-08-20T10:47:22Z</time>
      </trkpt>
      <trkpt lat="45.19378" lon="5.7295">
        <ele>198</ele>
        <time>2016-08-20T10:47:34Z</time>
      </trkpt>
      <trkpt lat="45.19374" lon="5.72958">
        <ele>196</ele>
        <time>2016-08-20T10:47:37Z</time>
      </trkpt>
      <trkpt lat="45.19361" lon="5.72965">
        <ele>198</ele>
        <time>2016-08-20T10:47:44Z</time>
      </trkpt>
      <trkpt lat="45.19355" lon="5.72967">
        <ele>195</ele>
        <time>2016-08-20T10:47:47Z</time>
      </trkpt>
      <trkpt lat="45.19352" lon="5.7297">
        <ele>197</ele>
        <time>2016-08-20T10:47:50Z</time>
      </trkpt>
      <trkpt lat="45.19351" lon="5.72978">
        <ele>196</ele>
        <time>2016-08-20T10:47:53Z</time>
      </trkpt>
      <trkpt lat="45.1935" lon="5.72985">
        <ele>196</ele>
        <time>2016-08-20T10:47:54Z</time>
      </trkpt>
      <trkpt lat="45.1935" lon="5.7299">
        <ele>196</ele>
        <time>2016-08-20T10:47:55Z</time>
      </trkpt>
      <trkpt lat="45.1935" lon="5.72996">
        <ele>195</ele>
        <time>2016-08-20T10:47:56Z</time>
      </trkpt>
      <trkpt lat="45.19349" lon="5.73">
        <ele>195</ele>
        <time>2016-08-20T10:47:57Z</time>
      </trkpt>
      <trkpt lat="45.19349" lon="5.73007">
        <ele>198</ele>
        <time>2016-08-20T10:47:59Z</time>
      </trkpt>
      <trkpt lat="45.19349" lon="5.7301">
        <ele>199</ele>
        <time>2016-08-20T10:48:00Z</time>
      </trkpt>
      <trkpt lat="45.19348" lon="5.7302">
        <ele>195</ele>
        <time>2016-08-20T10:48:02Z</time>
      </trkpt>
      <trkpt lat="45.19346" lon="5.7304">
        <ele>197</ele>
        <time>2016-08-20T10:48:05Z</time>
      </trkpt>
      <trkpt lat="45.19344" lon="5.73081">
        <ele>196</ele>
        <time>2016-08-20T10:48:13Z</time>
      </trkpt>
      <trkpt lat="45.19345" lon="5.73085">
        <ele>196</ele>
        <time>2016-08-20T10:48:14Z</time>
      </trkpt>
      <trkpt lat="45.19347" lon="5.73101">
        <ele>196</ele>
        <time>2016-08-20T10:48:18Z</time>
      </trkpt>
      <trkpt lat="45.19343" lon="5.73111">
        <ele>196</ele>
        <time>2016-08-20T10:48:22Z</time>
      </trkpt>
      <trkpt lat="45.19333" lon="5.73208">
        <ele>195</ele>
        <time>2016-08-20T10:48:48Z</time>
      </trkpt>
      <trkpt lat="45.19331" lon="5.73217">
        <ele>195</ele>
        <time>2016-08-20T10:48:52Z</time>
      </trkpt>
      <trkpt lat="45.1933" lon="5.73218">
        <ele>195</ele>
        <time>2016-08-20T10:48:53Z</time>
      </trkpt>
      <trkpt lat="45.19328" lon="5.73217">
        <ele>197</ele>
        <time>2016-08-20T10:48:56Z</time>
      </trkpt>
      <trkpt lat="45.19294" lon="5.7319">
        <ele>196</ele>
        <time>2016-08-20T10:48:58Z</time>
      </trkpt>
      <trkpt lat="45.19289" lon="5.73185">
        <ele>197</ele>
        <time>2016-08-20T10:49:00Z</time>
      </trkpt>
      <trkpt lat="45.19285" lon="5.73183">
        <ele>197</ele>
        <time>2016-08-20T10:49:01Z</time>
      </trkpt>
      <trkpt lat="45.19264" lon="5.73157">
        <ele>196</ele>
        <time>2016-08-20T10:49:12Z</time>
      </trkpt>
      <trkpt lat="45.19257" lon="5.7314">
        <ele>198</ele>
        <time>2016-08-20T10:49:21Z</time>
      </trkpt>
      <trkpt lat="45.19255" lon="5.73141">
        <ele>197</ele>
        <time>2016-08-20T10:49:22Z</time>
      </trkpt>
      <trkpt lat="45.19254" lon="5.73143">
        <ele>196</ele>
        <time>2016-08-20T10:49:23Z</time>
      </trkpt>
      <trkpt lat="45.19252" lon="5.73145">
        <ele>196</ele>
        <time>2016-08-20T10:49:24Z</time>
      </trkpt>
      <trkpt lat="45.1925" lon="5.73148">
        <ele>197</ele>
        <time>2016-08-20T10:49:25Z</time>
      </trkpt>
      <trkpt lat="45.19238" lon="5.7317">
        <ele>197</ele>
        <time>2016-08-20T10:49:34Z</time>
      </trkpt>
      <trkpt lat="45.19213" lon="5.73174">
        <ele>196</ele>
        <time>2016-08-20T10:49:44Z</time>
      </trkpt>
      <trkpt lat="45.19211" lon="5.73168">
        <ele>196</ele>
        <time>2016-08-20T10:49:45Z</time>
      </trkpt>
      <trkpt lat="45.19207" lon="5.73163">
        <ele>198</ele>
        <time>2016-08-20T10:49:46Z</time>
      </trkpt>
      <trkpt lat="45.19206" lon="5.73161">
        <ele>197</ele>
        <time>2016-08-20T10:49:47Z</time>
      </trkpt>
      <trkpt lat="45.19204" lon="5.7316">
        <ele>196</ele>
        <time>2016-08-20T10:49:48Z</time>
      </trkpt>
      <trkpt lat="45.19201" lon="5.73158">
        <ele>196</ele>
        <time>2016-08-20T10:49:49Z</time>
      </trkpt>
      <trkpt lat="45.192" lon="5.73157">
        <ele>197</ele>
        <time>2016-08-20T10:49:50Z</time>
      </trkpt>
      <trkpt lat="45.19199" lon="5.73155">
        <ele>196</ele>
        <time>2016-08-20T10:49:51Z</time>
      </trkpt>
      <trkpt lat="45.19181" lon="5.73157">
        <ele>197</ele>
        <time>2016-08-20T10:49:58Z</time>
      </trkpt>
      <trkpt lat="45.19163" lon="5.73165">
        <ele>197</ele>
        <time>2016-08-20T10:50:07Z</time>
      </trkpt>
      <trkpt lat="45.19157" lon="5.73178">
        <ele>197</ele>
        <time>2016-08-20T10:50:12Z</time>
      </trkpt>
      <trkpt lat="45.19102" lon="5.73268">
        <ele>196</ele>
        <time>2016-08-20T10:50:38Z</time>
      </trkpt>
      <trkpt lat="45.19088" lon="5.73295">
        <ele>196</ele>
        <time>2016-08-20T10:50:47Z</time>
      </trkpt>
      <trkpt lat="45.19056" lon="5.73307">
        <ele>195</ele>
        <time>2016-08-20T10:50:56Z</time>
      </trkpt>
      <trkpt lat="45.19037" lon="5.7332">
        <ele>195</ele>
        <time>2016-08-20T10:51:06Z</time>
      </trkpt>
      <trkpt lat="45.19006" lon="5.73343">
        <ele>197</ele>
        <time>2016-08-20T10:51:15Z</time>
      </trkpt>
      <trkpt lat="45.18995" lon="5.73341">
        <ele>194</ele>
        <time>2016-08-20T10:51:20Z</time>
      </trkpt>
      <trkpt lat="45.18989" lon="5.73349">
        <ele>195</ele>
        <time>2016-08-20T10:51:23Z</time>
      </trkpt>
      <trkpt lat="45.18979" lon="5.7336">
        <ele>195</ele>
        <time>2016-08-20T10:51:27Z</time>
      </trkpt>
      <trkpt lat="45.18971" lon="5.73368">
        <ele>196</ele>
        <time>2016-08-20T10:51:32Z</time>
      </trkpt>
      <trkpt lat="45.18962" lon="5.73372">
        <ele>196</ele>
        <time>2016-08-20T10:51:37Z</time>
      </trkpt>
      <trkpt lat="45.18961" lon="5.73372">
        <ele>193</ele>
        <time>2016-08-20T10:51:38Z</time>
      </trkpt>
      <trkpt lat="45.18954" lon="5.7338">
        <ele>193</ele>
        <time>2016-08-20T10:51:44Z</time>
      </trkpt>
      <trkpt lat="45.18956" lon="5.73378">
        <ele>194</ele>
        <time>2016-08-20T10:51:45Z</time>
      </trkpt>
      <trkpt lat="45.18958" lon="5.73382">
        <ele>194</ele>
        <time>2016-08-20T10:51:46Z</time>
      </trkpt>
      <trkpt lat="45.1896" lon="5.73382">
        <ele>194</ele>
        <time>2016-08-20T10:51:47Z</time>
      </trkpt>
      <trkpt lat="45.18958" lon="5.73398">
        <ele>194</ele>
        <time>2016-08-20T10:51:48Z</time>
      </trkpt>
      <trkpt lat="45.1896" lon="5.73403">
        <ele>196</ele>
        <time>2016-08-20T10:51:49Z</time>
      </trkpt>
      <trkpt lat="45.18961" lon="5.73407">
        <ele>195</ele>
        <time>2016-08-20T10:51:50Z</time>
      </trkpt>
      <trkpt lat="45.18972" lon="5.73431">
        <ele>194</ele>
        <time>2016-08-20T10:51:57Z</time>
      </trkpt>
      <trkpt lat="45.18977" lon="5.73437">
        <ele>196</ele>
        <time>2016-08-20T10:51:59Z</time>
      </trkpt>
      <trkpt lat="45.18997" lon="5.73455">
        <ele>194</ele>
        <time>2016-08-20T10:52:06Z</time>
      </trkpt>
      <trkpt lat="45.18997" lon="5.73459">
        <ele>194</ele>
        <time>2016-08-20T10:52:07Z</time>
      </trkpt>
      <trkpt lat="45.18996" lon="5.73466">
        <ele>196</ele>
        <time>2016-08-20T10:52:09Z</time>
      </trkpt>
      <trkpt lat="45.18984" lon="5.73497">
        <ele>194</ele>
        <time>2016-08-20T10:52:16Z</time>
      </trkpt>
      <trkpt lat="45.18985" lon="5.73505">
        <ele>197</ele>
        <time>2016-08-20T10:52:18Z</time>
      </trkpt>
      <trkpt lat="45.18988" lon="5.73512">
        <ele>194</ele>
        <time>2016-08-20T10:52:20Z</time>
      </trkpt>
      <trkpt lat="45.19003" lon="5.73533">
        <ele>195</ele>
        <time>2016-08-20T10:52:28Z</time>
      </trkpt>
      <trkpt lat="45.19013" lon="5.73549">
        <ele>193</ele>
        <time>2016-08-20T10:52:33Z</time>
      </trkpt>
      <trkpt lat="45.19016" lon="5.73551">
        <ele>196</ele>
        <time>2016-08-20T10:52:34Z</time>
      </trkpt>
      <trkpt lat="45.19018" lon="5.73555">
        <ele>196</ele>
        <time>2016-08-20T10:52:35Z</time>
      </trkpt>
      <trkpt lat="45.1902" lon="5.73558">
        <ele>195</ele>
        <time>2016-08-20T10:52:36Z</time>
      </trkpt>
      <trkpt lat="45.19023" lon="5.73561">
        <ele>194</ele>
        <time>2016-08-20T10:52:37Z</time>
      </trkpt>
      <trkpt lat="45.19024" lon="5.73563">
        <ele>194</ele>
        <time>2016-08-20T10:52:38Z</time>
      </trkpt>
      <trkpt lat="45.19026" lon="5.73567">
        <ele>196</ele>
        <time>2016-08-20T10:52:39Z</time>
      </trkpt>
      <trkpt lat="45.19027" lon="5.73569">
        <ele>196</ele>
        <time>2016-08-20T10:52:40Z</time>
      </trkpt>
      <trkpt lat="45.19029" lon="5.73572">
        <ele>194</ele>
        <time>2016-08-20T10:52:41Z</time>
      </trkpt>
      <trkpt lat="45.19037" lon="5.73593">
        <ele>195</ele>
        <time>2016-08-20T10:52:48Z</time>
      </trkpt>
      <trkpt lat="45.19032" lon="5.73601">
        <ele>195</ele>
        <time>2016-08-20T10:52:51Z</time>
      </trkpt>
      <trkpt lat="45.19029" lon="5.73603">
        <ele>194</ele>
        <time>2016-08-20T10:52:52Z</time>
      </trkpt>
      <trkpt lat="45.19014" lon="5.73613">
        <ele>194</ele>
        <time>2016-08-20T10:52:57Z</time>
      </trkpt>
      <trkpt lat="45.18993" lon="5.73622">
        <ele>195</ele>
        <time>2016-08-20T10:53:07Z</time>
      </trkpt>
      <trkpt lat="45.1899" lon="5.73626">
        <ele>195</ele>
        <time>2016-08-20T10:53:09Z</time>
      </trkpt>
      <trkpt lat="45.18987" lon="5.7363">
        <ele>196</ele>
        <time>2016-08-20T10:53:11Z</time>
      </trkpt>
      <trkpt lat="45.18975" lon="5.73655">
        <ele>195</ele>
        <time>2016-08-20T10:53:20Z</time>
      </trkpt>
      <trkpt lat="45.18966" lon="5.73669">
        <ele>195</ele>
        <time>2016-08-20T10:53:26Z</time>
      </trkpt>
      <trkpt lat="45.18956" lon="5.73684">
        <ele>195</ele>
        <time>2016-08-20T10:53:31Z</time>
      </trkpt>
      <trkpt lat="45.18934" lon="5.73697">
        <ele>198</ele>
        <time>2016-08-20T10:53:38Z</time>
      </trkpt>
      <trkpt lat="45.1892" lon="5.73703">
        <ele>195</ele>
        <time>2016-08-20T10:53:41Z</time>
      </trkpt>
      <trkpt lat="45.18893" lon="5.73719">
        <ele>195</ele>
        <time>2016-08-20T10:53:50Z</time>
      </trkpt>
      <trkpt lat="45.18891" lon="5.7372">
        <ele>195</ele>
        <time>2016-08-20T10:53:51Z</time>
      </trkpt>
      <trkpt lat="45.18875" lon="5.73731">
        <ele>195</ele>
        <time>2016-08-20T10:54:00Z</time>
      </trkpt>
      <trkpt lat="45.18872" lon="5.73732">
        <ele>197</ele>
        <time>2016-08-20T10:54:02Z</time>
      </trkpt>
      <trkpt lat="45.18846" lon="5.73761">
        <ele>198</ele>
        <time>2016-08-20T10:54:10Z</time>
      </trkpt>
      <trkpt lat="45.18843" lon="5.73765">
        <ele>197</ele>
        <time>2016-08-20T10:54:11Z</time>
      </trkpt>
      <trkpt lat="45.18822" lon="5.73779">
        <ele>195</ele>
        <time>2016-08-20T10:54:19Z</time>
      </trkpt>
      <trkpt lat="45.1882" lon="5.73778">
        <ele>196</ele>
        <time>2016-08-20T10:54:20Z</time>
      </trkpt>
      <trkpt lat="45.18818" lon="5.73779">
        <ele>197</ele>
        <time>2016-08-20T10:54:21Z</time>
      </trkpt>
      <trkpt lat="45.18817" lon="5.7378">
        <ele>197</ele>
        <time>2016-08-20T10:54:22Z</time>
      </trkpt>
      <trkpt lat="45.18815" lon="5.7378">
        <ele>196</ele>
        <time>2016-08-20T10:54:23Z</time>
      </trkpt>
      <trkpt lat="45.18808" lon="5.73778">
        <ele>196</ele>
        <time>2016-08-20T10:54:29Z</time>
      </trkpt>
      <trkpt lat="45.18806" lon="5.73784">
        <ele>197</ele>
        <time>2016-08-20T10:54:30Z</time>
      </trkpt>
      <trkpt lat="45.18805" lon="5.73785">
        <ele>198</ele>
        <time>2016-08-20T10:54:31Z</time>
      </trkpt>
      <trkpt lat="45.18803" lon="5.7379">
        <ele>196</ele>
        <time>2016-08-20T10:54:32Z</time>
      </trkpt>
      <trkpt lat="45.18803" lon="5.73792">
        <ele>195</ele>
        <time>2016-08-20T10:54:33Z</time>
      </trkpt>
      <trkpt lat="45.18802" lon="5.73795">
        <ele>196</ele>
        <time>2016-08-20T10:54:34Z</time>
      </trkpt>
      <trkpt lat="45.18804" lon="5.73799">
        <ele>197</ele>
        <time>2016-08-20T10:54:35Z</time>
      </trkpt>
      <trkpt lat="45.18805" lon="5.73803">
        <ele>197</ele>
        <time>2016-08-20T10:54:36Z</time>
      </trkpt>
      <trkpt lat="45.18806" lon="5.73806">
        <ele>196</ele>
        <time>2016-08-20T10:54:37Z</time>
      </trkpt>
      <trkpt lat="45.18806" lon="5.7381">
        <ele>196</ele>
        <time>2016-08-20T10:54:38Z</time>
      </trkpt>
      <trkpt lat="45.18805" lon="5.73812">
        <ele>197</ele>
        <time>2016-08-20T10:54:39Z</time>
      </trkpt>
      <trkpt lat="45.18805" lon="5.73815">
        <ele>196</ele>
        <time>2016-08-20T10:54:40Z</time>
      </trkpt>
      <trkpt lat="45.18805" lon="5.73817">
        <ele>196</ele>
        <time>2016-08-20T10:54:41Z</time>
      </trkpt>
      <trkpt lat="45.18805" lon="5.73819">
        <ele>196</ele>
        <time>2016-08-20T10:54:42Z</time>
      </trkpt>
      <trkpt lat="45.18805" lon="5.73822">
        <ele>196</ele>
        <time>2016-08-20T10:54:44Z</time>
      </trkpt>
      <trkpt lat="45.18806" lon="5.73824">
        <ele>197</ele>
        <time>2016-08-20T10:54:45Z</time>
      </trkpt>
      <trkpt lat="45.18808" lon="5.7384">
        <ele>197</ele>
        <time>2016-08-20T10:54:54Z</time>
      </trkpt>
      <trkpt lat="45.18796" lon="5.73836">
        <ele>200</ele>
        <time>2016-08-20T10:55:11Z</time>
      </trkpt>
      <trkpt lat="45.18797" lon="5.73834">
        <ele>199</ele>
        <time>2016-08-20T10:55:14Z</time>
      </trkpt>
      <trkpt lat="45.18798" lon="5.73838">
        <ele>200</ele>
        <time>2016-08-20T10:55:17Z</time>
      </trkpt>
      <trkpt lat="45.18797" lon="5.7384">
        <ele>201</ele>
        <time>2016-08-20T10:55:18Z</time>
      </trkpt>
      <trkpt lat="45.18795" lon="5.73841">
        <ele>201</ele>
        <time>2016-08-20T10:55:19Z</time>
      </trkpt>
      <trkpt lat="45.18793" lon="5.73844">
        <ele>200</ele>
        <time>2016-08-20T10:55:20Z</time>
      </trkpt>
      <trkpt lat="45.1879" lon="5.73846">
        <ele>200</ele>
        <time>2016-08-20T10:55:21Z</time>
      </trkpt>
      <trkpt lat="45.18787" lon="5.73848">
        <ele>200</ele>
        <time>2016-08-20T10:55:22Z</time>
      </trkpt>
      <trkpt lat="45.18764" lon="5.73855">
        <ele>201</ele>
        <time>2016-08-20T10:55:28Z</time>
      </trkpt>
      <trkpt lat="45.18745" lon="5.73846">
        <ele>200</ele>
        <time>2016-08-20T10:55:35Z</time>
      </trkpt>
      <trkpt lat="45.1873" lon="5.73831">
        <ele>201</ele>
        <time>2016-08-20T10:55:42Z</time>
      </trkpt>
      <trkpt lat="45.18717" lon="5.73806">
        <ele>197</ele>
        <time>2016-08-20T10:55:52Z</time>
      </trkpt>
      <trkpt lat="45.18709" lon="5.73784">
        <ele>196</ele>
        <time>2016-08-20T10:55:57Z</time>
      </trkpt>
      <trkpt lat="45.18707" lon="5.73776">
        <ele>200</ele>
        <time>2016-08-20T10:55:59Z</time>
      </trkpt>
      <trkpt lat="45.18695" lon="5.73766">
        <ele>197</ele>
        <time>2016-08-20T10:56:05Z</time>
      </trkpt>
      <trkpt lat="45.18672" lon="5.73759">
        <ele>199</ele>
        <time>2016-08-20T10:56:15Z</time>
      </trkpt>
      <trkpt lat="45.18652" lon="5.7377">
        <ele>198</ele>
        <time>2016-08-20T10:56:23Z</time>
      </trkpt>
      <trkpt lat="45.18646" lon="5.73773">
        <ele>196</ele>
        <time>2016-08-20T10:56:25Z</time>
      </trkpt>
      <trkpt lat="45.18641" lon="5.73775">
        <ele>201</ele>
        <time>2016-08-20T10:56:27Z</time>
      </trkpt>
      <trkpt lat="45.18636" lon="5.73782">
        <ele>197</ele>
        <time>2016-08-20T10:56:30Z</time>
      </trkpt>
      <trkpt lat="45.18631" lon="5.73787">
        <ele>196</ele>
        <time>2016-08-20T10:56:32Z</time>
      </trkpt>
      <trkpt lat="45.18624" lon="5.73792">
        <ele>199</ele>
        <time>2016-08-20T10:56:35Z</time>
      </trkpt>
      <trkpt lat="45.18604" lon="5.73801">
        <ele>197</ele>
        <time>2016-08-20T10:56:42Z</time>
      </trkpt>
      <trkpt lat="45.18581" lon="5.73801">
        <ele>198</ele>
        <time>2016-08-20T10:56:51Z</time>
      </trkpt>
      <trkpt lat="45.18565" lon="5.73799">
        <ele>200</ele>
        <time>2016-08-20T10:56:58Z</time>
      </trkpt>
      <trkpt lat="45.18544" lon="5.738">
        <ele>200</ele>
        <time>2016-08-20T10:57:07Z</time>
      </trkpt>
      <trkpt lat="45.18541" lon="5.73803">
        <ele>200</ele>
        <time>2016-08-20T10:57:08Z</time>
      </trkpt>
      <trkpt lat="45.18531" lon="5.73826">
        <ele>199</ele>
        <time>2016-08-20T10:57:17Z</time>
      </trkpt>
      <trkpt lat="45.1853" lon="5.73833">
        <ele>199</ele>
        <time>2016-08-20T10:57:19Z</time>
      </trkpt>
      <trkpt lat="45.18528" lon="5.73843">
        <ele>198</ele>
        <time>2016-08-20T10:57:23Z</time>
      </trkpt>
      <trkpt lat="45.18529" lon="5.73845">
        <ele>200</ele>
        <time>2016-08-20T10:57:24Z</time>
      </trkpt>
      <trkpt lat="45.18529" lon="5.73861">
        <ele>198</ele>
        <time>2016-08-20T10:57:27Z</time>
      </trkpt>
      <trkpt lat="45.18531" lon="5.7387">
        <ele>200</ele>
        <time>2016-08-20T10:57:30Z</time>
      </trkpt>
      <trkpt lat="45.18533" lon="5.73888">
        <ele>200</ele>
        <time>2016-08-20T10:57:35Z</time>
      </trkpt>
      <trkpt lat="45.18533" lon="5.73908">
        <ele>199</ele>
        <time>2016-08-20T10:57:42Z</time>
      </trkpt>
      <trkpt lat="45.18531" lon="5.73913">
        <ele>200</ele>
        <time>2016-08-20T10:57:44Z</time>
      </trkpt>
      <trkpt lat="45.18523" lon="5.73925">
        <ele>200</ele>
        <time>2016-08-20T10:57:48Z</time>
      </trkpt>
      <trkpt lat="45.18509" lon="5.73944">
        <ele>201</ele>
        <time>2016-08-20T10:57:53Z</time>
      </trkpt>
      <trkpt lat="45.18497" lon="5.73951">
        <ele>200</ele>
        <time>2016-08-20T10:57:57Z</time>
      </trkpt>
    </trkseg>
  </trk>
</gpx>